<?xml version="1.0" encoding="UTF-8" standalone="no" ?>
<gpx xmlns="http://www.topografix.com/GPX/1/1" xmlns:xsi="http://www.w3.org/2001/XMLSchema-instance" xsi:schemaLocation="http://www.topografix.com/GPX/1/1 http://www.topografix.com/GPX/1/1/gpx.xsd" version="1.1" creator="VisuGPX - https://www.visugpx.com">
  <metadata>
    <name>Pointe d'Emy</name>
  </metadata>
  <trk>
    <name><![CDATA[Pointe d'Emy]]></name>
    <trkseg>
      <trkpt lat="45.2073" lon="6.42053">
        <ele>1619.1999511719</ele>
        <time>2022-12-17T08:55:49.000Z</time>
      </trkpt>
      <trkpt lat="45.20734" lon="6.42051">
        <ele>1619.1999511719</ele>
        <time>2022-12-17T08:55:56.000Z</time>
      </trkpt>
      <trkpt lat="45.20734" lon="6.42051">
        <ele>1619.1999511719</ele>
        <time>2022-12-17T08:55:57.000Z</time>
      </trkpt>
      <trkpt lat="45.20735" lon="6.4205">
        <ele>1618.5999755859</ele>
        <time>2022-12-17T08:56:02.000Z</time>
      </trkpt>
      <trkpt lat="45.20736" lon="6.42049">
        <ele>1618.5999755859</ele>
        <time>2022-12-17T08:56:04.000Z</time>
      </trkpt>
      <trkpt lat="45.20736" lon="6.4205">
        <ele>1618.5999755859</ele>
        <time>2022-12-17T08:56:10.000Z</time>
      </trkpt>
      <trkpt lat="45.20736" lon="6.42051">
        <ele>1618.5999755859</ele>
        <time>2022-12-17T08:56:14.000Z</time>
      </trkpt>
      <trkpt lat="45.20736" lon="6.42051">
        <ele>1618.5999755859</ele>
        <time>2022-12-17T08:56:18.000Z</time>
      </trkpt>
      <trkpt lat="45.20736" lon="6.42051">
        <ele>1618.5999755859</ele>
        <time>2022-12-17T08:56:21.000Z</time>
      </trkpt>
      <trkpt lat="45.20736" lon="6.4205">
        <ele>1618.5999755859</ele>
        <time>2022-12-17T08:56:29.000Z</time>
      </trkpt>
      <trkpt lat="45.20737" lon="6.42049">
        <ele>1618.5999755859</ele>
        <time>2022-12-17T08:56:39.000Z</time>
      </trkpt>
      <trkpt lat="45.20737" lon="6.42049">
        <ele>1618.5999755859</ele>
        <time>2022-12-17T08:56:43.000Z</time>
      </trkpt>
      <trkpt lat="45.20737" lon="6.42049">
        <ele>1618.5999755859</ele>
        <time>2022-12-17T08:56:45.000Z</time>
      </trkpt>
      <trkpt lat="45.20737" lon="6.42053">
        <ele>1618.5999755859</ele>
        <time>2022-12-17T08:57:19.000Z</time>
      </trkpt>
      <trkpt lat="45.20737" lon="6.42054">
        <ele>1618.5999755859</ele>
        <time>2022-12-17T08:57:23.000Z</time>
      </trkpt>
      <trkpt lat="45.20738" lon="6.42051">
        <ele>1618.5999755859</ele>
        <time>2022-12-17T08:58:18.000Z</time>
      </trkpt>
      <trkpt lat="45.20744" lon="6.42046">
        <ele>1618.5999755859</ele>
        <time>2022-12-17T08:58:22.000Z</time>
      </trkpt>
      <trkpt lat="45.20755" lon="6.42045">
        <ele>1619</ele>
        <time>2022-12-17T08:58:30.000Z</time>
      </trkpt>
      <trkpt lat="45.2076" lon="6.42045">
        <ele>1619.1999511719</ele>
        <time>2022-12-17T08:58:36.000Z</time>
      </trkpt>
      <trkpt lat="45.20763" lon="6.42045">
        <ele>1619.1999511719</ele>
        <time>2022-12-17T08:58:39.000Z</time>
      </trkpt>
      <trkpt lat="45.20769" lon="6.42047">
        <ele>1619.5999755859</ele>
        <time>2022-12-17T08:58:48.000Z</time>
      </trkpt>
      <trkpt lat="45.20768" lon="6.42047">
        <ele>1619.5999755859</ele>
        <time>2022-12-17T08:58:49.000Z</time>
      </trkpt>
      <trkpt lat="45.20765" lon="6.42047">
        <ele>1619.1999511719</ele>
        <time>2022-12-17T08:58:54.000Z</time>
      </trkpt>
      <trkpt lat="45.20763" lon="6.42047">
        <ele>1619.1999511719</ele>
        <time>2022-12-17T08:58:56.000Z</time>
      </trkpt>
      <trkpt lat="45.20759" lon="6.42047">
        <ele>1619.4000244141</ele>
        <time>2022-12-17T08:58:59.000Z</time>
      </trkpt>
      <trkpt lat="45.20754" lon="6.42047">
        <ele>1619</ele>
        <time>2022-12-17T08:59:03.000Z</time>
      </trkpt>
      <trkpt lat="45.20745" lon="6.42048">
        <ele>1618.5999755859</ele>
        <time>2022-12-17T08:59:09.000Z</time>
      </trkpt>
      <trkpt lat="45.20744" lon="6.42049">
        <ele>1618.5999755859</ele>
        <time>2022-12-17T08:59:10.000Z</time>
      </trkpt>
      <trkpt lat="45.20742" lon="6.42049">
        <ele>1618.5999755859</ele>
        <time>2022-12-17T08:59:12.000Z</time>
      </trkpt>
      <trkpt lat="45.20735" lon="6.42042">
        <ele>1618.5999755859</ele>
        <time>2022-12-17T08:59:19.000Z</time>
      </trkpt>
      <trkpt lat="45.20732" lon="6.4204">
        <ele>1618.8000488281</ele>
        <time>2022-12-17T08:59:22.000Z</time>
      </trkpt>
      <trkpt lat="45.20731" lon="6.42039">
        <ele>1618.8000488281</ele>
        <time>2022-12-17T08:59:23.000Z</time>
      </trkpt>
      <trkpt lat="45.2073" lon="6.42038">
        <ele>1619</ele>
        <time>2022-12-17T08:59:24.000Z</time>
      </trkpt>
      <trkpt lat="45.20728" lon="6.42035">
        <ele>1619.1999511719</ele>
        <time>2022-12-17T08:59:27.000Z</time>
      </trkpt>
      <trkpt lat="45.20724" lon="6.42031">
        <ele>1619.5999755859</ele>
        <time>2022-12-17T08:59:31.000Z</time>
      </trkpt>
      <trkpt lat="45.20719" lon="6.42022">
        <ele>1620.5999755859</ele>
        <time>2022-12-17T08:59:39.000Z</time>
      </trkpt>
      <trkpt lat="45.20714" lon="6.42015">
        <ele>1621.1999511719</ele>
        <time>2022-12-17T08:59:45.000Z</time>
      </trkpt>
      <trkpt lat="45.20713" lon="6.42015">
        <ele>1621.4000244141</ele>
        <time>2022-12-17T08:59:46.000Z</time>
      </trkpt>
      <trkpt lat="45.20712" lon="6.42014">
        <ele>1621.4000244141</ele>
        <time>2022-12-17T08:59:47.000Z</time>
      </trkpt>
      <trkpt lat="45.20708" lon="6.4201">
        <ele>1621.5999755859</ele>
        <time>2022-12-17T08:59:51.000Z</time>
      </trkpt>
      <trkpt lat="45.20702" lon="6.42003">
        <ele>1622</ele>
        <time>2022-12-17T08:59:58.000Z</time>
      </trkpt>
      <trkpt lat="45.20698" lon="6.41999">
        <ele>1622.1999511719</ele>
        <time>2022-12-17T09:00:02.000Z</time>
      </trkpt>
      <trkpt lat="45.20693" lon="6.41995">
        <ele>1622.1999511719</ele>
        <time>2022-12-17T09:00:07.000Z</time>
      </trkpt>
      <trkpt lat="45.20691" lon="6.41992">
        <ele>1622.4000244141</ele>
        <time>2022-12-17T09:00:09.000Z</time>
      </trkpt>
      <trkpt lat="45.2069" lon="6.41989">
        <ele>1622.4000244141</ele>
        <time>2022-12-17T09:00:11.000Z</time>
      </trkpt>
      <trkpt lat="45.20685" lon="6.41984">
        <ele>1622.4000244141</ele>
        <time>2022-12-17T09:00:16.000Z</time>
      </trkpt>
      <trkpt lat="45.20678" lon="6.41976">
        <ele>1622.4000244141</ele>
        <time>2022-12-17T09:00:24.000Z</time>
      </trkpt>
      <trkpt lat="45.20674" lon="6.41971">
        <ele>1622.5999755859</ele>
        <time>2022-12-17T09:00:28.000Z</time>
      </trkpt>
      <trkpt lat="45.20673" lon="6.4197">
        <ele>1622.8000488281</ele>
        <time>2022-12-17T09:00:29.000Z</time>
      </trkpt>
      <trkpt lat="45.20669" lon="6.41967">
        <ele>1623</ele>
        <time>2022-12-17T09:00:32.000Z</time>
      </trkpt>
      <trkpt lat="45.20665" lon="6.41961">
        <ele>1623.1999511719</ele>
        <time>2022-12-17T09:00:37.000Z</time>
      </trkpt>
      <trkpt lat="45.20663" lon="6.41957">
        <ele>1623.1999511719</ele>
        <time>2022-12-17T09:00:40.000Z</time>
      </trkpt>
      <trkpt lat="45.20662" lon="6.41954">
        <ele>1623.4000244141</ele>
        <time>2022-12-17T09:00:43.000Z</time>
      </trkpt>
      <trkpt lat="45.20657" lon="6.41946">
        <ele>1623.5999755859</ele>
        <time>2022-12-17T09:00:53.000Z</time>
      </trkpt>
      <trkpt lat="45.20658" lon="6.41946">
        <ele>1623.8000488281</ele>
        <time>2022-12-17T09:00:57.000Z</time>
      </trkpt>
      <trkpt lat="45.20658" lon="6.41945">
        <ele>1623.8000488281</ele>
        <time>2022-12-17T09:00:59.000Z</time>
      </trkpt>
      <trkpt lat="45.20659" lon="6.41944">
        <ele>1623.4000244141</ele>
        <time>2022-12-17T09:01:04.000Z</time>
      </trkpt>
      <trkpt lat="45.20659" lon="6.41944">
        <ele>1623</ele>
        <time>2022-12-17T09:01:08.000Z</time>
      </trkpt>
      <trkpt lat="45.20659" lon="6.41944">
        <ele>1623.4000244141</ele>
        <time>2022-12-17T09:01:12.000Z</time>
      </trkpt>
      <trkpt lat="45.20659" lon="6.41944">
        <ele>1624</ele>
        <time>2022-12-17T09:01:16.000Z</time>
      </trkpt>
      <trkpt lat="45.20659" lon="6.41944">
        <ele>1622.8000488281</ele>
        <time>2022-12-17T09:01:35.000Z</time>
      </trkpt>
      <trkpt lat="45.20661" lon="6.41944">
        <ele>1623.4000244141</ele>
        <time>2022-12-17T09:02:01.000Z</time>
      </trkpt>
      <trkpt lat="45.20661" lon="6.41944">
        <ele>1623.4000244141</ele>
        <time>2022-12-17T09:02:04.000Z</time>
      </trkpt>
      <trkpt lat="45.20661" lon="6.41942">
        <ele>1623.4000244141</ele>
        <time>2022-12-17T09:02:15.000Z</time>
      </trkpt>
      <trkpt lat="45.20662" lon="6.41938">
        <ele>1623.4000244141</ele>
        <time>2022-12-17T09:02:20.000Z</time>
      </trkpt>
      <trkpt lat="45.20663" lon="6.41936">
        <ele>1623.4000244141</ele>
        <time>2022-12-17T09:02:22.000Z</time>
      </trkpt>
      <trkpt lat="45.20664" lon="6.41933">
        <ele>1623.4000244141</ele>
        <time>2022-12-17T09:02:24.000Z</time>
      </trkpt>
      <trkpt lat="45.20665" lon="6.4193">
        <ele>1623.4000244141</ele>
        <time>2022-12-17T09:02:28.000Z</time>
      </trkpt>
      <trkpt lat="45.20666" lon="6.41927">
        <ele>1625</ele>
        <time>2022-12-17T09:02:30.000Z</time>
      </trkpt>
      <trkpt lat="45.20667" lon="6.41925">
        <ele>1625.5999755859</ele>
        <time>2022-12-17T09:02:32.000Z</time>
      </trkpt>
      <trkpt lat="45.20668" lon="6.41924">
        <ele>1625.8000488281</ele>
        <time>2022-12-17T09:02:33.000Z</time>
      </trkpt>
      <trkpt lat="45.20668" lon="6.41924">
        <ele>1626.1999511719</ele>
        <time>2022-12-17T09:02:34.000Z</time>
      </trkpt>
      <trkpt lat="45.20669" lon="6.41921">
        <ele>1626.8000488281</ele>
        <time>2022-12-17T09:02:37.000Z</time>
      </trkpt>
      <trkpt lat="45.20671" lon="6.4192">
        <ele>1627.1999511719</ele>
        <time>2022-12-17T09:02:38.000Z</time>
      </trkpt>
      <trkpt lat="45.20671" lon="6.4192">
        <ele>1627.4000244141</ele>
        <time>2022-12-17T09:02:39.000Z</time>
      </trkpt>
      <trkpt lat="45.20672" lon="6.41918">
        <ele>1628.1999511719</ele>
        <time>2022-12-17T09:02:43.000Z</time>
      </trkpt>
      <trkpt lat="45.20671" lon="6.41918">
        <ele>1628.4000244141</ele>
        <time>2022-12-17T09:02:44.000Z</time>
      </trkpt>
      <trkpt lat="45.20668" lon="6.41914">
        <ele>1629.1999511719</ele>
        <time>2022-12-17T09:02:49.000Z</time>
      </trkpt>
      <trkpt lat="45.2067" lon="6.41912">
        <ele>1629.5999755859</ele>
        <time>2022-12-17T09:02:51.000Z</time>
      </trkpt>
      <trkpt lat="45.2067" lon="6.41908">
        <ele>1629.8000488281</ele>
        <time>2022-12-17T09:02:53.000Z</time>
      </trkpt>
      <trkpt lat="45.20671" lon="6.41903">
        <ele>1630.4000244141</ele>
        <time>2022-12-17T09:02:57.000Z</time>
      </trkpt>
      <trkpt lat="45.20673" lon="6.41894">
        <ele>1631.1999511719</ele>
        <time>2022-12-17T09:03:04.000Z</time>
      </trkpt>
      <trkpt lat="45.20674" lon="6.41891">
        <ele>1631.5999755859</ele>
        <time>2022-12-17T09:03:06.000Z</time>
      </trkpt>
      <trkpt lat="45.20674" lon="6.41884">
        <ele>1632.8000488281</ele>
        <time>2022-12-17T09:03:11.000Z</time>
      </trkpt>
      <trkpt lat="45.20675" lon="6.4188">
        <ele>1633.1999511719</ele>
        <time>2022-12-17T09:03:14.000Z</time>
      </trkpt>
      <trkpt lat="45.20675" lon="6.41875">
        <ele>1633.8000488281</ele>
        <time>2022-12-17T09:03:18.000Z</time>
      </trkpt>
      <trkpt lat="45.20673" lon="6.4187">
        <ele>1634.8000488281</ele>
        <time>2022-12-17T09:03:22.000Z</time>
      </trkpt>
      <trkpt lat="45.20674" lon="6.41868">
        <ele>1635</ele>
        <time>2022-12-17T09:03:23.000Z</time>
      </trkpt>
      <trkpt lat="45.20674" lon="6.41864">
        <ele>1636.1999511719</ele>
        <time>2022-12-17T09:03:27.000Z</time>
      </trkpt>
      <trkpt lat="45.20674" lon="6.41862">
        <ele>1636.1999511719</ele>
        <time>2022-12-17T09:03:28.000Z</time>
      </trkpt>
      <trkpt lat="45.20673" lon="6.4186">
        <ele>1636.5999755859</ele>
        <time>2022-12-17T09:03:31.000Z</time>
      </trkpt>
      <trkpt lat="45.20674" lon="6.41858">
        <ele>1636.8000488281</ele>
        <time>2022-12-17T09:03:37.000Z</time>
      </trkpt>
      <trkpt lat="45.20673" lon="6.41855">
        <ele>1637.1999511719</ele>
        <time>2022-12-17T09:03:43.000Z</time>
      </trkpt>
      <trkpt lat="45.20672" lon="6.41855">
        <ele>1637.1999511719</ele>
        <time>2022-12-17T09:03:46.000Z</time>
      </trkpt>
      <trkpt lat="45.20672" lon="6.41855">
        <ele>1637.1999511719</ele>
        <time>2022-12-17T09:03:54.000Z</time>
      </trkpt>
      <trkpt lat="45.20673" lon="6.41855">
        <ele>1637.4000244141</ele>
        <time>2022-12-17T09:04:07.000Z</time>
      </trkpt>
      <trkpt lat="45.20674" lon="6.41854">
        <ele>1637.4000244141</ele>
        <time>2022-12-17T09:04:17.000Z</time>
      </trkpt>
      <trkpt lat="45.20674" lon="6.41854">
        <ele>1637.4000244141</ele>
        <time>2022-12-17T09:04:23.000Z</time>
      </trkpt>
      <trkpt lat="45.20671" lon="6.41849">
        <ele>1638.1999511719</ele>
        <time>2022-12-17T09:04:31.000Z</time>
      </trkpt>
      <trkpt lat="45.20669" lon="6.41846">
        <ele>1638.8000488281</ele>
        <time>2022-12-17T09:04:33.000Z</time>
      </trkpt>
      <trkpt lat="45.20668" lon="6.41844">
        <ele>1639</ele>
        <time>2022-12-17T09:04:34.000Z</time>
      </trkpt>
      <trkpt lat="45.20667" lon="6.41841">
        <ele>1639.1999511719</ele>
        <time>2022-12-17T09:04:36.000Z</time>
      </trkpt>
      <trkpt lat="45.20666" lon="6.4184">
        <ele>1639.4000244141</ele>
        <time>2022-12-17T09:04:37.000Z</time>
      </trkpt>
      <trkpt lat="45.20664" lon="6.41835">
        <ele>1640.5999755859</ele>
        <time>2022-12-17T09:04:42.000Z</time>
      </trkpt>
      <trkpt lat="45.20662" lon="6.41828">
        <ele>1641.8000488281</ele>
        <time>2022-12-17T09:04:48.000Z</time>
      </trkpt>
      <trkpt lat="45.20661" lon="6.41825">
        <ele>1642.1999511719</ele>
        <time>2022-12-17T09:04:50.000Z</time>
      </trkpt>
      <trkpt lat="45.20659" lon="6.41822">
        <ele>1643</ele>
        <time>2022-12-17T09:04:54.000Z</time>
      </trkpt>
      <trkpt lat="45.20657" lon="6.41816">
        <ele>1643.8000488281</ele>
        <time>2022-12-17T09:05:00.000Z</time>
      </trkpt>
      <trkpt lat="45.20657" lon="6.41816">
        <ele>1644</ele>
        <time>2022-12-17T09:05:01.000Z</time>
      </trkpt>
      <trkpt lat="45.20655" lon="6.41814">
        <ele>1645.1999511719</ele>
        <time>2022-12-17T09:05:06.000Z</time>
      </trkpt>
      <trkpt lat="45.20653" lon="6.4181">
        <ele>1646</ele>
        <time>2022-12-17T09:05:11.000Z</time>
      </trkpt>
      <trkpt lat="45.20653" lon="6.41809">
        <ele>1646.1999511719</ele>
        <time>2022-12-17T09:05:12.000Z</time>
      </trkpt>
      <trkpt lat="45.2065" lon="6.41803">
        <ele>1647.4000244141</ele>
        <time>2022-12-17T09:05:19.000Z</time>
      </trkpt>
      <trkpt lat="45.20647" lon="6.41799">
        <ele>1648</ele>
        <time>2022-12-17T09:05:24.000Z</time>
      </trkpt>
      <trkpt lat="45.20646" lon="6.41796">
        <ele>1648.5999755859</ele>
        <time>2022-12-17T09:05:27.000Z</time>
      </trkpt>
      <trkpt lat="45.20643" lon="6.41789">
        <ele>1649.8000488281</ele>
        <time>2022-12-17T09:05:33.000Z</time>
      </trkpt>
      <trkpt lat="45.20642" lon="6.41786">
        <ele>1650.1999511719</ele>
        <time>2022-12-17T09:05:36.000Z</time>
      </trkpt>
      <trkpt lat="45.2064" lon="6.41782">
        <ele>1650.8000488281</ele>
        <time>2022-12-17T09:05:40.000Z</time>
      </trkpt>
      <trkpt lat="45.20638" lon="6.41779">
        <ele>1651.8000488281</ele>
        <time>2022-12-17T09:05:44.000Z</time>
      </trkpt>
      <trkpt lat="45.20638" lon="6.41776">
        <ele>1652.8000488281</ele>
        <time>2022-12-17T09:05:48.000Z</time>
      </trkpt>
      <trkpt lat="45.20639" lon="6.41775">
        <ele>1653</ele>
        <time>2022-12-17T09:05:49.000Z</time>
      </trkpt>
      <trkpt lat="45.2064" lon="6.41774">
        <ele>1653.1999511719</ele>
        <time>2022-12-17T09:05:51.000Z</time>
      </trkpt>
      <trkpt lat="45.20642" lon="6.41772">
        <ele>1654.1999511719</ele>
        <time>2022-12-17T09:05:55.000Z</time>
      </trkpt>
      <trkpt lat="45.20645" lon="6.4177">
        <ele>1655.1999511719</ele>
        <time>2022-12-17T09:06:00.000Z</time>
      </trkpt>
      <trkpt lat="45.20646" lon="6.41769">
        <ele>1655.8000488281</ele>
        <time>2022-12-17T09:06:01.000Z</time>
      </trkpt>
      <trkpt lat="45.20647" lon="6.41767">
        <ele>1656.4000244141</ele>
        <time>2022-12-17T09:06:04.000Z</time>
      </trkpt>
      <trkpt lat="45.20646" lon="6.41764">
        <ele>1656.8000488281</ele>
        <time>2022-12-17T09:06:07.000Z</time>
      </trkpt>
      <trkpt lat="45.20646" lon="6.41764">
        <ele>1657</ele>
        <time>2022-12-17T09:06:08.000Z</time>
      </trkpt>
      <trkpt lat="45.20645" lon="6.41763">
        <ele>1657.1999511719</ele>
        <time>2022-12-17T09:06:09.000Z</time>
      </trkpt>
      <trkpt lat="45.20645" lon="6.41761">
        <ele>1657.4000244141</ele>
        <time>2022-12-17T09:06:11.000Z</time>
      </trkpt>
      <trkpt lat="45.20644" lon="6.4176">
        <ele>1657.8000488281</ele>
        <time>2022-12-17T09:06:13.000Z</time>
      </trkpt>
      <trkpt lat="45.20643" lon="6.41756">
        <ele>1658.4000244141</ele>
        <time>2022-12-17T09:06:16.000Z</time>
      </trkpt>
      <trkpt lat="45.20642" lon="6.41753">
        <ele>1659.4000244141</ele>
        <time>2022-12-17T09:06:20.000Z</time>
      </trkpt>
      <trkpt lat="45.2064" lon="6.41749">
        <ele>1660.5999755859</ele>
        <time>2022-12-17T09:06:25.000Z</time>
      </trkpt>
      <trkpt lat="45.20639" lon="6.41748">
        <ele>1661</ele>
        <time>2022-12-17T09:06:27.000Z</time>
      </trkpt>
      <trkpt lat="45.20638" lon="6.41746">
        <ele>1661.8000488281</ele>
        <time>2022-12-17T09:06:32.000Z</time>
      </trkpt>
      <trkpt lat="45.20634" lon="6.41742">
        <ele>1662.5999755859</ele>
        <time>2022-12-17T09:06:38.000Z</time>
      </trkpt>
      <trkpt lat="45.20634" lon="6.41742">
        <ele>1663</ele>
        <time>2022-12-17T09:06:39.000Z</time>
      </trkpt>
      <trkpt lat="45.20631" lon="6.41739">
        <ele>1664</ele>
        <time>2022-12-17T09:06:44.000Z</time>
      </trkpt>
      <trkpt lat="45.20631" lon="6.41738">
        <ele>1664.5999755859</ele>
        <time>2022-12-17T09:06:46.000Z</time>
      </trkpt>
      <trkpt lat="45.20629" lon="6.41737">
        <ele>1665.1999511719</ele>
        <time>2022-12-17T09:06:49.000Z</time>
      </trkpt>
      <trkpt lat="45.20628" lon="6.41735">
        <ele>1666.1999511719</ele>
        <time>2022-12-17T09:06:53.000Z</time>
      </trkpt>
      <trkpt lat="45.20626" lon="6.41733">
        <ele>1666.4000244141</ele>
        <time>2022-12-17T09:06:56.000Z</time>
      </trkpt>
      <trkpt lat="45.20625" lon="6.41733">
        <ele>1666.8000488281</ele>
        <time>2022-12-17T09:06:57.000Z</time>
      </trkpt>
      <trkpt lat="45.20623" lon="6.41733">
        <ele>1667.4000244141</ele>
        <time>2022-12-17T09:07:00.000Z</time>
      </trkpt>
      <trkpt lat="45.20623" lon="6.41732">
        <ele>1667.5999755859</ele>
        <time>2022-12-17T09:07:01.000Z</time>
      </trkpt>
      <trkpt lat="45.20618" lon="6.41733">
        <ele>1668.4000244141</ele>
        <time>2022-12-17T09:07:06.000Z</time>
      </trkpt>
      <trkpt lat="45.20617" lon="6.41731">
        <ele>1668.8000488281</ele>
        <time>2022-12-17T09:07:08.000Z</time>
      </trkpt>
      <trkpt lat="45.20616" lon="6.41728">
        <ele>1669.5999755859</ele>
        <time>2022-12-17T09:07:11.000Z</time>
      </trkpt>
      <trkpt lat="45.20613" lon="6.41725">
        <ele>1670.4000244141</ele>
        <time>2022-12-17T09:07:15.000Z</time>
      </trkpt>
      <trkpt lat="45.20613" lon="6.41724">
        <ele>1670.8000488281</ele>
        <time>2022-12-17T09:07:17.000Z</time>
      </trkpt>
      <trkpt lat="45.20612" lon="6.4172">
        <ele>1671.1999511719</ele>
        <time>2022-12-17T09:07:21.000Z</time>
      </trkpt>
      <trkpt lat="45.20611" lon="6.41717">
        <ele>1671.8000488281</ele>
        <time>2022-12-17T09:07:23.000Z</time>
      </trkpt>
      <trkpt lat="45.2061" lon="6.41712">
        <ele>1673</ele>
        <time>2022-12-17T09:07:28.000Z</time>
      </trkpt>
      <trkpt lat="45.20609" lon="6.41706">
        <ele>1674</ele>
        <time>2022-12-17T09:07:34.000Z</time>
      </trkpt>
      <trkpt lat="45.20608" lon="6.41703">
        <ele>1674.4000244141</ele>
        <time>2022-12-17T09:07:37.000Z</time>
      </trkpt>
      <trkpt lat="45.20607" lon="6.417">
        <ele>1675.4000244141</ele>
        <time>2022-12-17T09:07:41.000Z</time>
      </trkpt>
      <trkpt lat="45.20607" lon="6.41699">
        <ele>1675.5999755859</ele>
        <time>2022-12-17T09:07:42.000Z</time>
      </trkpt>
      <trkpt lat="45.20607" lon="6.41698">
        <ele>1675.8000488281</ele>
        <time>2022-12-17T09:07:43.000Z</time>
      </trkpt>
      <trkpt lat="45.20606" lon="6.41695">
        <ele>1676.4000244141</ele>
        <time>2022-12-17T09:07:47.000Z</time>
      </trkpt>
      <trkpt lat="45.20606" lon="6.41692">
        <ele>1676.8000488281</ele>
        <time>2022-12-17T09:07:49.000Z</time>
      </trkpt>
      <trkpt lat="45.20606" lon="6.41691">
        <ele>1677</ele>
        <time>2022-12-17T09:07:50.000Z</time>
      </trkpt>
      <trkpt lat="45.20606" lon="6.4169">
        <ele>1677.4000244141</ele>
        <time>2022-12-17T09:07:52.000Z</time>
      </trkpt>
      <trkpt lat="45.20605" lon="6.41687">
        <ele>1678</ele>
        <time>2022-12-17T09:07:55.000Z</time>
      </trkpt>
      <trkpt lat="45.20605" lon="6.41685">
        <ele>1678.5999755859</ele>
        <time>2022-12-17T09:07:57.000Z</time>
      </trkpt>
      <trkpt lat="45.20602" lon="6.41679">
        <ele>1679.5999755859</ele>
        <time>2022-12-17T09:08:04.000Z</time>
      </trkpt>
      <trkpt lat="45.20602" lon="6.41678">
        <ele>1679.8000488281</ele>
        <time>2022-12-17T09:08:05.000Z</time>
      </trkpt>
      <trkpt lat="45.20601" lon="6.41674">
        <ele>1680.8000488281</ele>
        <time>2022-12-17T09:08:09.000Z</time>
      </trkpt>
      <trkpt lat="45.206" lon="6.41669">
        <ele>1681.8000488281</ele>
        <time>2022-12-17T09:08:14.000Z</time>
      </trkpt>
      <trkpt lat="45.20598" lon="6.41663">
        <ele>1682.8000488281</ele>
        <time>2022-12-17T09:08:21.000Z</time>
      </trkpt>
      <trkpt lat="45.20598" lon="6.41661">
        <ele>1683.5999755859</ele>
        <time>2022-12-17T09:08:24.000Z</time>
      </trkpt>
      <trkpt lat="45.20598" lon="6.41658">
        <ele>1684</ele>
        <time>2022-12-17T09:08:26.000Z</time>
      </trkpt>
      <trkpt lat="45.20597" lon="6.41654">
        <ele>1684.8000488281</ele>
        <time>2022-12-17T09:08:31.000Z</time>
      </trkpt>
      <trkpt lat="45.20597" lon="6.41653">
        <ele>1684.8000488281</ele>
        <time>2022-12-17T09:08:32.000Z</time>
      </trkpt>
      <trkpt lat="45.20597" lon="6.41651">
        <ele>1685.1999511719</ele>
        <time>2022-12-17T09:08:34.000Z</time>
      </trkpt>
      <trkpt lat="45.20596" lon="6.41648">
        <ele>1685.5999755859</ele>
        <time>2022-12-17T09:08:37.000Z</time>
      </trkpt>
      <trkpt lat="45.20595" lon="6.41644">
        <ele>1686.1999511719</ele>
        <time>2022-12-17T09:08:41.000Z</time>
      </trkpt>
      <trkpt lat="45.20595" lon="6.41643">
        <ele>1686.4000244141</ele>
        <time>2022-12-17T09:08:43.000Z</time>
      </trkpt>
      <trkpt lat="45.20594" lon="6.41639">
        <ele>1687.1999511719</ele>
        <time>2022-12-17T09:08:47.000Z</time>
      </trkpt>
      <trkpt lat="45.20594" lon="6.41637">
        <ele>1687.8000488281</ele>
        <time>2022-12-17T09:08:50.000Z</time>
      </trkpt>
      <trkpt lat="45.20593" lon="6.41633">
        <ele>1688.4000244141</ele>
        <time>2022-12-17T09:08:54.000Z</time>
      </trkpt>
      <trkpt lat="45.20592" lon="6.4163">
        <ele>1689.1999511719</ele>
        <time>2022-12-17T09:08:58.000Z</time>
      </trkpt>
      <trkpt lat="45.20591" lon="6.41627">
        <ele>1689.4000244141</ele>
        <time>2022-12-17T09:09:00.000Z</time>
      </trkpt>
      <trkpt lat="45.2059" lon="6.41621">
        <ele>1690.4000244141</ele>
        <time>2022-12-17T09:09:06.000Z</time>
      </trkpt>
      <trkpt lat="45.20589" lon="6.41616">
        <ele>1691.4000244141</ele>
        <time>2022-12-17T09:09:11.000Z</time>
      </trkpt>
      <trkpt lat="45.20589" lon="6.41615">
        <ele>1691.5999755859</ele>
        <time>2022-12-17T09:09:12.000Z</time>
      </trkpt>
      <trkpt lat="45.20588" lon="6.41606">
        <ele>1692.8000488281</ele>
        <time>2022-12-17T09:09:20.000Z</time>
      </trkpt>
      <trkpt lat="45.20588" lon="6.41604">
        <ele>1693</ele>
        <time>2022-12-17T09:09:22.000Z</time>
      </trkpt>
      <trkpt lat="45.20587" lon="6.41601">
        <ele>1693.8000488281</ele>
        <time>2022-12-17T09:09:26.000Z</time>
      </trkpt>
      <trkpt lat="45.20587" lon="6.41597">
        <ele>1694.1999511719</ele>
        <time>2022-12-17T09:09:29.000Z</time>
      </trkpt>
      <trkpt lat="45.20587" lon="6.41594">
        <ele>1695</ele>
        <time>2022-12-17T09:09:32.000Z</time>
      </trkpt>
      <trkpt lat="45.20586" lon="6.4159">
        <ele>1695.4000244141</ele>
        <time>2022-12-17T09:09:36.000Z</time>
      </trkpt>
      <trkpt lat="45.20585" lon="6.41588">
        <ele>1696</ele>
        <time>2022-12-17T09:09:38.000Z</time>
      </trkpt>
      <trkpt lat="45.20585" lon="6.41581">
        <ele>1697.1999511719</ele>
        <time>2022-12-17T09:09:45.000Z</time>
      </trkpt>
      <trkpt lat="45.20585" lon="6.41578">
        <ele>1697.5999755859</ele>
        <time>2022-12-17T09:09:47.000Z</time>
      </trkpt>
      <trkpt lat="45.20584" lon="6.41573">
        <ele>1698.1999511719</ele>
        <time>2022-12-17T09:09:52.000Z</time>
      </trkpt>
      <trkpt lat="45.20584" lon="6.41571">
        <ele>1698.8000488281</ele>
        <time>2022-12-17T09:09:54.000Z</time>
      </trkpt>
      <trkpt lat="45.20583" lon="6.41568">
        <ele>1699.1999511719</ele>
        <time>2022-12-17T09:09:57.000Z</time>
      </trkpt>
      <trkpt lat="45.20583" lon="6.41565">
        <ele>1699.8000488281</ele>
        <time>2022-12-17T09:10:00.000Z</time>
      </trkpt>
      <trkpt lat="45.20583" lon="6.41561">
        <ele>1700.4000244141</ele>
        <time>2022-12-17T09:10:04.000Z</time>
      </trkpt>
      <trkpt lat="45.20585" lon="6.41557">
        <ele>1701.1999511719</ele>
        <time>2022-12-17T09:10:08.000Z</time>
      </trkpt>
      <trkpt lat="45.20586" lon="6.41556">
        <ele>1701.5999755859</ele>
        <time>2022-12-17T09:10:10.000Z</time>
      </trkpt>
      <trkpt lat="45.20588" lon="6.4155">
        <ele>1702.5999755859</ele>
        <time>2022-12-17T09:10:16.000Z</time>
      </trkpt>
      <trkpt lat="45.20588" lon="6.41549">
        <ele>1702.8000488281</ele>
        <time>2022-12-17T09:10:17.000Z</time>
      </trkpt>
      <trkpt lat="45.2059" lon="6.41541">
        <ele>1703.8000488281</ele>
        <time>2022-12-17T09:10:24.000Z</time>
      </trkpt>
      <trkpt lat="45.20591" lon="6.41536">
        <ele>1704.1999511719</ele>
        <time>2022-12-17T09:10:29.000Z</time>
      </trkpt>
      <trkpt lat="45.20591" lon="6.41531">
        <ele>1704.8000488281</ele>
        <time>2022-12-17T09:10:33.000Z</time>
      </trkpt>
      <trkpt lat="45.2059" lon="6.4153">
        <ele>1705</ele>
        <time>2022-12-17T09:10:34.000Z</time>
      </trkpt>
      <trkpt lat="45.2059" lon="6.41527">
        <ele>1705.8000488281</ele>
        <time>2022-12-17T09:10:38.000Z</time>
      </trkpt>
      <trkpt lat="45.2059" lon="6.41525">
        <ele>1706.1999511719</ele>
        <time>2022-12-17T09:10:40.000Z</time>
      </trkpt>
      <trkpt lat="45.2059" lon="6.41521">
        <ele>1706.8000488281</ele>
        <time>2022-12-17T09:10:45.000Z</time>
      </trkpt>
      <trkpt lat="45.20588" lon="6.41518">
        <ele>1707.4000244141</ele>
        <time>2022-12-17T09:10:48.000Z</time>
      </trkpt>
      <trkpt lat="45.20587" lon="6.41516">
        <ele>1707.8000488281</ele>
        <time>2022-12-17T09:10:50.000Z</time>
      </trkpt>
      <trkpt lat="45.20586" lon="6.41514">
        <ele>1708.1999511719</ele>
        <time>2022-12-17T09:10:52.000Z</time>
      </trkpt>
      <trkpt lat="45.20586" lon="6.41512">
        <ele>1708.4000244141</ele>
        <time>2022-12-17T09:10:54.000Z</time>
      </trkpt>
      <trkpt lat="45.20583" lon="6.41507">
        <ele>1709.4000244141</ele>
        <time>2022-12-17T09:11:00.000Z</time>
      </trkpt>
      <trkpt lat="45.20583" lon="6.41506">
        <ele>1709.4000244141</ele>
        <time>2022-12-17T09:11:01.000Z</time>
      </trkpt>
      <trkpt lat="45.20583" lon="6.41505">
        <ele>1709.5999755859</ele>
        <time>2022-12-17T09:11:02.000Z</time>
      </trkpt>
      <trkpt lat="45.20583" lon="6.41504">
        <ele>1709.8000488281</ele>
        <time>2022-12-17T09:11:03.000Z</time>
      </trkpt>
      <trkpt lat="45.20581" lon="6.41498">
        <ele>1710.5999755859</ele>
        <time>2022-12-17T09:11:08.000Z</time>
      </trkpt>
      <trkpt lat="45.2058" lon="6.41491">
        <ele>1711.5999755859</ele>
        <time>2022-12-17T09:11:15.000Z</time>
      </trkpt>
      <trkpt lat="45.2058" lon="6.41491">
        <ele>1711.5999755859</ele>
        <time>2022-12-17T09:11:16.000Z</time>
      </trkpt>
      <trkpt lat="45.20581" lon="6.41486">
        <ele>1712.5999755859</ele>
        <time>2022-12-17T09:11:22.000Z</time>
      </trkpt>
      <trkpt lat="45.20581" lon="6.41485">
        <ele>1712.8000488281</ele>
        <time>2022-12-17T09:11:23.000Z</time>
      </trkpt>
      <trkpt lat="45.20582" lon="6.41484">
        <ele>1713.1999511719</ele>
        <time>2022-12-17T09:11:25.000Z</time>
      </trkpt>
      <trkpt lat="45.20584" lon="6.41483">
        <ele>1713.8000488281</ele>
        <time>2022-12-17T09:11:27.000Z</time>
      </trkpt>
      <trkpt lat="45.20584" lon="6.41482">
        <ele>1714</ele>
        <time>2022-12-17T09:11:28.000Z</time>
      </trkpt>
      <trkpt lat="45.20585" lon="6.41482">
        <ele>1714.4000244141</ele>
        <time>2022-12-17T09:11:31.000Z</time>
      </trkpt>
      <trkpt lat="45.20584" lon="6.41477">
        <ele>1714.8000488281</ele>
        <time>2022-12-17T09:11:37.000Z</time>
      </trkpt>
      <trkpt lat="45.20584" lon="6.41476">
        <ele>1715</ele>
        <time>2022-12-17T09:11:38.000Z</time>
      </trkpt>
      <trkpt lat="45.20582" lon="6.41473">
        <ele>1715.5999755859</ele>
        <time>2022-12-17T09:11:43.000Z</time>
      </trkpt>
      <trkpt lat="45.20579" lon="6.41471">
        <ele>1716.1999511719</ele>
        <time>2022-12-17T09:11:47.000Z</time>
      </trkpt>
      <trkpt lat="45.20575" lon="6.41468">
        <ele>1716.8000488281</ele>
        <time>2022-12-17T09:11:51.000Z</time>
      </trkpt>
      <trkpt lat="45.20573" lon="6.41467">
        <ele>1717</ele>
        <time>2022-12-17T09:11:53.000Z</time>
      </trkpt>
      <trkpt lat="45.20572" lon="6.41466">
        <ele>1717.1999511719</ele>
        <time>2022-12-17T09:11:54.000Z</time>
      </trkpt>
      <trkpt lat="45.20572" lon="6.41465">
        <ele>1717.4000244141</ele>
        <time>2022-12-17T09:11:55.000Z</time>
      </trkpt>
      <trkpt lat="45.2057" lon="6.41463">
        <ele>1717.8000488281</ele>
        <time>2022-12-17T09:11:58.000Z</time>
      </trkpt>
      <trkpt lat="45.20569" lon="6.41463">
        <ele>1718</ele>
        <time>2022-12-17T09:11:59.000Z</time>
      </trkpt>
      <trkpt lat="45.20568" lon="6.41462">
        <ele>1718.1999511719</ele>
        <time>2022-12-17T09:12:00.000Z</time>
      </trkpt>
      <trkpt lat="45.20568" lon="6.41461">
        <ele>1718.1999511719</ele>
        <time>2022-12-17T09:12:01.000Z</time>
      </trkpt>
      <trkpt lat="45.20566" lon="6.41459">
        <ele>1718.5999755859</ele>
        <time>2022-12-17T09:12:04.000Z</time>
      </trkpt>
      <trkpt lat="45.20565" lon="6.41458">
        <ele>1718.8000488281</ele>
        <time>2022-12-17T09:12:05.000Z</time>
      </trkpt>
      <trkpt lat="45.20564" lon="6.41457">
        <ele>1719.4000244141</ele>
        <time>2022-12-17T09:12:08.000Z</time>
      </trkpt>
      <trkpt lat="45.20561" lon="6.41451">
        <ele>1720.4000244141</ele>
        <time>2022-12-17T09:12:16.000Z</time>
      </trkpt>
      <trkpt lat="45.20561" lon="6.41448">
        <ele>1720.8000488281</ele>
        <time>2022-12-17T09:12:19.000Z</time>
      </trkpt>
      <trkpt lat="45.2056" lon="6.41447">
        <ele>1721</ele>
        <time>2022-12-17T09:12:21.000Z</time>
      </trkpt>
      <trkpt lat="45.20559" lon="6.41446">
        <ele>1721</ele>
        <time>2022-12-17T09:12:22.000Z</time>
      </trkpt>
      <trkpt lat="45.20557" lon="6.41446">
        <ele>1721.4000244141</ele>
        <time>2022-12-17T09:12:24.000Z</time>
      </trkpt>
      <trkpt lat="45.20557" lon="6.41443">
        <ele>1722.1999511719</ele>
        <time>2022-12-17T09:12:29.000Z</time>
      </trkpt>
      <trkpt lat="45.20557" lon="6.41442">
        <ele>1722.4000244141</ele>
        <time>2022-12-17T09:12:30.000Z</time>
      </trkpt>
      <trkpt lat="45.20556" lon="6.41442">
        <ele>1722.5999755859</ele>
        <time>2022-12-17T09:12:31.000Z</time>
      </trkpt>
      <trkpt lat="45.20554" lon="6.41439">
        <ele>1723</ele>
        <time>2022-12-17T09:12:35.000Z</time>
      </trkpt>
      <trkpt lat="45.20553" lon="6.41437">
        <ele>1723</ele>
        <time>2022-12-17T09:12:37.000Z</time>
      </trkpt>
      <trkpt lat="45.20552" lon="6.41436">
        <ele>1723.5999755859</ele>
        <time>2022-12-17T09:12:39.000Z</time>
      </trkpt>
      <trkpt lat="45.20551" lon="6.41433">
        <ele>1724.5999755859</ele>
        <time>2022-12-17T09:12:44.000Z</time>
      </trkpt>
      <trkpt lat="45.20551" lon="6.41432">
        <ele>1724.8000488281</ele>
        <time>2022-12-17T09:12:45.000Z</time>
      </trkpt>
      <trkpt lat="45.20552" lon="6.41428">
        <ele>1725.5999755859</ele>
        <time>2022-12-17T09:12:51.000Z</time>
      </trkpt>
      <trkpt lat="45.20552" lon="6.41427">
        <ele>1725.5999755859</ele>
        <time>2022-12-17T09:12:52.000Z</time>
      </trkpt>
      <trkpt lat="45.2055" lon="6.41426">
        <ele>1725.8000488281</ele>
        <time>2022-12-17T09:12:54.000Z</time>
      </trkpt>
      <trkpt lat="45.20548" lon="6.41424">
        <ele>1726.4000244141</ele>
        <time>2022-12-17T09:12:57.000Z</time>
      </trkpt>
      <trkpt lat="45.20547" lon="6.41424">
        <ele>1726.8000488281</ele>
        <time>2022-12-17T09:12:59.000Z</time>
      </trkpt>
      <trkpt lat="45.20546" lon="6.41423">
        <ele>1727.8000488281</ele>
        <time>2022-12-17T09:13:03.000Z</time>
      </trkpt>
      <trkpt lat="45.20545" lon="6.41422">
        <ele>1727.8000488281</ele>
        <time>2022-12-17T09:13:04.000Z</time>
      </trkpt>
      <trkpt lat="45.20544" lon="6.41422">
        <ele>1728</ele>
        <time>2022-12-17T09:13:05.000Z</time>
      </trkpt>
      <trkpt lat="45.20541" lon="6.4142">
        <ele>1728.5999755859</ele>
        <time>2022-12-17T09:13:10.000Z</time>
      </trkpt>
      <trkpt lat="45.20538" lon="6.4142">
        <ele>1729</ele>
        <time>2022-12-17T09:13:12.000Z</time>
      </trkpt>
      <trkpt lat="45.20536" lon="6.41418">
        <ele>1729.8000488281</ele>
        <time>2022-12-17T09:13:16.000Z</time>
      </trkpt>
      <trkpt lat="45.20536" lon="6.41417">
        <ele>1730.1999511719</ele>
        <time>2022-12-17T09:13:17.000Z</time>
      </trkpt>
      <trkpt lat="45.2053" lon="6.41412">
        <ele>1731.1999511719</ele>
        <time>2022-12-17T09:13:25.000Z</time>
      </trkpt>
      <trkpt lat="45.20528" lon="6.41412">
        <ele>1731.5999755859</ele>
        <time>2022-12-17T09:13:27.000Z</time>
      </trkpt>
      <trkpt lat="45.20526" lon="6.41412">
        <ele>1732.1999511719</ele>
        <time>2022-12-17T09:13:32.000Z</time>
      </trkpt>
      <trkpt lat="45.20525" lon="6.41412">
        <ele>1732.4000244141</ele>
        <time>2022-12-17T09:13:33.000Z</time>
      </trkpt>
      <trkpt lat="45.20519" lon="6.41411">
        <ele>1733.4000244141</ele>
        <time>2022-12-17T09:13:41.000Z</time>
      </trkpt>
      <trkpt lat="45.20515" lon="6.41409">
        <ele>1734.4000244141</ele>
        <time>2022-12-17T09:13:47.000Z</time>
      </trkpt>
      <trkpt lat="45.20514" lon="6.41409">
        <ele>1734.5999755859</ele>
        <time>2022-12-17T09:13:48.000Z</time>
      </trkpt>
      <trkpt lat="45.20513" lon="6.41407">
        <ele>1735.1999511719</ele>
        <time>2022-12-17T09:13:51.000Z</time>
      </trkpt>
      <trkpt lat="45.20513" lon="6.41406">
        <ele>1735.5999755859</ele>
        <time>2022-12-17T09:13:52.000Z</time>
      </trkpt>
      <trkpt lat="45.20515" lon="6.41403">
        <ele>1736.1999511719</ele>
        <time>2022-12-17T09:13:56.000Z</time>
      </trkpt>
      <trkpt lat="45.20514" lon="6.41402">
        <ele>1736.5999755859</ele>
        <time>2022-12-17T09:13:59.000Z</time>
      </trkpt>
      <trkpt lat="45.20512" lon="6.41399">
        <ele>1737</ele>
        <time>2022-12-17T09:14:03.000Z</time>
      </trkpt>
      <trkpt lat="45.2051" lon="6.41398">
        <ele>1738</ele>
        <time>2022-12-17T09:14:06.000Z</time>
      </trkpt>
      <trkpt lat="45.20508" lon="6.41397">
        <ele>1738.8000488281</ele>
        <time>2022-12-17T09:14:09.000Z</time>
      </trkpt>
      <trkpt lat="45.20507" lon="6.41396">
        <ele>1739</ele>
        <time>2022-12-17T09:14:10.000Z</time>
      </trkpt>
      <trkpt lat="45.20504" lon="6.41396">
        <ele>1739.4000244141</ele>
        <time>2022-12-17T09:14:12.000Z</time>
      </trkpt>
      <trkpt lat="45.205" lon="6.41393">
        <ele>1740.1999511719</ele>
        <time>2022-12-17T09:14:16.000Z</time>
      </trkpt>
      <trkpt lat="45.205" lon="6.41389">
        <ele>1740.8000488281</ele>
        <time>2022-12-17T09:14:19.000Z</time>
      </trkpt>
      <trkpt lat="45.20499" lon="6.41387">
        <ele>1741.1999511719</ele>
        <time>2022-12-17T09:14:22.000Z</time>
      </trkpt>
      <trkpt lat="45.20496" lon="6.41386">
        <ele>1741.5999755859</ele>
        <time>2022-12-17T09:14:25.000Z</time>
      </trkpt>
      <trkpt lat="45.20494" lon="6.41385">
        <ele>1742.1999511719</ele>
        <time>2022-12-17T09:14:29.000Z</time>
      </trkpt>
      <trkpt lat="45.20492" lon="6.41385">
        <ele>1742.4000244141</ele>
        <time>2022-12-17T09:14:30.000Z</time>
      </trkpt>
      <trkpt lat="45.20491" lon="6.41384">
        <ele>1742.5999755859</ele>
        <time>2022-12-17T09:14:31.000Z</time>
      </trkpt>
      <trkpt lat="45.20487" lon="6.41383">
        <ele>1743.1999511719</ele>
        <time>2022-12-17T09:14:35.000Z</time>
      </trkpt>
      <trkpt lat="45.20485" lon="6.41383">
        <ele>1743.4000244141</ele>
        <time>2022-12-17T09:14:37.000Z</time>
      </trkpt>
      <trkpt lat="45.20485" lon="6.41382">
        <ele>1743.8000488281</ele>
        <time>2022-12-17T09:14:39.000Z</time>
      </trkpt>
      <trkpt lat="45.20484" lon="6.4138">
        <ele>1744.5999755859</ele>
        <time>2022-12-17T09:14:42.000Z</time>
      </trkpt>
      <trkpt lat="45.20483" lon="6.4138">
        <ele>1744.5999755859</ele>
        <time>2022-12-17T09:14:43.000Z</time>
      </trkpt>
      <trkpt lat="45.20483" lon="6.41379">
        <ele>1745.5999755859</ele>
        <time>2022-12-17T09:14:46.000Z</time>
      </trkpt>
      <trkpt lat="45.20483" lon="6.41378">
        <ele>1746</ele>
        <time>2022-12-17T09:14:48.000Z</time>
      </trkpt>
      <trkpt lat="45.20482" lon="6.41375">
        <ele>1746.5999755859</ele>
        <time>2022-12-17T09:14:52.000Z</time>
      </trkpt>
      <trkpt lat="45.20482" lon="6.41372">
        <ele>1747.4000244141</ele>
        <time>2022-12-17T09:14:56.000Z</time>
      </trkpt>
      <trkpt lat="45.2048" lon="6.41372">
        <ele>1747.8000488281</ele>
        <time>2022-12-17T09:14:58.000Z</time>
      </trkpt>
      <trkpt lat="45.20476" lon="6.41371">
        <ele>1748.8000488281</ele>
        <time>2022-12-17T09:15:02.000Z</time>
      </trkpt>
      <trkpt lat="45.20475" lon="6.4137">
        <ele>1749</ele>
        <time>2022-12-17T09:15:03.000Z</time>
      </trkpt>
      <trkpt lat="45.20473" lon="6.41367">
        <ele>1750</ele>
        <time>2022-12-17T09:15:08.000Z</time>
      </trkpt>
      <trkpt lat="45.20473" lon="6.41367">
        <ele>1750.1999511719</ele>
        <time>2022-12-17T09:15:09.000Z</time>
      </trkpt>
      <trkpt lat="45.20469" lon="6.41364">
        <ele>1751.1999511719</ele>
        <time>2022-12-17T09:15:14.000Z</time>
      </trkpt>
      <trkpt lat="45.20469" lon="6.41364">
        <ele>1751.4000244141</ele>
        <time>2022-12-17T09:15:15.000Z</time>
      </trkpt>
      <trkpt lat="45.20468" lon="6.41359">
        <ele>1752.1999511719</ele>
        <time>2022-12-17T09:15:19.000Z</time>
      </trkpt>
      <trkpt lat="45.20469" lon="6.41357">
        <ele>1752.1999511719</ele>
        <time>2022-12-17T09:15:21.000Z</time>
      </trkpt>
      <trkpt lat="45.20469" lon="6.41355">
        <ele>1752.1999511719</ele>
        <time>2022-12-17T09:15:27.000Z</time>
      </trkpt>
      <trkpt lat="45.20467" lon="6.41355">
        <ele>1752.4000244141</ele>
        <time>2022-12-17T09:15:33.000Z</time>
      </trkpt>
      <trkpt lat="45.20467" lon="6.41355">
        <ele>1752.8000488281</ele>
        <time>2022-12-17T09:15:43.000Z</time>
      </trkpt>
      <trkpt lat="45.20467" lon="6.41355">
        <ele>1752.8000488281</ele>
        <time>2022-12-17T09:15:45.000Z</time>
      </trkpt>
      <trkpt lat="45.20467" lon="6.41355">
        <ele>1752.8000488281</ele>
        <time>2022-12-17T09:15:46.000Z</time>
      </trkpt>
      <trkpt lat="45.20467" lon="6.41356">
        <ele>1752.8000488281</ele>
        <time>2022-12-17T09:15:50.000Z</time>
      </trkpt>
      <trkpt lat="45.20466" lon="6.41357">
        <ele>1752.8000488281</ele>
        <time>2022-12-17T09:15:58.000Z</time>
      </trkpt>
      <trkpt lat="45.20462" lon="6.41359">
        <ele>1752.4000244141</ele>
        <time>2022-12-17T09:16:04.000Z</time>
      </trkpt>
      <trkpt lat="45.20459" lon="6.4136">
        <ele>1752.5999755859</ele>
        <time>2022-12-17T09:16:18.000Z</time>
      </trkpt>
      <trkpt lat="45.20461" lon="6.41359">
        <ele>1751.5999755859</ele>
        <time>2022-12-17T09:16:37.000Z</time>
      </trkpt>
      <trkpt lat="45.20464" lon="6.41359">
        <ele>1751.8000488281</ele>
        <time>2022-12-17T09:16:55.000Z</time>
      </trkpt>
      <trkpt lat="45.20465" lon="6.4136">
        <ele>1751.8000488281</ele>
        <time>2022-12-17T09:17:01.000Z</time>
      </trkpt>
      <trkpt lat="45.20464" lon="6.41361">
        <ele>1751.8000488281</ele>
        <time>2022-12-17T09:17:08.000Z</time>
      </trkpt>
      <trkpt lat="45.20462" lon="6.41363">
        <ele>1751.8000488281</ele>
        <time>2022-12-17T09:17:39.000Z</time>
      </trkpt>
      <trkpt lat="45.20462" lon="6.41363">
        <ele>1751.8000488281</ele>
        <time>2022-12-17T09:17:52.000Z</time>
      </trkpt>
      <trkpt lat="45.20463" lon="6.41361">
        <ele>1751.8000488281</ele>
        <time>2022-12-17T09:17:58.000Z</time>
      </trkpt>
      <trkpt lat="45.20465" lon="6.4136">
        <ele>1751.8000488281</ele>
        <time>2022-12-17T09:18:02.000Z</time>
      </trkpt>
      <trkpt lat="45.20465" lon="6.41359">
        <ele>1751.8000488281</ele>
        <time>2022-12-17T09:18:18.000Z</time>
      </trkpt>
      <trkpt lat="45.20464" lon="6.41356">
        <ele>1751.8000488281</ele>
        <time>2022-12-17T09:18:30.000Z</time>
      </trkpt>
      <trkpt lat="45.20464" lon="6.41355">
        <ele>1751.8000488281</ele>
        <time>2022-12-17T09:18:34.000Z</time>
      </trkpt>
      <trkpt lat="45.20464" lon="6.41355">
        <ele>1751.8000488281</ele>
        <time>2022-12-17T09:18:43.000Z</time>
      </trkpt>
      <trkpt lat="45.20464" lon="6.41355">
        <ele>1751.8000488281</ele>
        <time>2022-12-17T09:18:44.000Z</time>
      </trkpt>
      <trkpt lat="45.20464" lon="6.41355">
        <ele>1751.8000488281</ele>
        <time>2022-12-17T09:18:47.000Z</time>
      </trkpt>
      <trkpt lat="45.20462" lon="6.41355">
        <ele>1751.8000488281</ele>
        <time>2022-12-17T09:19:16.000Z</time>
      </trkpt>
      <trkpt lat="45.20462" lon="6.41355">
        <ele>1751.8000488281</ele>
        <time>2022-12-17T09:19:17.000Z</time>
      </trkpt>
      <trkpt lat="45.20463" lon="6.41354">
        <ele>1751.8000488281</ele>
        <time>2022-12-17T09:19:29.000Z</time>
      </trkpt>
      <trkpt lat="45.2046" lon="6.41353">
        <ele>1751.8000488281</ele>
        <time>2022-12-17T09:19:32.000Z</time>
      </trkpt>
      <trkpt lat="45.20458" lon="6.41354">
        <ele>1751.8000488281</ele>
        <time>2022-12-17T09:19:33.000Z</time>
      </trkpt>
      <trkpt lat="45.20456" lon="6.41353">
        <ele>1751.8000488281</ele>
        <time>2022-12-17T09:19:35.000Z</time>
      </trkpt>
      <trkpt lat="45.20453" lon="6.41352">
        <ele>1752.1999511719</ele>
        <time>2022-12-17T09:19:38.000Z</time>
      </trkpt>
      <trkpt lat="45.20452" lon="6.41352">
        <ele>1752.4000244141</ele>
        <time>2022-12-17T09:19:39.000Z</time>
      </trkpt>
      <trkpt lat="45.2045" lon="6.41349">
        <ele>1753</ele>
        <time>2022-12-17T09:19:42.000Z</time>
      </trkpt>
      <trkpt lat="45.20448" lon="6.41347">
        <ele>1753.1999511719</ele>
        <time>2022-12-17T09:19:45.000Z</time>
      </trkpt>
      <trkpt lat="45.20443" lon="6.41344">
        <ele>1753.8000488281</ele>
        <time>2022-12-17T09:19:50.000Z</time>
      </trkpt>
      <trkpt lat="45.2044" lon="6.41341">
        <ele>1754.1999511719</ele>
        <time>2022-12-17T09:19:54.000Z</time>
      </trkpt>
      <trkpt lat="45.20438" lon="6.41339">
        <ele>1754.4000244141</ele>
        <time>2022-12-17T09:19:56.000Z</time>
      </trkpt>
      <trkpt lat="45.20437" lon="6.41339">
        <ele>1754.5999755859</ele>
        <time>2022-12-17T09:19:57.000Z</time>
      </trkpt>
      <trkpt lat="45.20435" lon="6.41338">
        <ele>1754.8000488281</ele>
        <time>2022-12-17T09:19:59.000Z</time>
      </trkpt>
      <trkpt lat="45.20432" lon="6.41336">
        <ele>1755</ele>
        <time>2022-12-17T09:20:02.000Z</time>
      </trkpt>
      <trkpt lat="45.20432" lon="6.41335">
        <ele>1755.1999511719</ele>
        <time>2022-12-17T09:20:03.000Z</time>
      </trkpt>
      <trkpt lat="45.2043" lon="6.41334">
        <ele>1755.4000244141</ele>
        <time>2022-12-17T09:20:05.000Z</time>
      </trkpt>
      <trkpt lat="45.20429" lon="6.41334">
        <ele>1755.4000244141</ele>
        <time>2022-12-17T09:20:06.000Z</time>
      </trkpt>
      <trkpt lat="45.20425" lon="6.41334">
        <ele>1755.8000488281</ele>
        <time>2022-12-17T09:20:09.000Z</time>
      </trkpt>
      <trkpt lat="45.20422" lon="6.41332">
        <ele>1756.4000244141</ele>
        <time>2022-12-17T09:20:13.000Z</time>
      </trkpt>
      <trkpt lat="45.20421" lon="6.41332">
        <ele>1756.4000244141</ele>
        <time>2022-12-17T09:20:14.000Z</time>
      </trkpt>
      <trkpt lat="45.20418" lon="6.41332">
        <ele>1756.5999755859</ele>
        <time>2022-12-17T09:20:16.000Z</time>
      </trkpt>
      <trkpt lat="45.20412" lon="6.41324">
        <ele>1757.4000244141</ele>
        <time>2022-12-17T09:20:24.000Z</time>
      </trkpt>
      <trkpt lat="45.20411" lon="6.41323">
        <ele>1757.5999755859</ele>
        <time>2022-12-17T09:20:25.000Z</time>
      </trkpt>
      <trkpt lat="45.20411" lon="6.41323">
        <ele>1757.5999755859</ele>
        <time>2022-12-17T09:20:26.000Z</time>
      </trkpt>
      <trkpt lat="45.20407" lon="6.41319">
        <ele>1758.1999511719</ele>
        <time>2022-12-17T09:20:31.000Z</time>
      </trkpt>
      <trkpt lat="45.20406" lon="6.41317">
        <ele>1758.4000244141</ele>
        <time>2022-12-17T09:20:33.000Z</time>
      </trkpt>
      <trkpt lat="45.20402" lon="6.41313">
        <ele>1759</ele>
        <time>2022-12-17T09:20:38.000Z</time>
      </trkpt>
      <trkpt lat="45.204" lon="6.41313">
        <ele>1759.4000244141</ele>
        <time>2022-12-17T09:20:40.000Z</time>
      </trkpt>
      <trkpt lat="45.20399" lon="6.41312">
        <ele>1759.5999755859</ele>
        <time>2022-12-17T09:20:41.000Z</time>
      </trkpt>
      <trkpt lat="45.20398" lon="6.4131">
        <ele>1759.5999755859</ele>
        <time>2022-12-17T09:20:43.000Z</time>
      </trkpt>
      <trkpt lat="45.20397" lon="6.4131">
        <ele>1760</ele>
        <time>2022-12-17T09:20:44.000Z</time>
      </trkpt>
      <trkpt lat="45.20395" lon="6.4131">
        <ele>1760.1999511719</ele>
        <time>2022-12-17T09:20:46.000Z</time>
      </trkpt>
      <trkpt lat="45.20392" lon="6.41306">
        <ele>1760.5999755859</ele>
        <time>2022-12-17T09:20:49.000Z</time>
      </trkpt>
      <trkpt lat="45.20391" lon="6.41305">
        <ele>1760.5999755859</ele>
        <time>2022-12-17T09:20:50.000Z</time>
      </trkpt>
      <trkpt lat="45.20384" lon="6.41298">
        <ele>1761.5999755859</ele>
        <time>2022-12-17T09:20:58.000Z</time>
      </trkpt>
      <trkpt lat="45.20378" lon="6.41294">
        <ele>1762.5999755859</ele>
        <time>2022-12-17T09:21:04.000Z</time>
      </trkpt>
      <trkpt lat="45.20376" lon="6.41292">
        <ele>1763</ele>
        <time>2022-12-17T09:21:07.000Z</time>
      </trkpt>
      <trkpt lat="45.20375" lon="6.41291">
        <ele>1763</ele>
        <time>2022-12-17T09:21:08.000Z</time>
      </trkpt>
      <trkpt lat="45.20375" lon="6.4129">
        <ele>1763</ele>
        <time>2022-12-17T09:21:09.000Z</time>
      </trkpt>
      <trkpt lat="45.20369" lon="6.41285">
        <ele>1763.5999755859</ele>
        <time>2022-12-17T09:21:15.000Z</time>
      </trkpt>
      <trkpt lat="45.20366" lon="6.41284">
        <ele>1764.1999511719</ele>
        <time>2022-12-17T09:21:18.000Z</time>
      </trkpt>
      <trkpt lat="45.20362" lon="6.41281">
        <ele>1764.8000488281</ele>
        <time>2022-12-17T09:21:22.000Z</time>
      </trkpt>
      <trkpt lat="45.20362" lon="6.41278">
        <ele>1765</ele>
        <time>2022-12-17T09:21:24.000Z</time>
      </trkpt>
      <trkpt lat="45.20358" lon="6.41273">
        <ele>1765.8000488281</ele>
        <time>2022-12-17T09:21:30.000Z</time>
      </trkpt>
      <trkpt lat="45.20357" lon="6.41272">
        <ele>1765.8000488281</ele>
        <time>2022-12-17T09:21:31.000Z</time>
      </trkpt>
      <trkpt lat="45.20357" lon="6.41271">
        <ele>1766</ele>
        <time>2022-12-17T09:21:32.000Z</time>
      </trkpt>
      <trkpt lat="45.20353" lon="6.41267">
        <ele>1766.5999755859</ele>
        <time>2022-12-17T09:21:37.000Z</time>
      </trkpt>
      <trkpt lat="45.20352" lon="6.41266">
        <ele>1766.8000488281</ele>
        <time>2022-12-17T09:21:38.000Z</time>
      </trkpt>
      <trkpt lat="45.20351" lon="6.41265">
        <ele>1766.8000488281</ele>
        <time>2022-12-17T09:21:39.000Z</time>
      </trkpt>
      <trkpt lat="45.2035" lon="6.41264">
        <ele>1767</ele>
        <time>2022-12-17T09:21:40.000Z</time>
      </trkpt>
      <trkpt lat="45.2035" lon="6.41263">
        <ele>1767</ele>
        <time>2022-12-17T09:21:41.000Z</time>
      </trkpt>
      <trkpt lat="45.2035" lon="6.41261">
        <ele>1767.1999511719</ele>
        <time>2022-12-17T09:21:42.000Z</time>
      </trkpt>
      <trkpt lat="45.20349" lon="6.41258">
        <ele>1767.4000244141</ele>
        <time>2022-12-17T09:21:44.000Z</time>
      </trkpt>
      <trkpt lat="45.20347" lon="6.41256">
        <ele>1767.8000488281</ele>
        <time>2022-12-17T09:21:47.000Z</time>
      </trkpt>
      <trkpt lat="45.20347" lon="6.41254">
        <ele>1767.8000488281</ele>
        <time>2022-12-17T09:21:48.000Z</time>
      </trkpt>
      <trkpt lat="45.20346" lon="6.4125">
        <ele>1768</ele>
        <time>2022-12-17T09:21:51.000Z</time>
      </trkpt>
      <trkpt lat="45.20345" lon="6.41248">
        <ele>1768.1999511719</ele>
        <time>2022-12-17T09:21:53.000Z</time>
      </trkpt>
      <trkpt lat="45.20341" lon="6.41244">
        <ele>1768.8000488281</ele>
        <time>2022-12-17T09:21:59.000Z</time>
      </trkpt>
      <trkpt lat="45.2034" lon="6.41243">
        <ele>1769</ele>
        <time>2022-12-17T09:22:00.000Z</time>
      </trkpt>
      <trkpt lat="45.2034" lon="6.41243">
        <ele>1769</ele>
        <time>2022-12-17T09:22:01.000Z</time>
      </trkpt>
      <trkpt lat="45.2034" lon="6.41239">
        <ele>1769.1999511719</ele>
        <time>2022-12-17T09:22:04.000Z</time>
      </trkpt>
      <trkpt lat="45.20336" lon="6.41232">
        <ele>1769.8000488281</ele>
        <time>2022-12-17T09:22:09.000Z</time>
      </trkpt>
      <trkpt lat="45.20334" lon="6.41229">
        <ele>1770</ele>
        <time>2022-12-17T09:22:12.000Z</time>
      </trkpt>
      <trkpt lat="45.20331" lon="6.41226">
        <ele>1770</ele>
        <time>2022-12-17T09:22:15.000Z</time>
      </trkpt>
      <trkpt lat="45.20327" lon="6.41223">
        <ele>1770.4000244141</ele>
        <time>2022-12-17T09:22:19.000Z</time>
      </trkpt>
      <trkpt lat="45.20326" lon="6.41222">
        <ele>1770.4000244141</ele>
        <time>2022-12-17T09:22:20.000Z</time>
      </trkpt>
      <trkpt lat="45.20325" lon="6.41221">
        <ele>1770.5999755859</ele>
        <time>2022-12-17T09:22:21.000Z</time>
      </trkpt>
      <trkpt lat="45.20324" lon="6.41218">
        <ele>1770.8000488281</ele>
        <time>2022-12-17T09:22:23.000Z</time>
      </trkpt>
      <trkpt lat="45.20324" lon="6.41217">
        <ele>1771</ele>
        <time>2022-12-17T09:22:24.000Z</time>
      </trkpt>
      <trkpt lat="45.20324" lon="6.41215">
        <ele>1771</ele>
        <time>2022-12-17T09:22:25.000Z</time>
      </trkpt>
      <trkpt lat="45.20323" lon="6.41214">
        <ele>1771</ele>
        <time>2022-12-17T09:22:26.000Z</time>
      </trkpt>
      <trkpt lat="45.20322" lon="6.41212">
        <ele>1771.1999511719</ele>
        <time>2022-12-17T09:22:28.000Z</time>
      </trkpt>
      <trkpt lat="45.2032" lon="6.41211">
        <ele>1771.1999511719</ele>
        <time>2022-12-17T09:22:30.000Z</time>
      </trkpt>
      <trkpt lat="45.20319" lon="6.4121">
        <ele>1771.4000244141</ele>
        <time>2022-12-17T09:22:32.000Z</time>
      </trkpt>
      <trkpt lat="45.20316" lon="6.41208">
        <ele>1771.8000488281</ele>
        <time>2022-12-17T09:22:36.000Z</time>
      </trkpt>
      <trkpt lat="45.20315" lon="6.41207">
        <ele>1771.8000488281</ele>
        <time>2022-12-17T09:22:37.000Z</time>
      </trkpt>
      <trkpt lat="45.20308" lon="6.41204">
        <ele>1772</ele>
        <time>2022-12-17T09:22:42.000Z</time>
      </trkpt>
      <trkpt lat="45.20303" lon="6.41204">
        <ele>1772.4000244141</ele>
        <time>2022-12-17T09:22:46.000Z</time>
      </trkpt>
      <trkpt lat="45.20294" lon="6.41205">
        <ele>1773.1999511719</ele>
        <time>2022-12-17T09:22:52.000Z</time>
      </trkpt>
      <trkpt lat="45.20288" lon="6.41201">
        <ele>1773.5999755859</ele>
        <time>2022-12-17T09:23:00.000Z</time>
      </trkpt>
      <trkpt lat="45.20281" lon="6.41197">
        <ele>1774.1999511719</ele>
        <time>2022-12-17T09:23:07.000Z</time>
      </trkpt>
      <trkpt lat="45.20279" lon="6.41196">
        <ele>1774.4000244141</ele>
        <time>2022-12-17T09:23:10.000Z</time>
      </trkpt>
      <trkpt lat="45.20278" lon="6.41196">
        <ele>1774.4000244141</ele>
        <time>2022-12-17T09:23:11.000Z</time>
      </trkpt>
      <trkpt lat="45.20272" lon="6.4119">
        <ele>1775</ele>
        <time>2022-12-17T09:23:18.000Z</time>
      </trkpt>
      <trkpt lat="45.20269" lon="6.41188">
        <ele>1775.1999511719</ele>
        <time>2022-12-17T09:23:22.000Z</time>
      </trkpt>
      <trkpt lat="45.20267" lon="6.41188">
        <ele>1775.4000244141</ele>
        <time>2022-12-17T09:23:24.000Z</time>
      </trkpt>
      <trkpt lat="45.20257" lon="6.41187">
        <ele>1776</ele>
        <time>2022-12-17T09:23:32.000Z</time>
      </trkpt>
      <trkpt lat="45.20256" lon="6.41186">
        <ele>1776</ele>
        <time>2022-12-17T09:23:33.000Z</time>
      </trkpt>
      <trkpt lat="45.20253" lon="6.41185">
        <ele>1776.1999511719</ele>
        <time>2022-12-17T09:23:35.000Z</time>
      </trkpt>
      <trkpt lat="45.2025" lon="6.41184">
        <ele>1776.4000244141</ele>
        <time>2022-12-17T09:23:37.000Z</time>
      </trkpt>
      <trkpt lat="45.20249" lon="6.41183">
        <ele>1776.5999755859</ele>
        <time>2022-12-17T09:23:38.000Z</time>
      </trkpt>
      <trkpt lat="45.20248" lon="6.41182">
        <ele>1776.8000488281</ele>
        <time>2022-12-17T09:23:40.000Z</time>
      </trkpt>
      <trkpt lat="45.20244" lon="6.4118">
        <ele>1777</ele>
        <time>2022-12-17T09:23:43.000Z</time>
      </trkpt>
      <trkpt lat="45.20243" lon="6.41178">
        <ele>1777.1999511719</ele>
        <time>2022-12-17T09:23:45.000Z</time>
      </trkpt>
      <trkpt lat="45.2024" lon="6.41175">
        <ele>1777.5999755859</ele>
        <time>2022-12-17T09:23:48.000Z</time>
      </trkpt>
      <trkpt lat="45.20238" lon="6.41173">
        <ele>1777.5999755859</ele>
        <time>2022-12-17T09:23:50.000Z</time>
      </trkpt>
      <trkpt lat="45.20236" lon="6.41168">
        <ele>1778</ele>
        <time>2022-12-17T09:23:54.000Z</time>
      </trkpt>
      <trkpt lat="45.20234" lon="6.41166">
        <ele>1778.1999511719</ele>
        <time>2022-12-17T09:23:57.000Z</time>
      </trkpt>
      <trkpt lat="45.20233" lon="6.41165">
        <ele>1778.1999511719</ele>
        <time>2022-12-17T09:23:58.000Z</time>
      </trkpt>
      <trkpt lat="45.2023" lon="6.41164">
        <ele>1778.4000244141</ele>
        <time>2022-12-17T09:24:01.000Z</time>
      </trkpt>
      <trkpt lat="45.20226" lon="6.41163">
        <ele>1778.8000488281</ele>
        <time>2022-12-17T09:24:05.000Z</time>
      </trkpt>
      <trkpt lat="45.20224" lon="6.41162">
        <ele>1779</ele>
        <time>2022-12-17T09:24:07.000Z</time>
      </trkpt>
      <trkpt lat="45.20223" lon="6.41161">
        <ele>1779</ele>
        <time>2022-12-17T09:24:08.000Z</time>
      </trkpt>
      <trkpt lat="45.20222" lon="6.41159">
        <ele>1779.4000244141</ele>
        <time>2022-12-17T09:24:10.000Z</time>
      </trkpt>
      <trkpt lat="45.2022" lon="6.41156">
        <ele>1779.8000488281</ele>
        <time>2022-12-17T09:24:15.000Z</time>
      </trkpt>
      <trkpt lat="45.20219" lon="6.41156">
        <ele>1779.8000488281</ele>
        <time>2022-12-17T09:24:16.000Z</time>
      </trkpt>
      <trkpt lat="45.20217" lon="6.41155">
        <ele>1780</ele>
        <time>2022-12-17T09:24:17.000Z</time>
      </trkpt>
      <trkpt lat="45.20212" lon="6.41152">
        <ele>1780.1999511719</ele>
        <time>2022-12-17T09:24:22.000Z</time>
      </trkpt>
      <trkpt lat="45.20211" lon="6.41151">
        <ele>1780.4000244141</ele>
        <time>2022-12-17T09:24:23.000Z</time>
      </trkpt>
      <trkpt lat="45.20209" lon="6.41147">
        <ele>1780.5999755859</ele>
        <time>2022-12-17T09:24:26.000Z</time>
      </trkpt>
      <trkpt lat="45.20208" lon="6.41146">
        <ele>1780.8000488281</ele>
        <time>2022-12-17T09:24:28.000Z</time>
      </trkpt>
      <trkpt lat="45.20204" lon="6.41143">
        <ele>1781.4000244141</ele>
        <time>2022-12-17T09:24:34.000Z</time>
      </trkpt>
      <trkpt lat="45.20204" lon="6.41142">
        <ele>1781.4000244141</ele>
        <time>2022-12-17T09:24:35.000Z</time>
      </trkpt>
      <trkpt lat="45.20203" lon="6.41142">
        <ele>1781.4000244141</ele>
        <time>2022-12-17T09:24:36.000Z</time>
      </trkpt>
      <trkpt lat="45.20201" lon="6.41142">
        <ele>1781.5999755859</ele>
        <time>2022-12-17T09:24:38.000Z</time>
      </trkpt>
      <trkpt lat="45.20199" lon="6.4114">
        <ele>1781.8000488281</ele>
        <time>2022-12-17T09:24:40.000Z</time>
      </trkpt>
      <trkpt lat="45.20198" lon="6.41138">
        <ele>1782</ele>
        <time>2022-12-17T09:24:42.000Z</time>
      </trkpt>
      <trkpt lat="45.20197" lon="6.41136">
        <ele>1782</ele>
        <time>2022-12-17T09:24:44.000Z</time>
      </trkpt>
      <trkpt lat="45.20193" lon="6.41136">
        <ele>1782.4000244141</ele>
        <time>2022-12-17T09:24:48.000Z</time>
      </trkpt>
      <trkpt lat="45.20185" lon="6.41132">
        <ele>1783</ele>
        <time>2022-12-17T09:24:58.000Z</time>
      </trkpt>
      <trkpt lat="45.20184" lon="6.41131">
        <ele>1783</ele>
        <time>2022-12-17T09:24:59.000Z</time>
      </trkpt>
      <trkpt lat="45.20179" lon="6.41129">
        <ele>1783.4000244141</ele>
        <time>2022-12-17T09:25:05.000Z</time>
      </trkpt>
      <trkpt lat="45.20178" lon="6.41129">
        <ele>1783.4000244141</ele>
        <time>2022-12-17T09:25:06.000Z</time>
      </trkpt>
      <trkpt lat="45.20175" lon="6.41129">
        <ele>1783.4000244141</ele>
        <time>2022-12-17T09:25:09.000Z</time>
      </trkpt>
      <trkpt lat="45.20174" lon="6.41128">
        <ele>1783.5999755859</ele>
        <time>2022-12-17T09:25:11.000Z</time>
      </trkpt>
      <trkpt lat="45.20164" lon="6.41129">
        <ele>1784.4000244141</ele>
        <time>2022-12-17T09:25:20.000Z</time>
      </trkpt>
      <trkpt lat="45.20162" lon="6.41129">
        <ele>1784.5999755859</ele>
        <time>2022-12-17T09:25:22.000Z</time>
      </trkpt>
      <trkpt lat="45.20157" lon="6.41128">
        <ele>1784.8000488281</ele>
        <time>2022-12-17T09:25:28.000Z</time>
      </trkpt>
      <trkpt lat="45.20154" lon="6.41128">
        <ele>1785</ele>
        <time>2022-12-17T09:25:30.000Z</time>
      </trkpt>
      <trkpt lat="45.20152" lon="6.41128">
        <ele>1785.1999511719</ele>
        <time>2022-12-17T09:25:32.000Z</time>
      </trkpt>
      <trkpt lat="45.20146" lon="6.41128">
        <ele>1785.5999755859</ele>
        <time>2022-12-17T09:25:36.000Z</time>
      </trkpt>
      <trkpt lat="45.20145" lon="6.41125">
        <ele>1786</ele>
        <time>2022-12-17T09:25:39.000Z</time>
      </trkpt>
      <trkpt lat="45.20139" lon="6.41123">
        <ele>1786.5999755859</ele>
        <time>2022-12-17T09:25:45.000Z</time>
      </trkpt>
      <trkpt lat="45.20137" lon="6.41122">
        <ele>1786.8000488281</ele>
        <time>2022-12-17T09:25:47.000Z</time>
      </trkpt>
      <trkpt lat="45.20136" lon="6.41121">
        <ele>1786.8000488281</ele>
        <time>2022-12-17T09:25:49.000Z</time>
      </trkpt>
      <trkpt lat="45.20133" lon="6.41119">
        <ele>1787.1999511719</ele>
        <time>2022-12-17T09:25:53.000Z</time>
      </trkpt>
      <trkpt lat="45.20131" lon="6.41118">
        <ele>1787.5999755859</ele>
        <time>2022-12-17T09:25:55.000Z</time>
      </trkpt>
      <trkpt lat="45.2013" lon="6.41118">
        <ele>1787.5999755859</ele>
        <time>2022-12-17T09:25:56.000Z</time>
      </trkpt>
      <trkpt lat="45.20122" lon="6.41115">
        <ele>1788.4000244141</ele>
        <time>2022-12-17T09:26:06.000Z</time>
      </trkpt>
      <trkpt lat="45.2012" lon="6.41113">
        <ele>1788.5999755859</ele>
        <time>2022-12-17T09:26:09.000Z</time>
      </trkpt>
      <trkpt lat="45.20116" lon="6.41112">
        <ele>1789</ele>
        <time>2022-12-17T09:26:14.000Z</time>
      </trkpt>
      <trkpt lat="45.20112" lon="6.41109">
        <ele>1789.5999755859</ele>
        <time>2022-12-17T09:26:18.000Z</time>
      </trkpt>
      <trkpt lat="45.20111" lon="6.41108">
        <ele>1789.5999755859</ele>
        <time>2022-12-17T09:26:19.000Z</time>
      </trkpt>
      <trkpt lat="45.20109" lon="6.41108">
        <ele>1789.8000488281</ele>
        <time>2022-12-17T09:26:20.000Z</time>
      </trkpt>
      <trkpt lat="45.20098" lon="6.41106">
        <ele>1790.1999511719</ele>
        <time>2022-12-17T09:26:27.000Z</time>
      </trkpt>
      <trkpt lat="45.20092" lon="6.41105">
        <ele>1790.8000488281</ele>
        <time>2022-12-17T09:26:31.000Z</time>
      </trkpt>
      <trkpt lat="45.20087" lon="6.41104">
        <ele>1791</ele>
        <time>2022-12-17T09:26:34.000Z</time>
      </trkpt>
      <trkpt lat="45.20082" lon="6.41102">
        <ele>1791.4000244141</ele>
        <time>2022-12-17T09:26:38.000Z</time>
      </trkpt>
      <trkpt lat="45.20079" lon="6.411">
        <ele>1791.8000488281</ele>
        <time>2022-12-17T09:26:41.000Z</time>
      </trkpt>
      <trkpt lat="45.20078" lon="6.411">
        <ele>1791.8000488281</ele>
        <time>2022-12-17T09:26:42.000Z</time>
      </trkpt>
      <trkpt lat="45.20069" lon="6.41098">
        <ele>1792.1999511719</ele>
        <time>2022-12-17T09:26:49.000Z</time>
      </trkpt>
      <trkpt lat="45.20059" lon="6.41097">
        <ele>1792.8000488281</ele>
        <time>2022-12-17T09:26:58.000Z</time>
      </trkpt>
      <trkpt lat="45.20058" lon="6.41098">
        <ele>1792.8000488281</ele>
        <time>2022-12-17T09:26:59.000Z</time>
      </trkpt>
      <trkpt lat="45.20047" lon="6.41101">
        <ele>1793</ele>
        <time>2022-12-17T09:27:09.000Z</time>
      </trkpt>
      <trkpt lat="45.20039" lon="6.41107">
        <ele>1793.8000488281</ele>
        <time>2022-12-17T09:27:17.000Z</time>
      </trkpt>
      <trkpt lat="45.20037" lon="6.41108">
        <ele>1794</ele>
        <time>2022-12-17T09:27:19.000Z</time>
      </trkpt>
      <trkpt lat="45.20034" lon="6.41112">
        <ele>1794.1999511719</ele>
        <time>2022-12-17T09:27:23.000Z</time>
      </trkpt>
      <trkpt lat="45.20032" lon="6.41114">
        <ele>1794.5999755859</ele>
        <time>2022-12-17T09:27:26.000Z</time>
      </trkpt>
      <trkpt lat="45.20028" lon="6.41118">
        <ele>1794.8000488281</ele>
        <time>2022-12-17T09:27:30.000Z</time>
      </trkpt>
      <trkpt lat="45.20027" lon="6.41119">
        <ele>1794.8000488281</ele>
        <time>2022-12-17T09:27:31.000Z</time>
      </trkpt>
      <trkpt lat="45.20025" lon="6.41121">
        <ele>1795</ele>
        <time>2022-12-17T09:27:33.000Z</time>
      </trkpt>
      <trkpt lat="45.20022" lon="6.41125">
        <ele>1795.1999511719</ele>
        <time>2022-12-17T09:27:37.000Z</time>
      </trkpt>
      <trkpt lat="45.2002" lon="6.41127">
        <ele>1795.4000244141</ele>
        <time>2022-12-17T09:27:39.000Z</time>
      </trkpt>
      <trkpt lat="45.20016" lon="6.41133">
        <ele>1795.8000488281</ele>
        <time>2022-12-17T09:27:44.000Z</time>
      </trkpt>
      <trkpt lat="45.20013" lon="6.41137">
        <ele>1796.4000244141</ele>
        <time>2022-12-17T09:27:48.000Z</time>
      </trkpt>
      <trkpt lat="45.20009" lon="6.41144">
        <ele>1797</ele>
        <time>2022-12-17T09:27:53.000Z</time>
      </trkpt>
      <trkpt lat="45.20008" lon="6.41147">
        <ele>1797</ele>
        <time>2022-12-17T09:27:55.000Z</time>
      </trkpt>
      <trkpt lat="45.20005" lon="6.41152">
        <ele>1797.1999511719</ele>
        <time>2022-12-17T09:27:59.000Z</time>
      </trkpt>
      <trkpt lat="45.20002" lon="6.41158">
        <ele>1797.1999511719</ele>
        <time>2022-12-17T09:28:03.000Z</time>
      </trkpt>
      <trkpt lat="45.19991" lon="6.41165">
        <ele>1797.4000244141</ele>
        <time>2022-12-17T09:28:12.000Z</time>
      </trkpt>
      <trkpt lat="45.19982" lon="6.41161">
        <ele>1797.8000488281</ele>
        <time>2022-12-17T09:28:20.000Z</time>
      </trkpt>
      <trkpt lat="45.19979" lon="6.41157">
        <ele>1798</ele>
        <time>2022-12-17T09:28:23.000Z</time>
      </trkpt>
      <trkpt lat="45.19977" lon="6.41154">
        <ele>1798</ele>
        <time>2022-12-17T09:28:25.000Z</time>
      </trkpt>
      <trkpt lat="45.19976" lon="6.41152">
        <ele>1798.1999511719</ele>
        <time>2022-12-17T09:28:27.000Z</time>
      </trkpt>
      <trkpt lat="45.19975" lon="6.41151">
        <ele>1798.1999511719</ele>
        <time>2022-12-17T09:28:28.000Z</time>
      </trkpt>
      <trkpt lat="45.19974" lon="6.41148">
        <ele>1798.4000244141</ele>
        <time>2022-12-17T09:28:30.000Z</time>
      </trkpt>
      <trkpt lat="45.19971" lon="6.41144">
        <ele>1798.4000244141</ele>
        <time>2022-12-17T09:28:33.000Z</time>
      </trkpt>
      <trkpt lat="45.19971" lon="6.41143">
        <ele>1798.5999755859</ele>
        <time>2022-12-17T09:28:34.000Z</time>
      </trkpt>
      <trkpt lat="45.19967" lon="6.41136">
        <ele>1798.8000488281</ele>
        <time>2022-12-17T09:28:40.000Z</time>
      </trkpt>
      <trkpt lat="45.19964" lon="6.41133">
        <ele>1799</ele>
        <time>2022-12-17T09:28:43.000Z</time>
      </trkpt>
      <trkpt lat="45.19958" lon="6.41131">
        <ele>1799.4000244141</ele>
        <time>2022-12-17T09:28:48.000Z</time>
      </trkpt>
      <trkpt lat="45.1995" lon="6.41127">
        <ele>1800</ele>
        <time>2022-12-17T09:28:55.000Z</time>
      </trkpt>
      <trkpt lat="45.19948" lon="6.41127">
        <ele>1800.1999511719</ele>
        <time>2022-12-17T09:28:56.000Z</time>
      </trkpt>
      <trkpt lat="45.19947" lon="6.41126">
        <ele>1800.1999511719</ele>
        <time>2022-12-17T09:28:57.000Z</time>
      </trkpt>
      <trkpt lat="45.19938" lon="6.41124">
        <ele>1800.8000488281</ele>
        <time>2022-12-17T09:29:04.000Z</time>
      </trkpt>
      <trkpt lat="45.19934" lon="6.41124">
        <ele>1800.8000488281</ele>
        <time>2022-12-17T09:29:07.000Z</time>
      </trkpt>
      <trkpt lat="45.19931" lon="6.41123">
        <ele>1800.8000488281</ele>
        <time>2022-12-17T09:29:10.000Z</time>
      </trkpt>
      <trkpt lat="45.1993" lon="6.41122">
        <ele>1801</ele>
        <time>2022-12-17T09:29:11.000Z</time>
      </trkpt>
      <trkpt lat="45.19925" lon="6.41119">
        <ele>1801.1999511719</ele>
        <time>2022-12-17T09:29:16.000Z</time>
      </trkpt>
      <trkpt lat="45.1992" lon="6.41115">
        <ele>1801.4000244141</ele>
        <time>2022-12-17T09:29:20.000Z</time>
      </trkpt>
      <trkpt lat="45.19915" lon="6.41112">
        <ele>1801.4000244141</ele>
        <time>2022-12-17T09:29:25.000Z</time>
      </trkpt>
      <trkpt lat="45.19907" lon="6.41105">
        <ele>1801.8000488281</ele>
        <time>2022-12-17T09:29:33.000Z</time>
      </trkpt>
      <trkpt lat="45.19902" lon="6.41101">
        <ele>1802</ele>
        <time>2022-12-17T09:29:37.000Z</time>
      </trkpt>
      <trkpt lat="45.19897" lon="6.41098">
        <ele>1802.1999511719</ele>
        <time>2022-12-17T09:29:41.000Z</time>
      </trkpt>
      <trkpt lat="45.19896" lon="6.41096">
        <ele>1802.1999511719</ele>
        <time>2022-12-17T09:29:42.000Z</time>
      </trkpt>
      <trkpt lat="45.19893" lon="6.41093">
        <ele>1802.4000244141</ele>
        <time>2022-12-17T09:29:45.000Z</time>
      </trkpt>
      <trkpt lat="45.19889" lon="6.4109">
        <ele>1802.4000244141</ele>
        <time>2022-12-17T09:29:49.000Z</time>
      </trkpt>
      <trkpt lat="45.19882" lon="6.41081">
        <ele>1803</ele>
        <time>2022-12-17T09:29:57.000Z</time>
      </trkpt>
      <trkpt lat="45.19877" lon="6.41078">
        <ele>1803.1999511719</ele>
        <time>2022-12-17T09:30:01.000Z</time>
      </trkpt>
      <trkpt lat="45.19872" lon="6.41069">
        <ele>1803.5999755859</ele>
        <time>2022-12-17T09:30:08.000Z</time>
      </trkpt>
      <trkpt lat="45.19866" lon="6.41062">
        <ele>1803.8000488281</ele>
        <time>2022-12-17T09:30:14.000Z</time>
      </trkpt>
      <trkpt lat="45.19865" lon="6.4106">
        <ele>1804</ele>
        <time>2022-12-17T09:30:16.000Z</time>
      </trkpt>
      <trkpt lat="45.19862" lon="6.41055">
        <ele>1804.1999511719</ele>
        <time>2022-12-17T09:30:20.000Z</time>
      </trkpt>
      <trkpt lat="45.1986" lon="6.41052">
        <ele>1804.4000244141</ele>
        <time>2022-12-17T09:30:23.000Z</time>
      </trkpt>
      <trkpt lat="45.19855" lon="6.41041">
        <ele>1805</ele>
        <time>2022-12-17T09:30:32.000Z</time>
      </trkpt>
      <trkpt lat="45.19854" lon="6.4104">
        <ele>1805</ele>
        <time>2022-12-17T09:30:33.000Z</time>
      </trkpt>
      <trkpt lat="45.19852" lon="6.41034">
        <ele>1805.1999511719</ele>
        <time>2022-12-17T09:30:37.000Z</time>
      </trkpt>
      <trkpt lat="45.1985" lon="6.41032">
        <ele>1805.4000244141</ele>
        <time>2022-12-17T09:30:39.000Z</time>
      </trkpt>
      <trkpt lat="45.19844" lon="6.4102">
        <ele>1806.1999511719</ele>
        <time>2022-12-17T09:30:49.000Z</time>
      </trkpt>
      <trkpt lat="45.19844" lon="6.41019">
        <ele>1806.1999511719</ele>
        <time>2022-12-17T09:30:50.000Z</time>
      </trkpt>
      <trkpt lat="45.19844" lon="6.41018">
        <ele>1806.4000244141</ele>
        <time>2022-12-17T09:30:51.000Z</time>
      </trkpt>
      <trkpt lat="45.19841" lon="6.41015">
        <ele>1806.4000244141</ele>
        <time>2022-12-17T09:30:54.000Z</time>
      </trkpt>
      <trkpt lat="45.19836" lon="6.41008">
        <ele>1806.8000488281</ele>
        <time>2022-12-17T09:31:01.000Z</time>
      </trkpt>
      <trkpt lat="45.19835" lon="6.41007">
        <ele>1806.8000488281</ele>
        <time>2022-12-17T09:31:02.000Z</time>
      </trkpt>
      <trkpt lat="45.1983" lon="6.41003">
        <ele>1807.4000244141</ele>
        <time>2022-12-17T09:31:08.000Z</time>
      </trkpt>
      <trkpt lat="45.19828" lon="6.40999">
        <ele>1807.4000244141</ele>
        <time>2022-12-17T09:31:11.000Z</time>
      </trkpt>
      <trkpt lat="45.19827" lon="6.40997">
        <ele>1807.5999755859</ele>
        <time>2022-12-17T09:31:14.000Z</time>
      </trkpt>
      <trkpt lat="45.19821" lon="6.40995">
        <ele>1807.8000488281</ele>
        <time>2022-12-17T09:31:19.000Z</time>
      </trkpt>
      <trkpt lat="45.19819" lon="6.40992">
        <ele>1808.1999511719</ele>
        <time>2022-12-17T09:31:22.000Z</time>
      </trkpt>
      <trkpt lat="45.19816" lon="6.40989">
        <ele>1808.4000244141</ele>
        <time>2022-12-17T09:31:25.000Z</time>
      </trkpt>
      <trkpt lat="45.19811" lon="6.40983">
        <ele>1808.8000488281</ele>
        <time>2022-12-17T09:31:31.000Z</time>
      </trkpt>
      <trkpt lat="45.1981" lon="6.40982">
        <ele>1809</ele>
        <time>2022-12-17T09:31:32.000Z</time>
      </trkpt>
      <trkpt lat="45.19804" lon="6.40974">
        <ele>1809.4000244141</ele>
        <time>2022-12-17T09:31:40.000Z</time>
      </trkpt>
      <trkpt lat="45.19798" lon="6.40968">
        <ele>1809.5999755859</ele>
        <time>2022-12-17T09:31:46.000Z</time>
      </trkpt>
      <trkpt lat="45.19794" lon="6.40965">
        <ele>1810</ele>
        <time>2022-12-17T09:31:51.000Z</time>
      </trkpt>
      <trkpt lat="45.19789" lon="6.40961">
        <ele>1810.4000244141</ele>
        <time>2022-12-17T09:31:56.000Z</time>
      </trkpt>
      <trkpt lat="45.19787" lon="6.4096">
        <ele>1810.4000244141</ele>
        <time>2022-12-17T09:31:58.000Z</time>
      </trkpt>
      <trkpt lat="45.19786" lon="6.40959">
        <ele>1810.4000244141</ele>
        <time>2022-12-17T09:31:59.000Z</time>
      </trkpt>
      <trkpt lat="45.19779" lon="6.40953">
        <ele>1811</ele>
        <time>2022-12-17T09:32:07.000Z</time>
      </trkpt>
      <trkpt lat="45.19776" lon="6.4095">
        <ele>1811.1999511719</ele>
        <time>2022-12-17T09:32:10.000Z</time>
      </trkpt>
      <trkpt lat="45.19776" lon="6.40945">
        <ele>1811.4000244141</ele>
        <time>2022-12-17T09:32:13.000Z</time>
      </trkpt>
      <trkpt lat="45.19776" lon="6.40944">
        <ele>1811.4000244141</ele>
        <time>2022-12-17T09:32:14.000Z</time>
      </trkpt>
      <trkpt lat="45.19774" lon="6.40941">
        <ele>1811.5999755859</ele>
        <time>2022-12-17T09:32:16.000Z</time>
      </trkpt>
      <trkpt lat="45.1977" lon="6.40928">
        <ele>1812</ele>
        <time>2022-12-17T09:32:24.000Z</time>
      </trkpt>
      <trkpt lat="45.19768" lon="6.40923">
        <ele>1812.5999755859</ele>
        <time>2022-12-17T09:32:28.000Z</time>
      </trkpt>
      <trkpt lat="45.19763" lon="6.40912">
        <ele>1813</ele>
        <time>2022-12-17T09:32:37.000Z</time>
      </trkpt>
      <trkpt lat="45.19762" lon="6.40909">
        <ele>1813.1999511719</ele>
        <time>2022-12-17T09:32:39.000Z</time>
      </trkpt>
      <trkpt lat="45.19759" lon="6.40904">
        <ele>1813.5999755859</ele>
        <time>2022-12-17T09:32:43.000Z</time>
      </trkpt>
      <trkpt lat="45.19759" lon="6.40903">
        <ele>1813.5999755859</ele>
        <time>2022-12-17T09:32:44.000Z</time>
      </trkpt>
      <trkpt lat="45.19756" lon="6.40891">
        <ele>1814.1999511719</ele>
        <time>2022-12-17T09:32:52.000Z</time>
      </trkpt>
      <trkpt lat="45.19754" lon="6.40889">
        <ele>1814.1999511719</ele>
        <time>2022-12-17T09:32:54.000Z</time>
      </trkpt>
      <trkpt lat="45.19751" lon="6.40878">
        <ele>1814.4000244141</ele>
        <time>2022-12-17T09:33:01.000Z</time>
      </trkpt>
      <trkpt lat="45.1975" lon="6.40875">
        <ele>1814.5999755859</ele>
        <time>2022-12-17T09:33:03.000Z</time>
      </trkpt>
      <trkpt lat="45.19744" lon="6.40861">
        <ele>1815.4000244141</ele>
        <time>2022-12-17T09:33:13.000Z</time>
      </trkpt>
      <trkpt lat="45.1974" lon="6.40852">
        <ele>1815.5999755859</ele>
        <time>2022-12-17T09:33:19.000Z</time>
      </trkpt>
      <trkpt lat="45.19738" lon="6.40846">
        <ele>1815.8000488281</ele>
        <time>2022-12-17T09:33:24.000Z</time>
      </trkpt>
      <trkpt lat="45.19737" lon="6.40844">
        <ele>1816</ele>
        <time>2022-12-17T09:33:26.000Z</time>
      </trkpt>
      <trkpt lat="45.19736" lon="6.40838">
        <ele>1816.4000244141</ele>
        <time>2022-12-17T09:33:31.000Z</time>
      </trkpt>
      <trkpt lat="45.19735" lon="6.40837">
        <ele>1816.4000244141</ele>
        <time>2022-12-17T09:33:32.000Z</time>
      </trkpt>
      <trkpt lat="45.19732" lon="6.40833">
        <ele>1816.5999755859</ele>
        <time>2022-12-17T09:33:36.000Z</time>
      </trkpt>
      <trkpt lat="45.19732" lon="6.40832">
        <ele>1816.8000488281</ele>
        <time>2022-12-17T09:33:37.000Z</time>
      </trkpt>
      <trkpt lat="45.19729" lon="6.40828">
        <ele>1817.1999511719</ele>
        <time>2022-12-17T09:33:41.000Z</time>
      </trkpt>
      <trkpt lat="45.19729" lon="6.40825">
        <ele>1817.4000244141</ele>
        <time>2022-12-17T09:33:44.000Z</time>
      </trkpt>
      <trkpt lat="45.19727" lon="6.40821">
        <ele>1817.5999755859</ele>
        <time>2022-12-17T09:33:48.000Z</time>
      </trkpt>
      <trkpt lat="45.19727" lon="6.4082">
        <ele>1817.5999755859</ele>
        <time>2022-12-17T09:33:49.000Z</time>
      </trkpt>
      <trkpt lat="45.19727" lon="6.40818">
        <ele>1817.8000488281</ele>
        <time>2022-12-17T09:33:50.000Z</time>
      </trkpt>
      <trkpt lat="45.19725" lon="6.40815">
        <ele>1818</ele>
        <time>2022-12-17T09:33:52.000Z</time>
      </trkpt>
      <trkpt lat="45.19723" lon="6.4081">
        <ele>1818.4000244141</ele>
        <time>2022-12-17T09:33:56.000Z</time>
      </trkpt>
      <trkpt lat="45.19722" lon="6.40804">
        <ele>1818.8000488281</ele>
        <time>2022-12-17T09:34:00.000Z</time>
      </trkpt>
      <trkpt lat="45.19721" lon="6.40801">
        <ele>1819</ele>
        <time>2022-12-17T09:34:02.000Z</time>
      </trkpt>
      <trkpt lat="45.19719" lon="6.40798">
        <ele>1819.1999511719</ele>
        <time>2022-12-17T09:34:05.000Z</time>
      </trkpt>
      <trkpt lat="45.19718" lon="6.40796">
        <ele>1819.4000244141</ele>
        <time>2022-12-17T09:34:07.000Z</time>
      </trkpt>
      <trkpt lat="45.19717" lon="6.40794">
        <ele>1819.4000244141</ele>
        <time>2022-12-17T09:34:08.000Z</time>
      </trkpt>
      <trkpt lat="45.19715" lon="6.4079">
        <ele>1819.5999755859</ele>
        <time>2022-12-17T09:34:11.000Z</time>
      </trkpt>
      <trkpt lat="45.19713" lon="6.40788">
        <ele>1819.8000488281</ele>
        <time>2022-12-17T09:34:13.000Z</time>
      </trkpt>
      <trkpt lat="45.19712" lon="6.40786">
        <ele>1819.8000488281</ele>
        <time>2022-12-17T09:34:14.000Z</time>
      </trkpt>
      <trkpt lat="45.19709" lon="6.4078">
        <ele>1820.4000244141</ele>
        <time>2022-12-17T09:34:19.000Z</time>
      </trkpt>
      <trkpt lat="45.19707" lon="6.40777">
        <ele>1820.4000244141</ele>
        <time>2022-12-17T09:34:21.000Z</time>
      </trkpt>
      <trkpt lat="45.19706" lon="6.40776">
        <ele>1820.5999755859</ele>
        <time>2022-12-17T09:34:22.000Z</time>
      </trkpt>
      <trkpt lat="45.19706" lon="6.40773">
        <ele>1820.5999755859</ele>
        <time>2022-12-17T09:34:24.000Z</time>
      </trkpt>
      <trkpt lat="45.19705" lon="6.40772">
        <ele>1820.8000488281</ele>
        <time>2022-12-17T09:34:25.000Z</time>
      </trkpt>
      <trkpt lat="45.19703" lon="6.4077">
        <ele>1820.8000488281</ele>
        <time>2022-12-17T09:34:27.000Z</time>
      </trkpt>
      <trkpt lat="45.19701" lon="6.40768">
        <ele>1821</ele>
        <time>2022-12-17T09:34:30.000Z</time>
      </trkpt>
      <trkpt lat="45.197" lon="6.40767">
        <ele>1821.1999511719</ele>
        <time>2022-12-17T09:34:32.000Z</time>
      </trkpt>
      <trkpt lat="45.19699" lon="6.40762">
        <ele>1821.4000244141</ele>
        <time>2022-12-17T09:34:36.000Z</time>
      </trkpt>
      <trkpt lat="45.19696" lon="6.40759">
        <ele>1821.5999755859</ele>
        <time>2022-12-17T09:34:40.000Z</time>
      </trkpt>
      <trkpt lat="45.19695" lon="6.40754">
        <ele>1821.8000488281</ele>
        <time>2022-12-17T09:34:43.000Z</time>
      </trkpt>
      <trkpt lat="45.19694" lon="6.40753">
        <ele>1822</ele>
        <time>2022-12-17T09:34:44.000Z</time>
      </trkpt>
      <trkpt lat="45.19693" lon="6.40751">
        <ele>1822</ele>
        <time>2022-12-17T09:34:46.000Z</time>
      </trkpt>
      <trkpt lat="45.19692" lon="6.4075">
        <ele>1822</ele>
        <time>2022-12-17T09:34:47.000Z</time>
      </trkpt>
      <trkpt lat="45.19689" lon="6.40744">
        <ele>1822.1999511719</ele>
        <time>2022-12-17T09:34:52.000Z</time>
      </trkpt>
      <trkpt lat="45.19688" lon="6.40741">
        <ele>1822.1999511719</ele>
        <time>2022-12-17T09:34:54.000Z</time>
      </trkpt>
      <trkpt lat="45.19684" lon="6.40733">
        <ele>1822.5999755859</ele>
        <time>2022-12-17T09:35:00.000Z</time>
      </trkpt>
      <trkpt lat="45.19682" lon="6.40731">
        <ele>1822.8000488281</ele>
        <time>2022-12-17T09:35:02.000Z</time>
      </trkpt>
      <trkpt lat="45.19682" lon="6.4073">
        <ele>1823</ele>
        <time>2022-12-17T09:35:03.000Z</time>
      </trkpt>
      <trkpt lat="45.19678" lon="6.40725">
        <ele>1823.1999511719</ele>
        <time>2022-12-17T09:35:08.000Z</time>
      </trkpt>
      <trkpt lat="45.19676" lon="6.40724">
        <ele>1823.1999511719</ele>
        <time>2022-12-17T09:35:10.000Z</time>
      </trkpt>
      <trkpt lat="45.19675" lon="6.40722">
        <ele>1823.1999511719</ele>
        <time>2022-12-17T09:35:11.000Z</time>
      </trkpt>
      <trkpt lat="45.19669" lon="6.40712">
        <ele>1823.8000488281</ele>
        <time>2022-12-17T09:35:20.000Z</time>
      </trkpt>
      <trkpt lat="45.19663" lon="6.40704">
        <ele>1824</ele>
        <time>2022-12-17T09:35:27.000Z</time>
      </trkpt>
      <trkpt lat="45.1966" lon="6.407">
        <ele>1824.1999511719</ele>
        <time>2022-12-17T09:35:31.000Z</time>
      </trkpt>
      <trkpt lat="45.19657" lon="6.40695">
        <ele>1824.4000244141</ele>
        <time>2022-12-17T09:35:36.000Z</time>
      </trkpt>
      <trkpt lat="45.19656" lon="6.40694">
        <ele>1824.5999755859</ele>
        <time>2022-12-17T09:35:37.000Z</time>
      </trkpt>
      <trkpt lat="45.19652" lon="6.40687">
        <ele>1825</ele>
        <time>2022-12-17T09:35:43.000Z</time>
      </trkpt>
      <trkpt lat="45.1965" lon="6.40684">
        <ele>1825</ele>
        <time>2022-12-17T09:35:45.000Z</time>
      </trkpt>
      <trkpt lat="45.19646" lon="6.40676">
        <ele>1825.4000244141</ele>
        <time>2022-12-17T09:35:53.000Z</time>
      </trkpt>
      <trkpt lat="45.19645" lon="6.40673">
        <ele>1825.4000244141</ele>
        <time>2022-12-17T09:35:55.000Z</time>
      </trkpt>
      <trkpt lat="45.19642" lon="6.40667">
        <ele>1825.8000488281</ele>
        <time>2022-12-17T09:36:00.000Z</time>
      </trkpt>
      <trkpt lat="45.1964" lon="6.40664">
        <ele>1826.1999511719</ele>
        <time>2022-12-17T09:36:03.000Z</time>
      </trkpt>
      <trkpt lat="45.19639" lon="6.40657">
        <ele>1826.5999755859</ele>
        <time>2022-12-17T09:36:08.000Z</time>
      </trkpt>
      <trkpt lat="45.19638" lon="6.40651">
        <ele>1827.1999511719</ele>
        <time>2022-12-17T09:36:13.000Z</time>
      </trkpt>
      <trkpt lat="45.19638" lon="6.40649">
        <ele>1827.1999511719</ele>
        <time>2022-12-17T09:36:14.000Z</time>
      </trkpt>
      <trkpt lat="45.19638" lon="6.40645">
        <ele>1827.5999755859</ele>
        <time>2022-12-17T09:36:17.000Z</time>
      </trkpt>
      <trkpt lat="45.19636" lon="6.40638">
        <ele>1828.4000244141</ele>
        <time>2022-12-17T09:36:23.000Z</time>
      </trkpt>
      <trkpt lat="45.19636" lon="6.40635">
        <ele>1828.5999755859</ele>
        <time>2022-12-17T09:36:25.000Z</time>
      </trkpt>
      <trkpt lat="45.19635" lon="6.40631">
        <ele>1829.4000244141</ele>
        <time>2022-12-17T09:36:29.000Z</time>
      </trkpt>
      <trkpt lat="45.19634" lon="6.4063">
        <ele>1829.4000244141</ele>
        <time>2022-12-17T09:36:30.000Z</time>
      </trkpt>
      <trkpt lat="45.19633" lon="6.40628">
        <ele>1829.8000488281</ele>
        <time>2022-12-17T09:36:32.000Z</time>
      </trkpt>
      <trkpt lat="45.19632" lon="6.40625">
        <ele>1830.4000244141</ele>
        <time>2022-12-17T09:36:35.000Z</time>
      </trkpt>
      <trkpt lat="45.19632" lon="6.40623">
        <ele>1830.5999755859</ele>
        <time>2022-12-17T09:36:36.000Z</time>
      </trkpt>
      <trkpt lat="45.19631" lon="6.4062">
        <ele>1831</ele>
        <time>2022-12-17T09:36:39.000Z</time>
      </trkpt>
      <trkpt lat="45.19631" lon="6.40619">
        <ele>1831.1999511719</ele>
        <time>2022-12-17T09:36:41.000Z</time>
      </trkpt>
      <trkpt lat="45.19629" lon="6.40617">
        <ele>1831.5999755859</ele>
        <time>2022-12-17T09:36:43.000Z</time>
      </trkpt>
      <trkpt lat="45.19629" lon="6.40615">
        <ele>1831.8000488281</ele>
        <time>2022-12-17T09:36:44.000Z</time>
      </trkpt>
      <trkpt lat="45.19629" lon="6.40613">
        <ele>1832</ele>
        <time>2022-12-17T09:36:46.000Z</time>
      </trkpt>
      <trkpt lat="45.19626" lon="6.40609">
        <ele>1832.4000244141</ele>
        <time>2022-12-17T09:36:51.000Z</time>
      </trkpt>
      <trkpt lat="45.19623" lon="6.40606">
        <ele>1832.1999511719</ele>
        <time>2022-12-17T09:36:54.000Z</time>
      </trkpt>
      <trkpt lat="45.19615" lon="6.40597">
        <ele>1831</ele>
        <time>2022-12-17T09:37:00.000Z</time>
      </trkpt>
      <trkpt lat="45.19614" lon="6.40595">
        <ele>1830.5999755859</ele>
        <time>2022-12-17T09:37:02.000Z</time>
      </trkpt>
      <trkpt lat="45.19613" lon="6.40594">
        <ele>1830.5999755859</ele>
        <time>2022-12-17T09:37:03.000Z</time>
      </trkpt>
      <trkpt lat="45.19607" lon="6.40586">
        <ele>1830.4000244141</ele>
        <time>2022-12-17T09:37:10.000Z</time>
      </trkpt>
      <trkpt lat="45.19607" lon="6.40585">
        <ele>1830.4000244141</ele>
        <time>2022-12-17T09:37:11.000Z</time>
      </trkpt>
      <trkpt lat="45.19605" lon="6.40577">
        <ele>1830.4000244141</ele>
        <time>2022-12-17T09:37:17.000Z</time>
      </trkpt>
      <trkpt lat="45.19604" lon="6.40575">
        <ele>1830.5999755859</ele>
        <time>2022-12-17T09:37:19.000Z</time>
      </trkpt>
      <trkpt lat="45.19604" lon="6.40573">
        <ele>1830.5999755859</ele>
        <time>2022-12-17T09:37:21.000Z</time>
      </trkpt>
      <trkpt lat="45.19604" lon="6.40569">
        <ele>1831.1999511719</ele>
        <time>2022-12-17T09:37:25.000Z</time>
      </trkpt>
      <trkpt lat="45.19603" lon="6.40567">
        <ele>1831.5999755859</ele>
        <time>2022-12-17T09:37:27.000Z</time>
      </trkpt>
      <trkpt lat="45.19603" lon="6.40566">
        <ele>1831.8000488281</ele>
        <time>2022-12-17T09:37:28.000Z</time>
      </trkpt>
      <trkpt lat="45.19603" lon="6.40564">
        <ele>1832.1999511719</ele>
        <time>2022-12-17T09:37:30.000Z</time>
      </trkpt>
      <trkpt lat="45.19603" lon="6.40559">
        <ele>1833</ele>
        <time>2022-12-17T09:37:34.000Z</time>
      </trkpt>
      <trkpt lat="45.19603" lon="6.40557">
        <ele>1833.4000244141</ele>
        <time>2022-12-17T09:37:36.000Z</time>
      </trkpt>
      <trkpt lat="45.19603" lon="6.40554">
        <ele>1834</ele>
        <time>2022-12-17T09:37:39.000Z</time>
      </trkpt>
      <trkpt lat="45.19604" lon="6.40553">
        <ele>1834.1999511719</ele>
        <time>2022-12-17T09:37:40.000Z</time>
      </trkpt>
      <trkpt lat="45.19603" lon="6.40551">
        <ele>1834.5999755859</ele>
        <time>2022-12-17T09:37:43.000Z</time>
      </trkpt>
      <trkpt lat="45.19601" lon="6.40548">
        <ele>1835</ele>
        <time>2022-12-17T09:37:46.000Z</time>
      </trkpt>
      <trkpt lat="45.196" lon="6.40547">
        <ele>1835.1999511719</ele>
        <time>2022-12-17T09:37:47.000Z</time>
      </trkpt>
      <trkpt lat="45.19599" lon="6.40543">
        <ele>1835.4000244141</ele>
        <time>2022-12-17T09:37:50.000Z</time>
      </trkpt>
      <trkpt lat="45.19597" lon="6.40533">
        <ele>1836.1999511719</ele>
        <time>2022-12-17T09:37:58.000Z</time>
      </trkpt>
      <trkpt lat="45.19593" lon="6.40525">
        <ele>1837.1999511719</ele>
        <time>2022-12-17T09:38:05.000Z</time>
      </trkpt>
      <trkpt lat="45.19591" lon="6.40519">
        <ele>1838.1999511719</ele>
        <time>2022-12-17T09:38:12.000Z</time>
      </trkpt>
      <trkpt lat="45.1959" lon="6.40518">
        <ele>1838.1999511719</ele>
        <time>2022-12-17T09:38:13.000Z</time>
      </trkpt>
      <trkpt lat="45.1959" lon="6.40518">
        <ele>1838.4000244141</ele>
        <time>2022-12-17T09:38:14.000Z</time>
      </trkpt>
      <trkpt lat="45.19589" lon="6.40512">
        <ele>1839.4000244141</ele>
        <time>2022-12-17T09:38:20.000Z</time>
      </trkpt>
      <trkpt lat="45.19588" lon="6.40511">
        <ele>1839.5999755859</ele>
        <time>2022-12-17T09:38:21.000Z</time>
      </trkpt>
      <trkpt lat="45.19585" lon="6.40506">
        <ele>1840.5999755859</ele>
        <time>2022-12-17T09:38:27.000Z</time>
      </trkpt>
      <trkpt lat="45.19585" lon="6.40506">
        <ele>1840.8000488281</ele>
        <time>2022-12-17T09:38:28.000Z</time>
      </trkpt>
      <trkpt lat="45.19586" lon="6.40505">
        <ele>1841.1999511719</ele>
        <time>2022-12-17T09:38:30.000Z</time>
      </trkpt>
      <trkpt lat="45.19585" lon="6.40502">
        <ele>1841.8000488281</ele>
        <time>2022-12-17T09:38:33.000Z</time>
      </trkpt>
      <trkpt lat="45.19584" lon="6.40496">
        <ele>1843</ele>
        <time>2022-12-17T09:38:38.000Z</time>
      </trkpt>
      <trkpt lat="45.19583" lon="6.4049">
        <ele>1844</ele>
        <time>2022-12-17T09:38:45.000Z</time>
      </trkpt>
      <trkpt lat="45.19581" lon="6.40487">
        <ele>1844.8000488281</ele>
        <time>2022-12-17T09:38:50.000Z</time>
      </trkpt>
      <trkpt lat="45.19581" lon="6.40486">
        <ele>1845.1999511719</ele>
        <time>2022-12-17T09:38:52.000Z</time>
      </trkpt>
      <trkpt lat="45.19579" lon="6.40482">
        <ele>1846.1999511719</ele>
        <time>2022-12-17T09:38:56.000Z</time>
      </trkpt>
      <trkpt lat="45.19579" lon="6.4048">
        <ele>1846.5999755859</ele>
        <time>2022-12-17T09:38:58.000Z</time>
      </trkpt>
      <trkpt lat="45.19579" lon="6.40478">
        <ele>1847</ele>
        <time>2022-12-17T09:39:00.000Z</time>
      </trkpt>
      <trkpt lat="45.19578" lon="6.40477">
        <ele>1847.1999511719</ele>
        <time>2022-12-17T09:39:01.000Z</time>
      </trkpt>
      <trkpt lat="45.19579" lon="6.40472">
        <ele>1848.4000244141</ele>
        <time>2022-12-17T09:39:06.000Z</time>
      </trkpt>
      <trkpt lat="45.19577" lon="6.40471">
        <ele>1848.8000488281</ele>
        <time>2022-12-17T09:39:08.000Z</time>
      </trkpt>
      <trkpt lat="45.19576" lon="6.40468">
        <ele>1849.4000244141</ele>
        <time>2022-12-17T09:39:12.000Z</time>
      </trkpt>
      <trkpt lat="45.19577" lon="6.40466">
        <ele>1850</ele>
        <time>2022-12-17T09:39:15.000Z</time>
      </trkpt>
      <trkpt lat="45.19575" lon="6.40466">
        <ele>1850.1999511719</ele>
        <time>2022-12-17T09:39:18.000Z</time>
      </trkpt>
      <trkpt lat="45.19575" lon="6.40465">
        <ele>1850.1999511719</ele>
        <time>2022-12-17T09:39:22.000Z</time>
      </trkpt>
      <trkpt lat="45.19574" lon="6.40462">
        <ele>1850.4000244141</ele>
        <time>2022-12-17T09:39:27.000Z</time>
      </trkpt>
      <trkpt lat="45.19575" lon="6.4046">
        <ele>1850.4000244141</ele>
        <time>2022-12-17T09:39:30.000Z</time>
      </trkpt>
      <trkpt lat="45.19576" lon="6.40456">
        <ele>1850.5999755859</ele>
        <time>2022-12-17T09:39:35.000Z</time>
      </trkpt>
      <trkpt lat="45.19576" lon="6.40452">
        <ele>1851.5999755859</ele>
        <time>2022-12-17T09:39:39.000Z</time>
      </trkpt>
      <trkpt lat="45.19576" lon="6.4045">
        <ele>1852</ele>
        <time>2022-12-17T09:39:42.000Z</time>
      </trkpt>
      <trkpt lat="45.19577" lon="6.40447">
        <ele>1852.8000488281</ele>
        <time>2022-12-17T09:39:46.000Z</time>
      </trkpt>
      <trkpt lat="45.19578" lon="6.40445">
        <ele>1853</ele>
        <time>2022-12-17T09:39:48.000Z</time>
      </trkpt>
      <trkpt lat="45.19578" lon="6.40445">
        <ele>1853.1999511719</ele>
        <time>2022-12-17T09:39:49.000Z</time>
      </trkpt>
      <trkpt lat="45.1958" lon="6.40442">
        <ele>1853.8000488281</ele>
        <time>2022-12-17T09:39:53.000Z</time>
      </trkpt>
      <trkpt lat="45.19581" lon="6.40439">
        <ele>1854.4000244141</ele>
        <time>2022-12-17T09:39:56.000Z</time>
      </trkpt>
      <trkpt lat="45.19583" lon="6.40437">
        <ele>1855</ele>
        <time>2022-12-17T09:39:59.000Z</time>
      </trkpt>
      <trkpt lat="45.19586" lon="6.40437">
        <ele>1855.5999755859</ele>
        <time>2022-12-17T09:40:02.000Z</time>
      </trkpt>
      <trkpt lat="45.19587" lon="6.40437">
        <ele>1856</ele>
        <time>2022-12-17T09:40:03.000Z</time>
      </trkpt>
      <trkpt lat="45.19588" lon="6.40438">
        <ele>1856.1999511719</ele>
        <time>2022-12-17T09:40:04.000Z</time>
      </trkpt>
      <trkpt lat="45.19592" lon="6.40442">
        <ele>1856.5999755859</ele>
        <time>2022-12-17T09:40:09.000Z</time>
      </trkpt>
      <trkpt lat="45.19598" lon="6.40445">
        <ele>1857</ele>
        <time>2022-12-17T09:40:15.000Z</time>
      </trkpt>
      <trkpt lat="45.19598" lon="6.40445">
        <ele>1857.1999511719</ele>
        <time>2022-12-17T09:40:16.000Z</time>
      </trkpt>
      <trkpt lat="45.19599" lon="6.40443">
        <ele>1857.1999511719</ele>
        <time>2022-12-17T09:40:17.000Z</time>
      </trkpt>
      <trkpt lat="45.196" lon="6.4044">
        <ele>1857.8000488281</ele>
        <time>2022-12-17T09:40:23.000Z</time>
      </trkpt>
      <trkpt lat="45.19599" lon="6.40439">
        <ele>1858.1999511719</ele>
        <time>2022-12-17T09:40:25.000Z</time>
      </trkpt>
      <trkpt lat="45.19598" lon="6.40436">
        <ele>1858.5999755859</ele>
        <time>2022-12-17T09:40:29.000Z</time>
      </trkpt>
      <trkpt lat="45.19598" lon="6.40434">
        <ele>1858.8000488281</ele>
        <time>2022-12-17T09:40:31.000Z</time>
      </trkpt>
      <trkpt lat="45.19598" lon="6.40433">
        <ele>1859</ele>
        <time>2022-12-17T09:40:32.000Z</time>
      </trkpt>
      <trkpt lat="45.19598" lon="6.40431">
        <ele>1859.1999511719</ele>
        <time>2022-12-17T09:40:36.000Z</time>
      </trkpt>
      <trkpt lat="45.19598" lon="6.4043">
        <ele>1859.5999755859</ele>
        <time>2022-12-17T09:40:44.000Z</time>
      </trkpt>
      <trkpt lat="45.19598" lon="6.40429">
        <ele>1859.8000488281</ele>
        <time>2022-12-17T09:40:45.000Z</time>
      </trkpt>
      <trkpt lat="45.19597" lon="6.40427">
        <ele>1860.4000244141</ele>
        <time>2022-12-17T09:40:47.000Z</time>
      </trkpt>
      <trkpt lat="45.19598" lon="6.40421">
        <ele>1861.4000244141</ele>
        <time>2022-12-17T09:40:53.000Z</time>
      </trkpt>
      <trkpt lat="45.19595" lon="6.40416">
        <ele>1861.8000488281</ele>
        <time>2022-12-17T09:40:58.000Z</time>
      </trkpt>
      <trkpt lat="45.19596" lon="6.40413">
        <ele>1862.1999511719</ele>
        <time>2022-12-17T09:41:03.000Z</time>
      </trkpt>
      <trkpt lat="45.19596" lon="6.40412">
        <ele>1862.8000488281</ele>
        <time>2022-12-17T09:41:05.000Z</time>
      </trkpt>
      <trkpt lat="45.19594" lon="6.40413">
        <ele>1863.5999755859</ele>
        <time>2022-12-17T09:41:10.000Z</time>
      </trkpt>
      <trkpt lat="45.19593" lon="6.40409">
        <ele>1863.5999755859</ele>
        <time>2022-12-17T09:41:16.000Z</time>
      </trkpt>
      <trkpt lat="45.19592" lon="6.40409">
        <ele>1863.8000488281</ele>
        <time>2022-12-17T09:41:17.000Z</time>
      </trkpt>
      <trkpt lat="45.19592" lon="6.40406">
        <ele>1863.8000488281</ele>
        <time>2022-12-17T09:41:19.000Z</time>
      </trkpt>
      <trkpt lat="45.19592" lon="6.40403">
        <ele>1864</ele>
        <time>2022-12-17T09:41:21.000Z</time>
      </trkpt>
      <trkpt lat="45.19592" lon="6.40401">
        <ele>1864.8000488281</ele>
        <time>2022-12-17T09:41:23.000Z</time>
      </trkpt>
      <trkpt lat="45.19591" lon="6.40396">
        <ele>1866</ele>
        <time>2022-12-17T09:41:27.000Z</time>
      </trkpt>
      <trkpt lat="45.19591" lon="6.40394">
        <ele>1866.1999511719</ele>
        <time>2022-12-17T09:41:28.000Z</time>
      </trkpt>
      <trkpt lat="45.1959" lon="6.40391">
        <ele>1866.8000488281</ele>
        <time>2022-12-17T09:41:31.000Z</time>
      </trkpt>
      <trkpt lat="45.1959" lon="6.40388">
        <ele>1867.1999511719</ele>
        <time>2022-12-17T09:41:33.000Z</time>
      </trkpt>
      <trkpt lat="45.19589" lon="6.40387">
        <ele>1867.4000244141</ele>
        <time>2022-12-17T09:41:34.000Z</time>
      </trkpt>
      <trkpt lat="45.19587" lon="6.4038">
        <ele>1868.4000244141</ele>
        <time>2022-12-17T09:41:39.000Z</time>
      </trkpt>
      <trkpt lat="45.19587" lon="6.40375">
        <ele>1869.1999511719</ele>
        <time>2022-12-17T09:41:43.000Z</time>
      </trkpt>
      <trkpt lat="45.19587" lon="6.40374">
        <ele>1869.4000244141</ele>
        <time>2022-12-17T09:41:44.000Z</time>
      </trkpt>
      <trkpt lat="45.19586" lon="6.40373">
        <ele>1869.8000488281</ele>
        <time>2022-12-17T09:41:45.000Z</time>
      </trkpt>
      <trkpt lat="45.19586" lon="6.40372">
        <ele>1870</ele>
        <time>2022-12-17T09:41:46.000Z</time>
      </trkpt>
      <trkpt lat="45.19585" lon="6.40369">
        <ele>1870.5999755859</ele>
        <time>2022-12-17T09:41:49.000Z</time>
      </trkpt>
      <trkpt lat="45.19584" lon="6.40366">
        <ele>1871.8000488281</ele>
        <time>2022-12-17T09:41:53.000Z</time>
      </trkpt>
      <trkpt lat="45.19583" lon="6.40365">
        <ele>1872</ele>
        <time>2022-12-17T09:41:54.000Z</time>
      </trkpt>
      <trkpt lat="45.19582" lon="6.40359">
        <ele>1873</ele>
        <time>2022-12-17T09:41:59.000Z</time>
      </trkpt>
      <trkpt lat="45.19582" lon="6.40354">
        <ele>1874</ele>
        <time>2022-12-17T09:42:05.000Z</time>
      </trkpt>
      <trkpt lat="45.19581" lon="6.40346">
        <ele>1875.1999511719</ele>
        <time>2022-12-17T09:42:13.000Z</time>
      </trkpt>
      <trkpt lat="45.19581" lon="6.40344">
        <ele>1875.8000488281</ele>
        <time>2022-12-17T09:42:15.000Z</time>
      </trkpt>
      <trkpt lat="45.19579" lon="6.40341">
        <ele>1876.1999511719</ele>
        <time>2022-12-17T09:42:19.000Z</time>
      </trkpt>
      <trkpt lat="45.1958" lon="6.40337">
        <ele>1877</ele>
        <time>2022-12-17T09:42:23.000Z</time>
      </trkpt>
      <trkpt lat="45.1958" lon="6.40336">
        <ele>1877.4000244141</ele>
        <time>2022-12-17T09:42:25.000Z</time>
      </trkpt>
      <trkpt lat="45.1958" lon="6.40333">
        <ele>1878.4000244141</ele>
        <time>2022-12-17T09:42:30.000Z</time>
      </trkpt>
      <trkpt lat="45.1958" lon="6.40332">
        <ele>1878.5999755859</ele>
        <time>2022-12-17T09:42:31.000Z</time>
      </trkpt>
      <trkpt lat="45.19579" lon="6.40324">
        <ele>1879.5999755859</ele>
        <time>2022-12-17T09:42:37.000Z</time>
      </trkpt>
      <trkpt lat="45.19578" lon="6.40322">
        <ele>1880</ele>
        <time>2022-12-17T09:42:39.000Z</time>
      </trkpt>
      <trkpt lat="45.1958" lon="6.40318">
        <ele>1880.8000488281</ele>
        <time>2022-12-17T09:42:43.000Z</time>
      </trkpt>
      <trkpt lat="45.19581" lon="6.40314">
        <ele>1881.4000244141</ele>
        <time>2022-12-17T09:42:47.000Z</time>
      </trkpt>
      <trkpt lat="45.19581" lon="6.40312">
        <ele>1881.8000488281</ele>
        <time>2022-12-17T09:42:49.000Z</time>
      </trkpt>
      <trkpt lat="45.1958" lon="6.40308">
        <ele>1882.1999511719</ele>
        <time>2022-12-17T09:42:52.000Z</time>
      </trkpt>
      <trkpt lat="45.1958" lon="6.40307">
        <ele>1882.4000244141</ele>
        <time>2022-12-17T09:42:53.000Z</time>
      </trkpt>
      <trkpt lat="45.1958" lon="6.40305">
        <ele>1883</ele>
        <time>2022-12-17T09:42:55.000Z</time>
      </trkpt>
      <trkpt lat="45.1958" lon="6.403">
        <ele>1883.8000488281</ele>
        <time>2022-12-17T09:43:00.000Z</time>
      </trkpt>
      <trkpt lat="45.19579" lon="6.40299">
        <ele>1884</ele>
        <time>2022-12-17T09:43:01.000Z</time>
      </trkpt>
      <trkpt lat="45.19579" lon="6.40296">
        <ele>1884.1999511719</ele>
        <time>2022-12-17T09:43:03.000Z</time>
      </trkpt>
      <trkpt lat="45.19579" lon="6.40291">
        <ele>1885.1999511719</ele>
        <time>2022-12-17T09:43:09.000Z</time>
      </trkpt>
      <trkpt lat="45.19579" lon="6.4029">
        <ele>1885.4000244141</ele>
        <time>2022-12-17T09:43:10.000Z</time>
      </trkpt>
      <trkpt lat="45.19579" lon="6.40287">
        <ele>1886</ele>
        <time>2022-12-17T09:43:13.000Z</time>
      </trkpt>
      <trkpt lat="45.19579" lon="6.40286">
        <ele>1886.1999511719</ele>
        <time>2022-12-17T09:43:14.000Z</time>
      </trkpt>
      <trkpt lat="45.19579" lon="6.40285">
        <ele>1886.1999511719</ele>
        <time>2022-12-17T09:43:15.000Z</time>
      </trkpt>
      <trkpt lat="45.19579" lon="6.40281">
        <ele>1887</ele>
        <time>2022-12-17T09:43:19.000Z</time>
      </trkpt>
      <trkpt lat="45.19578" lon="6.40279">
        <ele>1887.4000244141</ele>
        <time>2022-12-17T09:43:21.000Z</time>
      </trkpt>
      <trkpt lat="45.19575" lon="6.40271">
        <ele>1888.1999511719</ele>
        <time>2022-12-17T09:43:29.000Z</time>
      </trkpt>
      <trkpt lat="45.19575" lon="6.4027">
        <ele>1888.5999755859</ele>
        <time>2022-12-17T09:43:31.000Z</time>
      </trkpt>
      <trkpt lat="45.19572" lon="6.40261">
        <ele>1889.5999755859</ele>
        <time>2022-12-17T09:43:39.000Z</time>
      </trkpt>
      <trkpt lat="45.19572" lon="6.40257">
        <ele>1890.5999755859</ele>
        <time>2022-12-17T09:43:44.000Z</time>
      </trkpt>
      <trkpt lat="45.19572" lon="6.40254">
        <ele>1891.1999511719</ele>
        <time>2022-12-17T09:43:47.000Z</time>
      </trkpt>
      <trkpt lat="45.1957" lon="6.4025">
        <ele>1891.8000488281</ele>
        <time>2022-12-17T09:43:51.000Z</time>
      </trkpt>
      <trkpt lat="45.1957" lon="6.40247">
        <ele>1892</ele>
        <time>2022-12-17T09:43:53.000Z</time>
      </trkpt>
      <trkpt lat="45.19569" lon="6.40243">
        <ele>1892.8000488281</ele>
        <time>2022-12-17T09:43:58.000Z</time>
      </trkpt>
      <trkpt lat="45.19569" lon="6.40237">
        <ele>1893.8000488281</ele>
        <time>2022-12-17T09:44:03.000Z</time>
      </trkpt>
      <trkpt lat="45.19569" lon="6.40234">
        <ele>1894</ele>
        <time>2022-12-17T09:44:05.000Z</time>
      </trkpt>
      <trkpt lat="45.19568" lon="6.40228">
        <ele>1894.8000488281</ele>
        <time>2022-12-17T09:44:10.000Z</time>
      </trkpt>
      <trkpt lat="45.19568" lon="6.40227">
        <ele>1894.8000488281</ele>
        <time>2022-12-17T09:44:11.000Z</time>
      </trkpt>
      <trkpt lat="45.19567" lon="6.4022">
        <ele>1895.5999755859</ele>
        <time>2022-12-17T09:44:18.000Z</time>
      </trkpt>
      <trkpt lat="45.19567" lon="6.40218">
        <ele>1895.8000488281</ele>
        <time>2022-12-17T09:44:20.000Z</time>
      </trkpt>
      <trkpt lat="45.19566" lon="6.40213">
        <ele>1896.5999755859</ele>
        <time>2022-12-17T09:44:25.000Z</time>
      </trkpt>
      <trkpt lat="45.19565" lon="6.4021">
        <ele>1897</ele>
        <time>2022-12-17T09:44:28.000Z</time>
      </trkpt>
      <trkpt lat="45.19565" lon="6.40204">
        <ele>1897.8000488281</ele>
        <time>2022-12-17T09:44:33.000Z</time>
      </trkpt>
      <trkpt lat="45.19564" lon="6.40202">
        <ele>1898</ele>
        <time>2022-12-17T09:44:35.000Z</time>
      </trkpt>
      <trkpt lat="45.19563" lon="6.40201">
        <ele>1898.1999511719</ele>
        <time>2022-12-17T09:44:36.000Z</time>
      </trkpt>
      <trkpt lat="45.19562" lon="6.40196">
        <ele>1898.4000244141</ele>
        <time>2022-12-17T09:44:40.000Z</time>
      </trkpt>
      <trkpt lat="45.19562" lon="6.40195">
        <ele>1898.5999755859</ele>
        <time>2022-12-17T09:44:41.000Z</time>
      </trkpt>
      <trkpt lat="45.1956" lon="6.40189">
        <ele>1899.1999511719</ele>
        <time>2022-12-17T09:44:46.000Z</time>
      </trkpt>
      <trkpt lat="45.19558" lon="6.40184">
        <ele>1899.4000244141</ele>
        <time>2022-12-17T09:44:49.000Z</time>
      </trkpt>
      <trkpt lat="45.19558" lon="6.40182">
        <ele>1899.5999755859</ele>
        <time>2022-12-17T09:44:51.000Z</time>
      </trkpt>
      <trkpt lat="45.19557" lon="6.40177">
        <ele>1900.4000244141</ele>
        <time>2022-12-17T09:44:55.000Z</time>
      </trkpt>
      <trkpt lat="45.19556" lon="6.40173">
        <ele>1900.5999755859</ele>
        <time>2022-12-17T09:44:58.000Z</time>
      </trkpt>
      <trkpt lat="45.19556" lon="6.4017">
        <ele>1901</ele>
        <time>2022-12-17T09:45:00.000Z</time>
      </trkpt>
      <trkpt lat="45.19556" lon="6.40169">
        <ele>1901</ele>
        <time>2022-12-17T09:45:01.000Z</time>
      </trkpt>
      <trkpt lat="45.19555" lon="6.40165">
        <ele>1901.4000244141</ele>
        <time>2022-12-17T09:45:04.000Z</time>
      </trkpt>
      <trkpt lat="45.19554" lon="6.40162">
        <ele>1901.5999755859</ele>
        <time>2022-12-17T09:45:06.000Z</time>
      </trkpt>
      <trkpt lat="45.19554" lon="6.40161">
        <ele>1901.5999755859</ele>
        <time>2022-12-17T09:45:07.000Z</time>
      </trkpt>
      <trkpt lat="45.19554" lon="6.40159">
        <ele>1901.8000488281</ele>
        <time>2022-12-17T09:45:09.000Z</time>
      </trkpt>
      <trkpt lat="45.19553" lon="6.40153">
        <ele>1902.4000244141</ele>
        <time>2022-12-17T09:45:14.000Z</time>
      </trkpt>
      <trkpt lat="45.19553" lon="6.40152">
        <ele>1902.5999755859</ele>
        <time>2022-12-17T09:45:15.000Z</time>
      </trkpt>
      <trkpt lat="45.19553" lon="6.4015">
        <ele>1902.5999755859</ele>
        <time>2022-12-17T09:45:16.000Z</time>
      </trkpt>
      <trkpt lat="45.19552" lon="6.40145">
        <ele>1903.4000244141</ele>
        <time>2022-12-17T09:45:20.000Z</time>
      </trkpt>
      <trkpt lat="45.19552" lon="6.40143">
        <ele>1903.4000244141</ele>
        <time>2022-12-17T09:45:21.000Z</time>
      </trkpt>
      <trkpt lat="45.1955" lon="6.40134">
        <ele>1903.8000488281</ele>
        <time>2022-12-17T09:45:28.000Z</time>
      </trkpt>
      <trkpt lat="45.19549" lon="6.40128">
        <ele>1904.4000244141</ele>
        <time>2022-12-17T09:45:34.000Z</time>
      </trkpt>
      <trkpt lat="45.19548" lon="6.40127">
        <ele>1904.5999755859</ele>
        <time>2022-12-17T09:45:35.000Z</time>
      </trkpt>
      <trkpt lat="45.19548" lon="6.4012">
        <ele>1905.4000244141</ele>
        <time>2022-12-17T09:45:42.000Z</time>
      </trkpt>
      <trkpt lat="45.19548" lon="6.40118">
        <ele>1905.5999755859</ele>
        <time>2022-12-17T09:45:44.000Z</time>
      </trkpt>
      <trkpt lat="45.19546" lon="6.4011">
        <ele>1906.5999755859</ele>
        <time>2022-12-17T09:45:50.000Z</time>
      </trkpt>
      <trkpt lat="45.19546" lon="6.40106">
        <ele>1907.1999511719</ele>
        <time>2022-12-17T09:45:53.000Z</time>
      </trkpt>
      <trkpt lat="45.19545" lon="6.40103">
        <ele>1907.8000488281</ele>
        <time>2022-12-17T09:45:56.000Z</time>
      </trkpt>
      <trkpt lat="45.19544" lon="6.40097">
        <ele>1908.8000488281</ele>
        <time>2022-12-17T09:46:02.000Z</time>
      </trkpt>
      <trkpt lat="45.19545" lon="6.40097">
        <ele>1909</ele>
        <time>2022-12-17T09:46:03.000Z</time>
      </trkpt>
      <trkpt lat="45.19544" lon="6.40091">
        <ele>1909.5999755859</ele>
        <time>2022-12-17T09:46:09.000Z</time>
      </trkpt>
      <trkpt lat="45.19543" lon="6.40089">
        <ele>1910</ele>
        <time>2022-12-17T09:46:11.000Z</time>
      </trkpt>
      <trkpt lat="45.19542" lon="6.40085">
        <ele>1910.8000488281</ele>
        <time>2022-12-17T09:46:16.000Z</time>
      </trkpt>
      <trkpt lat="45.19542" lon="6.40084">
        <ele>1911.1999511719</ele>
        <time>2022-12-17T09:46:17.000Z</time>
      </trkpt>
      <trkpt lat="45.19541" lon="6.40078">
        <ele>1912.1999511719</ele>
        <time>2022-12-17T09:46:22.000Z</time>
      </trkpt>
      <trkpt lat="45.19539" lon="6.40074">
        <ele>1913.4000244141</ele>
        <time>2022-12-17T09:46:29.000Z</time>
      </trkpt>
      <trkpt lat="45.19539" lon="6.40071">
        <ele>1913.8000488281</ele>
        <time>2022-12-17T09:46:31.000Z</time>
      </trkpt>
      <trkpt lat="45.19539" lon="6.40069">
        <ele>1914.5999755859</ele>
        <time>2022-12-17T09:46:34.000Z</time>
      </trkpt>
      <trkpt lat="45.19537" lon="6.40065">
        <ele>1915.8000488281</ele>
        <time>2022-12-17T09:46:40.000Z</time>
      </trkpt>
      <trkpt lat="45.19535" lon="6.4006">
        <ele>1917</ele>
        <time>2022-12-17T09:46:47.000Z</time>
      </trkpt>
      <trkpt lat="45.19534" lon="6.40059">
        <ele>1917</ele>
        <time>2022-12-17T09:46:48.000Z</time>
      </trkpt>
      <trkpt lat="45.19534" lon="6.40057">
        <ele>1917.5999755859</ele>
        <time>2022-12-17T09:46:50.000Z</time>
      </trkpt>
      <trkpt lat="45.19533" lon="6.40057">
        <ele>1918</ele>
        <time>2022-12-17T09:46:51.000Z</time>
      </trkpt>
      <trkpt lat="45.19531" lon="6.40056">
        <ele>1918.4000244141</ele>
        <time>2022-12-17T09:46:53.000Z</time>
      </trkpt>
      <trkpt lat="45.19532" lon="6.40054">
        <ele>1919</ele>
        <time>2022-12-17T09:46:56.000Z</time>
      </trkpt>
      <trkpt lat="45.19532" lon="6.4005">
        <ele>1919.8000488281</ele>
        <time>2022-12-17T09:47:00.000Z</time>
      </trkpt>
      <trkpt lat="45.19532" lon="6.40049">
        <ele>1920</ele>
        <time>2022-12-17T09:47:01.000Z</time>
      </trkpt>
      <trkpt lat="45.19531" lon="6.40048">
        <ele>1920.1999511719</ele>
        <time>2022-12-17T09:47:02.000Z</time>
      </trkpt>
      <trkpt lat="45.1953" lon="6.40044">
        <ele>1921.1999511719</ele>
        <time>2022-12-17T09:47:07.000Z</time>
      </trkpt>
      <trkpt lat="45.1953" lon="6.40043">
        <ele>1921.4000244141</ele>
        <time>2022-12-17T09:47:08.000Z</time>
      </trkpt>
      <trkpt lat="45.19528" lon="6.40041">
        <ele>1922.4000244141</ele>
        <time>2022-12-17T09:47:13.000Z</time>
      </trkpt>
      <trkpt lat="45.19528" lon="6.40036">
        <ele>1923.4000244141</ele>
        <time>2022-12-17T09:47:18.000Z</time>
      </trkpt>
      <trkpt lat="45.19526" lon="6.40031">
        <ele>1924.4000244141</ele>
        <time>2022-12-17T09:47:24.000Z</time>
      </trkpt>
      <trkpt lat="45.19526" lon="6.4003">
        <ele>1924.8000488281</ele>
        <time>2022-12-17T09:47:26.000Z</time>
      </trkpt>
      <trkpt lat="45.19525" lon="6.40027">
        <ele>1925.5999755859</ele>
        <time>2022-12-17T09:47:31.000Z</time>
      </trkpt>
      <trkpt lat="45.19524" lon="6.40026">
        <ele>1926</ele>
        <time>2022-12-17T09:47:33.000Z</time>
      </trkpt>
      <trkpt lat="45.19524" lon="6.40022">
        <ele>1926.5999755859</ele>
        <time>2022-12-17T09:47:38.000Z</time>
      </trkpt>
      <trkpt lat="45.19523" lon="6.40019">
        <ele>1927.1999511719</ele>
        <time>2022-12-17T09:47:42.000Z</time>
      </trkpt>
      <trkpt lat="45.19523" lon="6.40016">
        <ele>1927.8000488281</ele>
        <time>2022-12-17T09:47:45.000Z</time>
      </trkpt>
      <trkpt lat="45.19522" lon="6.40013">
        <ele>1929</ele>
        <time>2022-12-17T09:47:49.000Z</time>
      </trkpt>
      <trkpt lat="45.19522" lon="6.40012">
        <ele>1929.1999511719</ele>
        <time>2022-12-17T09:47:50.000Z</time>
      </trkpt>
      <trkpt lat="45.19521" lon="6.40008">
        <ele>1930</ele>
        <time>2022-12-17T09:47:54.000Z</time>
      </trkpt>
      <trkpt lat="45.19519" lon="6.40001">
        <ele>1930.8000488281</ele>
        <time>2022-12-17T09:48:01.000Z</time>
      </trkpt>
      <trkpt lat="45.19518" lon="6.39999">
        <ele>1931.1999511719</ele>
        <time>2022-12-17T09:48:03.000Z</time>
      </trkpt>
      <trkpt lat="45.19517" lon="6.39997">
        <ele>1931.4000244141</ele>
        <time>2022-12-17T09:48:05.000Z</time>
      </trkpt>
      <trkpt lat="45.19517" lon="6.39993">
        <ele>1932</ele>
        <time>2022-12-17T09:48:09.000Z</time>
      </trkpt>
      <trkpt lat="45.19516" lon="6.39989">
        <ele>1932.1999511719</ele>
        <time>2022-12-17T09:48:13.000Z</time>
      </trkpt>
      <trkpt lat="45.19515" lon="6.39987">
        <ele>1932.4000244141</ele>
        <time>2022-12-17T09:48:15.000Z</time>
      </trkpt>
      <trkpt lat="45.19515" lon="6.39985">
        <ele>1932.8000488281</ele>
        <time>2022-12-17T09:48:17.000Z</time>
      </trkpt>
      <trkpt lat="45.19515" lon="6.39984">
        <ele>1932.8000488281</ele>
        <time>2022-12-17T09:48:19.000Z</time>
      </trkpt>
      <trkpt lat="45.19514" lon="6.39983">
        <ele>1932.8000488281</ele>
        <time>2022-12-17T09:48:22.000Z</time>
      </trkpt>
      <trkpt lat="45.19514" lon="6.39983">
        <ele>1932.8000488281</ele>
        <time>2022-12-17T09:48:30.000Z</time>
      </trkpt>
      <trkpt lat="45.19514" lon="6.39983">
        <ele>1932.8000488281</ele>
        <time>2022-12-17T09:48:38.000Z</time>
      </trkpt>
      <trkpt lat="45.19511" lon="6.39978">
        <ele>1933.4000244141</ele>
        <time>2022-12-17T09:48:54.000Z</time>
      </trkpt>
      <trkpt lat="45.19511" lon="6.39978">
        <ele>1933.5999755859</ele>
        <time>2022-12-17T09:48:56.000Z</time>
      </trkpt>
      <trkpt lat="45.19509" lon="6.39973">
        <ele>1934</ele>
        <time>2022-12-17T09:49:00.000Z</time>
      </trkpt>
      <trkpt lat="45.19509" lon="6.39968">
        <ele>1934.5999755859</ele>
        <time>2022-12-17T09:49:03.000Z</time>
      </trkpt>
      <trkpt lat="45.19508" lon="6.39963">
        <ele>1935</ele>
        <time>2022-12-17T09:49:07.000Z</time>
      </trkpt>
      <trkpt lat="45.19508" lon="6.39959">
        <ele>1935.5999755859</ele>
        <time>2022-12-17T09:49:10.000Z</time>
      </trkpt>
      <trkpt lat="45.19508" lon="6.39953">
        <ele>1936.4000244141</ele>
        <time>2022-12-17T09:49:16.000Z</time>
      </trkpt>
      <trkpt lat="45.19507" lon="6.3995">
        <ele>1936.5999755859</ele>
        <time>2022-12-17T09:49:19.000Z</time>
      </trkpt>
      <trkpt lat="45.19508" lon="6.3995">
        <ele>1936.8000488281</ele>
        <time>2022-12-17T09:49:20.000Z</time>
      </trkpt>
      <trkpt lat="45.19507" lon="6.39947">
        <ele>1937.4000244141</ele>
        <time>2022-12-17T09:49:23.000Z</time>
      </trkpt>
      <trkpt lat="45.19506" lon="6.39944">
        <ele>1938</ele>
        <time>2022-12-17T09:49:27.000Z</time>
      </trkpt>
      <trkpt lat="45.19505" lon="6.3994">
        <ele>1938.8000488281</ele>
        <time>2022-12-17T09:49:31.000Z</time>
      </trkpt>
      <trkpt lat="45.19505" lon="6.39939">
        <ele>1939</ele>
        <time>2022-12-17T09:49:32.000Z</time>
      </trkpt>
      <trkpt lat="45.19507" lon="6.39936">
        <ele>1939.4000244141</ele>
        <time>2022-12-17T09:49:36.000Z</time>
      </trkpt>
      <trkpt lat="45.19509" lon="6.39937">
        <ele>1939.5999755859</ele>
        <time>2022-12-17T09:49:38.000Z</time>
      </trkpt>
      <trkpt lat="45.1951" lon="6.39938">
        <ele>1939.8000488281</ele>
        <time>2022-12-17T09:49:39.000Z</time>
      </trkpt>
      <trkpt lat="45.19512" lon="6.3994">
        <ele>1940</ele>
        <time>2022-12-17T09:49:41.000Z</time>
      </trkpt>
      <trkpt lat="45.19514" lon="6.3994">
        <ele>1940.1999511719</ele>
        <time>2022-12-17T09:49:44.000Z</time>
      </trkpt>
      <trkpt lat="45.19514" lon="6.39939">
        <ele>1940.1999511719</ele>
        <time>2022-12-17T09:49:45.000Z</time>
      </trkpt>
      <trkpt lat="45.19515" lon="6.39933">
        <ele>1941</ele>
        <time>2022-12-17T09:49:51.000Z</time>
      </trkpt>
      <trkpt lat="45.19514" lon="6.39931">
        <ele>1941.1999511719</ele>
        <time>2022-12-17T09:49:52.000Z</time>
      </trkpt>
      <trkpt lat="45.19514" lon="6.39929">
        <ele>1941.4000244141</ele>
        <time>2022-12-17T09:49:53.000Z</time>
      </trkpt>
      <trkpt lat="45.19512" lon="6.3992">
        <ele>1942</ele>
        <time>2022-12-17T09:50:00.000Z</time>
      </trkpt>
      <trkpt lat="45.19511" lon="6.39918">
        <ele>1942.4000244141</ele>
        <time>2022-12-17T09:50:03.000Z</time>
      </trkpt>
      <trkpt lat="45.19511" lon="6.39916">
        <ele>1942.5999755859</ele>
        <time>2022-12-17T09:50:05.000Z</time>
      </trkpt>
      <trkpt lat="45.1951" lon="6.39915">
        <ele>1943</ele>
        <time>2022-12-17T09:50:06.000Z</time>
      </trkpt>
      <trkpt lat="45.1951" lon="6.39914">
        <ele>1943</ele>
        <time>2022-12-17T09:50:07.000Z</time>
      </trkpt>
      <trkpt lat="45.19509" lon="6.39913">
        <ele>1943.4000244141</ele>
        <time>2022-12-17T09:50:09.000Z</time>
      </trkpt>
      <trkpt lat="45.19508" lon="6.39908">
        <ele>1944.5999755859</ele>
        <time>2022-12-17T09:50:15.000Z</time>
      </trkpt>
      <trkpt lat="45.19507" lon="6.39907">
        <ele>1945.1999511719</ele>
        <time>2022-12-17T09:50:17.000Z</time>
      </trkpt>
      <trkpt lat="45.19507" lon="6.39905">
        <ele>1945.5999755859</ele>
        <time>2022-12-17T09:50:19.000Z</time>
      </trkpt>
      <trkpt lat="45.19506" lon="6.399">
        <ele>1946.5999755859</ele>
        <time>2022-12-17T09:50:27.000Z</time>
      </trkpt>
      <trkpt lat="45.19506" lon="6.39897">
        <ele>1947</ele>
        <time>2022-12-17T09:50:29.000Z</time>
      </trkpt>
      <trkpt lat="45.19504" lon="6.39895">
        <ele>1947.5999755859</ele>
        <time>2022-12-17T09:50:33.000Z</time>
      </trkpt>
      <trkpt lat="45.19504" lon="6.39894">
        <ele>1947.8000488281</ele>
        <time>2022-12-17T09:50:34.000Z</time>
      </trkpt>
      <trkpt lat="45.19503" lon="6.39891">
        <ele>1949</ele>
        <time>2022-12-17T09:50:39.000Z</time>
      </trkpt>
      <trkpt lat="45.19502" lon="6.39891">
        <ele>1949</ele>
        <time>2022-12-17T09:50:40.000Z</time>
      </trkpt>
      <trkpt lat="45.195" lon="6.39888">
        <ele>1950</ele>
        <time>2022-12-17T09:50:44.000Z</time>
      </trkpt>
      <trkpt lat="45.19499" lon="6.39886">
        <ele>1950.4000244141</ele>
        <time>2022-12-17T09:50:47.000Z</time>
      </trkpt>
      <trkpt lat="45.19498" lon="6.39882">
        <ele>1951</ele>
        <time>2022-12-17T09:50:51.000Z</time>
      </trkpt>
      <trkpt lat="45.19498" lon="6.39879">
        <ele>1952</ele>
        <time>2022-12-17T09:50:55.000Z</time>
      </trkpt>
      <trkpt lat="45.19498" lon="6.39878">
        <ele>1952.1999511719</ele>
        <time>2022-12-17T09:50:56.000Z</time>
      </trkpt>
      <trkpt lat="45.19498" lon="6.39875">
        <ele>1953.4000244141</ele>
        <time>2022-12-17T09:51:01.000Z</time>
      </trkpt>
      <trkpt lat="45.19499" lon="6.39872">
        <ele>1953.5999755859</ele>
        <time>2022-12-17T09:51:04.000Z</time>
      </trkpt>
      <trkpt lat="45.19499" lon="6.39866">
        <ele>1954.5999755859</ele>
        <time>2022-12-17T09:51:09.000Z</time>
      </trkpt>
      <trkpt lat="45.19499" lon="6.39865">
        <ele>1954.8000488281</ele>
        <time>2022-12-17T09:51:10.000Z</time>
      </trkpt>
      <trkpt lat="45.19499" lon="6.39863">
        <ele>1955.5999755859</ele>
        <time>2022-12-17T09:51:15.000Z</time>
      </trkpt>
      <trkpt lat="45.19499" lon="6.39861">
        <ele>1956.1999511719</ele>
        <time>2022-12-17T09:51:19.000Z</time>
      </trkpt>
      <trkpt lat="45.19501" lon="6.3986">
        <ele>1956.5999755859</ele>
        <time>2022-12-17T09:51:22.000Z</time>
      </trkpt>
      <trkpt lat="45.195" lon="6.39858">
        <ele>1957.1999511719</ele>
        <time>2022-12-17T09:51:27.000Z</time>
      </trkpt>
      <trkpt lat="45.195" lon="6.39856">
        <ele>1957.5999755859</ele>
        <time>2022-12-17T09:51:29.000Z</time>
      </trkpt>
      <trkpt lat="45.19499" lon="6.39853">
        <ele>1958.1999511719</ele>
        <time>2022-12-17T09:51:33.000Z</time>
      </trkpt>
      <trkpt lat="45.19498" lon="6.39853">
        <ele>1958.4000244141</ele>
        <time>2022-12-17T09:51:34.000Z</time>
      </trkpt>
      <trkpt lat="45.19497" lon="6.39851">
        <ele>1958.8000488281</ele>
        <time>2022-12-17T09:51:36.000Z</time>
      </trkpt>
      <trkpt lat="45.19497" lon="6.3985">
        <ele>1958.8000488281</ele>
        <time>2022-12-17T09:51:37.000Z</time>
      </trkpt>
      <trkpt lat="45.19496" lon="6.39847">
        <ele>1959.1999511719</ele>
        <time>2022-12-17T09:51:40.000Z</time>
      </trkpt>
      <trkpt lat="45.19495" lon="6.39846">
        <ele>1959.4000244141</ele>
        <time>2022-12-17T09:51:41.000Z</time>
      </trkpt>
      <trkpt lat="45.19493" lon="6.39841">
        <ele>1959.8000488281</ele>
        <time>2022-12-17T09:51:46.000Z</time>
      </trkpt>
      <trkpt lat="45.19492" lon="6.39837">
        <ele>1960.4000244141</ele>
        <time>2022-12-17T09:51:49.000Z</time>
      </trkpt>
      <trkpt lat="45.1949" lon="6.39833">
        <ele>1960.4000244141</ele>
        <time>2022-12-17T09:51:52.000Z</time>
      </trkpt>
      <trkpt lat="45.1949" lon="6.39831">
        <ele>1960.5999755859</ele>
        <time>2022-12-17T09:51:54.000Z</time>
      </trkpt>
      <trkpt lat="45.19488" lon="6.39829">
        <ele>1960.5999755859</ele>
        <time>2022-12-17T09:51:57.000Z</time>
      </trkpt>
      <trkpt lat="45.19487" lon="6.39826">
        <ele>1960.8000488281</ele>
        <time>2022-12-17T09:52:01.000Z</time>
      </trkpt>
      <trkpt lat="45.19486" lon="6.39825">
        <ele>1961.1999511719</ele>
        <time>2022-12-17T09:52:02.000Z</time>
      </trkpt>
      <trkpt lat="45.19483" lon="6.39821">
        <ele>1962.1999511719</ele>
        <time>2022-12-17T09:52:09.000Z</time>
      </trkpt>
      <trkpt lat="45.19483" lon="6.3982">
        <ele>1962.4000244141</ele>
        <time>2022-12-17T09:52:10.000Z</time>
      </trkpt>
      <trkpt lat="45.19482" lon="6.39817">
        <ele>1963.1999511719</ele>
        <time>2022-12-17T09:52:14.000Z</time>
      </trkpt>
      <trkpt lat="45.19481" lon="6.39814">
        <ele>1963.5999755859</ele>
        <time>2022-12-17T09:52:17.000Z</time>
      </trkpt>
      <trkpt lat="45.1948" lon="6.39812">
        <ele>1964.4000244141</ele>
        <time>2022-12-17T09:52:20.000Z</time>
      </trkpt>
      <trkpt lat="45.19479" lon="6.39811">
        <ele>1965</ele>
        <time>2022-12-17T09:52:23.000Z</time>
      </trkpt>
      <trkpt lat="45.19479" lon="6.39809">
        <ele>1965.1999511719</ele>
        <time>2022-12-17T09:52:25.000Z</time>
      </trkpt>
      <trkpt lat="45.1948" lon="6.39807">
        <ele>1965.4000244141</ele>
        <time>2022-12-17T09:52:27.000Z</time>
      </trkpt>
      <trkpt lat="45.19482" lon="6.39804">
        <ele>1966.5999755859</ele>
        <time>2022-12-17T09:52:33.000Z</time>
      </trkpt>
      <trkpt lat="45.19483" lon="6.39802">
        <ele>1967.1999511719</ele>
        <time>2022-12-17T09:52:37.000Z</time>
      </trkpt>
      <trkpt lat="45.19483" lon="6.39801">
        <ele>1967.5999755859</ele>
        <time>2022-12-17T09:52:39.000Z</time>
      </trkpt>
      <trkpt lat="45.19482" lon="6.39797">
        <ele>1968.4000244141</ele>
        <time>2022-12-17T09:52:44.000Z</time>
      </trkpt>
      <trkpt lat="45.19482" lon="6.39796">
        <ele>1968.8000488281</ele>
        <time>2022-12-17T09:52:46.000Z</time>
      </trkpt>
      <trkpt lat="45.19481" lon="6.39795">
        <ele>1969</ele>
        <time>2022-12-17T09:52:47.000Z</time>
      </trkpt>
      <trkpt lat="45.1948" lon="6.39792">
        <ele>1969.5999755859</ele>
        <time>2022-12-17T09:52:51.000Z</time>
      </trkpt>
      <trkpt lat="45.1948" lon="6.39791">
        <ele>1970</ele>
        <time>2022-12-17T09:52:52.000Z</time>
      </trkpt>
      <trkpt lat="45.19479" lon="6.39788">
        <ele>1971</ele>
        <time>2022-12-17T09:52:57.000Z</time>
      </trkpt>
      <trkpt lat="45.19479" lon="6.39787">
        <ele>1971.1999511719</ele>
        <time>2022-12-17T09:52:58.000Z</time>
      </trkpt>
      <trkpt lat="45.19478" lon="6.39782">
        <ele>1972.1999511719</ele>
        <time>2022-12-17T09:53:04.000Z</time>
      </trkpt>
      <trkpt lat="45.19478" lon="6.39779">
        <ele>1972.8000488281</ele>
        <time>2022-12-17T09:53:07.000Z</time>
      </trkpt>
      <trkpt lat="45.19478" lon="6.39779">
        <ele>1973</ele>
        <time>2022-12-17T09:53:09.000Z</time>
      </trkpt>
      <trkpt lat="45.19478" lon="6.39778">
        <ele>1973.1999511719</ele>
        <time>2022-12-17T09:53:10.000Z</time>
      </trkpt>
      <trkpt lat="45.19478" lon="6.39773">
        <ele>1974.4000244141</ele>
        <time>2022-12-17T09:53:17.000Z</time>
      </trkpt>
      <trkpt lat="45.19477" lon="6.39769">
        <ele>1975.4000244141</ele>
        <time>2022-12-17T09:53:23.000Z</time>
      </trkpt>
      <trkpt lat="45.19476" lon="6.39767">
        <ele>1976</ele>
        <time>2022-12-17T09:53:26.000Z</time>
      </trkpt>
      <trkpt lat="45.19475" lon="6.39765">
        <ele>1976.4000244141</ele>
        <time>2022-12-17T09:53:28.000Z</time>
      </trkpt>
      <trkpt lat="45.19475" lon="6.39765">
        <ele>1976.5999755859</ele>
        <time>2022-12-17T09:53:29.000Z</time>
      </trkpt>
      <trkpt lat="45.19474" lon="6.39761">
        <ele>1977.4000244141</ele>
        <time>2022-12-17T09:53:34.000Z</time>
      </trkpt>
      <trkpt lat="45.19474" lon="6.3976">
        <ele>1977.8000488281</ele>
        <time>2022-12-17T09:53:36.000Z</time>
      </trkpt>
      <trkpt lat="45.19474" lon="6.39757">
        <ele>1978.8000488281</ele>
        <time>2022-12-17T09:53:42.000Z</time>
      </trkpt>
      <trkpt lat="45.19472" lon="6.39753">
        <ele>1979.8000488281</ele>
        <time>2022-12-17T09:53:48.000Z</time>
      </trkpt>
      <trkpt lat="45.19472" lon="6.39753">
        <ele>1980</ele>
        <time>2022-12-17T09:53:49.000Z</time>
      </trkpt>
      <trkpt lat="45.19471" lon="6.39752">
        <ele>1980.8000488281</ele>
        <time>2022-12-17T09:53:53.000Z</time>
      </trkpt>
      <trkpt lat="45.19471" lon="6.39751">
        <ele>1980.8000488281</ele>
        <time>2022-12-17T09:53:54.000Z</time>
      </trkpt>
      <trkpt lat="45.19471" lon="6.39751">
        <ele>1981</ele>
        <time>2022-12-17T09:53:55.000Z</time>
      </trkpt>
      <trkpt lat="45.19471" lon="6.39745">
        <ele>1982</ele>
        <time>2022-12-17T09:54:02.000Z</time>
      </trkpt>
      <trkpt lat="45.19471" lon="6.39742">
        <ele>1982.4000244141</ele>
        <time>2022-12-17T09:54:05.000Z</time>
      </trkpt>
      <trkpt lat="45.1947" lon="6.39739">
        <ele>1983.1999511719</ele>
        <time>2022-12-17T09:54:09.000Z</time>
      </trkpt>
      <trkpt lat="45.1947" lon="6.39739">
        <ele>1983.1999511719</ele>
        <time>2022-12-17T09:54:10.000Z</time>
      </trkpt>
      <trkpt lat="45.19469" lon="6.39738">
        <ele>1983.4000244141</ele>
        <time>2022-12-17T09:54:11.000Z</time>
      </trkpt>
      <trkpt lat="45.19468" lon="6.39737">
        <ele>1983.4000244141</ele>
        <time>2022-12-17T09:54:12.000Z</time>
      </trkpt>
      <trkpt lat="45.19466" lon="6.39736">
        <ele>1983.5999755859</ele>
        <time>2022-12-17T09:54:14.000Z</time>
      </trkpt>
      <trkpt lat="45.19462" lon="6.39729">
        <ele>1984.1999511719</ele>
        <time>2022-12-17T09:54:22.000Z</time>
      </trkpt>
      <trkpt lat="45.19461" lon="6.39728">
        <ele>1984.4000244141</ele>
        <time>2022-12-17T09:54:23.000Z</time>
      </trkpt>
      <trkpt lat="45.1946" lon="6.39724">
        <ele>1985.4000244141</ele>
        <time>2022-12-17T09:54:29.000Z</time>
      </trkpt>
      <trkpt lat="45.19456" lon="6.39719">
        <ele>1986.5999755859</ele>
        <time>2022-12-17T09:54:38.000Z</time>
      </trkpt>
      <trkpt lat="45.19456" lon="6.39718">
        <ele>1986.8000488281</ele>
        <time>2022-12-17T09:54:39.000Z</time>
      </trkpt>
      <trkpt lat="45.19452" lon="6.39715">
        <ele>1987.8000488281</ele>
        <time>2022-12-17T09:54:46.000Z</time>
      </trkpt>
      <trkpt lat="45.1945" lon="6.39714">
        <ele>1988.5999755859</ele>
        <time>2022-12-17T09:54:51.000Z</time>
      </trkpt>
      <trkpt lat="45.19449" lon="6.39713">
        <ele>1989</ele>
        <time>2022-12-17T09:54:53.000Z</time>
      </trkpt>
      <trkpt lat="45.19446" lon="6.39707">
        <ele>1990</ele>
        <time>2022-12-17T09:55:00.000Z</time>
      </trkpt>
      <trkpt lat="45.19445" lon="6.39703">
        <ele>1991</ele>
        <time>2022-12-17T09:55:05.000Z</time>
      </trkpt>
      <trkpt lat="45.19445" lon="6.39699">
        <ele>1991.8000488281</ele>
        <time>2022-12-17T09:55:09.000Z</time>
      </trkpt>
      <trkpt lat="45.19444" lon="6.39697">
        <ele>1992.1999511719</ele>
        <time>2022-12-17T09:55:12.000Z</time>
      </trkpt>
      <trkpt lat="45.19444" lon="6.39691">
        <ele>1993.1999511719</ele>
        <time>2022-12-17T09:55:18.000Z</time>
      </trkpt>
      <trkpt lat="45.19444" lon="6.3969">
        <ele>1993.4000244141</ele>
        <time>2022-12-17T09:55:19.000Z</time>
      </trkpt>
      <trkpt lat="45.19443" lon="6.39684">
        <ele>1994.5999755859</ele>
        <time>2022-12-17T09:55:26.000Z</time>
      </trkpt>
      <trkpt lat="45.19441" lon="6.39676">
        <ele>1995.4000244141</ele>
        <time>2022-12-17T09:55:33.000Z</time>
      </trkpt>
      <trkpt lat="45.19441" lon="6.39675">
        <ele>1995.5999755859</ele>
        <time>2022-12-17T09:55:35.000Z</time>
      </trkpt>
      <trkpt lat="45.19439" lon="6.39671">
        <ele>1996.1999511719</ele>
        <time>2022-12-17T09:55:40.000Z</time>
      </trkpt>
      <trkpt lat="45.19439" lon="6.39669">
        <ele>1996.5999755859</ele>
        <time>2022-12-17T09:55:42.000Z</time>
      </trkpt>
      <trkpt lat="45.19438" lon="6.39664">
        <ele>1997.8000488281</ele>
        <time>2022-12-17T09:55:48.000Z</time>
      </trkpt>
      <trkpt lat="45.19438" lon="6.39662">
        <ele>1997.8000488281</ele>
        <time>2022-12-17T09:55:50.000Z</time>
      </trkpt>
      <trkpt lat="45.19438" lon="6.39661">
        <ele>1998.1999511719</ele>
        <time>2022-12-17T09:55:51.000Z</time>
      </trkpt>
      <trkpt lat="45.19437" lon="6.39657">
        <ele>1998.8000488281</ele>
        <time>2022-12-17T09:55:56.000Z</time>
      </trkpt>
      <trkpt lat="45.19437" lon="6.39652">
        <ele>1999.5999755859</ele>
        <time>2022-12-17T09:56:00.000Z</time>
      </trkpt>
      <trkpt lat="45.19437" lon="6.39651">
        <ele>1999.8000488281</ele>
        <time>2022-12-17T09:56:01.000Z</time>
      </trkpt>
      <trkpt lat="45.19436" lon="6.39649">
        <ele>2000.1999511719</ele>
        <time>2022-12-17T09:56:04.000Z</time>
      </trkpt>
      <trkpt lat="45.19436" lon="6.39648">
        <ele>2000.4000244141</ele>
        <time>2022-12-17T09:56:05.000Z</time>
      </trkpt>
      <trkpt lat="45.19434" lon="6.39645">
        <ele>2000.8000488281</ele>
        <time>2022-12-17T09:56:09.000Z</time>
      </trkpt>
      <trkpt lat="45.19434" lon="6.39642">
        <ele>2001.8000488281</ele>
        <time>2022-12-17T09:56:13.000Z</time>
      </trkpt>
      <trkpt lat="45.19433" lon="6.39641">
        <ele>2002</ele>
        <time>2022-12-17T09:56:14.000Z</time>
      </trkpt>
      <trkpt lat="45.19433" lon="6.3964">
        <ele>2002</ele>
        <time>2022-12-17T09:56:15.000Z</time>
      </trkpt>
      <trkpt lat="45.19432" lon="6.39635">
        <ele>2002.5999755859</ele>
        <time>2022-12-17T09:56:22.000Z</time>
      </trkpt>
      <trkpt lat="45.19431" lon="6.39631">
        <ele>2003</ele>
        <time>2022-12-17T09:56:26.000Z</time>
      </trkpt>
      <trkpt lat="45.19433" lon="6.39628">
        <ele>2003.5999755859</ele>
        <time>2022-12-17T09:56:30.000Z</time>
      </trkpt>
      <trkpt lat="45.19436" lon="6.39626">
        <ele>2004.1999511719</ele>
        <time>2022-12-17T09:56:35.000Z</time>
      </trkpt>
      <trkpt lat="45.19439" lon="6.39625">
        <ele>2004.5999755859</ele>
        <time>2022-12-17T09:56:39.000Z</time>
      </trkpt>
      <trkpt lat="45.19439" lon="6.39625">
        <ele>2005.1999511719</ele>
        <time>2022-12-17T09:56:41.000Z</time>
      </trkpt>
      <trkpt lat="45.19441" lon="6.39625">
        <ele>2006</ele>
        <time>2022-12-17T09:56:45.000Z</time>
      </trkpt>
      <trkpt lat="45.19442" lon="6.39625">
        <ele>2006.4000244141</ele>
        <time>2022-12-17T09:56:46.000Z</time>
      </trkpt>
      <trkpt lat="45.19445" lon="6.39626">
        <ele>2007</ele>
        <time>2022-12-17T09:56:51.000Z</time>
      </trkpt>
      <trkpt lat="45.19447" lon="6.39626">
        <ele>2007.4000244141</ele>
        <time>2022-12-17T09:56:54.000Z</time>
      </trkpt>
      <trkpt lat="45.19448" lon="6.39627">
        <ele>2007.8000488281</ele>
        <time>2022-12-17T09:56:55.000Z</time>
      </trkpt>
      <trkpt lat="45.19448" lon="6.39626">
        <ele>2008</ele>
        <time>2022-12-17T09:56:56.000Z</time>
      </trkpt>
      <trkpt lat="45.19449" lon="6.39626">
        <ele>2008.5999755859</ele>
        <time>2022-12-17T09:56:58.000Z</time>
      </trkpt>
      <trkpt lat="45.19453" lon="6.39624">
        <ele>2009.4000244141</ele>
        <time>2022-12-17T09:57:05.000Z</time>
      </trkpt>
      <trkpt lat="45.19454" lon="6.39623">
        <ele>2009.5999755859</ele>
        <time>2022-12-17T09:57:06.000Z</time>
      </trkpt>
      <trkpt lat="45.19458" lon="6.39623">
        <ele>2010.8000488281</ele>
        <time>2022-12-17T09:57:14.000Z</time>
      </trkpt>
      <trkpt lat="45.1946" lon="6.39622">
        <ele>2011.1999511719</ele>
        <time>2022-12-17T09:57:17.000Z</time>
      </trkpt>
      <trkpt lat="45.1946" lon="6.39621">
        <ele>2011.4000244141</ele>
        <time>2022-12-17T09:57:19.000Z</time>
      </trkpt>
      <trkpt lat="45.1946" lon="6.3962">
        <ele>2011.8000488281</ele>
        <time>2022-12-17T09:57:22.000Z</time>
      </trkpt>
      <trkpt lat="45.19459" lon="6.39618">
        <ele>2012.1999511719</ele>
        <time>2022-12-17T09:57:25.000Z</time>
      </trkpt>
      <trkpt lat="45.19459" lon="6.39618">
        <ele>2012.4000244141</ele>
        <time>2022-12-17T09:57:26.000Z</time>
      </trkpt>
      <trkpt lat="45.19458" lon="6.39618">
        <ele>2012.4000244141</ele>
        <time>2022-12-17T09:57:27.000Z</time>
      </trkpt>
      <trkpt lat="45.19456" lon="6.39615">
        <ele>2013</ele>
        <time>2022-12-17T09:57:30.000Z</time>
      </trkpt>
      <trkpt lat="45.19456" lon="6.39614">
        <ele>2013.1999511719</ele>
        <time>2022-12-17T09:57:31.000Z</time>
      </trkpt>
      <trkpt lat="45.19455" lon="6.3961">
        <ele>2014.1999511719</ele>
        <time>2022-12-17T09:57:36.000Z</time>
      </trkpt>
      <trkpt lat="45.19454" lon="6.39608">
        <ele>2014.5999755859</ele>
        <time>2022-12-17T09:57:39.000Z</time>
      </trkpt>
      <trkpt lat="45.19453" lon="6.39605">
        <ele>2015.4000244141</ele>
        <time>2022-12-17T09:57:43.000Z</time>
      </trkpt>
      <trkpt lat="45.19452" lon="6.39603">
        <ele>2015.8000488281</ele>
        <time>2022-12-17T09:57:46.000Z</time>
      </trkpt>
      <trkpt lat="45.19451" lon="6.39599">
        <ele>2016.4000244141</ele>
        <time>2022-12-17T09:57:51.000Z</time>
      </trkpt>
      <trkpt lat="45.19451" lon="6.39598">
        <ele>2016.8000488281</ele>
        <time>2022-12-17T09:57:53.000Z</time>
      </trkpt>
      <trkpt lat="45.1945" lon="6.39596">
        <ele>2017.1999511719</ele>
        <time>2022-12-17T09:57:56.000Z</time>
      </trkpt>
      <trkpt lat="45.1945" lon="6.39595">
        <ele>2017.4000244141</ele>
        <time>2022-12-17T09:57:57.000Z</time>
      </trkpt>
      <trkpt lat="45.1945" lon="6.39593">
        <ele>2017.8000488281</ele>
        <time>2022-12-17T09:57:59.000Z</time>
      </trkpt>
      <trkpt lat="45.1945" lon="6.39591">
        <ele>2018.1999511719</ele>
        <time>2022-12-17T09:58:02.000Z</time>
      </trkpt>
      <trkpt lat="45.19449" lon="6.39589">
        <ele>2018.5999755859</ele>
        <time>2022-12-17T09:58:05.000Z</time>
      </trkpt>
      <trkpt lat="45.19448" lon="6.39583">
        <ele>2019.4000244141</ele>
        <time>2022-12-17T09:58:12.000Z</time>
      </trkpt>
      <trkpt lat="45.19448" lon="6.39582">
        <ele>2019.5999755859</ele>
        <time>2022-12-17T09:58:13.000Z</time>
      </trkpt>
      <trkpt lat="45.19446" lon="6.39577">
        <ele>2020.5999755859</ele>
        <time>2022-12-17T09:58:18.000Z</time>
      </trkpt>
      <trkpt lat="45.19445" lon="6.39574">
        <ele>2021.4000244141</ele>
        <time>2022-12-17T09:58:23.000Z</time>
      </trkpt>
      <trkpt lat="45.19444" lon="6.39571">
        <ele>2021.5999755859</ele>
        <time>2022-12-17T09:58:26.000Z</time>
      </trkpt>
      <trkpt lat="45.19443" lon="6.39568">
        <ele>2022</ele>
        <time>2022-12-17T09:58:29.000Z</time>
      </trkpt>
      <trkpt lat="45.19443" lon="6.39568">
        <ele>2022.1999511719</ele>
        <time>2022-12-17T09:58:30.000Z</time>
      </trkpt>
      <trkpt lat="45.19442" lon="6.39564">
        <ele>2022.8000488281</ele>
        <time>2022-12-17T09:58:34.000Z</time>
      </trkpt>
      <trkpt lat="45.19442" lon="6.39563">
        <ele>2023</ele>
        <time>2022-12-17T09:58:35.000Z</time>
      </trkpt>
      <trkpt lat="45.19441" lon="6.39562">
        <ele>2023</ele>
        <time>2022-12-17T09:58:36.000Z</time>
      </trkpt>
      <trkpt lat="45.1944" lon="6.39558">
        <ele>2024</ele>
        <time>2022-12-17T09:58:42.000Z</time>
      </trkpt>
      <trkpt lat="45.19439" lon="6.39557">
        <ele>2024.4000244141</ele>
        <time>2022-12-17T09:58:44.000Z</time>
      </trkpt>
      <trkpt lat="45.19439" lon="6.39555">
        <ele>2025.1999511719</ele>
        <time>2022-12-17T09:58:47.000Z</time>
      </trkpt>
      <trkpt lat="45.19438" lon="6.39552">
        <ele>2025.8000488281</ele>
        <time>2022-12-17T09:58:51.000Z</time>
      </trkpt>
      <trkpt lat="45.19437" lon="6.3955">
        <ele>2026.1999511719</ele>
        <time>2022-12-17T09:58:53.000Z</time>
      </trkpt>
      <trkpt lat="45.19436" lon="6.39546">
        <ele>2027.1999511719</ele>
        <time>2022-12-17T09:58:59.000Z</time>
      </trkpt>
      <trkpt lat="45.19436" lon="6.39546">
        <ele>2027.4000244141</ele>
        <time>2022-12-17T09:59:00.000Z</time>
      </trkpt>
      <trkpt lat="45.19434" lon="6.3954">
        <ele>2028.4000244141</ele>
        <time>2022-12-17T09:59:06.000Z</time>
      </trkpt>
      <trkpt lat="45.19433" lon="6.39536">
        <ele>2028.5999755859</ele>
        <time>2022-12-17T09:59:10.000Z</time>
      </trkpt>
      <trkpt lat="45.19432" lon="6.39536">
        <ele>2028.8000488281</ele>
        <time>2022-12-17T09:59:11.000Z</time>
      </trkpt>
      <trkpt lat="45.19431" lon="6.39533">
        <ele>2029.4000244141</ele>
        <time>2022-12-17T09:59:15.000Z</time>
      </trkpt>
      <trkpt lat="45.1943" lon="6.39531">
        <ele>2030.1999511719</ele>
        <time>2022-12-17T09:59:19.000Z</time>
      </trkpt>
      <trkpt lat="45.1943" lon="6.3953">
        <ele>2030.4000244141</ele>
        <time>2022-12-17T09:59:20.000Z</time>
      </trkpt>
      <trkpt lat="45.1943" lon="6.39529">
        <ele>2030.5999755859</ele>
        <time>2022-12-17T09:59:21.000Z</time>
      </trkpt>
      <trkpt lat="45.19429" lon="6.39525">
        <ele>2031.5999755859</ele>
        <time>2022-12-17T09:59:26.000Z</time>
      </trkpt>
      <trkpt lat="45.19428" lon="6.39524">
        <ele>2031.5999755859</ele>
        <time>2022-12-17T09:59:27.000Z</time>
      </trkpt>
      <trkpt lat="45.19427" lon="6.39522">
        <ele>2032</ele>
        <time>2022-12-17T09:59:31.000Z</time>
      </trkpt>
      <trkpt lat="45.19426" lon="6.3952">
        <ele>2032.5999755859</ele>
        <time>2022-12-17T09:59:34.000Z</time>
      </trkpt>
      <trkpt lat="45.19426" lon="6.39519">
        <ele>2032.5999755859</ele>
        <time>2022-12-17T09:59:35.000Z</time>
      </trkpt>
      <trkpt lat="45.19425" lon="6.39516">
        <ele>2033.4000244141</ele>
        <time>2022-12-17T09:59:39.000Z</time>
      </trkpt>
      <trkpt lat="45.19424" lon="6.39514">
        <ele>2033.8000488281</ele>
        <time>2022-12-17T09:59:42.000Z</time>
      </trkpt>
      <trkpt lat="45.19423" lon="6.39513">
        <ele>2034</ele>
        <time>2022-12-17T09:59:44.000Z</time>
      </trkpt>
      <trkpt lat="45.19423" lon="6.39512">
        <ele>2034.1999511719</ele>
        <time>2022-12-17T09:59:45.000Z</time>
      </trkpt>
      <trkpt lat="45.1942" lon="6.39508">
        <ele>2034.4000244141</ele>
        <time>2022-12-17T09:59:52.000Z</time>
      </trkpt>
      <trkpt lat="45.19416" lon="6.39509">
        <ele>2034.5999755859</ele>
        <time>2022-12-17T09:59:58.000Z</time>
      </trkpt>
      <trkpt lat="45.19415" lon="6.3951">
        <ele>2034.8000488281</ele>
        <time>2022-12-17T09:59:59.000Z</time>
      </trkpt>
      <trkpt lat="45.19414" lon="6.39511">
        <ele>2034.8000488281</ele>
        <time>2022-12-17T10:00:01.000Z</time>
      </trkpt>
      <trkpt lat="45.19413" lon="6.39513">
        <ele>2035</ele>
        <time>2022-12-17T10:00:03.000Z</time>
      </trkpt>
      <trkpt lat="45.19408" lon="6.39514">
        <ele>2035.4000244141</ele>
        <time>2022-12-17T10:00:08.000Z</time>
      </trkpt>
      <trkpt lat="45.19405" lon="6.39513">
        <ele>2035.5999755859</ele>
        <time>2022-12-17T10:00:11.000Z</time>
      </trkpt>
      <trkpt lat="45.194" lon="6.39504">
        <ele>2035.8000488281</ele>
        <time>2022-12-17T10:00:18.000Z</time>
      </trkpt>
      <trkpt lat="45.19395" lon="6.39497">
        <ele>2036</ele>
        <time>2022-12-17T10:00:24.000Z</time>
      </trkpt>
      <trkpt lat="45.19392" lon="6.39493">
        <ele>2036</ele>
        <time>2022-12-17T10:00:28.000Z</time>
      </trkpt>
      <trkpt lat="45.19392" lon="6.39492">
        <ele>2036.1999511719</ele>
        <time>2022-12-17T10:00:29.000Z</time>
      </trkpt>
      <trkpt lat="45.19386" lon="6.39485">
        <ele>2036.4000244141</ele>
        <time>2022-12-17T10:00:38.000Z</time>
      </trkpt>
      <trkpt lat="45.19384" lon="6.39482">
        <ele>2036.4000244141</ele>
        <time>2022-12-17T10:00:41.000Z</time>
      </trkpt>
      <trkpt lat="45.19382" lon="6.39478">
        <ele>2036.5999755859</ele>
        <time>2022-12-17T10:00:44.000Z</time>
      </trkpt>
      <trkpt lat="45.19379" lon="6.39471">
        <ele>2037</ele>
        <time>2022-12-17T10:00:50.000Z</time>
      </trkpt>
      <trkpt lat="45.19379" lon="6.3947">
        <ele>2037</ele>
        <time>2022-12-17T10:00:51.000Z</time>
      </trkpt>
      <trkpt lat="45.19378" lon="6.39469">
        <ele>2037</ele>
        <time>2022-12-17T10:00:52.000Z</time>
      </trkpt>
      <trkpt lat="45.19372" lon="6.39456">
        <ele>2036.8000488281</ele>
        <time>2022-12-17T10:01:02.000Z</time>
      </trkpt>
      <trkpt lat="45.19371" lon="6.39455">
        <ele>2037</ele>
        <time>2022-12-17T10:01:03.000Z</time>
      </trkpt>
      <trkpt lat="45.19371" lon="6.39453">
        <ele>2037.1999511719</ele>
        <time>2022-12-17T10:01:05.000Z</time>
      </trkpt>
      <trkpt lat="45.1937" lon="6.39451">
        <ele>2037.4000244141</ele>
        <time>2022-12-17T10:01:07.000Z</time>
      </trkpt>
      <trkpt lat="45.19369" lon="6.39448">
        <ele>2038.1999511719</ele>
        <time>2022-12-17T10:01:11.000Z</time>
      </trkpt>
      <trkpt lat="45.19367" lon="6.39442">
        <ele>2039.1999511719</ele>
        <time>2022-12-17T10:01:17.000Z</time>
      </trkpt>
      <trkpt lat="45.19367" lon="6.39441">
        <ele>2039.4000244141</ele>
        <time>2022-12-17T10:01:18.000Z</time>
      </trkpt>
      <trkpt lat="45.19367" lon="6.39438">
        <ele>2039.5999755859</ele>
        <time>2022-12-17T10:01:21.000Z</time>
      </trkpt>
      <trkpt lat="45.19366" lon="6.39434">
        <ele>2040.4000244141</ele>
        <time>2022-12-17T10:01:25.000Z</time>
      </trkpt>
      <trkpt lat="45.19367" lon="6.39432">
        <ele>2040.4000244141</ele>
        <time>2022-12-17T10:01:26.000Z</time>
      </trkpt>
      <trkpt lat="45.19365" lon="6.39425">
        <ele>2041.1999511719</ele>
        <time>2022-12-17T10:01:33.000Z</time>
      </trkpt>
      <trkpt lat="45.19364" lon="6.39424">
        <ele>2041.4000244141</ele>
        <time>2022-12-17T10:01:35.000Z</time>
      </trkpt>
      <trkpt lat="45.19362" lon="6.39418">
        <ele>2042.4000244141</ele>
        <time>2022-12-17T10:01:41.000Z</time>
      </trkpt>
      <trkpt lat="45.19362" lon="6.39416">
        <ele>2042.4000244141</ele>
        <time>2022-12-17T10:01:42.000Z</time>
      </trkpt>
      <trkpt lat="45.19361" lon="6.39415">
        <ele>2042.5999755859</ele>
        <time>2022-12-17T10:01:44.000Z</time>
      </trkpt>
      <trkpt lat="45.19361" lon="6.39409">
        <ele>2043</ele>
        <time>2022-12-17T10:01:49.000Z</time>
      </trkpt>
      <trkpt lat="45.19361" lon="6.39408">
        <ele>2043.1999511719</ele>
        <time>2022-12-17T10:01:50.000Z</time>
      </trkpt>
      <trkpt lat="45.19361" lon="6.39407">
        <ele>2043.1999511719</ele>
        <time>2022-12-17T10:01:51.000Z</time>
      </trkpt>
      <trkpt lat="45.19361" lon="6.39405">
        <ele>2043.4000244141</ele>
        <time>2022-12-17T10:01:53.000Z</time>
      </trkpt>
      <trkpt lat="45.19361" lon="6.39404">
        <ele>2043.5999755859</ele>
        <time>2022-12-17T10:01:54.000Z</time>
      </trkpt>
      <trkpt lat="45.1936" lon="6.39402">
        <ele>2043.8000488281</ele>
        <time>2022-12-17T10:01:56.000Z</time>
      </trkpt>
      <trkpt lat="45.1936" lon="6.394">
        <ele>2044.5999755859</ele>
        <time>2022-12-17T10:01:59.000Z</time>
      </trkpt>
      <trkpt lat="45.19359" lon="6.39396">
        <ele>2045</ele>
        <time>2022-12-17T10:02:03.000Z</time>
      </trkpt>
      <trkpt lat="45.19358" lon="6.39394">
        <ele>2045.8000488281</ele>
        <time>2022-12-17T10:02:07.000Z</time>
      </trkpt>
      <trkpt lat="45.19358" lon="6.39393">
        <ele>2046</ele>
        <time>2022-12-17T10:02:08.000Z</time>
      </trkpt>
      <trkpt lat="45.19357" lon="6.39393">
        <ele>2046.1999511719</ele>
        <time>2022-12-17T10:02:09.000Z</time>
      </trkpt>
      <trkpt lat="45.19355" lon="6.39389">
        <ele>2046.8000488281</ele>
        <time>2022-12-17T10:02:13.000Z</time>
      </trkpt>
      <trkpt lat="45.19354" lon="6.39385">
        <ele>2047.1999511719</ele>
        <time>2022-12-17T10:02:17.000Z</time>
      </trkpt>
      <trkpt lat="45.19352" lon="6.39382">
        <ele>2048</ele>
        <time>2022-12-17T10:02:23.000Z</time>
      </trkpt>
      <trkpt lat="45.19352" lon="6.3938">
        <ele>2048.1999511719</ele>
        <time>2022-12-17T10:02:25.000Z</time>
      </trkpt>
      <trkpt lat="45.1935" lon="6.39379">
        <ele>2049</ele>
        <time>2022-12-17T10:02:28.000Z</time>
      </trkpt>
      <trkpt lat="45.1935" lon="6.39379">
        <ele>2049.1999511719</ele>
        <time>2022-12-17T10:02:29.000Z</time>
      </trkpt>
      <trkpt lat="45.19349" lon="6.39378">
        <ele>2049.1999511719</ele>
        <time>2022-12-17T10:02:30.000Z</time>
      </trkpt>
      <trkpt lat="45.19349" lon="6.39378">
        <ele>2049.6000976562</ele>
        <time>2022-12-17T10:02:32.000Z</time>
      </trkpt>
      <trkpt lat="45.19348" lon="6.39377">
        <ele>2050</ele>
        <time>2022-12-17T10:02:34.000Z</time>
      </trkpt>
      <trkpt lat="45.19345" lon="6.39374">
        <ele>2051</ele>
        <time>2022-12-17T10:02:40.000Z</time>
      </trkpt>
      <trkpt lat="45.19343" lon="6.39373">
        <ele>2051.8000488281</ele>
        <time>2022-12-17T10:02:44.000Z</time>
      </trkpt>
      <trkpt lat="45.19342" lon="6.39372">
        <ele>2052.1999511719</ele>
        <time>2022-12-17T10:02:46.000Z</time>
      </trkpt>
      <trkpt lat="45.19341" lon="6.39371">
        <ele>2052.6000976562</ele>
        <time>2022-12-17T10:02:49.000Z</time>
      </trkpt>
      <trkpt lat="45.1934" lon="6.39369">
        <ele>2053</ele>
        <time>2022-12-17T10:02:51.000Z</time>
      </trkpt>
      <trkpt lat="45.1934" lon="6.39368">
        <ele>2053.1999511719</ele>
        <time>2022-12-17T10:02:52.000Z</time>
      </trkpt>
      <trkpt lat="45.1934" lon="6.39367">
        <ele>2053.3999023438</ele>
        <time>2022-12-17T10:02:53.000Z</time>
      </trkpt>
      <trkpt lat="45.19338" lon="6.39363">
        <ele>2054.3999023438</ele>
        <time>2022-12-17T10:02:58.000Z</time>
      </trkpt>
      <trkpt lat="45.19337" lon="6.39361">
        <ele>2054.6000976562</ele>
        <time>2022-12-17T10:03:01.000Z</time>
      </trkpt>
      <trkpt lat="45.19337" lon="6.3936">
        <ele>2055</ele>
        <time>2022-12-17T10:03:02.000Z</time>
      </trkpt>
      <trkpt lat="45.19337" lon="6.39359">
        <ele>2055.6000976562</ele>
        <time>2022-12-17T10:03:05.000Z</time>
      </trkpt>
      <trkpt lat="45.19336" lon="6.39356">
        <ele>2056.3999023438</ele>
        <time>2022-12-17T10:03:10.000Z</time>
      </trkpt>
      <trkpt lat="45.19336" lon="6.39355">
        <ele>2056.6000976562</ele>
        <time>2022-12-17T10:03:11.000Z</time>
      </trkpt>
      <trkpt lat="45.19334" lon="6.3935">
        <ele>2057.6000976562</ele>
        <time>2022-12-17T10:03:18.000Z</time>
      </trkpt>
      <trkpt lat="45.19334" lon="6.39349">
        <ele>2057.8000488281</ele>
        <time>2022-12-17T10:03:20.000Z</time>
      </trkpt>
      <trkpt lat="45.19333" lon="6.39345">
        <ele>2058.6000976562</ele>
        <time>2022-12-17T10:03:26.000Z</time>
      </trkpt>
      <trkpt lat="45.19333" lon="6.39343">
        <ele>2059</ele>
        <time>2022-12-17T10:03:28.000Z</time>
      </trkpt>
      <trkpt lat="45.19333" lon="6.39341">
        <ele>2059.6000976562</ele>
        <time>2022-12-17T10:03:31.000Z</time>
      </trkpt>
      <trkpt lat="45.19332" lon="6.3934">
        <ele>2060.1999511719</ele>
        <time>2022-12-17T10:03:37.000Z</time>
      </trkpt>
      <trkpt lat="45.19332" lon="6.39339">
        <ele>2060.1999511719</ele>
        <time>2022-12-17T10:03:44.000Z</time>
      </trkpt>
      <trkpt lat="45.19332" lon="6.39339">
        <ele>2060.1999511719</ele>
        <time>2022-12-17T10:03:46.000Z</time>
      </trkpt>
      <trkpt lat="45.19332" lon="6.39339">
        <ele>2060.1999511719</ele>
        <time>2022-12-17T10:03:47.000Z</time>
      </trkpt>
      <trkpt lat="45.19332" lon="6.39339">
        <ele>2060</ele>
        <time>2022-12-17T10:03:53.000Z</time>
      </trkpt>
      <trkpt lat="45.19332" lon="6.39339">
        <ele>2060.8000488281</ele>
        <time>2022-12-17T10:04:00.000Z</time>
      </trkpt>
      <trkpt lat="45.19333" lon="6.39339">
        <ele>2061.8000488281</ele>
        <time>2022-12-17T10:04:07.000Z</time>
      </trkpt>
      <trkpt lat="45.19339" lon="6.39339">
        <ele>2063</ele>
        <time>2022-12-17T10:04:13.000Z</time>
      </trkpt>
      <trkpt lat="45.19341" lon="6.39339">
        <ele>2063.3999023438</ele>
        <time>2022-12-17T10:04:15.000Z</time>
      </trkpt>
      <trkpt lat="45.19343" lon="6.39339">
        <ele>2063.6000976562</ele>
        <time>2022-12-17T10:04:17.000Z</time>
      </trkpt>
      <trkpt lat="45.19346" lon="6.3934">
        <ele>2064</ele>
        <time>2022-12-17T10:04:19.000Z</time>
      </trkpt>
      <trkpt lat="45.19344" lon="6.39341">
        <ele>2064.1999511719</ele>
        <time>2022-12-17T10:04:22.000Z</time>
      </trkpt>
      <trkpt lat="45.19343" lon="6.3934">
        <ele>2065</ele>
        <time>2022-12-17T10:04:33.000Z</time>
      </trkpt>
      <trkpt lat="45.19342" lon="6.39338">
        <ele>2065.3999023438</ele>
        <time>2022-12-17T10:04:35.000Z</time>
      </trkpt>
      <trkpt lat="45.19342" lon="6.39338">
        <ele>2065.6000976562</ele>
        <time>2022-12-17T10:04:36.000Z</time>
      </trkpt>
      <trkpt lat="45.19341" lon="6.39336">
        <ele>2066.1999511719</ele>
        <time>2022-12-17T10:04:38.000Z</time>
      </trkpt>
      <trkpt lat="45.19341" lon="6.39334">
        <ele>2066.6000976562</ele>
        <time>2022-12-17T10:04:40.000Z</time>
      </trkpt>
      <trkpt lat="45.1934" lon="6.3933">
        <ele>2067.1999511719</ele>
        <time>2022-12-17T10:04:44.000Z</time>
      </trkpt>
      <trkpt lat="45.19339" lon="6.39325">
        <ele>2067.8000488281</ele>
        <time>2022-12-17T10:04:49.000Z</time>
      </trkpt>
      <trkpt lat="45.19338" lon="6.39324">
        <ele>2067.8000488281</ele>
        <time>2022-12-17T10:04:50.000Z</time>
      </trkpt>
      <trkpt lat="45.19337" lon="6.3932">
        <ele>2068.1999511719</ele>
        <time>2022-12-17T10:04:55.000Z</time>
      </trkpt>
      <trkpt lat="45.19336" lon="6.3932">
        <ele>2068.6000976562</ele>
        <time>2022-12-17T10:04:57.000Z</time>
      </trkpt>
      <trkpt lat="45.19334" lon="6.39318">
        <ele>2069</ele>
        <time>2022-12-17T10:05:00.000Z</time>
      </trkpt>
      <trkpt lat="45.19334" lon="6.39317">
        <ele>2069.3999023438</ele>
        <time>2022-12-17T10:05:02.000Z</time>
      </trkpt>
      <trkpt lat="45.19334" lon="6.39316">
        <ele>2069.8000488281</ele>
        <time>2022-12-17T10:05:04.000Z</time>
      </trkpt>
      <trkpt lat="45.19333" lon="6.39315">
        <ele>2070.1999511719</ele>
        <time>2022-12-17T10:05:06.000Z</time>
      </trkpt>
      <trkpt lat="45.19333" lon="6.39314">
        <ele>2070.6000976562</ele>
        <time>2022-12-17T10:05:08.000Z</time>
      </trkpt>
      <trkpt lat="45.19332" lon="6.39312">
        <ele>2071.3999023438</ele>
        <time>2022-12-17T10:05:11.000Z</time>
      </trkpt>
      <trkpt lat="45.19332" lon="6.39312">
        <ele>2071.6000976562</ele>
        <time>2022-12-17T10:05:12.000Z</time>
      </trkpt>
      <trkpt lat="45.19331" lon="6.3931">
        <ele>2072.3999023438</ele>
        <time>2022-12-17T10:05:16.000Z</time>
      </trkpt>
      <trkpt lat="45.19331" lon="6.39308">
        <ele>2072.8000488281</ele>
        <time>2022-12-17T10:05:18.000Z</time>
      </trkpt>
      <trkpt lat="45.1933" lon="6.39308">
        <ele>2073</ele>
        <time>2022-12-17T10:05:19.000Z</time>
      </trkpt>
      <trkpt lat="45.19329" lon="6.39305">
        <ele>2073.8000488281</ele>
        <time>2022-12-17T10:05:24.000Z</time>
      </trkpt>
      <trkpt lat="45.19329" lon="6.39303">
        <ele>2074.3999023438</ele>
        <time>2022-12-17T10:05:27.000Z</time>
      </trkpt>
      <trkpt lat="45.19329" lon="6.39302">
        <ele>2074.8000488281</ele>
        <time>2022-12-17T10:05:30.000Z</time>
      </trkpt>
      <trkpt lat="45.19328" lon="6.39301">
        <ele>2075.3999023438</ele>
        <time>2022-12-17T10:05:35.000Z</time>
      </trkpt>
      <trkpt lat="45.19328" lon="6.39303">
        <ele>2075.1999511719</ele>
        <time>2022-12-17T10:05:46.000Z</time>
      </trkpt>
      <trkpt lat="45.19327" lon="6.39301">
        <ele>2075.3999023438</ele>
        <time>2022-12-17T10:06:01.000Z</time>
      </trkpt>
      <trkpt lat="45.19327" lon="6.393">
        <ele>2075.8000488281</ele>
        <time>2022-12-17T10:06:06.000Z</time>
      </trkpt>
      <trkpt lat="45.19327" lon="6.393">
        <ele>2075.8000488281</ele>
        <time>2022-12-17T10:06:07.000Z</time>
      </trkpt>
      <trkpt lat="45.1933" lon="6.393">
        <ele>2077</ele>
        <time>2022-12-17T10:06:13.000Z</time>
      </trkpt>
      <trkpt lat="45.19332" lon="6.393">
        <ele>2077.1999511719</ele>
        <time>2022-12-17T10:06:14.000Z</time>
      </trkpt>
      <trkpt lat="45.1934" lon="6.39302">
        <ele>2078</ele>
        <time>2022-12-17T10:06:21.000Z</time>
      </trkpt>
      <trkpt lat="45.19341" lon="6.39303">
        <ele>2078.1999511719</ele>
        <time>2022-12-17T10:06:22.000Z</time>
      </trkpt>
      <trkpt lat="45.19342" lon="6.39303">
        <ele>2078.3999023438</ele>
        <time>2022-12-17T10:06:23.000Z</time>
      </trkpt>
      <trkpt lat="45.19348" lon="6.39305">
        <ele>2079.1999511719</ele>
        <time>2022-12-17T10:06:29.000Z</time>
      </trkpt>
      <trkpt lat="45.19351" lon="6.39305">
        <ele>2079.8000488281</ele>
        <time>2022-12-17T10:06:33.000Z</time>
      </trkpt>
      <trkpt lat="45.19355" lon="6.39307">
        <ele>2080.3999023438</ele>
        <time>2022-12-17T10:06:38.000Z</time>
      </trkpt>
      <trkpt lat="45.19357" lon="6.39307">
        <ele>2080.8000488281</ele>
        <time>2022-12-17T10:06:41.000Z</time>
      </trkpt>
      <trkpt lat="45.1936" lon="6.39308">
        <ele>2081.3999023438</ele>
        <time>2022-12-17T10:06:45.000Z</time>
      </trkpt>
      <trkpt lat="45.19363" lon="6.39309">
        <ele>2082</ele>
        <time>2022-12-17T10:06:49.000Z</time>
      </trkpt>
      <trkpt lat="45.19366" lon="6.39309">
        <ele>2082.6000976562</ele>
        <time>2022-12-17T10:06:53.000Z</time>
      </trkpt>
      <trkpt lat="45.19369" lon="6.3931">
        <ele>2083.1999511719</ele>
        <time>2022-12-17T10:06:57.000Z</time>
      </trkpt>
      <trkpt lat="45.19371" lon="6.3931">
        <ele>2083.6000976562</ele>
        <time>2022-12-17T10:07:01.000Z</time>
      </trkpt>
      <trkpt lat="45.19374" lon="6.3931">
        <ele>2084.1999511719</ele>
        <time>2022-12-17T10:07:06.000Z</time>
      </trkpt>
      <trkpt lat="45.19376" lon="6.3931">
        <ele>2084.8000488281</ele>
        <time>2022-12-17T10:07:13.000Z</time>
      </trkpt>
      <trkpt lat="45.19376" lon="6.3931">
        <ele>2084.8000488281</ele>
        <time>2022-12-17T10:07:14.000Z</time>
      </trkpt>
      <trkpt lat="45.19375" lon="6.39307">
        <ele>2085.3999023438</ele>
        <time>2022-12-17T10:07:21.000Z</time>
      </trkpt>
      <trkpt lat="45.19374" lon="6.39306">
        <ele>2086</ele>
        <time>2022-12-17T10:07:24.000Z</time>
      </trkpt>
      <trkpt lat="45.19372" lon="6.39304">
        <ele>2086.6000976562</ele>
        <time>2022-12-17T10:07:28.000Z</time>
      </trkpt>
      <trkpt lat="45.19371" lon="6.39302">
        <ele>2087.1999511719</ele>
        <time>2022-12-17T10:07:31.000Z</time>
      </trkpt>
      <trkpt lat="45.19369" lon="6.39299">
        <ele>2088.1999511719</ele>
        <time>2022-12-17T10:07:36.000Z</time>
      </trkpt>
      <trkpt lat="45.19367" lon="6.39297">
        <ele>2088.6000976562</ele>
        <time>2022-12-17T10:07:39.000Z</time>
      </trkpt>
      <trkpt lat="45.19366" lon="6.39295">
        <ele>2089.1999511719</ele>
        <time>2022-12-17T10:07:42.000Z</time>
      </trkpt>
      <trkpt lat="45.19365" lon="6.39293">
        <ele>2089.8000488281</ele>
        <time>2022-12-17T10:07:45.000Z</time>
      </trkpt>
      <trkpt lat="45.19365" lon="6.39292">
        <ele>2090.1999511719</ele>
        <time>2022-12-17T10:07:47.000Z</time>
      </trkpt>
      <trkpt lat="45.19363" lon="6.39288">
        <ele>2091.3999023438</ele>
        <time>2022-12-17T10:07:54.000Z</time>
      </trkpt>
      <trkpt lat="45.19362" lon="6.39284">
        <ele>2092.1999511719</ele>
        <time>2022-12-17T10:08:00.000Z</time>
      </trkpt>
      <trkpt lat="45.19362" lon="6.39284">
        <ele>2092.3999023438</ele>
        <time>2022-12-17T10:08:01.000Z</time>
      </trkpt>
      <trkpt lat="45.19361" lon="6.39282">
        <ele>2093</ele>
        <time>2022-12-17T10:08:05.000Z</time>
      </trkpt>
      <trkpt lat="45.19359" lon="6.39281">
        <ele>2093.6000976562</ele>
        <time>2022-12-17T10:08:07.000Z</time>
      </trkpt>
      <trkpt lat="45.19359" lon="6.3928">
        <ele>2093.8000488281</ele>
        <time>2022-12-17T10:08:09.000Z</time>
      </trkpt>
      <trkpt lat="45.19359" lon="6.39279">
        <ele>2094</ele>
        <time>2022-12-17T10:08:10.000Z</time>
      </trkpt>
      <trkpt lat="45.19358" lon="6.39277">
        <ele>2094.3999023438</ele>
        <time>2022-12-17T10:08:12.000Z</time>
      </trkpt>
      <trkpt lat="45.19358" lon="6.39277">
        <ele>2094.6000976562</ele>
        <time>2022-12-17T10:08:13.000Z</time>
      </trkpt>
      <trkpt lat="45.19356" lon="6.39274">
        <ele>2095.1999511719</ele>
        <time>2022-12-17T10:08:16.000Z</time>
      </trkpt>
      <trkpt lat="45.19356" lon="6.39274">
        <ele>2095.3999023438</ele>
        <time>2022-12-17T10:08:17.000Z</time>
      </trkpt>
      <trkpt lat="45.19356" lon="6.39272">
        <ele>2095.6000976562</ele>
        <time>2022-12-17T10:08:19.000Z</time>
      </trkpt>
      <trkpt lat="45.19355" lon="6.39272">
        <ele>2095.8000488281</ele>
        <time>2022-12-17T10:08:20.000Z</time>
      </trkpt>
      <trkpt lat="45.19355" lon="6.3927">
        <ele>2096</ele>
        <time>2022-12-17T10:08:22.000Z</time>
      </trkpt>
      <trkpt lat="45.19353" lon="6.39268">
        <ele>2096.6000976562</ele>
        <time>2022-12-17T10:08:25.000Z</time>
      </trkpt>
      <trkpt lat="45.19353" lon="6.39267">
        <ele>2096.8000488281</ele>
        <time>2022-12-17T10:08:27.000Z</time>
      </trkpt>
      <trkpt lat="45.19351" lon="6.39263">
        <ele>2097.6000976562</ele>
        <time>2022-12-17T10:08:31.000Z</time>
      </trkpt>
      <trkpt lat="45.1935" lon="6.39261">
        <ele>2097.8000488281</ele>
        <time>2022-12-17T10:08:33.000Z</time>
      </trkpt>
      <trkpt lat="45.19349" lon="6.39257">
        <ele>2098.8000488281</ele>
        <time>2022-12-17T10:08:39.000Z</time>
      </trkpt>
      <trkpt lat="45.19349" lon="6.39256">
        <ele>2099</ele>
        <time>2022-12-17T10:08:40.000Z</time>
      </trkpt>
      <trkpt lat="45.19348" lon="6.39254">
        <ele>2099.1999511719</ele>
        <time>2022-12-17T10:08:43.000Z</time>
      </trkpt>
      <trkpt lat="45.19348" lon="6.39251">
        <ele>2099.3999023438</ele>
        <time>2022-12-17T10:08:46.000Z</time>
      </trkpt>
      <trkpt lat="45.19348" lon="6.3925">
        <ele>2099.6000976562</ele>
        <time>2022-12-17T10:08:48.000Z</time>
      </trkpt>
      <trkpt lat="45.19348" lon="6.39249">
        <ele>2099.8000488281</ele>
        <time>2022-12-17T10:08:49.000Z</time>
      </trkpt>
      <trkpt lat="45.19347" lon="6.39248">
        <ele>2100</ele>
        <time>2022-12-17T10:08:50.000Z</time>
      </trkpt>
      <trkpt lat="45.19346" lon="6.39244">
        <ele>2101</ele>
        <time>2022-12-17T10:08:56.000Z</time>
      </trkpt>
      <trkpt lat="45.19347" lon="6.39242">
        <ele>2101.1999511719</ele>
        <time>2022-12-17T10:08:57.000Z</time>
      </trkpt>
      <trkpt lat="45.19347" lon="6.39238">
        <ele>2102</ele>
        <time>2022-12-17T10:09:03.000Z</time>
      </trkpt>
      <trkpt lat="45.19347" lon="6.39236">
        <ele>2102.1999511719</ele>
        <time>2022-12-17T10:09:06.000Z</time>
      </trkpt>
      <trkpt lat="45.19344" lon="6.39231">
        <ele>2103.1999511719</ele>
        <time>2022-12-17T10:09:13.000Z</time>
      </trkpt>
      <trkpt lat="45.19342" lon="6.39228">
        <ele>2103.6000976562</ele>
        <time>2022-12-17T10:09:17.000Z</time>
      </trkpt>
      <trkpt lat="45.19342" lon="6.39224">
        <ele>2103.8000488281</ele>
        <time>2022-12-17T10:09:21.000Z</time>
      </trkpt>
      <trkpt lat="45.19342" lon="6.39222">
        <ele>2104.1999511719</ele>
        <time>2022-12-17T10:09:23.000Z</time>
      </trkpt>
      <trkpt lat="45.1934" lon="6.39217">
        <ele>2105.3999023438</ele>
        <time>2022-12-17T10:09:29.000Z</time>
      </trkpt>
      <trkpt lat="45.19339" lon="6.39216">
        <ele>2105.3999023438</ele>
        <time>2022-12-17T10:09:31.000Z</time>
      </trkpt>
      <trkpt lat="45.19338" lon="6.3921">
        <ele>2106.3999023438</ele>
        <time>2022-12-17T10:09:37.000Z</time>
      </trkpt>
      <trkpt lat="45.19337" lon="6.39208">
        <ele>2106.6000976562</ele>
        <time>2022-12-17T10:09:39.000Z</time>
      </trkpt>
      <trkpt lat="45.19337" lon="6.39206">
        <ele>2106.6000976562</ele>
        <time>2022-12-17T10:09:41.000Z</time>
      </trkpt>
      <trkpt lat="45.19337" lon="6.39205">
        <ele>2106.8000488281</ele>
        <time>2022-12-17T10:09:42.000Z</time>
      </trkpt>
      <trkpt lat="45.19336" lon="6.39201">
        <ele>2107.6000976562</ele>
        <time>2022-12-17T10:09:47.000Z</time>
      </trkpt>
      <trkpt lat="45.19335" lon="6.39196">
        <ele>2108.1999511719</ele>
        <time>2022-12-17T10:09:52.000Z</time>
      </trkpt>
      <trkpt lat="45.19335" lon="6.39194">
        <ele>2108.6000976562</ele>
        <time>2022-12-17T10:09:55.000Z</time>
      </trkpt>
      <trkpt lat="45.19334" lon="6.39191">
        <ele>2108.8000488281</ele>
        <time>2022-12-17T10:09:59.000Z</time>
      </trkpt>
      <trkpt lat="45.19334" lon="6.3919">
        <ele>2109</ele>
        <time>2022-12-17T10:10:00.000Z</time>
      </trkpt>
      <trkpt lat="45.19333" lon="6.39187">
        <ele>2109.6000976562</ele>
        <time>2022-12-17T10:10:04.000Z</time>
      </trkpt>
      <trkpt lat="45.19332" lon="6.39184">
        <ele>2110</ele>
        <time>2022-12-17T10:10:07.000Z</time>
      </trkpt>
      <trkpt lat="45.19332" lon="6.39184">
        <ele>2110.1999511719</ele>
        <time>2022-12-17T10:10:08.000Z</time>
      </trkpt>
      <trkpt lat="45.19331" lon="6.39181">
        <ele>2110.8000488281</ele>
        <time>2022-12-17T10:10:12.000Z</time>
      </trkpt>
      <trkpt lat="45.1933" lon="6.39178">
        <ele>2111.3999023438</ele>
        <time>2022-12-17T10:10:16.000Z</time>
      </trkpt>
      <trkpt lat="45.19328" lon="6.39175">
        <ele>2111.8000488281</ele>
        <time>2022-12-17T10:10:20.000Z</time>
      </trkpt>
      <trkpt lat="45.19327" lon="6.39171">
        <ele>2112.8000488281</ele>
        <time>2022-12-17T10:10:26.000Z</time>
      </trkpt>
      <trkpt lat="45.19326" lon="6.39165">
        <ele>2114</ele>
        <time>2022-12-17T10:10:33.000Z</time>
      </trkpt>
      <trkpt lat="45.19325" lon="6.39162">
        <ele>2114.6000976562</ele>
        <time>2022-12-17T10:10:37.000Z</time>
      </trkpt>
      <trkpt lat="45.19325" lon="6.3916">
        <ele>2115</ele>
        <time>2022-12-17T10:10:40.000Z</time>
      </trkpt>
      <trkpt lat="45.19324" lon="6.39156">
        <ele>2115.3999023438</ele>
        <time>2022-12-17T10:10:46.000Z</time>
      </trkpt>
      <trkpt lat="45.19322" lon="6.39152">
        <ele>2115.8000488281</ele>
        <time>2022-12-17T10:10:53.000Z</time>
      </trkpt>
      <trkpt lat="45.19322" lon="6.39151">
        <ele>2116</ele>
        <time>2022-12-17T10:10:54.000Z</time>
      </trkpt>
      <trkpt lat="45.19321" lon="6.39145">
        <ele>2117.1999511719</ele>
        <time>2022-12-17T10:11:00.000Z</time>
      </trkpt>
      <trkpt lat="45.1932" lon="6.39143">
        <ele>2117.3999023438</ele>
        <time>2022-12-17T10:11:03.000Z</time>
      </trkpt>
      <trkpt lat="45.1932" lon="6.39141">
        <ele>2117.3999023438</ele>
        <time>2022-12-17T10:11:04.000Z</time>
      </trkpt>
      <trkpt lat="45.19319" lon="6.39135">
        <ele>2118.1999511719</ele>
        <time>2022-12-17T10:11:11.000Z</time>
      </trkpt>
      <trkpt lat="45.19319" lon="6.39135">
        <ele>2118.3999023438</ele>
        <time>2022-12-17T10:11:12.000Z</time>
      </trkpt>
      <trkpt lat="45.19318" lon="6.39131">
        <ele>2119.1999511719</ele>
        <time>2022-12-17T10:11:18.000Z</time>
      </trkpt>
      <trkpt lat="45.19318" lon="6.39131">
        <ele>2119.1999511719</ele>
        <time>2022-12-17T10:11:19.000Z</time>
      </trkpt>
      <trkpt lat="45.19316" lon="6.39128">
        <ele>2120.3999023438</ele>
        <time>2022-12-17T10:11:25.000Z</time>
      </trkpt>
      <trkpt lat="45.19314" lon="6.39126">
        <ele>2120.8000488281</ele>
        <time>2022-12-17T10:11:28.000Z</time>
      </trkpt>
      <trkpt lat="45.19311" lon="6.39123">
        <ele>2121.3999023438</ele>
        <time>2022-12-17T10:11:37.000Z</time>
      </trkpt>
      <trkpt lat="45.1931" lon="6.39124">
        <ele>2121.6000976562</ele>
        <time>2022-12-17T10:11:44.000Z</time>
      </trkpt>
      <trkpt lat="45.1931" lon="6.39125">
        <ele>2121.6000976562</ele>
        <time>2022-12-17T10:11:45.000Z</time>
      </trkpt>
      <trkpt lat="45.1931" lon="6.39124">
        <ele>2122.6000976562</ele>
        <time>2022-12-17T10:12:01.000Z</time>
      </trkpt>
      <trkpt lat="45.19309" lon="6.39123">
        <ele>2122.8000488281</ele>
        <time>2022-12-17T10:12:09.000Z</time>
      </trkpt>
      <trkpt lat="45.19309" lon="6.39122">
        <ele>2122.8000488281</ele>
        <time>2022-12-17T10:12:18.000Z</time>
      </trkpt>
      <trkpt lat="45.19309" lon="6.39122">
        <ele>2123.1999511719</ele>
        <time>2022-12-17T10:12:27.000Z</time>
      </trkpt>
      <trkpt lat="45.19309" lon="6.39122">
        <ele>2123.6000976562</ele>
        <time>2022-12-17T10:12:34.000Z</time>
      </trkpt>
      <trkpt lat="45.19309" lon="6.39122">
        <ele>2123.6000976562</ele>
        <time>2022-12-17T10:12:35.000Z</time>
      </trkpt>
      <trkpt lat="45.19308" lon="6.39121">
        <ele>2124.8000488281</ele>
        <time>2022-12-17T10:12:43.000Z</time>
      </trkpt>
      <trkpt lat="45.19302" lon="6.39116">
        <ele>2126</ele>
        <time>2022-12-17T10:12:49.000Z</time>
      </trkpt>
      <trkpt lat="45.19298" lon="6.39114">
        <ele>2126.6000976562</ele>
        <time>2022-12-17T10:12:53.000Z</time>
      </trkpt>
      <trkpt lat="45.19297" lon="6.39113">
        <ele>2127</ele>
        <time>2022-12-17T10:12:55.000Z</time>
      </trkpt>
      <trkpt lat="45.19294" lon="6.39113">
        <ele>2127.8000488281</ele>
        <time>2022-12-17T10:12:58.000Z</time>
      </trkpt>
      <trkpt lat="45.19293" lon="6.39112">
        <ele>2128.1999511719</ele>
        <time>2022-12-17T10:13:00.000Z</time>
      </trkpt>
      <trkpt lat="45.19292" lon="6.3911">
        <ele>2128.8000488281</ele>
        <time>2022-12-17T10:13:03.000Z</time>
      </trkpt>
      <trkpt lat="45.1929" lon="6.39108">
        <ele>2129</ele>
        <time>2022-12-17T10:13:06.000Z</time>
      </trkpt>
      <trkpt lat="45.19289" lon="6.39107">
        <ele>2129.3999023438</ele>
        <time>2022-12-17T10:13:07.000Z</time>
      </trkpt>
      <trkpt lat="45.19288" lon="6.39104">
        <ele>2130.3999023438</ele>
        <time>2022-12-17T10:13:11.000Z</time>
      </trkpt>
      <trkpt lat="45.19286" lon="6.39098">
        <ele>2131.1999511719</ele>
        <time>2022-12-17T10:13:17.000Z</time>
      </trkpt>
      <trkpt lat="45.19286" lon="6.39098">
        <ele>2131.3999023438</ele>
        <time>2022-12-17T10:13:18.000Z</time>
      </trkpt>
      <trkpt lat="45.19284" lon="6.3909">
        <ele>2132.6000976562</ele>
        <time>2022-12-17T10:13:26.000Z</time>
      </trkpt>
      <trkpt lat="45.19284" lon="6.39089">
        <ele>2133.1999511719</ele>
        <time>2022-12-17T10:13:29.000Z</time>
      </trkpt>
      <trkpt lat="45.19284" lon="6.39086">
        <ele>2133.6000976562</ele>
        <time>2022-12-17T10:13:32.000Z</time>
      </trkpt>
      <trkpt lat="45.19282" lon="6.39081">
        <ele>2134.6000976562</ele>
        <time>2022-12-17T10:13:38.000Z</time>
      </trkpt>
      <trkpt lat="45.19282" lon="6.3908">
        <ele>2134.6000976562</ele>
        <time>2022-12-17T10:13:39.000Z</time>
      </trkpt>
      <trkpt lat="45.19282" lon="6.39076">
        <ele>2135.8000488281</ele>
        <time>2022-12-17T10:13:44.000Z</time>
      </trkpt>
      <trkpt lat="45.19281" lon="6.39071">
        <ele>2136.8000488281</ele>
        <time>2022-12-17T10:13:50.000Z</time>
      </trkpt>
      <trkpt lat="45.19281" lon="6.39071">
        <ele>2137</ele>
        <time>2022-12-17T10:13:53.000Z</time>
      </trkpt>
      <trkpt lat="45.19281" lon="6.3907">
        <ele>2137</ele>
        <time>2022-12-17T10:13:58.000Z</time>
      </trkpt>
      <trkpt lat="45.19281" lon="6.3907">
        <ele>2137</ele>
        <time>2022-12-17T10:14:20.000Z</time>
      </trkpt>
      <trkpt lat="45.1928" lon="6.3907">
        <ele>2137.1999511719</ele>
        <time>2022-12-17T10:14:32.000Z</time>
      </trkpt>
      <trkpt lat="45.19279" lon="6.39071">
        <ele>2137</ele>
        <time>2022-12-17T10:14:38.000Z</time>
      </trkpt>
      <trkpt lat="45.19279" lon="6.39071">
        <ele>2137.3999023438</ele>
        <time>2022-12-17T10:14:45.000Z</time>
      </trkpt>
      <trkpt lat="45.19279" lon="6.39069">
        <ele>2138</ele>
        <time>2022-12-17T10:14:48.000Z</time>
      </trkpt>
      <trkpt lat="45.19279" lon="6.39066">
        <ele>2138.3999023438</ele>
        <time>2022-12-17T10:14:50.000Z</time>
      </trkpt>
      <trkpt lat="45.19278" lon="6.39061">
        <ele>2139</ele>
        <time>2022-12-17T10:14:54.000Z</time>
      </trkpt>
      <trkpt lat="45.19278" lon="6.39057">
        <ele>2140</ele>
        <time>2022-12-17T10:14:58.000Z</time>
      </trkpt>
      <trkpt lat="45.19278" lon="6.39056">
        <ele>2140.1999511719</ele>
        <time>2022-12-17T10:14:59.000Z</time>
      </trkpt>
      <trkpt lat="45.19278" lon="6.3905">
        <ele>2141.3999023438</ele>
        <time>2022-12-17T10:15:05.000Z</time>
      </trkpt>
      <trkpt lat="45.19279" lon="6.39048">
        <ele>2142</ele>
        <time>2022-12-17T10:15:07.000Z</time>
      </trkpt>
      <trkpt lat="45.19279" lon="6.39046">
        <ele>2142.6000976562</ele>
        <time>2022-12-17T10:15:10.000Z</time>
      </trkpt>
      <trkpt lat="45.19278" lon="6.39044">
        <ele>2143.1999511719</ele>
        <time>2022-12-17T10:15:14.000Z</time>
      </trkpt>
      <trkpt lat="45.19278" lon="6.39042">
        <ele>2143.6000976562</ele>
        <time>2022-12-17T10:15:17.000Z</time>
      </trkpt>
      <trkpt lat="45.19277" lon="6.39037">
        <ele>2144.6000976562</ele>
        <time>2022-12-17T10:15:23.000Z</time>
      </trkpt>
      <trkpt lat="45.19277" lon="6.39037">
        <ele>2144.8000488281</ele>
        <time>2022-12-17T10:15:24.000Z</time>
      </trkpt>
      <trkpt lat="45.19278" lon="6.39033">
        <ele>2146</ele>
        <time>2022-12-17T10:15:28.000Z</time>
      </trkpt>
      <trkpt lat="45.19277" lon="6.39027">
        <ele>2147</ele>
        <time>2022-12-17T10:15:35.000Z</time>
      </trkpt>
      <trkpt lat="45.19276" lon="6.39018">
        <ele>2148.1999511719</ele>
        <time>2022-12-17T10:15:44.000Z</time>
      </trkpt>
      <trkpt lat="45.19275" lon="6.39014">
        <ele>2148.8000488281</ele>
        <time>2022-12-17T10:15:48.000Z</time>
      </trkpt>
      <trkpt lat="45.19274" lon="6.39012">
        <ele>2149.1999511719</ele>
        <time>2022-12-17T10:15:51.000Z</time>
      </trkpt>
      <trkpt lat="45.19273" lon="6.39005">
        <ele>2150.1999511719</ele>
        <time>2022-12-17T10:15:59.000Z</time>
      </trkpt>
      <trkpt lat="45.19273" lon="6.39004">
        <ele>2150.3999023438</ele>
        <time>2022-12-17T10:16:00.000Z</time>
      </trkpt>
      <trkpt lat="45.19271" lon="6.38999">
        <ele>2151.1999511719</ele>
        <time>2022-12-17T10:16:07.000Z</time>
      </trkpt>
      <trkpt lat="45.19272" lon="6.38998">
        <ele>2151.3999023438</ele>
        <time>2022-12-17T10:16:08.000Z</time>
      </trkpt>
      <trkpt lat="45.19272" lon="6.38998">
        <ele>2151.6000976562</ele>
        <time>2022-12-17T10:16:09.000Z</time>
      </trkpt>
      <trkpt lat="45.19269" lon="6.38994">
        <ele>2152.6000976562</ele>
        <time>2022-12-17T10:16:15.000Z</time>
      </trkpt>
      <trkpt lat="45.19268" lon="6.3899">
        <ele>2153.3999023438</ele>
        <time>2022-12-17T10:16:20.000Z</time>
      </trkpt>
      <trkpt lat="45.19268" lon="6.38988">
        <ele>2153.8000488281</ele>
        <time>2022-12-17T10:16:21.000Z</time>
      </trkpt>
      <trkpt lat="45.19267" lon="6.38987">
        <ele>2154.3999023438</ele>
        <time>2022-12-17T10:16:24.000Z</time>
      </trkpt>
      <trkpt lat="45.19266" lon="6.38984">
        <ele>2155</ele>
        <time>2022-12-17T10:16:27.000Z</time>
      </trkpt>
      <trkpt lat="45.19263" lon="6.38981">
        <ele>2155.8000488281</ele>
        <time>2022-12-17T10:16:33.000Z</time>
      </trkpt>
      <trkpt lat="45.19263" lon="6.3898">
        <ele>2156</ele>
        <time>2022-12-17T10:16:34.000Z</time>
      </trkpt>
      <trkpt lat="45.19264" lon="6.38979">
        <ele>2156.3999023438</ele>
        <time>2022-12-17T10:16:43.000Z</time>
      </trkpt>
      <trkpt lat="45.19264" lon="6.38979">
        <ele>2157.1999511719</ele>
        <time>2022-12-17T10:16:55.000Z</time>
      </trkpt>
      <trkpt lat="45.19264" lon="6.38979">
        <ele>2157.1999511719</ele>
        <time>2022-12-17T10:16:56.000Z</time>
      </trkpt>
      <trkpt lat="45.19263" lon="6.38978">
        <ele>2158</ele>
        <time>2022-12-17T10:17:03.000Z</time>
      </trkpt>
      <trkpt lat="45.19263" lon="6.38977">
        <ele>2158.1999511719</ele>
        <time>2022-12-17T10:17:04.000Z</time>
      </trkpt>
      <trkpt lat="45.19263" lon="6.38975">
        <ele>2158.8000488281</ele>
        <time>2022-12-17T10:17:07.000Z</time>
      </trkpt>
      <trkpt lat="45.19262" lon="6.38972">
        <ele>2159.3999023438</ele>
        <time>2022-12-17T10:17:10.000Z</time>
      </trkpt>
      <trkpt lat="45.19257" lon="6.38961">
        <ele>2160.3999023438</ele>
        <time>2022-12-17T10:17:16.000Z</time>
      </trkpt>
      <trkpt lat="45.19256" lon="6.38958">
        <ele>2160.3999023438</ele>
        <time>2022-12-17T10:17:17.000Z</time>
      </trkpt>
      <trkpt lat="45.19252" lon="6.38948">
        <ele>2161.6000976562</ele>
        <time>2022-12-17T10:17:24.000Z</time>
      </trkpt>
      <trkpt lat="45.19252" lon="6.38945">
        <ele>2162</ele>
        <time>2022-12-17T10:17:29.000Z</time>
      </trkpt>
      <trkpt lat="45.19251" lon="6.38944">
        <ele>2162.1999511719</ele>
        <time>2022-12-17T10:17:30.000Z</time>
      </trkpt>
      <trkpt lat="45.19251" lon="6.38943">
        <ele>2162.6000976562</ele>
        <time>2022-12-17T10:17:32.000Z</time>
      </trkpt>
      <trkpt lat="45.1925" lon="6.38938">
        <ele>2163.6000976562</ele>
        <time>2022-12-17T10:17:38.000Z</time>
      </trkpt>
      <trkpt lat="45.1925" lon="6.38937">
        <ele>2163.8000488281</ele>
        <time>2022-12-17T10:17:39.000Z</time>
      </trkpt>
      <trkpt lat="45.19249" lon="6.38934">
        <ele>2164.3999023438</ele>
        <time>2022-12-17T10:17:43.000Z</time>
      </trkpt>
      <trkpt lat="45.19249" lon="6.38933">
        <ele>2164.3999023438</ele>
        <time>2022-12-17T10:17:44.000Z</time>
      </trkpt>
      <trkpt lat="45.19248" lon="6.38931">
        <ele>2164.8000488281</ele>
        <time>2022-12-17T10:17:47.000Z</time>
      </trkpt>
      <trkpt lat="45.19247" lon="6.38925">
        <ele>2165.6000976562</ele>
        <time>2022-12-17T10:17:54.000Z</time>
      </trkpt>
      <trkpt lat="45.19246" lon="6.38925">
        <ele>2165.8000488281</ele>
        <time>2022-12-17T10:17:55.000Z</time>
      </trkpt>
      <trkpt lat="45.19246" lon="6.38922">
        <ele>2166.6000976562</ele>
        <time>2022-12-17T10:17:58.000Z</time>
      </trkpt>
      <trkpt lat="45.19246" lon="6.38921">
        <ele>2166.8000488281</ele>
        <time>2022-12-17T10:18:00.000Z</time>
      </trkpt>
      <trkpt lat="45.19246" lon="6.3892">
        <ele>2167</ele>
        <time>2022-12-17T10:18:01.000Z</time>
      </trkpt>
      <trkpt lat="45.19245" lon="6.38914">
        <ele>2168</ele>
        <time>2022-12-17T10:18:08.000Z</time>
      </trkpt>
      <trkpt lat="45.19245" lon="6.38908">
        <ele>2169</ele>
        <time>2022-12-17T10:18:15.000Z</time>
      </trkpt>
      <trkpt lat="45.19245" lon="6.38906">
        <ele>2169.3999023438</ele>
        <time>2022-12-17T10:18:17.000Z</time>
      </trkpt>
      <trkpt lat="45.19245" lon="6.38903">
        <ele>2169.8000488281</ele>
        <time>2022-12-17T10:18:20.000Z</time>
      </trkpt>
      <trkpt lat="45.19245" lon="6.38902">
        <ele>2170</ele>
        <time>2022-12-17T10:18:21.000Z</time>
      </trkpt>
      <trkpt lat="45.19245" lon="6.38895">
        <ele>2171.1999511719</ele>
        <time>2022-12-17T10:18:30.000Z</time>
      </trkpt>
      <trkpt lat="45.19245" lon="6.3889">
        <ele>2172</ele>
        <time>2022-12-17T10:18:36.000Z</time>
      </trkpt>
      <trkpt lat="45.19245" lon="6.38888">
        <ele>2172.3999023438</ele>
        <time>2022-12-17T10:18:38.000Z</time>
      </trkpt>
      <trkpt lat="45.19245" lon="6.38887">
        <ele>2172.3999023438</ele>
        <time>2022-12-17T10:18:39.000Z</time>
      </trkpt>
      <trkpt lat="45.19244" lon="6.38882">
        <ele>2173.1999511719</ele>
        <time>2022-12-17T10:18:46.000Z</time>
      </trkpt>
      <trkpt lat="45.19244" lon="6.38881">
        <ele>2173.3999023438</ele>
        <time>2022-12-17T10:18:47.000Z</time>
      </trkpt>
      <trkpt lat="45.19242" lon="6.38876">
        <ele>2174.3999023438</ele>
        <time>2022-12-17T10:18:54.000Z</time>
      </trkpt>
      <trkpt lat="45.19242" lon="6.38873">
        <ele>2175.1999511719</ele>
        <time>2022-12-17T10:18:58.000Z</time>
      </trkpt>
      <trkpt lat="45.19241" lon="6.38872">
        <ele>2175.3999023438</ele>
        <time>2022-12-17T10:19:00.000Z</time>
      </trkpt>
      <trkpt lat="45.1924" lon="6.38868">
        <ele>2176.6000976562</ele>
        <time>2022-12-17T10:19:07.000Z</time>
      </trkpt>
      <trkpt lat="45.19239" lon="6.38867">
        <ele>2177</ele>
        <time>2022-12-17T10:19:09.000Z</time>
      </trkpt>
      <trkpt lat="45.19239" lon="6.38864">
        <ele>2177.8000488281</ele>
        <time>2022-12-17T10:19:13.000Z</time>
      </trkpt>
      <trkpt lat="45.19238" lon="6.38862">
        <ele>2178.1999511719</ele>
        <time>2022-12-17T10:19:15.000Z</time>
      </trkpt>
      <trkpt lat="45.19237" lon="6.38861">
        <ele>2178.8000488281</ele>
        <time>2022-12-17T10:19:17.000Z</time>
      </trkpt>
      <trkpt lat="45.19238" lon="6.38861">
        <ele>2179</ele>
        <time>2022-12-17T10:19:18.000Z</time>
      </trkpt>
      <trkpt lat="45.19236" lon="6.38856">
        <ele>2180</ele>
        <time>2022-12-17T10:19:25.000Z</time>
      </trkpt>
      <trkpt lat="45.19235" lon="6.38853">
        <ele>2180.3999023438</ele>
        <time>2022-12-17T10:19:28.000Z</time>
      </trkpt>
      <trkpt lat="45.19236" lon="6.38851">
        <ele>2181</ele>
        <time>2022-12-17T10:19:32.000Z</time>
      </trkpt>
      <trkpt lat="45.19236" lon="6.38851">
        <ele>2181.1999511719</ele>
        <time>2022-12-17T10:19:33.000Z</time>
      </trkpt>
      <trkpt lat="45.19237" lon="6.3885">
        <ele>2181.8000488281</ele>
        <time>2022-12-17T10:19:36.000Z</time>
      </trkpt>
      <trkpt lat="45.19237" lon="6.3885">
        <ele>2181.8000488281</ele>
        <time>2022-12-17T10:19:37.000Z</time>
      </trkpt>
      <trkpt lat="45.19237" lon="6.38849">
        <ele>2182.3999023438</ele>
        <time>2022-12-17T10:19:39.000Z</time>
      </trkpt>
      <trkpt lat="45.19239" lon="6.38848">
        <ele>2183</ele>
        <time>2022-12-17T10:19:43.000Z</time>
      </trkpt>
      <trkpt lat="45.1924" lon="6.38849">
        <ele>2183.3999023438</ele>
        <time>2022-12-17T10:19:46.000Z</time>
      </trkpt>
      <trkpt lat="45.19241" lon="6.38848">
        <ele>2184</ele>
        <time>2022-12-17T10:19:48.000Z</time>
      </trkpt>
      <trkpt lat="45.19242" lon="6.38847">
        <ele>2184.3999023438</ele>
        <time>2022-12-17T10:19:51.000Z</time>
      </trkpt>
      <trkpt lat="45.19242" lon="6.38846">
        <ele>2185</ele>
        <time>2022-12-17T10:19:55.000Z</time>
      </trkpt>
      <trkpt lat="45.19243" lon="6.38846">
        <ele>2185.6000976562</ele>
        <time>2022-12-17T10:19:58.000Z</time>
      </trkpt>
      <trkpt lat="45.19243" lon="6.38845">
        <ele>2185.8000488281</ele>
        <time>2022-12-17T10:19:59.000Z</time>
      </trkpt>
      <trkpt lat="45.19243" lon="6.38844">
        <ele>2186</ele>
        <time>2022-12-17T10:20:01.000Z</time>
      </trkpt>
      <trkpt lat="45.19243" lon="6.38843">
        <ele>2186.6000976562</ele>
        <time>2022-12-17T10:20:04.000Z</time>
      </trkpt>
      <trkpt lat="45.19243" lon="6.38842">
        <ele>2186.6000976562</ele>
        <time>2022-12-17T10:20:05.000Z</time>
      </trkpt>
      <trkpt lat="45.19242" lon="6.38839">
        <ele>2187.8000488281</ele>
        <time>2022-12-17T10:20:13.000Z</time>
      </trkpt>
      <trkpt lat="45.1924" lon="6.38835">
        <ele>2189</ele>
        <time>2022-12-17T10:20:20.000Z</time>
      </trkpt>
      <trkpt lat="45.19239" lon="6.38834">
        <ele>2189.8000488281</ele>
        <time>2022-12-17T10:20:26.000Z</time>
      </trkpt>
      <trkpt lat="45.19237" lon="6.38833">
        <ele>2190.1999511719</ele>
        <time>2022-12-17T10:20:29.000Z</time>
      </trkpt>
      <trkpt lat="45.19236" lon="6.38831">
        <ele>2190.8000488281</ele>
        <time>2022-12-17T10:20:33.000Z</time>
      </trkpt>
      <trkpt lat="45.19235" lon="6.38831">
        <ele>2191.1999511719</ele>
        <time>2022-12-17T10:20:35.000Z</time>
      </trkpt>
      <trkpt lat="45.19234" lon="6.38829">
        <ele>2191.8000488281</ele>
        <time>2022-12-17T10:20:39.000Z</time>
      </trkpt>
      <trkpt lat="45.19234" lon="6.38828">
        <ele>2192.1999511719</ele>
        <time>2022-12-17T10:20:41.000Z</time>
      </trkpt>
      <trkpt lat="45.19233" lon="6.38825">
        <ele>2192.8000488281</ele>
        <time>2022-12-17T10:20:45.000Z</time>
      </trkpt>
      <trkpt lat="45.19232" lon="6.38823">
        <ele>2193.3999023438</ele>
        <time>2022-12-17T10:20:49.000Z</time>
      </trkpt>
      <trkpt lat="45.19229" lon="6.38821">
        <ele>2194.3999023438</ele>
        <time>2022-12-17T10:20:54.000Z</time>
      </trkpt>
      <trkpt lat="45.19228" lon="6.3882">
        <ele>2194.8000488281</ele>
        <time>2022-12-17T10:20:56.000Z</time>
      </trkpt>
      <trkpt lat="45.19227" lon="6.38819">
        <ele>2195</ele>
        <time>2022-12-17T10:20:58.000Z</time>
      </trkpt>
      <trkpt lat="45.19225" lon="6.38817">
        <ele>2195.3999023438</ele>
        <time>2022-12-17T10:21:01.000Z</time>
      </trkpt>
      <trkpt lat="45.19224" lon="6.38817">
        <ele>2195.6000976562</ele>
        <time>2022-12-17T10:21:02.000Z</time>
      </trkpt>
      <trkpt lat="45.19223" lon="6.38816">
        <ele>2195.8000488281</ele>
        <time>2022-12-17T10:21:04.000Z</time>
      </trkpt>
      <trkpt lat="45.19222" lon="6.38815">
        <ele>2196</ele>
        <time>2022-12-17T10:21:06.000Z</time>
      </trkpt>
      <trkpt lat="45.19222" lon="6.38814">
        <ele>2196</ele>
        <time>2022-12-17T10:21:07.000Z</time>
      </trkpt>
      <trkpt lat="45.19221" lon="6.38811">
        <ele>2196.6000976562</ele>
        <time>2022-12-17T10:21:10.000Z</time>
      </trkpt>
      <trkpt lat="45.19219" lon="6.38809">
        <ele>2197</ele>
        <time>2022-12-17T10:21:13.000Z</time>
      </trkpt>
      <trkpt lat="45.19219" lon="6.38804">
        <ele>2197.6000976562</ele>
        <time>2022-12-17T10:21:18.000Z</time>
      </trkpt>
      <trkpt lat="45.19221" lon="6.38803">
        <ele>2198.1999511719</ele>
        <time>2022-12-17T10:21:21.000Z</time>
      </trkpt>
      <trkpt lat="45.19222" lon="6.38803">
        <ele>2198.3999023438</ele>
        <time>2022-12-17T10:21:22.000Z</time>
      </trkpt>
      <trkpt lat="45.19223" lon="6.38803">
        <ele>2198.6000976562</ele>
        <time>2022-12-17T10:21:24.000Z</time>
      </trkpt>
      <trkpt lat="45.19224" lon="6.38803">
        <ele>2198.6000976562</ele>
        <time>2022-12-17T10:21:25.000Z</time>
      </trkpt>
      <trkpt lat="45.19229" lon="6.38803">
        <ele>2199.8000488281</ele>
        <time>2022-12-17T10:21:31.000Z</time>
      </trkpt>
      <trkpt lat="45.1923" lon="6.38803">
        <ele>2200</ele>
        <time>2022-12-17T10:21:33.000Z</time>
      </trkpt>
      <trkpt lat="45.19233" lon="6.38803">
        <ele>2200.6000976562</ele>
        <time>2022-12-17T10:21:41.000Z</time>
      </trkpt>
      <trkpt lat="45.19232" lon="6.38802">
        <ele>2200.8000488281</ele>
        <time>2022-12-17T10:21:43.000Z</time>
      </trkpt>
      <trkpt lat="45.19229" lon="6.38797">
        <ele>2202</ele>
        <time>2022-12-17T10:21:49.000Z</time>
      </trkpt>
      <trkpt lat="45.19229" lon="6.38796">
        <ele>2202.1999511719</ele>
        <time>2022-12-17T10:21:51.000Z</time>
      </trkpt>
      <trkpt lat="45.19228" lon="6.38794">
        <ele>2202.8000488281</ele>
        <time>2022-12-17T10:21:54.000Z</time>
      </trkpt>
      <trkpt lat="45.19227" lon="6.38792">
        <ele>2203</ele>
        <time>2022-12-17T10:21:56.000Z</time>
      </trkpt>
      <trkpt lat="45.19226" lon="6.38791">
        <ele>2203.1999511719</ele>
        <time>2022-12-17T10:21:57.000Z</time>
      </trkpt>
      <trkpt lat="45.19225" lon="6.3879">
        <ele>2203.3999023438</ele>
        <time>2022-12-17T10:21:59.000Z</time>
      </trkpt>
      <trkpt lat="45.19225" lon="6.38789">
        <ele>2203.6000976562</ele>
        <time>2022-12-17T10:22:00.000Z</time>
      </trkpt>
      <trkpt lat="45.19223" lon="6.38786">
        <ele>2204.1999511719</ele>
        <time>2022-12-17T10:22:05.000Z</time>
      </trkpt>
      <trkpt lat="45.19222" lon="6.38784">
        <ele>2204.6000976562</ele>
        <time>2022-12-17T10:22:08.000Z</time>
      </trkpt>
      <trkpt lat="45.19221" lon="6.3878">
        <ele>2205.1999511719</ele>
        <time>2022-12-17T10:22:14.000Z</time>
      </trkpt>
      <trkpt lat="45.19222" lon="6.38778">
        <ele>2205.8000488281</ele>
        <time>2022-12-17T10:22:17.000Z</time>
      </trkpt>
      <trkpt lat="45.19226" lon="6.38779">
        <ele>2206.3999023438</ele>
        <time>2022-12-17T10:22:23.000Z</time>
      </trkpt>
      <trkpt lat="45.19227" lon="6.38779">
        <ele>2206.6000976562</ele>
        <time>2022-12-17T10:22:24.000Z</time>
      </trkpt>
      <trkpt lat="45.19227" lon="6.38779">
        <ele>2206.6000976562</ele>
        <time>2022-12-17T10:22:25.000Z</time>
      </trkpt>
      <trkpt lat="45.19231" lon="6.38782">
        <ele>2207.6000976562</ele>
        <time>2022-12-17T10:22:30.000Z</time>
      </trkpt>
      <trkpt lat="45.19233" lon="6.38783">
        <ele>2208.3999023438</ele>
        <time>2022-12-17T10:22:34.000Z</time>
      </trkpt>
      <trkpt lat="45.19234" lon="6.38784">
        <ele>2208.6000976562</ele>
        <time>2022-12-17T10:22:36.000Z</time>
      </trkpt>
      <trkpt lat="45.19237" lon="6.38784">
        <ele>2209.3999023438</ele>
        <time>2022-12-17T10:22:43.000Z</time>
      </trkpt>
      <trkpt lat="45.19236" lon="6.38784">
        <ele>2209.3999023438</ele>
        <time>2022-12-17T10:22:56.000Z</time>
      </trkpt>
      <trkpt lat="45.19236" lon="6.38784">
        <ele>2209.6000976562</ele>
        <time>2022-12-17T10:23:03.000Z</time>
      </trkpt>
      <trkpt lat="45.19237" lon="6.38783">
        <ele>2209.6000976562</ele>
        <time>2022-12-17T10:23:08.000Z</time>
      </trkpt>
      <trkpt lat="45.19237" lon="6.38783">
        <ele>2208.8000488281</ele>
        <time>2022-12-17T10:23:19.000Z</time>
      </trkpt>
      <trkpt lat="45.19237" lon="6.38783">
        <ele>2208.6000976562</ele>
        <time>2022-12-17T10:23:25.000Z</time>
      </trkpt>
      <trkpt lat="45.19237" lon="6.38783">
        <ele>2208.3999023438</ele>
        <time>2022-12-17T10:23:36.000Z</time>
      </trkpt>
      <trkpt lat="45.19238" lon="6.38784">
        <ele>2209</ele>
        <time>2022-12-17T10:23:47.000Z</time>
      </trkpt>
      <trkpt lat="45.19238" lon="6.38784">
        <ele>2209</ele>
        <time>2022-12-17T10:23:48.000Z</time>
      </trkpt>
      <trkpt lat="45.19238" lon="6.38784">
        <ele>2208.8000488281</ele>
        <time>2022-12-17T10:23:52.000Z</time>
      </trkpt>
      <trkpt lat="45.19238" lon="6.38784">
        <ele>2208.6000976562</ele>
        <time>2022-12-17T10:24:02.000Z</time>
      </trkpt>
      <trkpt lat="45.19238" lon="6.38784">
        <ele>2208.1999511719</ele>
        <time>2022-12-17T10:24:13.000Z</time>
      </trkpt>
      <trkpt lat="45.19237" lon="6.38782">
        <ele>2207.8000488281</ele>
        <time>2022-12-17T10:24:38.000Z</time>
      </trkpt>
      <trkpt lat="45.19237" lon="6.38782">
        <ele>2207.6000976562</ele>
        <time>2022-12-17T10:24:49.000Z</time>
      </trkpt>
      <trkpt lat="45.19237" lon="6.38782">
        <ele>2207.6000976562</ele>
        <time>2022-12-17T10:24:51.000Z</time>
      </trkpt>
      <trkpt lat="45.19237" lon="6.38781">
        <ele>2207.6000976562</ele>
        <time>2022-12-17T10:25:03.000Z</time>
      </trkpt>
      <trkpt lat="45.19237" lon="6.38781">
        <ele>2207.6000976562</ele>
        <time>2022-12-17T10:25:08.000Z</time>
      </trkpt>
      <trkpt lat="45.19237" lon="6.38781">
        <ele>2207.3999023438</ele>
        <time>2022-12-17T10:25:11.000Z</time>
      </trkpt>
      <trkpt lat="45.19237" lon="6.38781">
        <ele>2207.8000488281</ele>
        <time>2022-12-17T10:25:15.000Z</time>
      </trkpt>
      <trkpt lat="45.19237" lon="6.38782">
        <ele>2208.1999511719</ele>
        <time>2022-12-17T10:25:32.000Z</time>
      </trkpt>
      <trkpt lat="45.19237" lon="6.38782">
        <ele>2208.1999511719</ele>
        <time>2022-12-17T10:25:34.000Z</time>
      </trkpt>
      <trkpt lat="45.19237" lon="6.38784">
        <ele>2208</ele>
        <time>2022-12-17T10:25:47.000Z</time>
      </trkpt>
      <trkpt lat="45.19237" lon="6.38784">
        <ele>2209.3999023438</ele>
        <time>2022-12-17T10:25:48.000Z</time>
      </trkpt>
      <trkpt lat="45.19237" lon="6.38784">
        <ele>2209</ele>
        <time>2022-12-17T10:25:54.000Z</time>
      </trkpt>
      <trkpt lat="45.19237" lon="6.38784">
        <ele>2208.6000976562</ele>
        <time>2022-12-17T10:26:02.000Z</time>
      </trkpt>
      <trkpt lat="45.19237" lon="6.38784">
        <ele>2208.8000488281</ele>
        <time>2022-12-17T10:26:10.000Z</time>
      </trkpt>
      <trkpt lat="45.19237" lon="6.38784">
        <ele>2208.8000488281</ele>
        <time>2022-12-17T10:26:11.000Z</time>
      </trkpt>
      <trkpt lat="45.19237" lon="6.38784">
        <ele>2208.3999023438</ele>
        <time>2022-12-17T10:26:33.000Z</time>
      </trkpt>
      <trkpt lat="45.19237" lon="6.38784">
        <ele>2208.1999511719</ele>
        <time>2022-12-17T10:26:36.000Z</time>
      </trkpt>
      <trkpt lat="45.19237" lon="6.38784">
        <ele>2208.1999511719</ele>
        <time>2022-12-17T10:26:38.000Z</time>
      </trkpt>
      <trkpt lat="45.19237" lon="6.38784">
        <ele>2208.1999511719</ele>
        <time>2022-12-17T10:26:42.000Z</time>
      </trkpt>
      <trkpt lat="45.19237" lon="6.38784">
        <ele>2209</ele>
        <time>2022-12-17T10:27:02.000Z</time>
      </trkpt>
      <trkpt lat="45.19237" lon="6.38783">
        <ele>2207.6000976562</ele>
        <time>2022-12-17T10:27:36.000Z</time>
      </trkpt>
      <trkpt lat="45.19237" lon="6.38783">
        <ele>2207.6000976562</ele>
        <time>2022-12-17T10:27:39.000Z</time>
      </trkpt>
      <trkpt lat="45.19237" lon="6.38783">
        <ele>2208</ele>
        <time>2022-12-17T10:27:43.000Z</time>
      </trkpt>
      <trkpt lat="45.19237" lon="6.38783">
        <ele>2207.8000488281</ele>
        <time>2022-12-17T10:27:55.000Z</time>
      </trkpt>
      <trkpt lat="45.19238" lon="6.38782">
        <ele>2207.8000488281</ele>
        <time>2022-12-17T10:28:01.000Z</time>
      </trkpt>
      <trkpt lat="45.19238" lon="6.38782">
        <ele>2207.8000488281</ele>
        <time>2022-12-17T10:28:04.000Z</time>
      </trkpt>
      <trkpt lat="45.19241" lon="6.38782">
        <ele>2207.8000488281</ele>
        <time>2022-12-17T10:28:45.000Z</time>
      </trkpt>
      <trkpt lat="45.1924" lon="6.38775">
        <ele>2207.8000488281</ele>
        <time>2022-12-17T10:28:51.000Z</time>
      </trkpt>
      <trkpt lat="45.1924" lon="6.38773">
        <ele>2207.8000488281</ele>
        <time>2022-12-17T10:28:52.000Z</time>
      </trkpt>
      <trkpt lat="45.1924" lon="6.38772">
        <ele>2207.8000488281</ele>
        <time>2022-12-17T10:28:53.000Z</time>
      </trkpt>
      <trkpt lat="45.19239" lon="6.38768">
        <ele>2212.8000488281</ele>
        <time>2022-12-17T10:28:56.000Z</time>
      </trkpt>
      <trkpt lat="45.19238" lon="6.38763">
        <ele>2213</ele>
        <time>2022-12-17T10:29:01.000Z</time>
      </trkpt>
      <trkpt lat="45.19235" lon="6.38759">
        <ele>2213.3999023438</ele>
        <time>2022-12-17T10:29:10.000Z</time>
      </trkpt>
      <trkpt lat="45.19235" lon="6.38756">
        <ele>2213.8000488281</ele>
        <time>2022-12-17T10:29:16.000Z</time>
      </trkpt>
      <trkpt lat="45.19236" lon="6.38757">
        <ele>2214</ele>
        <time>2022-12-17T10:29:17.000Z</time>
      </trkpt>
      <trkpt lat="45.19241" lon="6.38758">
        <ele>2215</ele>
        <time>2022-12-17T10:29:23.000Z</time>
      </trkpt>
      <trkpt lat="45.19247" lon="6.3876">
        <ele>2215.8000488281</ele>
        <time>2022-12-17T10:29:31.000Z</time>
      </trkpt>
      <trkpt lat="45.19248" lon="6.38761">
        <ele>2215.8000488281</ele>
        <time>2022-12-17T10:29:33.000Z</time>
      </trkpt>
      <trkpt lat="45.19249" lon="6.38761">
        <ele>2216.1999511719</ele>
        <time>2022-12-17T10:29:35.000Z</time>
      </trkpt>
      <trkpt lat="45.19254" lon="6.38764">
        <ele>2217</ele>
        <time>2022-12-17T10:29:42.000Z</time>
      </trkpt>
      <trkpt lat="45.19256" lon="6.38765">
        <ele>2217.1999511719</ele>
        <time>2022-12-17T10:29:44.000Z</time>
      </trkpt>
      <trkpt lat="45.1926" lon="6.38768">
        <ele>2218.1999511719</ele>
        <time>2022-12-17T10:29:50.000Z</time>
      </trkpt>
      <trkpt lat="45.19262" lon="6.38767">
        <ele>2218.3999023438</ele>
        <time>2022-12-17T10:29:52.000Z</time>
      </trkpt>
      <trkpt lat="45.19265" lon="6.38768">
        <ele>2219.3999023438</ele>
        <time>2022-12-17T10:29:57.000Z</time>
      </trkpt>
      <trkpt lat="45.19266" lon="6.38769">
        <ele>2219.6000976562</ele>
        <time>2022-12-17T10:29:59.000Z</time>
      </trkpt>
      <trkpt lat="45.19267" lon="6.38769">
        <ele>2219.8000488281</ele>
        <time>2022-12-17T10:30:00.000Z</time>
      </trkpt>
      <trkpt lat="45.1927" lon="6.38769">
        <ele>2220.3999023438</ele>
        <time>2022-12-17T10:30:05.000Z</time>
      </trkpt>
      <trkpt lat="45.19272" lon="6.38768">
        <ele>2220.6000976562</ele>
        <time>2022-12-17T10:30:06.000Z</time>
      </trkpt>
      <trkpt lat="45.19275" lon="6.38767">
        <ele>2221.8000488281</ele>
        <time>2022-12-17T10:30:13.000Z</time>
      </trkpt>
      <trkpt lat="45.19276" lon="6.38766">
        <ele>2222.3999023438</ele>
        <time>2022-12-17T10:30:16.000Z</time>
      </trkpt>
      <trkpt lat="45.19279" lon="6.38765">
        <ele>2223</ele>
        <time>2022-12-17T10:30:20.000Z</time>
      </trkpt>
      <trkpt lat="45.1928" lon="6.38765">
        <ele>2223.3999023438</ele>
        <time>2022-12-17T10:30:23.000Z</time>
      </trkpt>
      <trkpt lat="45.19281" lon="6.38764">
        <ele>2223.6000976562</ele>
        <time>2022-12-17T10:30:25.000Z</time>
      </trkpt>
      <trkpt lat="45.19282" lon="6.38764">
        <ele>2224</ele>
        <time>2022-12-17T10:30:26.000Z</time>
      </trkpt>
      <trkpt lat="45.19284" lon="6.38763">
        <ele>2224.6000976562</ele>
        <time>2022-12-17T10:30:29.000Z</time>
      </trkpt>
      <trkpt lat="45.19285" lon="6.38762">
        <ele>2225</ele>
        <time>2022-12-17T10:30:33.000Z</time>
      </trkpt>
      <trkpt lat="45.19287" lon="6.38761">
        <ele>2225.3999023438</ele>
        <time>2022-12-17T10:30:35.000Z</time>
      </trkpt>
      <trkpt lat="45.19287" lon="6.38761">
        <ele>2225.6000976562</ele>
        <time>2022-12-17T10:30:36.000Z</time>
      </trkpt>
      <trkpt lat="45.19288" lon="6.38759">
        <ele>2226.1999511719</ele>
        <time>2022-12-17T10:30:40.000Z</time>
      </trkpt>
      <trkpt lat="45.19291" lon="6.38757">
        <ele>2227.1999511719</ele>
        <time>2022-12-17T10:30:45.000Z</time>
      </trkpt>
      <trkpt lat="45.19292" lon="6.38756">
        <ele>2227.3999023438</ele>
        <time>2022-12-17T10:30:46.000Z</time>
      </trkpt>
      <trkpt lat="45.19294" lon="6.38754">
        <ele>2228.1999511719</ele>
        <time>2022-12-17T10:30:52.000Z</time>
      </trkpt>
      <trkpt lat="45.19294" lon="6.38753">
        <ele>2228.1999511719</ele>
        <time>2022-12-17T10:30:53.000Z</time>
      </trkpt>
      <trkpt lat="45.19296" lon="6.38752">
        <ele>2228.8000488281</ele>
        <time>2022-12-17T10:30:56.000Z</time>
      </trkpt>
      <trkpt lat="45.19297" lon="6.3875">
        <ele>2229.1999511719</ele>
        <time>2022-12-17T10:30:59.000Z</time>
      </trkpt>
      <trkpt lat="45.193" lon="6.38748">
        <ele>2230.1999511719</ele>
        <time>2022-12-17T10:31:07.000Z</time>
      </trkpt>
      <trkpt lat="45.193" lon="6.38748">
        <ele>2230.3999023438</ele>
        <time>2022-12-17T10:31:08.000Z</time>
      </trkpt>
      <trkpt lat="45.19302" lon="6.38746">
        <ele>2231</ele>
        <time>2022-12-17T10:31:11.000Z</time>
      </trkpt>
      <trkpt lat="45.19304" lon="6.38745">
        <ele>2231.8000488281</ele>
        <time>2022-12-17T10:31:15.000Z</time>
      </trkpt>
      <trkpt lat="45.19305" lon="6.38745">
        <ele>2232</ele>
        <time>2022-12-17T10:31:16.000Z</time>
      </trkpt>
      <trkpt lat="45.19307" lon="6.38743">
        <ele>2232.8000488281</ele>
        <time>2022-12-17T10:31:20.000Z</time>
      </trkpt>
      <trkpt lat="45.1931" lon="6.38739">
        <ele>2233.6000976562</ele>
        <time>2022-12-17T10:31:27.000Z</time>
      </trkpt>
      <trkpt lat="45.1931" lon="6.38738">
        <ele>2233.8000488281</ele>
        <time>2022-12-17T10:31:28.000Z</time>
      </trkpt>
      <trkpt lat="45.19311" lon="6.38735">
        <ele>2234.8000488281</ele>
        <time>2022-12-17T10:31:32.000Z</time>
      </trkpt>
      <trkpt lat="45.19311" lon="6.38734">
        <ele>2234.8000488281</ele>
        <time>2022-12-17T10:31:33.000Z</time>
      </trkpt>
      <trkpt lat="45.19311" lon="6.38733">
        <ele>2235</ele>
        <time>2022-12-17T10:31:34.000Z</time>
      </trkpt>
      <trkpt lat="45.19311" lon="6.38731">
        <ele>2235.3999023438</ele>
        <time>2022-12-17T10:31:37.000Z</time>
      </trkpt>
      <trkpt lat="45.19311" lon="6.38729">
        <ele>2235.6000976562</ele>
        <time>2022-12-17T10:31:41.000Z</time>
      </trkpt>
      <trkpt lat="45.19311" lon="6.38729">
        <ele>2235.8000488281</ele>
        <time>2022-12-17T10:31:42.000Z</time>
      </trkpt>
      <trkpt lat="45.19311" lon="6.38726">
        <ele>2236</ele>
        <time>2022-12-17T10:31:45.000Z</time>
      </trkpt>
      <trkpt lat="45.19311" lon="6.38723">
        <ele>2236.3999023438</ele>
        <time>2022-12-17T10:31:49.000Z</time>
      </trkpt>
      <trkpt lat="45.19311" lon="6.38721">
        <ele>2237</ele>
        <time>2022-12-17T10:31:51.000Z</time>
      </trkpt>
      <trkpt lat="45.19311" lon="6.3872">
        <ele>2237</ele>
        <time>2022-12-17T10:31:52.000Z</time>
      </trkpt>
      <trkpt lat="45.19311" lon="6.38719">
        <ele>2237.1999511719</ele>
        <time>2022-12-17T10:31:54.000Z</time>
      </trkpt>
      <trkpt lat="45.19311" lon="6.38717">
        <ele>2237.3999023438</ele>
        <time>2022-12-17T10:31:56.000Z</time>
      </trkpt>
      <trkpt lat="45.1931" lon="6.38714">
        <ele>2237.8000488281</ele>
        <time>2022-12-17T10:31:59.000Z</time>
      </trkpt>
      <trkpt lat="45.1931" lon="6.38713">
        <ele>2238</ele>
        <time>2022-12-17T10:32:00.000Z</time>
      </trkpt>
      <trkpt lat="45.19309" lon="6.38706">
        <ele>2239.1999511719</ele>
        <time>2022-12-17T10:32:09.000Z</time>
      </trkpt>
      <trkpt lat="45.19308" lon="6.38701">
        <ele>2240.1999511719</ele>
        <time>2022-12-17T10:32:15.000Z</time>
      </trkpt>
      <trkpt lat="45.19308" lon="6.38695">
        <ele>2240.6000976562</ele>
        <time>2022-12-17T10:32:20.000Z</time>
      </trkpt>
      <trkpt lat="45.19308" lon="6.38694">
        <ele>2240.8000488281</ele>
        <time>2022-12-17T10:32:21.000Z</time>
      </trkpt>
      <trkpt lat="45.19307" lon="6.38692">
        <ele>2241.1999511719</ele>
        <time>2022-12-17T10:32:24.000Z</time>
      </trkpt>
      <trkpt lat="45.19305" lon="6.38686">
        <ele>2242.1999511719</ele>
        <time>2022-12-17T10:32:31.000Z</time>
      </trkpt>
      <trkpt lat="45.19305" lon="6.38685">
        <ele>2242.3999023438</ele>
        <time>2022-12-17T10:32:32.000Z</time>
      </trkpt>
      <trkpt lat="45.19304" lon="6.38675">
        <ele>2243.3999023438</ele>
        <time>2022-12-17T10:32:42.000Z</time>
      </trkpt>
      <trkpt lat="45.19303" lon="6.38674">
        <ele>2243.6000976562</ele>
        <time>2022-12-17T10:32:43.000Z</time>
      </trkpt>
      <trkpt lat="45.19302" lon="6.38665">
        <ele>2244.3999023438</ele>
        <time>2022-12-17T10:32:52.000Z</time>
      </trkpt>
      <trkpt lat="45.19302" lon="6.38664">
        <ele>2244.6000976562</ele>
        <time>2022-12-17T10:32:53.000Z</time>
      </trkpt>
      <trkpt lat="45.193" lon="6.38656">
        <ele>2245.6000976562</ele>
        <time>2022-12-17T10:33:02.000Z</time>
      </trkpt>
      <trkpt lat="45.193" lon="6.38655">
        <ele>2245.8000488281</ele>
        <time>2022-12-17T10:33:03.000Z</time>
      </trkpt>
      <trkpt lat="45.19301" lon="6.3865">
        <ele>2246.6000976562</ele>
        <time>2022-12-17T10:33:08.000Z</time>
      </trkpt>
      <trkpt lat="45.19302" lon="6.38646">
        <ele>2247.3999023438</ele>
        <time>2022-12-17T10:33:15.000Z</time>
      </trkpt>
      <trkpt lat="45.19302" lon="6.38645">
        <ele>2247.6000976562</ele>
        <time>2022-12-17T10:33:16.000Z</time>
      </trkpt>
      <trkpt lat="45.19301" lon="6.3864">
        <ele>2248.3999023438</ele>
        <time>2022-12-17T10:33:22.000Z</time>
      </trkpt>
      <trkpt lat="45.19301" lon="6.38638">
        <ele>2248.8000488281</ele>
        <time>2022-12-17T10:33:24.000Z</time>
      </trkpt>
      <trkpt lat="45.19301" lon="6.38636">
        <ele>2249.3999023438</ele>
        <time>2022-12-17T10:33:27.000Z</time>
      </trkpt>
      <trkpt lat="45.193" lon="6.38634">
        <ele>2250</ele>
        <time>2022-12-17T10:33:30.000Z</time>
      </trkpt>
      <trkpt lat="45.193" lon="6.38631">
        <ele>2250.8000488281</ele>
        <time>2022-12-17T10:33:34.000Z</time>
      </trkpt>
      <trkpt lat="45.193" lon="6.38631">
        <ele>2251</ele>
        <time>2022-12-17T10:33:35.000Z</time>
      </trkpt>
      <trkpt lat="45.19301" lon="6.38626">
        <ele>2252</ele>
        <time>2022-12-17T10:33:43.000Z</time>
      </trkpt>
      <trkpt lat="45.19301" lon="6.38624">
        <ele>2252.3999023438</ele>
        <time>2022-12-17T10:33:46.000Z</time>
      </trkpt>
      <trkpt lat="45.19302" lon="6.3862">
        <ele>2253.1999511719</ele>
        <time>2022-12-17T10:33:51.000Z</time>
      </trkpt>
      <trkpt lat="45.19302" lon="6.38618">
        <ele>2254</ele>
        <time>2022-12-17T10:33:56.000Z</time>
      </trkpt>
      <trkpt lat="45.19303" lon="6.38617">
        <ele>2254.1999511719</ele>
        <time>2022-12-17T10:33:58.000Z</time>
      </trkpt>
      <trkpt lat="45.19302" lon="6.38614">
        <ele>2255.1999511719</ele>
        <time>2022-12-17T10:34:04.000Z</time>
      </trkpt>
      <trkpt lat="45.19302" lon="6.38611">
        <ele>2256</ele>
        <time>2022-12-17T10:34:08.000Z</time>
      </trkpt>
      <trkpt lat="45.19302" lon="6.38611">
        <ele>2256.1999511719</ele>
        <time>2022-12-17T10:34:09.000Z</time>
      </trkpt>
      <trkpt lat="45.19302" lon="6.3861">
        <ele>2256.3999023438</ele>
        <time>2022-12-17T10:34:12.000Z</time>
      </trkpt>
      <trkpt lat="45.19302" lon="6.38606">
        <ele>2257.3999023438</ele>
        <time>2022-12-17T10:34:18.000Z</time>
      </trkpt>
      <trkpt lat="45.19302" lon="6.38606">
        <ele>2257.3999023438</ele>
        <time>2022-12-17T10:34:19.000Z</time>
      </trkpt>
      <trkpt lat="45.19302" lon="6.38602">
        <ele>2258.6000976562</ele>
        <time>2022-12-17T10:34:26.000Z</time>
      </trkpt>
      <trkpt lat="45.19301" lon="6.38596">
        <ele>2259.8000488281</ele>
        <time>2022-12-17T10:34:34.000Z</time>
      </trkpt>
      <trkpt lat="45.19301" lon="6.38595">
        <ele>2260</ele>
        <time>2022-12-17T10:34:36.000Z</time>
      </trkpt>
      <trkpt lat="45.19301" lon="6.38592">
        <ele>2261</ele>
        <time>2022-12-17T10:34:41.000Z</time>
      </trkpt>
      <trkpt lat="45.19301" lon="6.38592">
        <ele>2261.1999511719</ele>
        <time>2022-12-17T10:34:43.000Z</time>
      </trkpt>
      <trkpt lat="45.19301" lon="6.3859">
        <ele>2262</ele>
        <time>2022-12-17T10:34:48.000Z</time>
      </trkpt>
      <trkpt lat="45.19301" lon="6.38587">
        <ele>2262.1999511719</ele>
        <time>2022-12-17T10:34:51.000Z</time>
      </trkpt>
      <trkpt lat="45.193" lon="6.38583">
        <ele>2263</ele>
        <time>2022-12-17T10:34:57.000Z</time>
      </trkpt>
      <trkpt lat="45.193" lon="6.38582">
        <ele>2263.1999511719</ele>
        <time>2022-12-17T10:34:58.000Z</time>
      </trkpt>
      <trkpt lat="45.19299" lon="6.38578">
        <ele>2264</ele>
        <time>2022-12-17T10:35:05.000Z</time>
      </trkpt>
      <trkpt lat="45.19299" lon="6.38578">
        <ele>2264.1999511719</ele>
        <time>2022-12-17T10:35:06.000Z</time>
      </trkpt>
      <trkpt lat="45.193" lon="6.38574">
        <ele>2265.1999511719</ele>
        <time>2022-12-17T10:35:11.000Z</time>
      </trkpt>
      <trkpt lat="45.193" lon="6.38571">
        <ele>2265.8000488281</ele>
        <time>2022-12-17T10:35:17.000Z</time>
      </trkpt>
      <trkpt lat="45.19301" lon="6.38568">
        <ele>2266.1999511719</ele>
        <time>2022-12-17T10:35:21.000Z</time>
      </trkpt>
      <trkpt lat="45.193" lon="6.38563">
        <ele>2267.3999023438</ele>
        <time>2022-12-17T10:35:29.000Z</time>
      </trkpt>
      <trkpt lat="45.193" lon="6.3856">
        <ele>2268</ele>
        <time>2022-12-17T10:35:33.000Z</time>
      </trkpt>
      <trkpt lat="45.193" lon="6.38559">
        <ele>2268.3999023438</ele>
        <time>2022-12-17T10:35:35.000Z</time>
      </trkpt>
      <trkpt lat="45.193" lon="6.38559">
        <ele>2268.6000976562</ele>
        <time>2022-12-17T10:35:36.000Z</time>
      </trkpt>
      <trkpt lat="45.193" lon="6.38556">
        <ele>2269.1999511719</ele>
        <time>2022-12-17T10:35:41.000Z</time>
      </trkpt>
      <trkpt lat="45.193" lon="6.38555">
        <ele>2269.3999023438</ele>
        <time>2022-12-17T10:35:43.000Z</time>
      </trkpt>
      <trkpt lat="45.193" lon="6.38554">
        <ele>2269.8000488281</ele>
        <time>2022-12-17T10:35:44.000Z</time>
      </trkpt>
      <trkpt lat="45.19299" lon="6.38551">
        <ele>2270.6000976562</ele>
        <time>2022-12-17T10:35:50.000Z</time>
      </trkpt>
      <trkpt lat="45.19299" lon="6.3855">
        <ele>2270.8000488281</ele>
        <time>2022-12-17T10:35:51.000Z</time>
      </trkpt>
      <trkpt lat="45.19299" lon="6.3855">
        <ele>2270.8000488281</ele>
        <time>2022-12-17T10:35:52.000Z</time>
      </trkpt>
      <trkpt lat="45.19298" lon="6.38544">
        <ele>2271.8000488281</ele>
        <time>2022-12-17T10:36:00.000Z</time>
      </trkpt>
      <trkpt lat="45.19297" lon="6.38544">
        <ele>2271.8000488281</ele>
        <time>2022-12-17T10:36:01.000Z</time>
      </trkpt>
      <trkpt lat="45.19297" lon="6.38543">
        <ele>2272.1999511719</ele>
        <time>2022-12-17T10:36:02.000Z</time>
      </trkpt>
      <trkpt lat="45.19297" lon="6.38537">
        <ele>2273.1999511719</ele>
        <time>2022-12-17T10:36:10.000Z</time>
      </trkpt>
      <trkpt lat="45.19297" lon="6.38536">
        <ele>2273.6000976562</ele>
        <time>2022-12-17T10:36:13.000Z</time>
      </trkpt>
      <trkpt lat="45.19297" lon="6.38533">
        <ele>2274</ele>
        <time>2022-12-17T10:36:17.000Z</time>
      </trkpt>
      <trkpt lat="45.19297" lon="6.38532">
        <ele>2274.3999023438</ele>
        <time>2022-12-17T10:36:18.000Z</time>
      </trkpt>
      <trkpt lat="45.19297" lon="6.38531">
        <ele>2274.8000488281</ele>
        <time>2022-12-17T10:36:20.000Z</time>
      </trkpt>
      <trkpt lat="45.19296" lon="6.38529">
        <ele>2275.1999511719</ele>
        <time>2022-12-17T10:36:24.000Z</time>
      </trkpt>
      <trkpt lat="45.19296" lon="6.38528">
        <ele>2275.3999023438</ele>
        <time>2022-12-17T10:36:25.000Z</time>
      </trkpt>
      <trkpt lat="45.19296" lon="6.38525">
        <ele>2276.3999023438</ele>
        <time>2022-12-17T10:36:31.000Z</time>
      </trkpt>
      <trkpt lat="45.19296" lon="6.38523">
        <ele>2276.6000976562</ele>
        <time>2022-12-17T10:36:33.000Z</time>
      </trkpt>
      <trkpt lat="45.19296" lon="6.38523">
        <ele>2276.8000488281</ele>
        <time>2022-12-17T10:36:34.000Z</time>
      </trkpt>
      <trkpt lat="45.19296" lon="6.3852">
        <ele>2277.6000976562</ele>
        <time>2022-12-17T10:36:39.000Z</time>
      </trkpt>
      <trkpt lat="45.19297" lon="6.38518">
        <ele>2278.1999511719</ele>
        <time>2022-12-17T10:36:43.000Z</time>
      </trkpt>
      <trkpt lat="45.19297" lon="6.38518">
        <ele>2278.3999023438</ele>
        <time>2022-12-17T10:36:44.000Z</time>
      </trkpt>
      <trkpt lat="45.19297" lon="6.38517">
        <ele>2278.6000976562</ele>
        <time>2022-12-17T10:36:47.000Z</time>
      </trkpt>
      <trkpt lat="45.19296" lon="6.38516">
        <ele>2279.1999511719</ele>
        <time>2022-12-17T10:36:50.000Z</time>
      </trkpt>
      <trkpt lat="45.19296" lon="6.38513">
        <ele>2279.8000488281</ele>
        <time>2022-12-17T10:36:53.000Z</time>
      </trkpt>
      <trkpt lat="45.19296" lon="6.38511">
        <ele>2280.8000488281</ele>
        <time>2022-12-17T10:36:58.000Z</time>
      </trkpt>
      <trkpt lat="45.19295" lon="6.38508">
        <ele>2281</ele>
        <time>2022-12-17T10:37:02.000Z</time>
      </trkpt>
      <trkpt lat="45.19294" lon="6.38505">
        <ele>2281.8000488281</ele>
        <time>2022-12-17T10:37:08.000Z</time>
      </trkpt>
      <trkpt lat="45.19293" lon="6.38503">
        <ele>2282.3999023438</ele>
        <time>2022-12-17T10:37:11.000Z</time>
      </trkpt>
      <trkpt lat="45.19293" lon="6.38502">
        <ele>2282.8000488281</ele>
        <time>2022-12-17T10:37:13.000Z</time>
      </trkpt>
      <trkpt lat="45.19292" lon="6.385">
        <ele>2283.1999511719</ele>
        <time>2022-12-17T10:37:16.000Z</time>
      </trkpt>
      <trkpt lat="45.19291" lon="6.38499">
        <ele>2283.6000976562</ele>
        <time>2022-12-17T10:37:19.000Z</time>
      </trkpt>
      <trkpt lat="45.19291" lon="6.38498">
        <ele>2283.8000488281</ele>
        <time>2022-12-17T10:37:21.000Z</time>
      </trkpt>
      <trkpt lat="45.19291" lon="6.38497">
        <ele>2284</ele>
        <time>2022-12-17T10:37:22.000Z</time>
      </trkpt>
      <trkpt lat="45.1929" lon="6.38496">
        <ele>2284.1999511719</ele>
        <time>2022-12-17T10:37:24.000Z</time>
      </trkpt>
      <trkpt lat="45.1929" lon="6.38495">
        <ele>2284.6000976562</ele>
        <time>2022-12-17T10:37:26.000Z</time>
      </trkpt>
      <trkpt lat="45.19289" lon="6.38494">
        <ele>2285</ele>
        <time>2022-12-17T10:37:28.000Z</time>
      </trkpt>
      <trkpt lat="45.19287" lon="6.38489">
        <ele>2286.1999511719</ele>
        <time>2022-12-17T10:37:36.000Z</time>
      </trkpt>
      <trkpt lat="45.19287" lon="6.38489">
        <ele>2286.1999511719</ele>
        <time>2022-12-17T10:37:37.000Z</time>
      </trkpt>
      <trkpt lat="45.19286" lon="6.38484">
        <ele>2287.1999511719</ele>
        <time>2022-12-17T10:37:45.000Z</time>
      </trkpt>
      <trkpt lat="45.19287" lon="6.38483">
        <ele>2288.1999511719</ele>
        <time>2022-12-17T10:37:52.000Z</time>
      </trkpt>
      <trkpt lat="45.19287" lon="6.38483">
        <ele>2288.1999511719</ele>
        <time>2022-12-17T10:37:53.000Z</time>
      </trkpt>
      <trkpt lat="45.19291" lon="6.3848">
        <ele>2289.3999023438</ele>
        <time>2022-12-17T10:38:01.000Z</time>
      </trkpt>
      <trkpt lat="45.19292" lon="6.38479">
        <ele>2289.3999023438</ele>
        <time>2022-12-17T10:38:02.000Z</time>
      </trkpt>
      <trkpt lat="45.19294" lon="6.38477">
        <ele>2290.1999511719</ele>
        <time>2022-12-17T10:38:07.000Z</time>
      </trkpt>
      <trkpt lat="45.19295" lon="6.38475">
        <ele>2290.3999023438</ele>
        <time>2022-12-17T10:38:10.000Z</time>
      </trkpt>
      <trkpt lat="45.19296" lon="6.38474">
        <ele>2290.8000488281</ele>
        <time>2022-12-17T10:38:12.000Z</time>
      </trkpt>
      <trkpt lat="45.19298" lon="6.38474">
        <ele>2291.3999023438</ele>
        <time>2022-12-17T10:38:16.000Z</time>
      </trkpt>
      <trkpt lat="45.193" lon="6.38471">
        <ele>2292.3999023438</ele>
        <time>2022-12-17T10:38:24.000Z</time>
      </trkpt>
      <trkpt lat="45.193" lon="6.38471">
        <ele>2292.6000976562</ele>
        <time>2022-12-17T10:38:26.000Z</time>
      </trkpt>
      <trkpt lat="45.19297" lon="6.38467">
        <ele>2293.6000976562</ele>
        <time>2022-12-17T10:38:33.000Z</time>
      </trkpt>
      <trkpt lat="45.19297" lon="6.38467">
        <ele>2293.6000976562</ele>
        <time>2022-12-17T10:38:34.000Z</time>
      </trkpt>
      <trkpt lat="45.19295" lon="6.38464">
        <ele>2294.8000488281</ele>
        <time>2022-12-17T10:38:41.000Z</time>
      </trkpt>
      <trkpt lat="45.19295" lon="6.38463">
        <ele>2294.8000488281</ele>
        <time>2022-12-17T10:38:42.000Z</time>
      </trkpt>
      <trkpt lat="45.19293" lon="6.38458">
        <ele>2295.8000488281</ele>
        <time>2022-12-17T10:38:49.000Z</time>
      </trkpt>
      <trkpt lat="45.19292" lon="6.38458">
        <ele>2295.8000488281</ele>
        <time>2022-12-17T10:38:50.000Z</time>
      </trkpt>
      <trkpt lat="45.19292" lon="6.38457">
        <ele>2296.1999511719</ele>
        <time>2022-12-17T10:38:51.000Z</time>
      </trkpt>
      <trkpt lat="45.1929" lon="6.38454">
        <ele>2297</ele>
        <time>2022-12-17T10:38:57.000Z</time>
      </trkpt>
      <trkpt lat="45.19289" lon="6.38453">
        <ele>2297.3999023438</ele>
        <time>2022-12-17T10:39:00.000Z</time>
      </trkpt>
      <trkpt lat="45.1929" lon="6.38452">
        <ele>2297.8000488281</ele>
        <time>2022-12-17T10:39:03.000Z</time>
      </trkpt>
      <trkpt lat="45.19291" lon="6.38451">
        <ele>2298</ele>
        <time>2022-12-17T10:39:05.000Z</time>
      </trkpt>
      <trkpt lat="45.19292" lon="6.3845">
        <ele>2298.6000976562</ele>
        <time>2022-12-17T10:39:08.000Z</time>
      </trkpt>
      <trkpt lat="45.19292" lon="6.38448">
        <ele>2298.8000488281</ele>
        <time>2022-12-17T10:39:10.000Z</time>
      </trkpt>
      <trkpt lat="45.19293" lon="6.38446">
        <ele>2299.1999511719</ele>
        <time>2022-12-17T10:39:12.000Z</time>
      </trkpt>
      <trkpt lat="45.19294" lon="6.38445">
        <ele>2299.3999023438</ele>
        <time>2022-12-17T10:39:14.000Z</time>
      </trkpt>
      <trkpt lat="45.19295" lon="6.38444">
        <ele>2299.8000488281</ele>
        <time>2022-12-17T10:39:17.000Z</time>
      </trkpt>
      <trkpt lat="45.19296" lon="6.38444">
        <ele>2300.1999511719</ele>
        <time>2022-12-17T10:39:19.000Z</time>
      </trkpt>
      <trkpt lat="45.19297" lon="6.38443">
        <ele>2300.6000976562</ele>
        <time>2022-12-17T10:39:21.000Z</time>
      </trkpt>
      <trkpt lat="45.19299" lon="6.3844">
        <ele>2301.1999511719</ele>
        <time>2022-12-17T10:39:27.000Z</time>
      </trkpt>
      <trkpt lat="45.193" lon="6.38439">
        <ele>2301.6000976562</ele>
        <time>2022-12-17T10:39:30.000Z</time>
      </trkpt>
      <trkpt lat="45.19301" lon="6.38438">
        <ele>2302.1999511719</ele>
        <time>2022-12-17T10:39:32.000Z</time>
      </trkpt>
      <trkpt lat="45.19301" lon="6.38438">
        <ele>2302.3999023438</ele>
        <time>2022-12-17T10:39:33.000Z</time>
      </trkpt>
      <trkpt lat="45.19302" lon="6.38438">
        <ele>2302.6000976562</ele>
        <time>2022-12-17T10:39:34.000Z</time>
      </trkpt>
      <trkpt lat="45.19301" lon="6.38438">
        <ele>2302.8000488281</ele>
        <time>2022-12-17T10:39:38.000Z</time>
      </trkpt>
      <trkpt lat="45.19301" lon="6.38437">
        <ele>2303</ele>
        <time>2022-12-17T10:39:40.000Z</time>
      </trkpt>
      <trkpt lat="45.193" lon="6.38437">
        <ele>2303.1999511719</ele>
        <time>2022-12-17T10:39:42.000Z</time>
      </trkpt>
      <trkpt lat="45.19299" lon="6.38436">
        <ele>2303.8000488281</ele>
        <time>2022-12-17T10:39:46.000Z</time>
      </trkpt>
      <trkpt lat="45.19298" lon="6.38434">
        <ele>2304.3999023438</ele>
        <time>2022-12-17T10:39:49.000Z</time>
      </trkpt>
      <trkpt lat="45.19296" lon="6.3843">
        <ele>2305.3999023438</ele>
        <time>2022-12-17T10:39:56.000Z</time>
      </trkpt>
      <trkpt lat="45.19295" lon="6.38429">
        <ele>2305.6000976562</ele>
        <time>2022-12-17T10:39:57.000Z</time>
      </trkpt>
      <trkpt lat="45.19295" lon="6.38429">
        <ele>2305.8000488281</ele>
        <time>2022-12-17T10:39:58.000Z</time>
      </trkpt>
      <trkpt lat="45.19293" lon="6.38426">
        <ele>2306.3999023438</ele>
        <time>2022-12-17T10:40:03.000Z</time>
      </trkpt>
      <trkpt lat="45.19291" lon="6.38422">
        <ele>2307.3999023438</ele>
        <time>2022-12-17T10:40:11.000Z</time>
      </trkpt>
      <trkpt lat="45.19291" lon="6.38422">
        <ele>2307.3999023438</ele>
        <time>2022-12-17T10:40:12.000Z</time>
      </trkpt>
      <trkpt lat="45.19288" lon="6.38418">
        <ele>2308.6000976562</ele>
        <time>2022-12-17T10:40:19.000Z</time>
      </trkpt>
      <trkpt lat="45.19288" lon="6.38416">
        <ele>2309</ele>
        <time>2022-12-17T10:40:22.000Z</time>
      </trkpt>
      <trkpt lat="45.19286" lon="6.38415">
        <ele>2309.8000488281</ele>
        <time>2022-12-17T10:40:25.000Z</time>
      </trkpt>
      <trkpt lat="45.19286" lon="6.38413">
        <ele>2310</ele>
        <time>2022-12-17T10:40:27.000Z</time>
      </trkpt>
      <trkpt lat="45.19285" lon="6.38412">
        <ele>2310.3999023438</ele>
        <time>2022-12-17T10:40:29.000Z</time>
      </trkpt>
      <trkpt lat="45.19285" lon="6.38411">
        <ele>2310.8000488281</ele>
        <time>2022-12-17T10:40:31.000Z</time>
      </trkpt>
      <trkpt lat="45.19283" lon="6.38409">
        <ele>2311.1999511719</ele>
        <time>2022-12-17T10:40:35.000Z</time>
      </trkpt>
      <trkpt lat="45.19283" lon="6.38408">
        <ele>2311.1999511719</ele>
        <time>2022-12-17T10:40:36.000Z</time>
      </trkpt>
      <trkpt lat="45.19282" lon="6.38408">
        <ele>2311.6000976562</ele>
        <time>2022-12-17T10:40:37.000Z</time>
      </trkpt>
      <trkpt lat="45.19282" lon="6.38406">
        <ele>2311.8000488281</ele>
        <time>2022-12-17T10:40:39.000Z</time>
      </trkpt>
      <trkpt lat="45.1928" lon="6.38403">
        <ele>2312.6000976562</ele>
        <time>2022-12-17T10:40:44.000Z</time>
      </trkpt>
      <trkpt lat="45.1928" lon="6.38403">
        <ele>2312.8000488281</ele>
        <time>2022-12-17T10:40:45.000Z</time>
      </trkpt>
      <trkpt lat="45.1928" lon="6.38402">
        <ele>2313</ele>
        <time>2022-12-17T10:40:46.000Z</time>
      </trkpt>
      <trkpt lat="45.19278" lon="6.38399">
        <ele>2314</ele>
        <time>2022-12-17T10:40:53.000Z</time>
      </trkpt>
      <trkpt lat="45.19278" lon="6.38399">
        <ele>2314.1999511719</ele>
        <time>2022-12-17T10:40:54.000Z</time>
      </trkpt>
      <trkpt lat="45.19275" lon="6.38395">
        <ele>2315</ele>
        <time>2022-12-17T10:41:01.000Z</time>
      </trkpt>
      <trkpt lat="45.19275" lon="6.38394">
        <ele>2315.1999511719</ele>
        <time>2022-12-17T10:41:02.000Z</time>
      </trkpt>
      <trkpt lat="45.19275" lon="6.38394">
        <ele>2315.3999023438</ele>
        <time>2022-12-17T10:41:03.000Z</time>
      </trkpt>
      <trkpt lat="45.19274" lon="6.38393">
        <ele>2315.3999023438</ele>
        <time>2022-12-17T10:41:05.000Z</time>
      </trkpt>
      <trkpt lat="45.19274" lon="6.38392">
        <ele>2315.6000976562</ele>
        <time>2022-12-17T10:41:06.000Z</time>
      </trkpt>
      <trkpt lat="45.19275" lon="6.3839">
        <ele>2316.1999511719</ele>
        <time>2022-12-17T10:41:09.000Z</time>
      </trkpt>
      <trkpt lat="45.19277" lon="6.38388">
        <ele>2316.8000488281</ele>
        <time>2022-12-17T10:41:14.000Z</time>
      </trkpt>
      <trkpt lat="45.19278" lon="6.38386">
        <ele>2317.3999023438</ele>
        <time>2022-12-17T10:41:18.000Z</time>
      </trkpt>
      <trkpt lat="45.19281" lon="6.38383">
        <ele>2318.3999023438</ele>
        <time>2022-12-17T10:41:27.000Z</time>
      </trkpt>
      <trkpt lat="45.19282" lon="6.38383">
        <ele>2318.3999023438</ele>
        <time>2022-12-17T10:41:28.000Z</time>
      </trkpt>
      <trkpt lat="45.19283" lon="6.38382">
        <ele>2319</ele>
        <time>2022-12-17T10:41:31.000Z</time>
      </trkpt>
      <trkpt lat="45.19284" lon="6.3838">
        <ele>2319.6000976562</ele>
        <time>2022-12-17T10:41:34.000Z</time>
      </trkpt>
      <trkpt lat="45.19286" lon="6.38378">
        <ele>2320.1999511719</ele>
        <time>2022-12-17T10:41:39.000Z</time>
      </trkpt>
      <trkpt lat="45.19287" lon="6.38378">
        <ele>2320.6000976562</ele>
        <time>2022-12-17T10:41:41.000Z</time>
      </trkpt>
      <trkpt lat="45.19287" lon="6.38377">
        <ele>2321.1999511719</ele>
        <time>2022-12-17T10:41:45.000Z</time>
      </trkpt>
      <trkpt lat="45.19287" lon="6.38376">
        <ele>2321.6000976562</ele>
        <time>2022-12-17T10:41:47.000Z</time>
      </trkpt>
      <trkpt lat="45.19285" lon="6.38373">
        <ele>2322.8000488281</ele>
        <time>2022-12-17T10:41:54.000Z</time>
      </trkpt>
      <trkpt lat="45.19284" lon="6.38373">
        <ele>2322.8000488281</ele>
        <time>2022-12-17T10:41:55.000Z</time>
      </trkpt>
      <trkpt lat="45.19282" lon="6.38369">
        <ele>2323.8000488281</ele>
        <time>2022-12-17T10:42:03.000Z</time>
      </trkpt>
      <trkpt lat="45.19281" lon="6.38368">
        <ele>2324.1999511719</ele>
        <time>2022-12-17T10:42:06.000Z</time>
      </trkpt>
      <trkpt lat="45.1928" lon="6.38366">
        <ele>2325</ele>
        <time>2022-12-17T10:42:11.000Z</time>
      </trkpt>
      <trkpt lat="45.1928" lon="6.38364">
        <ele>2325.3999023438</ele>
        <time>2022-12-17T10:42:14.000Z</time>
      </trkpt>
      <trkpt lat="45.19278" lon="6.38362">
        <ele>2326</ele>
        <time>2022-12-17T10:42:18.000Z</time>
      </trkpt>
      <trkpt lat="45.19277" lon="6.38361">
        <ele>2326.3999023438</ele>
        <time>2022-12-17T10:42:20.000Z</time>
      </trkpt>
      <trkpt lat="45.19276" lon="6.38359">
        <ele>2326.6000976562</ele>
        <time>2022-12-17T10:42:24.000Z</time>
      </trkpt>
      <trkpt lat="45.19274" lon="6.38357">
        <ele>2327</ele>
        <time>2022-12-17T10:42:27.000Z</time>
      </trkpt>
      <trkpt lat="45.19273" lon="6.38355">
        <ele>2327.8000488281</ele>
        <time>2022-12-17T10:42:31.000Z</time>
      </trkpt>
      <trkpt lat="45.19273" lon="6.38353">
        <ele>2328.1999511719</ele>
        <time>2022-12-17T10:42:34.000Z</time>
      </trkpt>
      <trkpt lat="45.19272" lon="6.38353">
        <ele>2328.1999511719</ele>
        <time>2022-12-17T10:42:35.000Z</time>
      </trkpt>
      <trkpt lat="45.19271" lon="6.3835">
        <ele>2329.3999023438</ele>
        <time>2022-12-17T10:42:41.000Z</time>
      </trkpt>
      <trkpt lat="45.1927" lon="6.38349">
        <ele>2329.6000976562</ele>
        <time>2022-12-17T10:42:43.000Z</time>
      </trkpt>
      <trkpt lat="45.1927" lon="6.38349">
        <ele>2329.6000976562</ele>
        <time>2022-12-17T10:42:45.000Z</time>
      </trkpt>
      <trkpt lat="45.19268" lon="6.38346">
        <ele>2330.3999023438</ele>
        <time>2022-12-17T10:42:54.000Z</time>
      </trkpt>
      <trkpt lat="45.19268" lon="6.38345">
        <ele>2330.3999023438</ele>
        <time>2022-12-17T10:42:55.000Z</time>
      </trkpt>
      <trkpt lat="45.19268" lon="6.38344">
        <ele>2330.8000488281</ele>
        <time>2022-12-17T10:42:56.000Z</time>
      </trkpt>
      <trkpt lat="45.19268" lon="6.38344">
        <ele>2330.8000488281</ele>
        <time>2022-12-17T10:42:57.000Z</time>
      </trkpt>
      <trkpt lat="45.19269" lon="6.38343">
        <ele>2331</ele>
        <time>2022-12-17T10:43:04.000Z</time>
      </trkpt>
      <trkpt lat="45.19269" lon="6.38343">
        <ele>2331</ele>
        <time>2022-12-17T10:43:11.000Z</time>
      </trkpt>
      <trkpt lat="45.19269" lon="6.38343">
        <ele>2331.1999511719</ele>
        <time>2022-12-17T10:43:17.000Z</time>
      </trkpt>
      <trkpt lat="45.19269" lon="6.38344">
        <ele>2331</ele>
        <time>2022-12-17T10:43:33.000Z</time>
      </trkpt>
      <trkpt lat="45.19268" lon="6.38344">
        <ele>2331</ele>
        <time>2022-12-17T10:43:41.000Z</time>
      </trkpt>
      <trkpt lat="45.19268" lon="6.38344">
        <ele>2331.6000976562</ele>
        <time>2022-12-17T10:43:43.000Z</time>
      </trkpt>
      <trkpt lat="45.19268" lon="6.38344">
        <ele>2332.8000488281</ele>
        <time>2022-12-17T10:43:52.000Z</time>
      </trkpt>
      <trkpt lat="45.19268" lon="6.38343">
        <ele>2333.8000488281</ele>
        <time>2022-12-17T10:43:58.000Z</time>
      </trkpt>
      <trkpt lat="45.19268" lon="6.38343">
        <ele>2334.3999023438</ele>
        <time>2022-12-17T10:44:01.000Z</time>
      </trkpt>
      <trkpt lat="45.19269" lon="6.38342">
        <ele>2335</ele>
        <time>2022-12-17T10:44:03.000Z</time>
      </trkpt>
      <trkpt lat="45.19272" lon="6.38339">
        <ele>2336.1999511719</ele>
        <time>2022-12-17T10:44:09.000Z</time>
      </trkpt>
      <trkpt lat="45.19275" lon="6.38337">
        <ele>2337.1999511719</ele>
        <time>2022-12-17T10:44:15.000Z</time>
      </trkpt>
      <trkpt lat="45.19278" lon="6.38335">
        <ele>2338.3999023438</ele>
        <time>2022-12-17T10:44:21.000Z</time>
      </trkpt>
      <trkpt lat="45.1928" lon="6.38332">
        <ele>2339.3999023438</ele>
        <time>2022-12-17T10:44:27.000Z</time>
      </trkpt>
      <trkpt lat="45.19281" lon="6.38332">
        <ele>2339.8000488281</ele>
        <time>2022-12-17T10:44:29.000Z</time>
      </trkpt>
      <trkpt lat="45.19281" lon="6.38331">
        <ele>2340.1999511719</ele>
        <time>2022-12-17T10:44:33.000Z</time>
      </trkpt>
      <trkpt lat="45.19281" lon="6.3833">
        <ele>2340.3999023438</ele>
        <time>2022-12-17T10:44:34.000Z</time>
      </trkpt>
      <trkpt lat="45.19281" lon="6.3833">
        <ele>2340.8000488281</ele>
        <time>2022-12-17T10:44:36.000Z</time>
      </trkpt>
      <trkpt lat="45.19281" lon="6.38329">
        <ele>2341.1999511719</ele>
        <time>2022-12-17T10:44:39.000Z</time>
      </trkpt>
      <trkpt lat="45.19281" lon="6.38327">
        <ele>2341.6000976562</ele>
        <time>2022-12-17T10:44:42.000Z</time>
      </trkpt>
      <trkpt lat="45.19281" lon="6.38325">
        <ele>2342.1999511719</ele>
        <time>2022-12-17T10:44:45.000Z</time>
      </trkpt>
      <trkpt lat="45.1928" lon="6.38323">
        <ele>2342.6000976562</ele>
        <time>2022-12-17T10:44:48.000Z</time>
      </trkpt>
      <trkpt lat="45.19277" lon="6.38318">
        <ele>2343.6000976562</ele>
        <time>2022-12-17T10:44:55.000Z</time>
      </trkpt>
      <trkpt lat="45.19275" lon="6.38314">
        <ele>2344.8000488281</ele>
        <time>2022-12-17T10:45:01.000Z</time>
      </trkpt>
      <trkpt lat="45.19272" lon="6.3831">
        <ele>2345.3999023438</ele>
        <time>2022-12-17T10:45:08.000Z</time>
      </trkpt>
      <trkpt lat="45.19272" lon="6.38309">
        <ele>2345.3999023438</ele>
        <time>2022-12-17T10:45:09.000Z</time>
      </trkpt>
      <trkpt lat="45.19271" lon="6.38308">
        <ele>2345.8000488281</ele>
        <time>2022-12-17T10:45:11.000Z</time>
      </trkpt>
      <trkpt lat="45.19269" lon="6.38304">
        <ele>2347</ele>
        <time>2022-12-17T10:45:17.000Z</time>
      </trkpt>
      <trkpt lat="45.19267" lon="6.383">
        <ele>2348</ele>
        <time>2022-12-17T10:45:25.000Z</time>
      </trkpt>
      <trkpt lat="45.19265" lon="6.38297">
        <ele>2348.8000488281</ele>
        <time>2022-12-17T10:45:30.000Z</time>
      </trkpt>
      <trkpt lat="45.19264" lon="6.38294">
        <ele>2349</ele>
        <time>2022-12-17T10:45:33.000Z</time>
      </trkpt>
      <trkpt lat="45.19262" lon="6.3829">
        <ele>2350.1999511719</ele>
        <time>2022-12-17T10:45:41.000Z</time>
      </trkpt>
      <trkpt lat="45.19261" lon="6.38288">
        <ele>2350.6000976562</ele>
        <time>2022-12-17T10:45:44.000Z</time>
      </trkpt>
      <trkpt lat="45.1926" lon="6.38286">
        <ele>2351</ele>
        <time>2022-12-17T10:45:47.000Z</time>
      </trkpt>
      <trkpt lat="45.1926" lon="6.38285">
        <ele>2351.3999023438</ele>
        <time>2022-12-17T10:45:48.000Z</time>
      </trkpt>
      <trkpt lat="45.19257" lon="6.38281">
        <ele>2352.6000976562</ele>
        <time>2022-12-17T10:45:56.000Z</time>
      </trkpt>
      <trkpt lat="45.19255" lon="6.38277">
        <ele>2353.1999511719</ele>
        <time>2022-12-17T10:46:03.000Z</time>
      </trkpt>
      <trkpt lat="45.19254" lon="6.38276">
        <ele>2353.6000976562</ele>
        <time>2022-12-17T10:46:06.000Z</time>
      </trkpt>
      <trkpt lat="45.19252" lon="6.38273">
        <ele>2354.8000488281</ele>
        <time>2022-12-17T10:46:15.000Z</time>
      </trkpt>
      <trkpt lat="45.19251" lon="6.38271">
        <ele>2355.8000488281</ele>
        <time>2022-12-17T10:46:22.000Z</time>
      </trkpt>
      <trkpt lat="45.19251" lon="6.3827">
        <ele>2356.8000488281</ele>
        <time>2022-12-17T10:46:30.000Z</time>
      </trkpt>
      <trkpt lat="45.19251" lon="6.3827">
        <ele>2358</ele>
        <time>2022-12-17T10:46:38.000Z</time>
      </trkpt>
      <trkpt lat="45.19251" lon="6.3827">
        <ele>2359</ele>
        <time>2022-12-17T10:46:44.000Z</time>
      </trkpt>
      <trkpt lat="45.1925" lon="6.38269">
        <ele>2360</ele>
        <time>2022-12-17T10:46:53.000Z</time>
      </trkpt>
      <trkpt lat="45.19249" lon="6.38265">
        <ele>2361.1999511719</ele>
        <time>2022-12-17T10:47:00.000Z</time>
      </trkpt>
      <trkpt lat="45.19242" lon="6.38237">
        <ele>2362</ele>
        <time>2022-12-17T10:47:06.000Z</time>
      </trkpt>
      <trkpt lat="45.1924" lon="6.38228">
        <ele>2362.1999511719</ele>
        <time>2022-12-17T10:47:08.000Z</time>
      </trkpt>
      <trkpt lat="45.19239" lon="6.38222">
        <ele>2362.8000488281</ele>
        <time>2022-12-17T10:47:11.000Z</time>
      </trkpt>
      <trkpt lat="45.19239" lon="6.38218">
        <ele>2363.1999511719</ele>
        <time>2022-12-17T10:47:16.000Z</time>
      </trkpt>
      <trkpt lat="45.19239" lon="6.38218">
        <ele>2363.3999023438</ele>
        <time>2022-12-17T10:47:17.000Z</time>
      </trkpt>
      <trkpt lat="45.1924" lon="6.38214">
        <ele>2364.1999511719</ele>
        <time>2022-12-17T10:47:23.000Z</time>
      </trkpt>
      <trkpt lat="45.19241" lon="6.38213">
        <ele>2364.3999023438</ele>
        <time>2022-12-17T10:47:24.000Z</time>
      </trkpt>
      <trkpt lat="45.19243" lon="6.38208">
        <ele>2365.3999023438</ele>
        <time>2022-12-17T10:47:33.000Z</time>
      </trkpt>
      <trkpt lat="45.19244" lon="6.38207">
        <ele>2365.6000976562</ele>
        <time>2022-12-17T10:47:35.000Z</time>
      </trkpt>
      <trkpt lat="45.19246" lon="6.38205">
        <ele>2366.1999511719</ele>
        <time>2022-12-17T10:47:40.000Z</time>
      </trkpt>
      <trkpt lat="45.19247" lon="6.38204">
        <ele>2366.6000976562</ele>
        <time>2022-12-17T10:47:42.000Z</time>
      </trkpt>
      <trkpt lat="45.19247" lon="6.38204">
        <ele>2366.8000488281</ele>
        <time>2022-12-17T10:47:43.000Z</time>
      </trkpt>
      <trkpt lat="45.1925" lon="6.38199">
        <ele>2367.8000488281</ele>
        <time>2022-12-17T10:47:51.000Z</time>
      </trkpt>
      <trkpt lat="45.19254" lon="6.38195">
        <ele>2369</ele>
        <time>2022-12-17T10:47:59.000Z</time>
      </trkpt>
      <trkpt lat="45.19255" lon="6.38195">
        <ele>2369</ele>
        <time>2022-12-17T10:48:00.000Z</time>
      </trkpt>
      <trkpt lat="45.19258" lon="6.3819">
        <ele>2370</ele>
        <time>2022-12-17T10:48:08.000Z</time>
      </trkpt>
      <trkpt lat="45.19259" lon="6.38189">
        <ele>2370.3999023438</ele>
        <time>2022-12-17T10:48:11.000Z</time>
      </trkpt>
      <trkpt lat="45.19262" lon="6.38185">
        <ele>2371</ele>
        <time>2022-12-17T10:48:19.000Z</time>
      </trkpt>
      <trkpt lat="45.19263" lon="6.38184">
        <ele>2371.3999023438</ele>
        <time>2022-12-17T10:48:22.000Z</time>
      </trkpt>
      <trkpt lat="45.19265" lon="6.38181">
        <ele>2372.1999511719</ele>
        <time>2022-12-17T10:48:27.000Z</time>
      </trkpt>
      <trkpt lat="45.19266" lon="6.3818">
        <ele>2373.3999023438</ele>
        <time>2022-12-17T10:48:32.000Z</time>
      </trkpt>
      <trkpt lat="45.19267" lon="6.38175">
        <ele>2374.3999023438</ele>
        <time>2022-12-17T10:48:42.000Z</time>
      </trkpt>
      <trkpt lat="45.19267" lon="6.38175">
        <ele>2374.6000976562</ele>
        <time>2022-12-17T10:48:43.000Z</time>
      </trkpt>
      <trkpt lat="45.19266" lon="6.3817">
        <ele>2375.3999023438</ele>
        <time>2022-12-17T10:48:50.000Z</time>
      </trkpt>
      <trkpt lat="45.19266" lon="6.38169">
        <ele>2375.6000976562</ele>
        <time>2022-12-17T10:48:51.000Z</time>
      </trkpt>
      <trkpt lat="45.19266" lon="6.38166">
        <ele>2376.6000976562</ele>
        <time>2022-12-17T10:48:57.000Z</time>
      </trkpt>
      <trkpt lat="45.19265" lon="6.38162">
        <ele>2377.6000976562</ele>
        <time>2022-12-17T10:49:03.000Z</time>
      </trkpt>
      <trkpt lat="45.19264" lon="6.38156">
        <ele>2378.8000488281</ele>
        <time>2022-12-17T10:49:13.000Z</time>
      </trkpt>
      <trkpt lat="45.19264" lon="6.38155">
        <ele>2379.1999511719</ele>
        <time>2022-12-17T10:49:16.000Z</time>
      </trkpt>
      <trkpt lat="45.19264" lon="6.38152">
        <ele>2379.8000488281</ele>
        <time>2022-12-17T10:49:20.000Z</time>
      </trkpt>
      <trkpt lat="45.19264" lon="6.38152">
        <ele>2380</ele>
        <time>2022-12-17T10:49:21.000Z</time>
      </trkpt>
      <trkpt lat="45.19264" lon="6.3815">
        <ele>2380.1999511719</ele>
        <time>2022-12-17T10:49:24.000Z</time>
      </trkpt>
      <trkpt lat="45.19263" lon="6.38147">
        <ele>2381</ele>
        <time>2022-12-17T10:49:28.000Z</time>
      </trkpt>
      <trkpt lat="45.19263" lon="6.38144">
        <ele>2381.3999023438</ele>
        <time>2022-12-17T10:49:32.000Z</time>
      </trkpt>
      <trkpt lat="45.19263" lon="6.38143">
        <ele>2381.6000976562</ele>
        <time>2022-12-17T10:49:34.000Z</time>
      </trkpt>
      <trkpt lat="45.19263" lon="6.38142">
        <ele>2382</ele>
        <time>2022-12-17T10:49:35.000Z</time>
      </trkpt>
      <trkpt lat="45.19263" lon="6.38142">
        <ele>2382.1999511719</ele>
        <time>2022-12-17T10:49:36.000Z</time>
      </trkpt>
      <trkpt lat="45.19263" lon="6.3814">
        <ele>2382.3999023438</ele>
        <time>2022-12-17T10:49:39.000Z</time>
      </trkpt>
      <trkpt lat="45.19263" lon="6.38139">
        <ele>2382.3999023438</ele>
        <time>2022-12-17T10:49:40.000Z</time>
      </trkpt>
      <trkpt lat="45.19263" lon="6.38136">
        <ele>2383.1999511719</ele>
        <time>2022-12-17T10:49:45.000Z</time>
      </trkpt>
      <trkpt lat="45.19263" lon="6.38134">
        <ele>2383.6000976562</ele>
        <time>2022-12-17T10:49:48.000Z</time>
      </trkpt>
      <trkpt lat="45.19263" lon="6.38132">
        <ele>2384.1999511719</ele>
        <time>2022-12-17T10:49:51.000Z</time>
      </trkpt>
      <trkpt lat="45.19263" lon="6.3813">
        <ele>2384.1999511719</ele>
        <time>2022-12-17T10:49:53.000Z</time>
      </trkpt>
      <trkpt lat="45.19263" lon="6.3813">
        <ele>2384.1999511719</ele>
        <time>2022-12-17T10:49:54.000Z</time>
      </trkpt>
      <trkpt lat="45.19265" lon="6.38127">
        <ele>2385</ele>
        <time>2022-12-17T10:50:00.000Z</time>
      </trkpt>
      <trkpt lat="45.19265" lon="6.38127">
        <ele>2385.1999511719</ele>
        <time>2022-12-17T10:50:01.000Z</time>
      </trkpt>
      <trkpt lat="45.19266" lon="6.38126">
        <ele>2385.3999023438</ele>
        <time>2022-12-17T10:50:02.000Z</time>
      </trkpt>
      <trkpt lat="45.19266" lon="6.38126">
        <ele>2385.6000976562</ele>
        <time>2022-12-17T10:50:03.000Z</time>
      </trkpt>
      <trkpt lat="45.19267" lon="6.38127">
        <ele>2386</ele>
        <time>2022-12-17T10:50:05.000Z</time>
      </trkpt>
      <trkpt lat="45.19269" lon="6.38127">
        <ele>2386.3999023438</ele>
        <time>2022-12-17T10:50:08.000Z</time>
      </trkpt>
      <trkpt lat="45.1927" lon="6.38127">
        <ele>2387.1999511719</ele>
        <time>2022-12-17T10:50:12.000Z</time>
      </trkpt>
      <trkpt lat="45.1927" lon="6.38127">
        <ele>2387.3999023438</ele>
        <time>2022-12-17T10:50:14.000Z</time>
      </trkpt>
      <trkpt lat="45.19271" lon="6.38127">
        <ele>2387.6000976562</ele>
        <time>2022-12-17T10:50:15.000Z</time>
      </trkpt>
      <trkpt lat="45.19272" lon="6.38127">
        <ele>2387.8000488281</ele>
        <time>2022-12-17T10:50:16.000Z</time>
      </trkpt>
      <trkpt lat="45.19276" lon="6.38127">
        <ele>2388.6000976562</ele>
        <time>2022-12-17T10:50:22.000Z</time>
      </trkpt>
      <trkpt lat="45.19276" lon="6.38127">
        <ele>2388.8000488281</ele>
        <time>2022-12-17T10:50:23.000Z</time>
      </trkpt>
      <trkpt lat="45.19276" lon="6.38127">
        <ele>2389</ele>
        <time>2022-12-17T10:50:24.000Z</time>
      </trkpt>
      <trkpt lat="45.19277" lon="6.38127">
        <ele>2389.1999511719</ele>
        <time>2022-12-17T10:50:25.000Z</time>
      </trkpt>
      <trkpt lat="45.19279" lon="6.38126">
        <ele>2389.6000976562</ele>
        <time>2022-12-17T10:50:29.000Z</time>
      </trkpt>
      <trkpt lat="45.19279" lon="6.38127">
        <ele>2390.1999511719</ele>
        <time>2022-12-17T10:50:31.000Z</time>
      </trkpt>
      <trkpt lat="45.1928" lon="6.38127">
        <ele>2390.8000488281</ele>
        <time>2022-12-17T10:50:34.000Z</time>
      </trkpt>
      <trkpt lat="45.19283" lon="6.38128">
        <ele>2391.8000488281</ele>
        <time>2022-12-17T10:50:40.000Z</time>
      </trkpt>
      <trkpt lat="45.19286" lon="6.38128">
        <ele>2392.8000488281</ele>
        <time>2022-12-17T10:50:46.000Z</time>
      </trkpt>
      <trkpt lat="45.19287" lon="6.38128">
        <ele>2393</ele>
        <time>2022-12-17T10:50:47.000Z</time>
      </trkpt>
      <trkpt lat="45.19288" lon="6.38128">
        <ele>2393.6000976562</ele>
        <time>2022-12-17T10:50:51.000Z</time>
      </trkpt>
      <trkpt lat="45.19289" lon="6.38128">
        <ele>2393.8000488281</ele>
        <time>2022-12-17T10:50:52.000Z</time>
      </trkpt>
      <trkpt lat="45.19289" lon="6.38128">
        <ele>2393.8000488281</ele>
        <time>2022-12-17T10:50:53.000Z</time>
      </trkpt>
      <trkpt lat="45.1929" lon="6.38128">
        <ele>2394.3999023438</ele>
        <time>2022-12-17T10:50:55.000Z</time>
      </trkpt>
      <trkpt lat="45.19292" lon="6.38128">
        <ele>2395.1999511719</ele>
        <time>2022-12-17T10:51:00.000Z</time>
      </trkpt>
      <trkpt lat="45.19293" lon="6.38128">
        <ele>2395.3999023438</ele>
        <time>2022-12-17T10:51:01.000Z</time>
      </trkpt>
      <trkpt lat="45.19296" lon="6.38128">
        <ele>2396.1999511719</ele>
        <time>2022-12-17T10:51:09.000Z</time>
      </trkpt>
      <trkpt lat="45.19297" lon="6.38129">
        <ele>2396.3999023438</ele>
        <time>2022-12-17T10:51:11.000Z</time>
      </trkpt>
      <trkpt lat="45.19299" lon="6.38129">
        <ele>2397.3999023438</ele>
        <time>2022-12-17T10:51:16.000Z</time>
      </trkpt>
      <trkpt lat="45.19301" lon="6.38129">
        <ele>2398</ele>
        <time>2022-12-17T10:51:20.000Z</time>
      </trkpt>
      <trkpt lat="45.19302" lon="6.38129">
        <ele>2398.3999023438</ele>
        <time>2022-12-17T10:51:24.000Z</time>
      </trkpt>
      <trkpt lat="45.19302" lon="6.38129">
        <ele>2398.6000976562</ele>
        <time>2022-12-17T10:51:25.000Z</time>
      </trkpt>
      <trkpt lat="45.19303" lon="6.38129">
        <ele>2399.3999023438</ele>
        <time>2022-12-17T10:51:28.000Z</time>
      </trkpt>
      <trkpt lat="45.19303" lon="6.38129">
        <ele>2399.6000976562</ele>
        <time>2022-12-17T10:51:29.000Z</time>
      </trkpt>
      <trkpt lat="45.19304" lon="6.38129">
        <ele>2399.6000976562</ele>
        <time>2022-12-17T10:51:30.000Z</time>
      </trkpt>
      <trkpt lat="45.19304" lon="6.38129">
        <ele>2399.8000488281</ele>
        <time>2022-12-17T10:51:31.000Z</time>
      </trkpt>
      <trkpt lat="45.19306" lon="6.38129">
        <ele>2400</ele>
        <time>2022-12-17T10:51:33.000Z</time>
      </trkpt>
      <trkpt lat="45.19309" lon="6.3813">
        <ele>2400.8000488281</ele>
        <time>2022-12-17T10:51:38.000Z</time>
      </trkpt>
      <trkpt lat="45.19311" lon="6.3813">
        <ele>2401.3999023438</ele>
        <time>2022-12-17T10:51:42.000Z</time>
      </trkpt>
      <trkpt lat="45.19312" lon="6.3813">
        <ele>2401.6000976562</ele>
        <time>2022-12-17T10:51:44.000Z</time>
      </trkpt>
      <trkpt lat="45.19312" lon="6.3813">
        <ele>2401.8000488281</ele>
        <time>2022-12-17T10:51:45.000Z</time>
      </trkpt>
      <trkpt lat="45.19316" lon="6.3813">
        <ele>2403</ele>
        <time>2022-12-17T10:51:52.000Z</time>
      </trkpt>
      <trkpt lat="45.19316" lon="6.3813">
        <ele>2403</ele>
        <time>2022-12-17T10:51:53.000Z</time>
      </trkpt>
      <trkpt lat="45.19319" lon="6.38129">
        <ele>2404</ele>
        <time>2022-12-17T10:51:59.000Z</time>
      </trkpt>
      <trkpt lat="45.1932" lon="6.38129">
        <ele>2404.6000976562</ele>
        <time>2022-12-17T10:52:03.000Z</time>
      </trkpt>
      <trkpt lat="45.19321" lon="6.38129">
        <ele>2405</ele>
        <time>2022-12-17T10:52:07.000Z</time>
      </trkpt>
      <trkpt lat="45.19323" lon="6.38128">
        <ele>2406</ele>
        <time>2022-12-17T10:52:12.000Z</time>
      </trkpt>
      <trkpt lat="45.19324" lon="6.38128">
        <ele>2406.1999511719</ele>
        <time>2022-12-17T10:52:13.000Z</time>
      </trkpt>
      <trkpt lat="45.19324" lon="6.38128">
        <ele>2406.1999511719</ele>
        <time>2022-12-17T10:52:14.000Z</time>
      </trkpt>
      <trkpt lat="45.19326" lon="6.38127">
        <ele>2407.1999511719</ele>
        <time>2022-12-17T10:52:21.000Z</time>
      </trkpt>
      <trkpt lat="45.19327" lon="6.38126">
        <ele>2407.3999023438</ele>
        <time>2022-12-17T10:52:23.000Z</time>
      </trkpt>
      <trkpt lat="45.19328" lon="6.38124">
        <ele>2408.3999023438</ele>
        <time>2022-12-17T10:52:27.000Z</time>
      </trkpt>
      <trkpt lat="45.19328" lon="6.38119">
        <ele>2409.1999511719</ele>
        <time>2022-12-17T10:52:35.000Z</time>
      </trkpt>
      <trkpt lat="45.19328" lon="6.38118">
        <ele>2409.3999023438</ele>
        <time>2022-12-17T10:52:37.000Z</time>
      </trkpt>
      <trkpt lat="45.19327" lon="6.38113">
        <ele>2410.3999023438</ele>
        <time>2022-12-17T10:52:44.000Z</time>
      </trkpt>
      <trkpt lat="45.19326" lon="6.38111">
        <ele>2410.8000488281</ele>
        <time>2022-12-17T10:52:48.000Z</time>
      </trkpt>
      <trkpt lat="45.19326" lon="6.3811">
        <ele>2410.8000488281</ele>
        <time>2022-12-17T10:52:49.000Z</time>
      </trkpt>
      <trkpt lat="45.19326" lon="6.38108">
        <ele>2411.6000976562</ele>
        <time>2022-12-17T10:52:53.000Z</time>
      </trkpt>
      <trkpt lat="45.19326" lon="6.38102">
        <ele>2412.3999023438</ele>
        <time>2022-12-17T10:53:01.000Z</time>
      </trkpt>
      <trkpt lat="45.19326" lon="6.38102">
        <ele>2412.6000976562</ele>
        <time>2022-12-17T10:53:02.000Z</time>
      </trkpt>
      <trkpt lat="45.19326" lon="6.381">
        <ele>2413.1999511719</ele>
        <time>2022-12-17T10:53:06.000Z</time>
      </trkpt>
      <trkpt lat="45.19326" lon="6.38098">
        <ele>2413.8000488281</ele>
        <time>2022-12-17T10:53:09.000Z</time>
      </trkpt>
      <trkpt lat="45.19326" lon="6.38095">
        <ele>2414.1999511719</ele>
        <time>2022-12-17T10:53:13.000Z</time>
      </trkpt>
      <trkpt lat="45.19326" lon="6.38092">
        <ele>2414.6000976562</ele>
        <time>2022-12-17T10:53:18.000Z</time>
      </trkpt>
      <trkpt lat="45.19326" lon="6.38091">
        <ele>2414.8000488281</ele>
        <time>2022-12-17T10:53:20.000Z</time>
      </trkpt>
      <trkpt lat="45.19326" lon="6.3809">
        <ele>2415.1999511719</ele>
        <time>2022-12-17T10:53:22.000Z</time>
      </trkpt>
      <trkpt lat="45.19325" lon="6.38086">
        <ele>2416</ele>
        <time>2022-12-17T10:53:27.000Z</time>
      </trkpt>
      <trkpt lat="45.19325" lon="6.38084">
        <ele>2416.3999023438</ele>
        <time>2022-12-17T10:53:31.000Z</time>
      </trkpt>
      <trkpt lat="45.19325" lon="6.38081">
        <ele>2417</ele>
        <time>2022-12-17T10:53:36.000Z</time>
      </trkpt>
      <trkpt lat="45.19324" lon="6.38078">
        <ele>2417.8000488281</ele>
        <time>2022-12-17T10:53:40.000Z</time>
      </trkpt>
      <trkpt lat="45.19324" lon="6.38076">
        <ele>2418.1999511719</ele>
        <time>2022-12-17T10:53:43.000Z</time>
      </trkpt>
      <trkpt lat="45.19324" lon="6.38076">
        <ele>2418.3999023438</ele>
        <time>2022-12-17T10:53:44.000Z</time>
      </trkpt>
      <trkpt lat="45.19323" lon="6.38073">
        <ele>2419</ele>
        <time>2022-12-17T10:53:49.000Z</time>
      </trkpt>
      <trkpt lat="45.19323" lon="6.38072">
        <ele>2419.1999511719</ele>
        <time>2022-12-17T10:53:50.000Z</time>
      </trkpt>
      <trkpt lat="45.19323" lon="6.38067">
        <ele>2420.3999023438</ele>
        <time>2022-12-17T10:53:58.000Z</time>
      </trkpt>
      <trkpt lat="45.19322" lon="6.38067">
        <ele>2420.3999023438</ele>
        <time>2022-12-17T10:53:59.000Z</time>
      </trkpt>
      <trkpt lat="45.19323" lon="6.38063">
        <ele>2421.3999023438</ele>
        <time>2022-12-17T10:54:06.000Z</time>
      </trkpt>
      <trkpt lat="45.19322" lon="6.38061">
        <ele>2421.8000488281</ele>
        <time>2022-12-17T10:54:09.000Z</time>
      </trkpt>
      <trkpt lat="45.19321" lon="6.38059">
        <ele>2422.3999023438</ele>
        <time>2022-12-17T10:54:14.000Z</time>
      </trkpt>
      <trkpt lat="45.19321" lon="6.38057">
        <ele>2423</ele>
        <time>2022-12-17T10:54:17.000Z</time>
      </trkpt>
      <trkpt lat="45.1932" lon="6.38055">
        <ele>2423.3999023438</ele>
        <time>2022-12-17T10:54:21.000Z</time>
      </trkpt>
      <trkpt lat="45.1932" lon="6.38054">
        <ele>2423.6000976562</ele>
        <time>2022-12-17T10:54:22.000Z</time>
      </trkpt>
      <trkpt lat="45.1932" lon="6.38052">
        <ele>2424.3999023438</ele>
        <time>2022-12-17T10:54:28.000Z</time>
      </trkpt>
      <trkpt lat="45.1932" lon="6.38052">
        <ele>2424.6000976562</ele>
        <time>2022-12-17T10:54:29.000Z</time>
      </trkpt>
      <trkpt lat="45.19323" lon="6.38051">
        <ele>2425.3999023438</ele>
        <time>2022-12-17T10:54:35.000Z</time>
      </trkpt>
      <trkpt lat="45.19324" lon="6.38051">
        <ele>2425.3999023438</ele>
        <time>2022-12-17T10:54:36.000Z</time>
      </trkpt>
      <trkpt lat="45.19325" lon="6.38051">
        <ele>2425.6000976562</ele>
        <time>2022-12-17T10:54:38.000Z</time>
      </trkpt>
      <trkpt lat="45.19328" lon="6.3805">
        <ele>2426.8000488281</ele>
        <time>2022-12-17T10:54:46.000Z</time>
      </trkpt>
      <trkpt lat="45.19328" lon="6.38049">
        <ele>2427</ele>
        <time>2022-12-17T10:54:47.000Z</time>
      </trkpt>
      <trkpt lat="45.19331" lon="6.38048">
        <ele>2427.8000488281</ele>
        <time>2022-12-17T10:54:53.000Z</time>
      </trkpt>
      <trkpt lat="45.19332" lon="6.38047">
        <ele>2428.6000976562</ele>
        <time>2022-12-17T10:54:57.000Z</time>
      </trkpt>
      <trkpt lat="45.19333" lon="6.38047">
        <ele>2429</ele>
        <time>2022-12-17T10:55:00.000Z</time>
      </trkpt>
      <trkpt lat="45.19336" lon="6.38045">
        <ele>2430</ele>
        <time>2022-12-17T10:55:07.000Z</time>
      </trkpt>
      <trkpt lat="45.1934" lon="6.38044">
        <ele>2431.1999511719</ele>
        <time>2022-12-17T10:55:15.000Z</time>
      </trkpt>
      <trkpt lat="45.19341" lon="6.38044">
        <ele>2431.8000488281</ele>
        <time>2022-12-17T10:55:18.000Z</time>
      </trkpt>
      <trkpt lat="45.19342" lon="6.38045">
        <ele>2432.1999511719</ele>
        <time>2022-12-17T10:55:21.000Z</time>
      </trkpt>
      <trkpt lat="45.19345" lon="6.38045">
        <ele>2433.1999511719</ele>
        <time>2022-12-17T10:55:26.000Z</time>
      </trkpt>
      <trkpt lat="45.19346" lon="6.38044">
        <ele>2433.8000488281</ele>
        <time>2022-12-17T10:55:30.000Z</time>
      </trkpt>
      <trkpt lat="45.19348" lon="6.38044">
        <ele>2434.3999023438</ele>
        <time>2022-12-17T10:55:34.000Z</time>
      </trkpt>
      <trkpt lat="45.19351" lon="6.38044">
        <ele>2435.8000488281</ele>
        <time>2022-12-17T10:55:42.000Z</time>
      </trkpt>
      <trkpt lat="45.19354" lon="6.38044">
        <ele>2436.6000976562</ele>
        <time>2022-12-17T10:55:49.000Z</time>
      </trkpt>
      <trkpt lat="45.19354" lon="6.38044">
        <ele>2436.8000488281</ele>
        <time>2022-12-17T10:55:50.000Z</time>
      </trkpt>
      <trkpt lat="45.19355" lon="6.38045">
        <ele>2437.3999023438</ele>
        <time>2022-12-17T10:55:52.000Z</time>
      </trkpt>
      <trkpt lat="45.19358" lon="6.38045">
        <ele>2437.8000488281</ele>
        <time>2022-12-17T10:55:57.000Z</time>
      </trkpt>
      <trkpt lat="45.1936" lon="6.38045">
        <ele>2438.8000488281</ele>
        <time>2022-12-17T10:56:02.000Z</time>
      </trkpt>
      <trkpt lat="45.19361" lon="6.38045">
        <ele>2438.8000488281</ele>
        <time>2022-12-17T10:56:03.000Z</time>
      </trkpt>
      <trkpt lat="45.19364" lon="6.38046">
        <ele>2440</ele>
        <time>2022-12-17T10:56:12.000Z</time>
      </trkpt>
      <trkpt lat="45.19364" lon="6.38046">
        <ele>2440.1999511719</ele>
        <time>2022-12-17T10:56:14.000Z</time>
      </trkpt>
      <trkpt lat="45.1936" lon="6.38041">
        <ele>2441</ele>
        <time>2022-12-17T10:56:57.000Z</time>
      </trkpt>
      <trkpt lat="45.1936" lon="6.38039">
        <ele>2442.1999511719</ele>
        <time>2022-12-17T10:57:07.000Z</time>
      </trkpt>
      <trkpt lat="45.1936" lon="6.38038">
        <ele>2442.3999023438</ele>
        <time>2022-12-17T10:57:10.000Z</time>
      </trkpt>
      <trkpt lat="45.1936" lon="6.38035">
        <ele>2443.1999511719</ele>
        <time>2022-12-17T10:57:15.000Z</time>
      </trkpt>
      <trkpt lat="45.1936" lon="6.38032">
        <ele>2443.8000488281</ele>
        <time>2022-12-17T10:57:19.000Z</time>
      </trkpt>
      <trkpt lat="45.1936" lon="6.38031">
        <ele>2444.1999511719</ele>
        <time>2022-12-17T10:57:22.000Z</time>
      </trkpt>
      <trkpt lat="45.19359" lon="6.38027">
        <ele>2445.1999511719</ele>
        <time>2022-12-17T10:57:30.000Z</time>
      </trkpt>
      <trkpt lat="45.19359" lon="6.38021">
        <ele>2446.3999023438</ele>
        <time>2022-12-17T10:57:39.000Z</time>
      </trkpt>
      <trkpt lat="45.19358" lon="6.3802">
        <ele>2446.8000488281</ele>
        <time>2022-12-17T10:57:42.000Z</time>
      </trkpt>
      <trkpt lat="45.19358" lon="6.38016">
        <ele>2447.6000976562</ele>
        <time>2022-12-17T10:57:49.000Z</time>
      </trkpt>
      <trkpt lat="45.19358" lon="6.38011">
        <ele>2448.6000976562</ele>
        <time>2022-12-17T10:57:57.000Z</time>
      </trkpt>
      <trkpt lat="45.19358" lon="6.3801">
        <ele>2448.6000976562</ele>
        <time>2022-12-17T10:57:58.000Z</time>
      </trkpt>
      <trkpt lat="45.19358" lon="6.38006">
        <ele>2449.1999511719</ele>
        <time>2022-12-17T10:58:03.000Z</time>
      </trkpt>
      <trkpt lat="45.19358" lon="6.38004">
        <ele>2449.8000488281</ele>
        <time>2022-12-17T10:58:06.000Z</time>
      </trkpt>
      <trkpt lat="45.19358" lon="6.37998">
        <ele>2450.8000488281</ele>
        <time>2022-12-17T10:58:15.000Z</time>
      </trkpt>
      <trkpt lat="45.19361" lon="6.37995">
        <ele>2451.8000488281</ele>
        <time>2022-12-17T10:58:21.000Z</time>
      </trkpt>
      <trkpt lat="45.19361" lon="6.37994">
        <ele>2451.8000488281</ele>
        <time>2022-12-17T10:58:22.000Z</time>
      </trkpt>
      <trkpt lat="45.19364" lon="6.37991">
        <ele>2452.3999023438</ele>
        <time>2022-12-17T10:58:30.000Z</time>
      </trkpt>
      <trkpt lat="45.19368" lon="6.37987">
        <ele>2451.8000488281</ele>
        <time>2022-12-17T10:58:56.000Z</time>
      </trkpt>
      <trkpt lat="45.19368" lon="6.37987">
        <ele>2451.8000488281</ele>
        <time>2022-12-17T10:59:02.000Z</time>
      </trkpt>
      <trkpt lat="45.19368" lon="6.37987">
        <ele>2452.8000488281</ele>
        <time>2022-12-17T10:59:20.000Z</time>
      </trkpt>
      <trkpt lat="45.19368" lon="6.37987">
        <ele>2454</ele>
        <time>2022-12-17T10:59:28.000Z</time>
      </trkpt>
      <trkpt lat="45.19367" lon="6.37986">
        <ele>2454.3999023438</ele>
        <time>2022-12-17T10:59:36.000Z</time>
      </trkpt>
      <trkpt lat="45.19367" lon="6.37986">
        <ele>2455</ele>
        <time>2022-12-17T10:59:43.000Z</time>
      </trkpt>
      <trkpt lat="45.19367" lon="6.37986">
        <ele>2456</ele>
        <time>2022-12-17T10:59:47.000Z</time>
      </trkpt>
      <trkpt lat="45.19367" lon="6.37986">
        <ele>2457.1999511719</ele>
        <time>2022-12-17T10:59:53.000Z</time>
      </trkpt>
      <trkpt lat="45.19367" lon="6.37986">
        <ele>2458.3999023438</ele>
        <time>2022-12-17T11:00:02.000Z</time>
      </trkpt>
      <trkpt lat="45.19367" lon="6.37986">
        <ele>2459.3999023438</ele>
        <time>2022-12-17T11:00:07.000Z</time>
      </trkpt>
      <trkpt lat="45.19366" lon="6.37986">
        <ele>2460.1999511719</ele>
        <time>2022-12-17T11:00:13.000Z</time>
      </trkpt>
      <trkpt lat="45.19366" lon="6.37986">
        <ele>2460.3999023438</ele>
        <time>2022-12-17T11:00:14.000Z</time>
      </trkpt>
      <trkpt lat="45.19366" lon="6.37985">
        <ele>2461.3999023438</ele>
        <time>2022-12-17T11:00:22.000Z</time>
      </trkpt>
      <trkpt lat="45.19352" lon="6.37963">
        <ele>2462.3999023438</ele>
        <time>2022-12-17T11:00:29.000Z</time>
      </trkpt>
      <trkpt lat="45.1935" lon="6.37959">
        <ele>2462.6000976562</ele>
        <time>2022-12-17T11:00:30.000Z</time>
      </trkpt>
      <trkpt lat="45.19348" lon="6.37952">
        <ele>2463.6000976562</ele>
        <time>2022-12-17T11:00:36.000Z</time>
      </trkpt>
      <trkpt lat="45.19349" lon="6.37951">
        <ele>2464</ele>
        <time>2022-12-17T11:00:38.000Z</time>
      </trkpt>
      <trkpt lat="45.19352" lon="6.37951">
        <ele>2464.3999023438</ele>
        <time>2022-12-17T11:00:43.000Z</time>
      </trkpt>
      <trkpt lat="45.19352" lon="6.37951">
        <ele>2464.6000976562</ele>
        <time>2022-12-17T11:00:44.000Z</time>
      </trkpt>
      <trkpt lat="45.19355" lon="6.37951">
        <ele>2465.8000488281</ele>
        <time>2022-12-17T11:00:49.000Z</time>
      </trkpt>
      <trkpt lat="45.19356" lon="6.3795">
        <ele>2466.6000976562</ele>
        <time>2022-12-17T11:00:55.000Z</time>
      </trkpt>
      <trkpt lat="45.19357" lon="6.3795">
        <ele>2466.8000488281</ele>
        <time>2022-12-17T11:00:56.000Z</time>
      </trkpt>
      <trkpt lat="45.19358" lon="6.3795">
        <ele>2468</ele>
        <time>2022-12-17T11:01:01.000Z</time>
      </trkpt>
      <trkpt lat="45.19359" lon="6.37949">
        <ele>2468</ele>
        <time>2022-12-17T11:01:02.000Z</time>
      </trkpt>
      <trkpt lat="45.19361" lon="6.37948">
        <ele>2469</ele>
        <time>2022-12-17T11:01:08.000Z</time>
      </trkpt>
      <trkpt lat="45.19362" lon="6.37946">
        <ele>2470</ele>
        <time>2022-12-17T11:01:14.000Z</time>
      </trkpt>
      <trkpt lat="45.19362" lon="6.37946">
        <ele>2470.1999511719</ele>
        <time>2022-12-17T11:01:15.000Z</time>
      </trkpt>
      <trkpt lat="45.19363" lon="6.37945">
        <ele>2470.3999023438</ele>
        <time>2022-12-17T11:01:17.000Z</time>
      </trkpt>
      <trkpt lat="45.19365" lon="6.37942">
        <ele>2471.1999511719</ele>
        <time>2022-12-17T11:01:23.000Z</time>
      </trkpt>
      <trkpt lat="45.19365" lon="6.37942">
        <ele>2471.1999511719</ele>
        <time>2022-12-17T11:01:24.000Z</time>
      </trkpt>
      <trkpt lat="45.19365" lon="6.37939">
        <ele>2472.1999511719</ele>
        <time>2022-12-17T11:01:30.000Z</time>
      </trkpt>
      <trkpt lat="45.19362" lon="6.37935">
        <ele>2473.3999023438</ele>
        <time>2022-12-17T11:01:39.000Z</time>
      </trkpt>
      <trkpt lat="45.19361" lon="6.37933">
        <ele>2473.8000488281</ele>
        <time>2022-12-17T11:01:42.000Z</time>
      </trkpt>
      <trkpt lat="45.19359" lon="6.37932">
        <ele>2474.3999023438</ele>
        <time>2022-12-17T11:01:46.000Z</time>
      </trkpt>
      <trkpt lat="45.19358" lon="6.3793">
        <ele>2474.8000488281</ele>
        <time>2022-12-17T11:01:50.000Z</time>
      </trkpt>
      <trkpt lat="45.19358" lon="6.37929">
        <ele>2475</ele>
        <time>2022-12-17T11:01:51.000Z</time>
      </trkpt>
      <trkpt lat="45.19357" lon="6.37927">
        <ele>2475.6000976562</ele>
        <time>2022-12-17T11:01:54.000Z</time>
      </trkpt>
      <trkpt lat="45.19356" lon="6.37923">
        <ele>2476</ele>
        <time>2022-12-17T11:02:03.000Z</time>
      </trkpt>
      <trkpt lat="45.19357" lon="6.37923">
        <ele>2476.1999511719</ele>
        <time>2022-12-17T11:02:04.000Z</time>
      </trkpt>
      <trkpt lat="45.19358" lon="6.37922">
        <ele>2476.6000976562</ele>
        <time>2022-12-17T11:02:07.000Z</time>
      </trkpt>
      <trkpt lat="45.19359" lon="6.37921">
        <ele>2477</ele>
        <time>2022-12-17T11:02:10.000Z</time>
      </trkpt>
      <trkpt lat="45.19361" lon="6.37922">
        <ele>2477.6000976562</ele>
        <time>2022-12-17T11:02:14.000Z</time>
      </trkpt>
      <trkpt lat="45.19364" lon="6.37919">
        <ele>2478.8000488281</ele>
        <time>2022-12-17T11:02:22.000Z</time>
      </trkpt>
      <trkpt lat="45.19366" lon="6.37917">
        <ele>2480</ele>
        <time>2022-12-17T11:02:29.000Z</time>
      </trkpt>
      <trkpt lat="45.19368" lon="6.37915">
        <ele>2480.3999023438</ele>
        <time>2022-12-17T11:02:33.000Z</time>
      </trkpt>
      <trkpt lat="45.19369" lon="6.37915">
        <ele>2480.3999023438</ele>
        <time>2022-12-17T11:02:34.000Z</time>
      </trkpt>
      <trkpt lat="45.1937" lon="6.37914">
        <ele>2481</ele>
        <time>2022-12-17T11:02:37.000Z</time>
      </trkpt>
      <trkpt lat="45.19372" lon="6.37912">
        <ele>2482</ele>
        <time>2022-12-17T11:02:43.000Z</time>
      </trkpt>
      <trkpt lat="45.19371" lon="6.37912">
        <ele>2482.3999023438</ele>
        <time>2022-12-17T11:02:48.000Z</time>
      </trkpt>
      <trkpt lat="45.19371" lon="6.37912">
        <ele>2483.1999511719</ele>
        <time>2022-12-17T11:02:56.000Z</time>
      </trkpt>
      <trkpt lat="45.19371" lon="6.37912">
        <ele>2483.1999511719</ele>
        <time>2022-12-17T11:02:57.000Z</time>
      </trkpt>
      <trkpt lat="45.19371" lon="6.37912">
        <ele>2484.3999023438</ele>
        <time>2022-12-17T11:03:06.000Z</time>
      </trkpt>
      <trkpt lat="45.19368" lon="6.37911">
        <ele>2485.3999023438</ele>
        <time>2022-12-17T11:03:12.000Z</time>
      </trkpt>
      <trkpt lat="45.19368" lon="6.3791">
        <ele>2485.3999023438</ele>
        <time>2022-12-17T11:03:13.000Z</time>
      </trkpt>
      <trkpt lat="45.19366" lon="6.37907">
        <ele>2486.1999511719</ele>
        <time>2022-12-17T11:03:19.000Z</time>
      </trkpt>
      <trkpt lat="45.19365" lon="6.37906">
        <ele>2486.6000976562</ele>
        <time>2022-12-17T11:03:22.000Z</time>
      </trkpt>
      <trkpt lat="45.19364" lon="6.37904">
        <ele>2486.8000488281</ele>
        <time>2022-12-17T11:03:25.000Z</time>
      </trkpt>
      <trkpt lat="45.19364" lon="6.37904">
        <ele>2487</ele>
        <time>2022-12-17T11:03:26.000Z</time>
      </trkpt>
      <trkpt lat="45.19362" lon="6.37903">
        <ele>2487.3999023438</ele>
        <time>2022-12-17T11:03:29.000Z</time>
      </trkpt>
      <trkpt lat="45.19362" lon="6.37903">
        <ele>2487.6000976562</ele>
        <time>2022-12-17T11:03:31.000Z</time>
      </trkpt>
      <trkpt lat="45.1936" lon="6.37899">
        <ele>2488.6000976562</ele>
        <time>2022-12-17T11:03:38.000Z</time>
      </trkpt>
      <trkpt lat="45.19358" lon="6.37891">
        <ele>2489.3999023438</ele>
        <time>2022-12-17T11:03:53.000Z</time>
      </trkpt>
      <trkpt lat="45.19358" lon="6.3789">
        <ele>2489.3999023438</ele>
        <time>2022-12-17T11:03:54.000Z</time>
      </trkpt>
      <trkpt lat="45.19358" lon="6.37889">
        <ele>2489.8000488281</ele>
        <time>2022-12-17T11:03:58.000Z</time>
      </trkpt>
      <trkpt lat="45.19358" lon="6.37887">
        <ele>2490.8000488281</ele>
        <time>2022-12-17T11:04:04.000Z</time>
      </trkpt>
      <trkpt lat="45.19359" lon="6.37887">
        <ele>2491.8000488281</ele>
        <time>2022-12-17T11:04:12.000Z</time>
      </trkpt>
      <trkpt lat="45.19361" lon="6.37887">
        <ele>2492.8000488281</ele>
        <time>2022-12-17T11:04:18.000Z</time>
      </trkpt>
      <trkpt lat="45.19363" lon="6.37886">
        <ele>2493.3999023438</ele>
        <time>2022-12-17T11:04:21.000Z</time>
      </trkpt>
      <trkpt lat="45.19363" lon="6.37886">
        <ele>2493.3999023438</ele>
        <time>2022-12-17T11:04:22.000Z</time>
      </trkpt>
      <trkpt lat="45.19363" lon="6.37886">
        <ele>2493.6000976562</ele>
        <time>2022-12-17T11:04:23.000Z</time>
      </trkpt>
      <trkpt lat="45.19364" lon="6.37886">
        <ele>2493.8000488281</ele>
        <time>2022-12-17T11:04:24.000Z</time>
      </trkpt>
      <trkpt lat="45.19365" lon="6.37885">
        <ele>2494</ele>
        <time>2022-12-17T11:04:26.000Z</time>
      </trkpt>
      <trkpt lat="45.19367" lon="6.37884">
        <ele>2495</ele>
        <time>2022-12-17T11:04:32.000Z</time>
      </trkpt>
      <trkpt lat="45.1937" lon="6.37882">
        <ele>2495.8000488281</ele>
        <time>2022-12-17T11:04:39.000Z</time>
      </trkpt>
      <trkpt lat="45.19371" lon="6.37881">
        <ele>2496.1999511719</ele>
        <time>2022-12-17T11:04:41.000Z</time>
      </trkpt>
      <trkpt lat="45.19372" lon="6.3788">
        <ele>2496.6000976562</ele>
        <time>2022-12-17T11:04:43.000Z</time>
      </trkpt>
      <trkpt lat="45.19374" lon="6.37879">
        <ele>2497.3999023438</ele>
        <time>2022-12-17T11:04:47.000Z</time>
      </trkpt>
      <trkpt lat="45.19376" lon="6.37874">
        <ele>2498.3999023438</ele>
        <time>2022-12-17T11:04:55.000Z</time>
      </trkpt>
      <trkpt lat="45.19378" lon="6.37871">
        <ele>2499.3999023438</ele>
        <time>2022-12-17T11:05:03.000Z</time>
      </trkpt>
      <trkpt lat="45.19379" lon="6.3787">
        <ele>2499.6000976562</ele>
        <time>2022-12-17T11:05:05.000Z</time>
      </trkpt>
      <trkpt lat="45.19379" lon="6.37869">
        <ele>2499.8000488281</ele>
        <time>2022-12-17T11:05:07.000Z</time>
      </trkpt>
      <trkpt lat="45.1938" lon="6.37868">
        <ele>2500.3999023438</ele>
        <time>2022-12-17T11:05:11.000Z</time>
      </trkpt>
      <trkpt lat="45.1938" lon="6.37867">
        <ele>2500.6000976562</ele>
        <time>2022-12-17T11:05:12.000Z</time>
      </trkpt>
      <trkpt lat="45.1938" lon="6.37867">
        <ele>2500.8000488281</ele>
        <time>2022-12-17T11:05:13.000Z</time>
      </trkpt>
      <trkpt lat="45.19382" lon="6.37864">
        <ele>2501.6000976562</ele>
        <time>2022-12-17T11:05:19.000Z</time>
      </trkpt>
      <trkpt lat="45.19382" lon="6.37863">
        <ele>2502</ele>
        <time>2022-12-17T11:05:22.000Z</time>
      </trkpt>
      <trkpt lat="45.19383" lon="6.3786">
        <ele>2502.6000976562</ele>
        <time>2022-12-17T11:05:27.000Z</time>
      </trkpt>
      <trkpt lat="45.19385" lon="6.37855">
        <ele>2503.6000976562</ele>
        <time>2022-12-17T11:05:35.000Z</time>
      </trkpt>
      <trkpt lat="45.19386" lon="6.37851">
        <ele>2504.6000976562</ele>
        <time>2022-12-17T11:05:44.000Z</time>
      </trkpt>
      <trkpt lat="45.19387" lon="6.37847">
        <ele>2505.8000488281</ele>
        <time>2022-12-17T11:05:52.000Z</time>
      </trkpt>
      <trkpt lat="45.19388" lon="6.37846">
        <ele>2506.3999023438</ele>
        <time>2022-12-17T11:05:56.000Z</time>
      </trkpt>
      <trkpt lat="45.19388" lon="6.37845">
        <ele>2506.6000976562</ele>
        <time>2022-12-17T11:05:58.000Z</time>
      </trkpt>
      <trkpt lat="45.19388" lon="6.37843">
        <ele>2506.8000488281</ele>
        <time>2022-12-17T11:06:04.000Z</time>
      </trkpt>
      <trkpt lat="45.19389" lon="6.37842">
        <ele>2506.3999023438</ele>
        <time>2022-12-17T11:06:13.000Z</time>
      </trkpt>
      <trkpt lat="45.19389" lon="6.37842">
        <ele>2506.3999023438</ele>
        <time>2022-12-17T11:06:14.000Z</time>
      </trkpt>
      <trkpt lat="45.19389" lon="6.37842">
        <ele>2506.6000976562</ele>
        <time>2022-12-17T11:06:23.000Z</time>
      </trkpt>
      <trkpt lat="45.19389" lon="6.37842">
        <ele>2507.8000488281</ele>
        <time>2022-12-17T11:06:34.000Z</time>
      </trkpt>
      <trkpt lat="45.19389" lon="6.37842">
        <ele>2508.6000976562</ele>
        <time>2022-12-17T11:06:38.000Z</time>
      </trkpt>
      <trkpt lat="45.19389" lon="6.37842">
        <ele>2508.8000488281</ele>
        <time>2022-12-17T11:06:40.000Z</time>
      </trkpt>
      <trkpt lat="45.19389" lon="6.37842">
        <ele>2509.8000488281</ele>
        <time>2022-12-17T11:06:45.000Z</time>
      </trkpt>
      <trkpt lat="45.19389" lon="6.37842">
        <ele>2510.3999023438</ele>
        <time>2022-12-17T11:06:49.000Z</time>
      </trkpt>
      <trkpt lat="45.19389" lon="6.37841">
        <ele>2510.8000488281</ele>
        <time>2022-12-17T11:06:53.000Z</time>
      </trkpt>
      <trkpt lat="45.19389" lon="6.37841">
        <ele>2511</ele>
        <time>2022-12-17T11:06:56.000Z</time>
      </trkpt>
      <trkpt lat="45.19389" lon="6.37841">
        <ele>2512.1999511719</ele>
        <time>2022-12-17T11:07:02.000Z</time>
      </trkpt>
      <trkpt lat="45.19388" lon="6.37841">
        <ele>2513.1999511719</ele>
        <time>2022-12-17T11:07:10.000Z</time>
      </trkpt>
      <trkpt lat="45.19388" lon="6.37841">
        <ele>2513.1999511719</ele>
        <time>2022-12-17T11:07:11.000Z</time>
      </trkpt>
      <trkpt lat="45.19388" lon="6.37841">
        <ele>2514.3999023438</ele>
        <time>2022-12-17T11:07:17.000Z</time>
      </trkpt>
      <trkpt lat="45.19388" lon="6.37841">
        <ele>2514.3999023438</ele>
        <time>2022-12-17T11:07:18.000Z</time>
      </trkpt>
      <trkpt lat="45.19387" lon="6.37833">
        <ele>2514.6000976562</ele>
        <time>2022-12-17T11:07:20.000Z</time>
      </trkpt>
      <trkpt lat="45.19383" lon="6.37808">
        <ele>2515</ele>
        <time>2022-12-17T11:07:26.000Z</time>
      </trkpt>
      <trkpt lat="45.19382" lon="6.37803">
        <ele>2515.1999511719</ele>
        <time>2022-12-17T11:07:27.000Z</time>
      </trkpt>
      <trkpt lat="45.19382" lon="6.37798">
        <ele>2515.3999023438</ele>
        <time>2022-12-17T11:07:29.000Z</time>
      </trkpt>
      <trkpt lat="45.19383" lon="6.37794">
        <ele>2516</ele>
        <time>2022-12-17T11:07:34.000Z</time>
      </trkpt>
      <trkpt lat="45.19384" lon="6.37792">
        <ele>2516.3999023438</ele>
        <time>2022-12-17T11:07:38.000Z</time>
      </trkpt>
      <trkpt lat="45.19386" lon="6.37786">
        <ele>2517.1999511719</ele>
        <time>2022-12-17T11:07:45.000Z</time>
      </trkpt>
      <trkpt lat="45.19386" lon="6.37785">
        <ele>2517.6000976562</ele>
        <time>2022-12-17T11:07:47.000Z</time>
      </trkpt>
      <trkpt lat="45.19387" lon="6.37781">
        <ele>2518.3999023438</ele>
        <time>2022-12-17T11:07:53.000Z</time>
      </trkpt>
      <trkpt lat="45.19388" lon="6.3778">
        <ele>2518.6000976562</ele>
        <time>2022-12-17T11:07:55.000Z</time>
      </trkpt>
      <trkpt lat="45.19389" lon="6.37776">
        <ele>2519.3999023438</ele>
        <time>2022-12-17T11:08:02.000Z</time>
      </trkpt>
      <trkpt lat="45.1939" lon="6.37775">
        <ele>2519.8000488281</ele>
        <time>2022-12-17T11:08:04.000Z</time>
      </trkpt>
      <trkpt lat="45.1939" lon="6.37775">
        <ele>2520</ele>
        <time>2022-12-17T11:08:05.000Z</time>
      </trkpt>
      <trkpt lat="45.1939" lon="6.37773">
        <ele>2520.6000976562</ele>
        <time>2022-12-17T11:08:10.000Z</time>
      </trkpt>
      <trkpt lat="45.19389" lon="6.37773">
        <ele>2520.8000488281</ele>
        <time>2022-12-17T11:08:13.000Z</time>
      </trkpt>
      <trkpt lat="45.19389" lon="6.37773">
        <ele>2520.8000488281</ele>
        <time>2022-12-17T11:08:26.000Z</time>
      </trkpt>
      <trkpt lat="45.19389" lon="6.37773">
        <ele>2520.8000488281</ele>
        <time>2022-12-17T11:08:30.000Z</time>
      </trkpt>
      <trkpt lat="45.1939" lon="6.37773">
        <ele>2521.1999511719</ele>
        <time>2022-12-17T11:08:36.000Z</time>
      </trkpt>
      <trkpt lat="45.1939" lon="6.37773">
        <ele>2520.8000488281</ele>
        <time>2022-12-17T11:09:04.000Z</time>
      </trkpt>
      <trkpt lat="45.1939" lon="6.37773">
        <ele>2521</ele>
        <time>2022-12-17T11:09:06.000Z</time>
      </trkpt>
      <trkpt lat="45.19388" lon="6.37773">
        <ele>2520.3999023438</ele>
        <time>2022-12-17T11:09:34.000Z</time>
      </trkpt>
      <trkpt lat="45.19388" lon="6.37773">
        <ele>2520.6000976562</ele>
        <time>2022-12-17T11:09:42.000Z</time>
      </trkpt>
      <trkpt lat="45.19389" lon="6.37772">
        <ele>2520.3999023438</ele>
        <time>2022-12-17T11:10:03.000Z</time>
      </trkpt>
      <trkpt lat="45.19387" lon="6.37772">
        <ele>2520.3999023438</ele>
        <time>2022-12-17T11:10:45.000Z</time>
      </trkpt>
      <trkpt lat="45.19387" lon="6.37772">
        <ele>2520.3999023438</ele>
        <time>2022-12-17T11:10:51.000Z</time>
      </trkpt>
      <trkpt lat="45.19387" lon="6.37773">
        <ele>2520.3999023438</ele>
        <time>2022-12-17T11:11:04.000Z</time>
      </trkpt>
      <trkpt lat="45.19387" lon="6.37773">
        <ele>2520.3999023438</ele>
        <time>2022-12-17T11:11:12.000Z</time>
      </trkpt>
      <trkpt lat="45.19387" lon="6.37773">
        <ele>2523.1999511719</ele>
        <time>2022-12-17T11:11:37.000Z</time>
      </trkpt>
      <trkpt lat="45.19387" lon="6.37773">
        <ele>2523.3999023438</ele>
        <time>2022-12-17T11:11:45.000Z</time>
      </trkpt>
      <trkpt lat="45.19383" lon="6.3777">
        <ele>2524</ele>
        <time>2022-12-17T11:11:48.000Z</time>
      </trkpt>
      <trkpt lat="45.19381" lon="6.3777">
        <ele>2524.1999511719</ele>
        <time>2022-12-17T11:11:49.000Z</time>
      </trkpt>
      <trkpt lat="45.19378" lon="6.37769">
        <ele>2524.6000976562</ele>
        <time>2022-12-17T11:11:51.000Z</time>
      </trkpt>
      <trkpt lat="45.19374" lon="6.37767">
        <ele>2525.1999511719</ele>
        <time>2022-12-17T11:11:54.000Z</time>
      </trkpt>
      <trkpt lat="45.19371" lon="6.37766">
        <ele>2526</ele>
        <time>2022-12-17T11:11:58.000Z</time>
      </trkpt>
      <trkpt lat="45.1937" lon="6.37765">
        <ele>2526</ele>
        <time>2022-12-17T11:11:59.000Z</time>
      </trkpt>
      <trkpt lat="45.1937" lon="6.37765">
        <ele>2526.1999511719</ele>
        <time>2022-12-17T11:12:00.000Z</time>
      </trkpt>
      <trkpt lat="45.1937" lon="6.37765">
        <ele>2526.1999511719</ele>
        <time>2022-12-17T11:12:01.000Z</time>
      </trkpt>
      <trkpt lat="45.19369" lon="6.37765">
        <ele>2526.3999023438</ele>
        <time>2022-12-17T11:12:02.000Z</time>
      </trkpt>
      <trkpt lat="45.19366" lon="6.37764">
        <ele>2527.6000976562</ele>
        <time>2022-12-17T11:12:08.000Z</time>
      </trkpt>
      <trkpt lat="45.19363" lon="6.37761">
        <ele>2528.6000976562</ele>
        <time>2022-12-17T11:12:15.000Z</time>
      </trkpt>
      <trkpt lat="45.19361" lon="6.37759">
        <ele>2529.3999023438</ele>
        <time>2022-12-17T11:12:20.000Z</time>
      </trkpt>
      <trkpt lat="45.1936" lon="6.37759">
        <ele>2529.6000976562</ele>
        <time>2022-12-17T11:12:21.000Z</time>
      </trkpt>
      <trkpt lat="45.1936" lon="6.37759">
        <ele>2529.8000488281</ele>
        <time>2022-12-17T11:12:22.000Z</time>
      </trkpt>
      <trkpt lat="45.19358" lon="6.37757">
        <ele>2530.8000488281</ele>
        <time>2022-12-17T11:12:28.000Z</time>
      </trkpt>
      <trkpt lat="45.19357" lon="6.37755">
        <ele>2531.6000976562</ele>
        <time>2022-12-17T11:12:31.000Z</time>
      </trkpt>
      <trkpt lat="45.19356" lon="6.37753">
        <ele>2531.8000488281</ele>
        <time>2022-12-17T11:12:34.000Z</time>
      </trkpt>
      <trkpt lat="45.19353" lon="6.37751">
        <ele>2533</ele>
        <time>2022-12-17T11:12:41.000Z</time>
      </trkpt>
      <trkpt lat="45.19353" lon="6.3775">
        <ele>2533.1999511719</ele>
        <time>2022-12-17T11:12:43.000Z</time>
      </trkpt>
      <trkpt lat="45.19354" lon="6.3775">
        <ele>2533.3999023438</ele>
        <time>2022-12-17T11:12:50.000Z</time>
      </trkpt>
      <trkpt lat="45.19354" lon="6.3775">
        <ele>2534</ele>
        <time>2022-12-17T11:12:57.000Z</time>
      </trkpt>
      <trkpt lat="45.19353" lon="6.37749">
        <ele>2534.8000488281</ele>
        <time>2022-12-17T11:13:05.000Z</time>
      </trkpt>
      <trkpt lat="45.19353" lon="6.37749">
        <ele>2535.1999511719</ele>
        <time>2022-12-17T11:13:06.000Z</time>
      </trkpt>
      <trkpt lat="45.19352" lon="6.37746">
        <ele>2536.3999023438</ele>
        <time>2022-12-17T11:13:13.000Z</time>
      </trkpt>
      <trkpt lat="45.19349" lon="6.37743">
        <ele>2537.3999023438</ele>
        <time>2022-12-17T11:13:22.000Z</time>
      </trkpt>
      <trkpt lat="45.19346" lon="6.37738">
        <ele>2538.3999023438</ele>
        <time>2022-12-17T11:13:31.000Z</time>
      </trkpt>
      <trkpt lat="45.19345" lon="6.37733">
        <ele>2539.1999511719</ele>
        <time>2022-12-17T11:13:40.000Z</time>
      </trkpt>
      <trkpt lat="45.19345" lon="6.37733">
        <ele>2539.3999023438</ele>
        <time>2022-12-17T11:13:41.000Z</time>
      </trkpt>
      <trkpt lat="45.19345" lon="6.37731">
        <ele>2540.6000976562</ele>
        <time>2022-12-17T11:13:47.000Z</time>
      </trkpt>
      <trkpt lat="45.19348" lon="6.37729">
        <ele>2541.8000488281</ele>
        <time>2022-12-17T11:13:55.000Z</time>
      </trkpt>
      <trkpt lat="45.1935" lon="6.37728">
        <ele>2542.8000488281</ele>
        <time>2022-12-17T11:14:01.000Z</time>
      </trkpt>
      <trkpt lat="45.19354" lon="6.37726">
        <ele>2544</ele>
        <time>2022-12-17T11:14:10.000Z</time>
      </trkpt>
      <trkpt lat="45.19357" lon="6.37724">
        <ele>2545.1999511719</ele>
        <time>2022-12-17T11:14:17.000Z</time>
      </trkpt>
      <trkpt lat="45.19361" lon="6.37719">
        <ele>2546.1999511719</ele>
        <time>2022-12-17T11:14:25.000Z</time>
      </trkpt>
      <trkpt lat="45.19364" lon="6.37712">
        <ele>2546.8000488281</ele>
        <time>2022-12-17T11:14:30.000Z</time>
      </trkpt>
      <trkpt lat="45.19366" lon="6.37708">
        <ele>2547.3999023438</ele>
        <time>2022-12-17T11:14:33.000Z</time>
      </trkpt>
      <trkpt lat="45.19368" lon="6.37705">
        <ele>2548.1999511719</ele>
        <time>2022-12-17T11:14:39.000Z</time>
      </trkpt>
      <trkpt lat="45.19369" lon="6.37704">
        <ele>2548.3999023438</ele>
        <time>2022-12-17T11:14:41.000Z</time>
      </trkpt>
      <trkpt lat="45.1937" lon="6.37703">
        <ele>2549.1999511719</ele>
        <time>2022-12-17T11:14:45.000Z</time>
      </trkpt>
      <trkpt lat="45.1937" lon="6.37702">
        <ele>2549.3999023438</ele>
        <time>2022-12-17T11:14:48.000Z</time>
      </trkpt>
      <trkpt lat="45.1937" lon="6.37702">
        <ele>2549.3999023438</ele>
        <time>2022-12-17T11:14:49.000Z</time>
      </trkpt>
      <trkpt lat="45.19371" lon="6.37701">
        <ele>2549.6000976562</ele>
        <time>2022-12-17T11:14:50.000Z</time>
      </trkpt>
      <trkpt lat="45.19373" lon="6.37696">
        <ele>2550.6000976562</ele>
        <time>2022-12-17T11:14:58.000Z</time>
      </trkpt>
      <trkpt lat="45.19374" lon="6.37695">
        <ele>2551.1999511719</ele>
        <time>2022-12-17T11:15:01.000Z</time>
      </trkpt>
      <trkpt lat="45.19375" lon="6.37693">
        <ele>2551.6000976562</ele>
        <time>2022-12-17T11:15:04.000Z</time>
      </trkpt>
      <trkpt lat="45.19376" lon="6.3769">
        <ele>2552.6000976562</ele>
        <time>2022-12-17T11:15:11.000Z</time>
      </trkpt>
      <trkpt lat="45.19377" lon="6.3769">
        <ele>2552.6000976562</ele>
        <time>2022-12-17T11:15:12.000Z</time>
      </trkpt>
      <trkpt lat="45.19378" lon="6.37687">
        <ele>2553.8000488281</ele>
        <time>2022-12-17T11:15:19.000Z</time>
      </trkpt>
      <trkpt lat="45.19378" lon="6.37686">
        <ele>2554.1999511719</ele>
        <time>2022-12-17T11:15:21.000Z</time>
      </trkpt>
      <trkpt lat="45.19379" lon="6.37684">
        <ele>2554.6000976562</ele>
        <time>2022-12-17T11:15:25.000Z</time>
      </trkpt>
      <trkpt lat="45.1938" lon="6.37684">
        <ele>2555</ele>
        <time>2022-12-17T11:15:27.000Z</time>
      </trkpt>
      <trkpt lat="45.19381" lon="6.37682">
        <ele>2555.6000976562</ele>
        <time>2022-12-17T11:15:31.000Z</time>
      </trkpt>
      <trkpt lat="45.19381" lon="6.37681">
        <ele>2555.8000488281</ele>
        <time>2022-12-17T11:15:33.000Z</time>
      </trkpt>
      <trkpt lat="45.19382" lon="6.37681">
        <ele>2556</ele>
        <time>2022-12-17T11:15:34.000Z</time>
      </trkpt>
      <trkpt lat="45.19383" lon="6.37677">
        <ele>2556.6000976562</ele>
        <time>2022-12-17T11:15:40.000Z</time>
      </trkpt>
      <trkpt lat="45.19384" lon="6.37675">
        <ele>2557.1999511719</ele>
        <time>2022-12-17T11:15:44.000Z</time>
      </trkpt>
      <trkpt lat="45.19385" lon="6.37673">
        <ele>2558</ele>
        <time>2022-12-17T11:15:48.000Z</time>
      </trkpt>
      <trkpt lat="45.19385" lon="6.37672">
        <ele>2558.3999023438</ele>
        <time>2022-12-17T11:15:51.000Z</time>
      </trkpt>
      <trkpt lat="45.19386" lon="6.3767">
        <ele>2559</ele>
        <time>2022-12-17T11:15:56.000Z</time>
      </trkpt>
      <trkpt lat="45.19385" lon="6.37669">
        <ele>2559.3999023438</ele>
        <time>2022-12-17T11:15:59.000Z</time>
      </trkpt>
      <trkpt lat="45.19382" lon="6.37666">
        <ele>2560.1999511719</ele>
        <time>2022-12-17T11:16:06.000Z</time>
      </trkpt>
      <trkpt lat="45.19382" lon="6.37665">
        <ele>2560.6000976562</ele>
        <time>2022-12-17T11:16:08.000Z</time>
      </trkpt>
      <trkpt lat="45.1938" lon="6.37663">
        <ele>2561</ele>
        <time>2022-12-17T11:16:10.000Z</time>
      </trkpt>
      <trkpt lat="45.1938" lon="6.37663">
        <ele>2561</ele>
        <time>2022-12-17T11:16:11.000Z</time>
      </trkpt>
      <trkpt lat="45.19378" lon="6.37659">
        <ele>2561.6000976562</ele>
        <time>2022-12-17T11:16:16.000Z</time>
      </trkpt>
      <trkpt lat="45.19378" lon="6.37658">
        <ele>2561.8000488281</ele>
        <time>2022-12-17T11:16:17.000Z</time>
      </trkpt>
      <trkpt lat="45.19377" lon="6.37656">
        <ele>2563</ele>
        <time>2022-12-17T11:16:24.000Z</time>
      </trkpt>
      <trkpt lat="45.19377" lon="6.37655">
        <ele>2563.1999511719</ele>
        <time>2022-12-17T11:16:25.000Z</time>
      </trkpt>
      <trkpt lat="45.19376" lon="6.37651">
        <ele>2563.8000488281</ele>
        <time>2022-12-17T11:16:30.000Z</time>
      </trkpt>
      <trkpt lat="45.19376" lon="6.37648">
        <ele>2564</ele>
        <time>2022-12-17T11:16:33.000Z</time>
      </trkpt>
      <trkpt lat="45.19376" lon="6.37647">
        <ele>2564.1999511719</ele>
        <time>2022-12-17T11:16:35.000Z</time>
      </trkpt>
      <trkpt lat="45.19375" lon="6.37645">
        <ele>2565</ele>
        <time>2022-12-17T11:16:40.000Z</time>
      </trkpt>
      <trkpt lat="45.19374" lon="6.37642">
        <ele>2565.6000976562</ele>
        <time>2022-12-17T11:16:45.000Z</time>
      </trkpt>
      <trkpt lat="45.19374" lon="6.37641">
        <ele>2565.8000488281</ele>
        <time>2022-12-17T11:16:46.000Z</time>
      </trkpt>
      <trkpt lat="45.19373" lon="6.37641">
        <ele>2566</ele>
        <time>2022-12-17T11:16:47.000Z</time>
      </trkpt>
      <trkpt lat="45.19373" lon="6.3764">
        <ele>2566.1999511719</ele>
        <time>2022-12-17T11:16:49.000Z</time>
      </trkpt>
      <trkpt lat="45.19373" lon="6.37638">
        <ele>2566.6000976562</ele>
        <time>2022-12-17T11:16:53.000Z</time>
      </trkpt>
      <trkpt lat="45.19372" lon="6.37636">
        <ele>2567.1999511719</ele>
        <time>2022-12-17T11:16:56.000Z</time>
      </trkpt>
      <trkpt lat="45.19372" lon="6.37635">
        <ele>2567.3999023438</ele>
        <time>2022-12-17T11:16:58.000Z</time>
      </trkpt>
      <trkpt lat="45.19371" lon="6.37632">
        <ele>2568.1999511719</ele>
        <time>2022-12-17T11:17:03.000Z</time>
      </trkpt>
      <trkpt lat="45.1937" lon="6.3763">
        <ele>2568.3999023438</ele>
        <time>2022-12-17T11:17:06.000Z</time>
      </trkpt>
      <trkpt lat="45.19369" lon="6.37628">
        <ele>2569</ele>
        <time>2022-12-17T11:17:10.000Z</time>
      </trkpt>
      <trkpt lat="45.19369" lon="6.37627">
        <ele>2569.3999023438</ele>
        <time>2022-12-17T11:17:13.000Z</time>
      </trkpt>
      <trkpt lat="45.19368" lon="6.37625">
        <ele>2569.8000488281</ele>
        <time>2022-12-17T11:17:16.000Z</time>
      </trkpt>
      <trkpt lat="45.19368" lon="6.37624">
        <ele>2570.1999511719</ele>
        <time>2022-12-17T11:17:18.000Z</time>
      </trkpt>
      <trkpt lat="45.19367" lon="6.37623">
        <ele>2570.6000976562</ele>
        <time>2022-12-17T11:17:20.000Z</time>
      </trkpt>
      <trkpt lat="45.19366" lon="6.37622">
        <ele>2571</ele>
        <time>2022-12-17T11:17:24.000Z</time>
      </trkpt>
      <trkpt lat="45.19366" lon="6.37621">
        <ele>2571.1999511719</ele>
        <time>2022-12-17T11:17:25.000Z</time>
      </trkpt>
      <trkpt lat="45.19365" lon="6.37621">
        <ele>2571.3999023438</ele>
        <time>2022-12-17T11:17:27.000Z</time>
      </trkpt>
      <trkpt lat="45.19365" lon="6.3762">
        <ele>2571.6000976562</ele>
        <time>2022-12-17T11:17:28.000Z</time>
      </trkpt>
      <trkpt lat="45.19365" lon="6.3762">
        <ele>2571.6000976562</ele>
        <time>2022-12-17T11:17:29.000Z</time>
      </trkpt>
      <trkpt lat="45.19365" lon="6.37619">
        <ele>2571.8000488281</ele>
        <time>2022-12-17T11:17:30.000Z</time>
      </trkpt>
      <trkpt lat="45.19363" lon="6.37616">
        <ele>2572.3999023438</ele>
        <time>2022-12-17T11:17:35.000Z</time>
      </trkpt>
      <trkpt lat="45.19362" lon="6.37615">
        <ele>2572.8000488281</ele>
        <time>2022-12-17T11:17:38.000Z</time>
      </trkpt>
      <trkpt lat="45.1936" lon="6.3761">
        <ele>2573.8000488281</ele>
        <time>2022-12-17T11:17:47.000Z</time>
      </trkpt>
      <trkpt lat="45.19359" lon="6.37609">
        <ele>2574</ele>
        <time>2022-12-17T11:17:48.000Z</time>
      </trkpt>
      <trkpt lat="45.19357" lon="6.37606">
        <ele>2574.8000488281</ele>
        <time>2022-12-17T11:17:54.000Z</time>
      </trkpt>
      <trkpt lat="45.19357" lon="6.37605">
        <ele>2575.1999511719</ele>
        <time>2022-12-17T11:17:57.000Z</time>
      </trkpt>
      <trkpt lat="45.19356" lon="6.37602">
        <ele>2575.6000976562</ele>
        <time>2022-12-17T11:18:02.000Z</time>
      </trkpt>
      <trkpt lat="45.19355" lon="6.376">
        <ele>2576</ele>
        <time>2022-12-17T11:18:04.000Z</time>
      </trkpt>
      <trkpt lat="45.19354" lon="6.37595">
        <ele>2577.1999511719</ele>
        <time>2022-12-17T11:18:13.000Z</time>
      </trkpt>
      <trkpt lat="45.19354" lon="6.37591">
        <ele>2578.1999511719</ele>
        <time>2022-12-17T11:18:20.000Z</time>
      </trkpt>
      <trkpt lat="45.19354" lon="6.37589">
        <ele>2578.6000976562</ele>
        <time>2022-12-17T11:18:24.000Z</time>
      </trkpt>
      <trkpt lat="45.19355" lon="6.37586">
        <ele>2579.1999511719</ele>
        <time>2022-12-17T11:18:30.000Z</time>
      </trkpt>
      <trkpt lat="45.19355" lon="6.37583">
        <ele>2580.1999511719</ele>
        <time>2022-12-17T11:18:35.000Z</time>
      </trkpt>
      <trkpt lat="45.19355" lon="6.37582">
        <ele>2580.3999023438</ele>
        <time>2022-12-17T11:18:36.000Z</time>
      </trkpt>
      <trkpt lat="45.19357" lon="6.37577">
        <ele>2581.3999023438</ele>
        <time>2022-12-17T11:18:46.000Z</time>
      </trkpt>
      <trkpt lat="45.19357" lon="6.37576">
        <ele>2581.8000488281</ele>
        <time>2022-12-17T11:18:47.000Z</time>
      </trkpt>
      <trkpt lat="45.19358" lon="6.37575">
        <ele>2582.1999511719</ele>
        <time>2022-12-17T11:18:49.000Z</time>
      </trkpt>
      <trkpt lat="45.19358" lon="6.37574">
        <ele>2582.3999023438</ele>
        <time>2022-12-17T11:18:51.000Z</time>
      </trkpt>
      <trkpt lat="45.1936" lon="6.37571">
        <ele>2583.1999511719</ele>
        <time>2022-12-17T11:18:57.000Z</time>
      </trkpt>
      <trkpt lat="45.1936" lon="6.3757">
        <ele>2583.3999023438</ele>
        <time>2022-12-17T11:18:59.000Z</time>
      </trkpt>
      <trkpt lat="45.19362" lon="6.37566">
        <ele>2584.1999511719</ele>
        <time>2022-12-17T11:19:06.000Z</time>
      </trkpt>
      <trkpt lat="45.19362" lon="6.37565">
        <ele>2584.6000976562</ele>
        <time>2022-12-17T11:19:09.000Z</time>
      </trkpt>
      <trkpt lat="45.19364" lon="6.37562">
        <ele>2585.6000976562</ele>
        <time>2022-12-17T11:19:17.000Z</time>
      </trkpt>
      <trkpt lat="45.19364" lon="6.37561">
        <ele>2585.8000488281</ele>
        <time>2022-12-17T11:19:18.000Z</time>
      </trkpt>
      <trkpt lat="45.19365" lon="6.37559">
        <ele>2586.6000976562</ele>
        <time>2022-12-17T11:19:25.000Z</time>
      </trkpt>
      <trkpt lat="45.19367" lon="6.37556">
        <ele>2587.1999511719</ele>
        <time>2022-12-17T11:19:30.000Z</time>
      </trkpt>
      <trkpt lat="45.19367" lon="6.37554">
        <ele>2587.3999023438</ele>
        <time>2022-12-17T11:19:32.000Z</time>
      </trkpt>
      <trkpt lat="45.19368" lon="6.37553">
        <ele>2587.6000976562</ele>
        <time>2022-12-17T11:19:34.000Z</time>
      </trkpt>
      <trkpt lat="45.19369" lon="6.37552">
        <ele>2588.3999023438</ele>
        <time>2022-12-17T11:19:38.000Z</time>
      </trkpt>
      <trkpt lat="45.19369" lon="6.37551">
        <ele>2588.8000488281</ele>
        <time>2022-12-17T11:19:40.000Z</time>
      </trkpt>
      <trkpt lat="45.1937" lon="6.37548">
        <ele>2589.6000976562</ele>
        <time>2022-12-17T11:19:47.000Z</time>
      </trkpt>
      <trkpt lat="45.1937" lon="6.37548">
        <ele>2589.8000488281</ele>
        <time>2022-12-17T11:19:48.000Z</time>
      </trkpt>
      <trkpt lat="45.19372" lon="6.37543">
        <ele>2591</ele>
        <time>2022-12-17T11:19:57.000Z</time>
      </trkpt>
      <trkpt lat="45.19372" lon="6.37541">
        <ele>2591.6000976562</ele>
        <time>2022-12-17T11:20:01.000Z</time>
      </trkpt>
      <trkpt lat="45.19373" lon="6.37538">
        <ele>2592</ele>
        <time>2022-12-17T11:20:06.000Z</time>
      </trkpt>
      <trkpt lat="45.19373" lon="6.37537">
        <ele>2592.3999023438</ele>
        <time>2022-12-17T11:20:08.000Z</time>
      </trkpt>
      <trkpt lat="45.19374" lon="6.37534">
        <ele>2593.1999511719</ele>
        <time>2022-12-17T11:20:13.000Z</time>
      </trkpt>
      <trkpt lat="45.19374" lon="6.37533">
        <ele>2593.1999511719</ele>
        <time>2022-12-17T11:20:14.000Z</time>
      </trkpt>
      <trkpt lat="45.19375" lon="6.37529">
        <ele>2594</ele>
        <time>2022-12-17T11:20:22.000Z</time>
      </trkpt>
      <trkpt lat="45.19375" lon="6.37527">
        <ele>2594.1999511719</ele>
        <time>2022-12-17T11:20:24.000Z</time>
      </trkpt>
      <trkpt lat="45.19376" lon="6.37525">
        <ele>2594.8000488281</ele>
        <time>2022-12-17T11:20:29.000Z</time>
      </trkpt>
      <trkpt lat="45.19376" lon="6.37524">
        <ele>2595</ele>
        <time>2022-12-17T11:20:31.000Z</time>
      </trkpt>
      <trkpt lat="45.19377" lon="6.37522">
        <ele>2595.3999023438</ele>
        <time>2022-12-17T11:20:35.000Z</time>
      </trkpt>
      <trkpt lat="45.19378" lon="6.37519">
        <ele>2596.1999511719</ele>
        <time>2022-12-17T11:20:41.000Z</time>
      </trkpt>
      <trkpt lat="45.19378" lon="6.37519">
        <ele>2596.3999023438</ele>
        <time>2022-12-17T11:20:42.000Z</time>
      </trkpt>
      <trkpt lat="45.1938" lon="6.37516">
        <ele>2597</ele>
        <time>2022-12-17T11:20:48.000Z</time>
      </trkpt>
      <trkpt lat="45.1938" lon="6.37514">
        <ele>2597.3999023438</ele>
        <time>2022-12-17T11:20:51.000Z</time>
      </trkpt>
      <trkpt lat="45.19381" lon="6.37512">
        <ele>2598</ele>
        <time>2022-12-17T11:20:55.000Z</time>
      </trkpt>
      <trkpt lat="45.19381" lon="6.37509">
        <ele>2598.6000976562</ele>
        <time>2022-12-17T11:20:59.000Z</time>
      </trkpt>
      <trkpt lat="45.19382" lon="6.37505">
        <ele>2599.3999023438</ele>
        <time>2022-12-17T11:21:06.000Z</time>
      </trkpt>
      <trkpt lat="45.19382" lon="6.37504">
        <ele>2599.6000976562</ele>
        <time>2022-12-17T11:21:08.000Z</time>
      </trkpt>
      <trkpt lat="45.19382" lon="6.37499">
        <ele>2600.8000488281</ele>
        <time>2022-12-17T11:21:17.000Z</time>
      </trkpt>
      <trkpt lat="45.19383" lon="6.37493">
        <ele>2601.8000488281</ele>
        <time>2022-12-17T11:21:26.000Z</time>
      </trkpt>
      <trkpt lat="45.19383" lon="6.37493">
        <ele>2601.8000488281</ele>
        <time>2022-12-17T11:21:27.000Z</time>
      </trkpt>
      <trkpt lat="45.19384" lon="6.3749">
        <ele>2602.6000976562</ele>
        <time>2022-12-17T11:21:31.000Z</time>
      </trkpt>
      <trkpt lat="45.19383" lon="6.37489">
        <ele>2602.8000488281</ele>
        <time>2022-12-17T11:21:33.000Z</time>
      </trkpt>
      <trkpt lat="45.19383" lon="6.37488">
        <ele>2603.1999511719</ele>
        <time>2022-12-17T11:21:36.000Z</time>
      </trkpt>
      <trkpt lat="45.19383" lon="6.37485">
        <ele>2604</ele>
        <time>2022-12-17T11:21:40.000Z</time>
      </trkpt>
      <trkpt lat="45.19383" lon="6.37483">
        <ele>2604.3999023438</ele>
        <time>2022-12-17T11:21:43.000Z</time>
      </trkpt>
      <trkpt lat="45.19383" lon="6.37478">
        <ele>2604.8000488281</ele>
        <time>2022-12-17T11:21:50.000Z</time>
      </trkpt>
      <trkpt lat="45.19383" lon="6.37477">
        <ele>2605.1999511719</ele>
        <time>2022-12-17T11:21:52.000Z</time>
      </trkpt>
      <trkpt lat="45.19384" lon="6.37473">
        <ele>2605.8000488281</ele>
        <time>2022-12-17T11:21:57.000Z</time>
      </trkpt>
      <trkpt lat="45.19384" lon="6.37472">
        <ele>2606.1999511719</ele>
        <time>2022-12-17T11:21:59.000Z</time>
      </trkpt>
      <trkpt lat="45.19384" lon="6.37471">
        <ele>2606.3999023438</ele>
        <time>2022-12-17T11:22:00.000Z</time>
      </trkpt>
      <trkpt lat="45.19384" lon="6.37471">
        <ele>2606.6000976562</ele>
        <time>2022-12-17T11:22:02.000Z</time>
      </trkpt>
      <trkpt lat="45.19384" lon="6.37467">
        <ele>2607.1999511719</ele>
        <time>2022-12-17T11:22:07.000Z</time>
      </trkpt>
      <trkpt lat="45.19384" lon="6.37465">
        <ele>2607.3999023438</ele>
        <time>2022-12-17T11:22:10.000Z</time>
      </trkpt>
      <trkpt lat="45.19384" lon="6.37462">
        <ele>2608.3999023438</ele>
        <time>2022-12-17T11:22:17.000Z</time>
      </trkpt>
      <trkpt lat="45.19384" lon="6.37461">
        <ele>2608.3999023438</ele>
        <time>2022-12-17T11:22:18.000Z</time>
      </trkpt>
      <trkpt lat="45.19383" lon="6.37461">
        <ele>2608.8000488281</ele>
        <time>2022-12-17T11:22:20.000Z</time>
      </trkpt>
      <trkpt lat="45.19382" lon="6.37459">
        <ele>2609</ele>
        <time>2022-12-17T11:22:23.000Z</time>
      </trkpt>
      <trkpt lat="45.19381" lon="6.37458">
        <ele>2609.3999023438</ele>
        <time>2022-12-17T11:22:26.000Z</time>
      </trkpt>
      <trkpt lat="45.19381" lon="6.37457">
        <ele>2609.6000976562</ele>
        <time>2022-12-17T11:22:27.000Z</time>
      </trkpt>
      <trkpt lat="45.19378" lon="6.37456">
        <ele>2610.6000976562</ele>
        <time>2022-12-17T11:22:34.000Z</time>
      </trkpt>
      <trkpt lat="45.19378" lon="6.37456">
        <ele>2610.6000976562</ele>
        <time>2022-12-17T11:22:35.000Z</time>
      </trkpt>
      <trkpt lat="45.19375" lon="6.37455">
        <ele>2611.6000976562</ele>
        <time>2022-12-17T11:22:41.000Z</time>
      </trkpt>
      <trkpt lat="45.19373" lon="6.37455">
        <ele>2612</ele>
        <time>2022-12-17T11:22:45.000Z</time>
      </trkpt>
      <trkpt lat="45.19371" lon="6.37454">
        <ele>2612.6000976562</ele>
        <time>2022-12-17T11:22:49.000Z</time>
      </trkpt>
      <trkpt lat="45.19369" lon="6.37453">
        <ele>2613.3999023438</ele>
        <time>2022-12-17T11:22:55.000Z</time>
      </trkpt>
      <trkpt lat="45.19368" lon="6.37453">
        <ele>2613.8000488281</ele>
        <time>2022-12-17T11:22:57.000Z</time>
      </trkpt>
      <trkpt lat="45.19367" lon="6.37452">
        <ele>2614.1999511719</ele>
        <time>2022-12-17T11:23:00.000Z</time>
      </trkpt>
      <trkpt lat="45.19364" lon="6.37451">
        <ele>2614.6000976562</ele>
        <time>2022-12-17T11:23:05.000Z</time>
      </trkpt>
      <trkpt lat="45.19364" lon="6.37451">
        <ele>2615</ele>
        <time>2022-12-17T11:23:06.000Z</time>
      </trkpt>
      <trkpt lat="45.19361" lon="6.37446">
        <ele>2616</ele>
        <time>2022-12-17T11:23:14.000Z</time>
      </trkpt>
      <trkpt lat="45.19359" lon="6.37441">
        <ele>2617</ele>
        <time>2022-12-17T11:23:22.000Z</time>
      </trkpt>
      <trkpt lat="45.19358" lon="6.3744">
        <ele>2617.3999023438</ele>
        <time>2022-12-17T11:23:25.000Z</time>
      </trkpt>
      <trkpt lat="45.19357" lon="6.37439">
        <ele>2617.6000976562</ele>
        <time>2022-12-17T11:23:27.000Z</time>
      </trkpt>
      <trkpt lat="45.19356" lon="6.37438">
        <ele>2618</ele>
        <time>2022-12-17T11:23:30.000Z</time>
      </trkpt>
      <trkpt lat="45.19355" lon="6.37437">
        <ele>2618.1999511719</ele>
        <time>2022-12-17T11:23:32.000Z</time>
      </trkpt>
      <trkpt lat="45.19355" lon="6.37437">
        <ele>2618.3999023438</ele>
        <time>2022-12-17T11:23:33.000Z</time>
      </trkpt>
      <trkpt lat="45.19355" lon="6.37437">
        <ele>2618.3999023438</ele>
        <time>2022-12-17T11:23:34.000Z</time>
      </trkpt>
      <trkpt lat="45.19354" lon="6.37435">
        <ele>2619</ele>
        <time>2022-12-17T11:23:37.000Z</time>
      </trkpt>
      <trkpt lat="45.1935" lon="6.37432">
        <ele>2619.8000488281</ele>
        <time>2022-12-17T11:23:45.000Z</time>
      </trkpt>
      <trkpt lat="45.1935" lon="6.37432">
        <ele>2620</ele>
        <time>2022-12-17T11:23:46.000Z</time>
      </trkpt>
      <trkpt lat="45.19349" lon="6.37432">
        <ele>2620.3999023438</ele>
        <time>2022-12-17T11:23:48.000Z</time>
      </trkpt>
      <trkpt lat="45.19349" lon="6.37431">
        <ele>2620.3999023438</ele>
        <time>2022-12-17T11:23:49.000Z</time>
      </trkpt>
      <trkpt lat="45.19347" lon="6.3743">
        <ele>2621</ele>
        <time>2022-12-17T11:23:54.000Z</time>
      </trkpt>
      <trkpt lat="45.19347" lon="6.3743">
        <ele>2621.1999511719</ele>
        <time>2022-12-17T11:23:55.000Z</time>
      </trkpt>
      <trkpt lat="45.19346" lon="6.37429">
        <ele>2621.6000976562</ele>
        <time>2022-12-17T11:23:58.000Z</time>
      </trkpt>
      <trkpt lat="45.19344" lon="6.37427">
        <ele>2622.1999511719</ele>
        <time>2022-12-17T11:24:02.000Z</time>
      </trkpt>
      <trkpt lat="45.19343" lon="6.37425">
        <ele>2622.8000488281</ele>
        <time>2022-12-17T11:24:08.000Z</time>
      </trkpt>
      <trkpt lat="45.19342" lon="6.37424">
        <ele>2623.1999511719</ele>
        <time>2022-12-17T11:24:11.000Z</time>
      </trkpt>
      <trkpt lat="45.19341" lon="6.37423">
        <ele>2623.3999023438</ele>
        <time>2022-12-17T11:24:12.000Z</time>
      </trkpt>
      <trkpt lat="45.19341" lon="6.37423">
        <ele>2623.6000976562</ele>
        <time>2022-12-17T11:24:13.000Z</time>
      </trkpt>
      <trkpt lat="45.19341" lon="6.37421">
        <ele>2624</ele>
        <time>2022-12-17T11:24:16.000Z</time>
      </trkpt>
      <trkpt lat="45.1934" lon="6.37421">
        <ele>2624.3999023438</ele>
        <time>2022-12-17T11:24:18.000Z</time>
      </trkpt>
      <trkpt lat="45.19339" lon="6.3742">
        <ele>2624.8000488281</ele>
        <time>2022-12-17T11:24:22.000Z</time>
      </trkpt>
      <trkpt lat="45.19339" lon="6.3742">
        <ele>2624.8000488281</ele>
        <time>2022-12-17T11:24:23.000Z</time>
      </trkpt>
      <trkpt lat="45.19337" lon="6.3742">
        <ele>2625.1999511719</ele>
        <time>2022-12-17T11:24:25.000Z</time>
      </trkpt>
      <trkpt lat="45.19337" lon="6.37419">
        <ele>2625.3999023438</ele>
        <time>2022-12-17T11:24:27.000Z</time>
      </trkpt>
      <trkpt lat="45.19336" lon="6.37419">
        <ele>2625.6000976562</ele>
        <time>2022-12-17T11:24:29.000Z</time>
      </trkpt>
      <trkpt lat="45.19335" lon="6.37417">
        <ele>2626.3999023438</ele>
        <time>2022-12-17T11:24:33.000Z</time>
      </trkpt>
      <trkpt lat="45.19333" lon="6.37416">
        <ele>2627.1999511719</ele>
        <time>2022-12-17T11:24:40.000Z</time>
      </trkpt>
      <trkpt lat="45.19333" lon="6.37416">
        <ele>2627.3999023438</ele>
        <time>2022-12-17T11:24:41.000Z</time>
      </trkpt>
      <trkpt lat="45.19332" lon="6.37415">
        <ele>2627.8000488281</ele>
        <time>2022-12-17T11:24:45.000Z</time>
      </trkpt>
      <trkpt lat="45.19331" lon="6.37413">
        <ele>2628.3999023438</ele>
        <time>2022-12-17T11:24:49.000Z</time>
      </trkpt>
      <trkpt lat="45.19329" lon="6.37412">
        <ele>2628.8000488281</ele>
        <time>2022-12-17T11:24:51.000Z</time>
      </trkpt>
      <trkpt lat="45.19329" lon="6.37411">
        <ele>2629</ele>
        <time>2022-12-17T11:24:54.000Z</time>
      </trkpt>
      <trkpt lat="45.19327" lon="6.3741">
        <ele>2629.6000976562</ele>
        <time>2022-12-17T11:24:58.000Z</time>
      </trkpt>
      <trkpt lat="45.19327" lon="6.3741">
        <ele>2629.6000976562</ele>
        <time>2022-12-17T11:24:59.000Z</time>
      </trkpt>
      <trkpt lat="45.19325" lon="6.37408">
        <ele>2630.6000976562</ele>
        <time>2022-12-17T11:25:06.000Z</time>
      </trkpt>
      <trkpt lat="45.19325" lon="6.37407">
        <ele>2630.8000488281</ele>
        <time>2022-12-17T11:25:07.000Z</time>
      </trkpt>
      <trkpt lat="45.19323" lon="6.37405">
        <ele>2631.3999023438</ele>
        <time>2022-12-17T11:25:12.000Z</time>
      </trkpt>
      <trkpt lat="45.19322" lon="6.37405">
        <ele>2631.8000488281</ele>
        <time>2022-12-17T11:25:15.000Z</time>
      </trkpt>
      <trkpt lat="45.1932" lon="6.37403">
        <ele>2632.6000976562</ele>
        <time>2022-12-17T11:25:19.000Z</time>
      </trkpt>
      <trkpt lat="45.19319" lon="6.37403">
        <ele>2632.8000488281</ele>
        <time>2022-12-17T11:25:22.000Z</time>
      </trkpt>
      <trkpt lat="45.19318" lon="6.37401">
        <ele>2633.6000976562</ele>
        <time>2022-12-17T11:25:28.000Z</time>
      </trkpt>
      <trkpt lat="45.19317" lon="6.37399">
        <ele>2634.1999511719</ele>
        <time>2022-12-17T11:25:31.000Z</time>
      </trkpt>
      <trkpt lat="45.19316" lon="6.37397">
        <ele>2634.8000488281</ele>
        <time>2022-12-17T11:25:36.000Z</time>
      </trkpt>
      <trkpt lat="45.19315" lon="6.37395">
        <ele>2635</ele>
        <time>2022-12-17T11:25:39.000Z</time>
      </trkpt>
      <trkpt lat="45.19315" lon="6.37395">
        <ele>2635.1999511719</ele>
        <time>2022-12-17T11:25:40.000Z</time>
      </trkpt>
      <trkpt lat="45.19315" lon="6.37394">
        <ele>2635.3999023438</ele>
        <time>2022-12-17T11:25:45.000Z</time>
      </trkpt>
      <trkpt lat="45.19315" lon="6.37394">
        <ele>2635.6000976562</ele>
        <time>2022-12-17T11:25:53.000Z</time>
      </trkpt>
      <trkpt lat="45.19315" lon="6.37394">
        <ele>2635.3999023438</ele>
        <time>2022-12-17T11:25:59.000Z</time>
      </trkpt>
      <trkpt lat="45.19315" lon="6.37394">
        <ele>2635.3999023438</ele>
        <time>2022-12-17T11:26:13.000Z</time>
      </trkpt>
      <trkpt lat="45.19315" lon="6.37395">
        <ele>2635.6000976562</ele>
        <time>2022-12-17T11:26:29.000Z</time>
      </trkpt>
      <trkpt lat="45.19314" lon="6.37395">
        <ele>2635.6000976562</ele>
        <time>2022-12-17T11:26:44.000Z</time>
      </trkpt>
      <trkpt lat="45.19315" lon="6.37395">
        <ele>2635.3999023438</ele>
        <time>2022-12-17T11:26:50.000Z</time>
      </trkpt>
      <trkpt lat="45.19315" lon="6.37395">
        <ele>2635.3999023438</ele>
        <time>2022-12-17T11:26:51.000Z</time>
      </trkpt>
      <trkpt lat="45.19315" lon="6.37395">
        <ele>2635.3999023438</ele>
        <time>2022-12-17T11:26:56.000Z</time>
      </trkpt>
      <trkpt lat="45.19315" lon="6.37395">
        <ele>2635.3999023438</ele>
        <time>2022-12-17T11:27:00.000Z</time>
      </trkpt>
      <trkpt lat="45.19315" lon="6.37395">
        <ele>2635.3999023438</ele>
        <time>2022-12-17T11:27:12.000Z</time>
      </trkpt>
      <trkpt lat="45.19315" lon="6.37394">
        <ele>2635.3999023438</ele>
        <time>2022-12-17T11:27:18.000Z</time>
      </trkpt>
      <trkpt lat="45.19315" lon="6.37394">
        <ele>2635.3999023438</ele>
        <time>2022-12-17T11:27:20.000Z</time>
      </trkpt>
      <trkpt lat="45.19314" lon="6.37392">
        <ele>2635.3999023438</ele>
        <time>2022-12-17T11:27:51.000Z</time>
      </trkpt>
      <trkpt lat="45.19314" lon="6.37392">
        <ele>2635.3999023438</ele>
        <time>2022-12-17T11:27:52.000Z</time>
      </trkpt>
      <trkpt lat="45.19314" lon="6.37391">
        <ele>2635.3999023438</ele>
        <time>2022-12-17T11:28:19.000Z</time>
      </trkpt>
      <trkpt lat="45.19314" lon="6.37391">
        <ele>2635.3999023438</ele>
        <time>2022-12-17T11:28:27.000Z</time>
      </trkpt>
      <trkpt lat="45.19314" lon="6.37391">
        <ele>2635.3999023438</ele>
        <time>2022-12-17T11:28:28.000Z</time>
      </trkpt>
      <trkpt lat="45.19314" lon="6.37391">
        <ele>2635.3999023438</ele>
        <time>2022-12-17T11:28:29.000Z</time>
      </trkpt>
      <trkpt lat="45.19314" lon="6.3739">
        <ele>2635.3999023438</ele>
        <time>2022-12-17T11:28:31.000Z</time>
      </trkpt>
      <trkpt lat="45.19314" lon="6.3739">
        <ele>2635.3999023438</ele>
        <time>2022-12-17T11:28:34.000Z</time>
      </trkpt>
      <trkpt lat="45.19314" lon="6.3739">
        <ele>2635.3999023438</ele>
        <time>2022-12-17T11:28:35.000Z</time>
      </trkpt>
      <trkpt lat="45.19314" lon="6.3739">
        <ele>2635.3999023438</ele>
        <time>2022-12-17T11:28:36.000Z</time>
      </trkpt>
      <trkpt lat="45.19314" lon="6.3739">
        <ele>2635.3999023438</ele>
        <time>2022-12-17T11:28:38.000Z</time>
      </trkpt>
      <trkpt lat="45.19314" lon="6.3739">
        <ele>2635.3999023438</ele>
        <time>2022-12-17T11:28:41.000Z</time>
      </trkpt>
      <trkpt lat="45.19314" lon="6.3739">
        <ele>2635.3999023438</ele>
        <time>2022-12-17T11:28:42.000Z</time>
      </trkpt>
      <trkpt lat="45.19314" lon="6.3739">
        <ele>2635.3999023438</ele>
        <time>2022-12-17T11:28:43.000Z</time>
      </trkpt>
      <trkpt lat="45.19314" lon="6.3739">
        <ele>2635.3999023438</ele>
        <time>2022-12-17T11:28:44.000Z</time>
      </trkpt>
      <trkpt lat="45.19314" lon="6.3739">
        <ele>2635.3999023438</ele>
        <time>2022-12-17T11:28:48.000Z</time>
      </trkpt>
      <trkpt lat="45.19314" lon="6.3739">
        <ele>2635.3999023438</ele>
        <time>2022-12-17T11:28:55.000Z</time>
      </trkpt>
      <trkpt lat="45.19314" lon="6.3739">
        <ele>2635.3999023438</ele>
        <time>2022-12-17T11:29:01.000Z</time>
      </trkpt>
      <trkpt lat="45.19314" lon="6.3739">
        <ele>2635.3999023438</ele>
        <time>2022-12-17T11:29:12.000Z</time>
      </trkpt>
      <trkpt lat="45.19314" lon="6.37391">
        <ele>2635.3999023438</ele>
        <time>2022-12-17T11:29:15.000Z</time>
      </trkpt>
      <trkpt lat="45.19314" lon="6.37391">
        <ele>2635.3999023438</ele>
        <time>2022-12-17T11:29:20.000Z</time>
      </trkpt>
      <trkpt lat="45.19314" lon="6.37391">
        <ele>2635.3999023438</ele>
        <time>2022-12-17T11:29:26.000Z</time>
      </trkpt>
      <trkpt lat="45.19314" lon="6.37391">
        <ele>2635.3999023438</ele>
        <time>2022-12-17T11:29:47.000Z</time>
      </trkpt>
      <trkpt lat="45.19314" lon="6.37391">
        <ele>2640.6000976562</ele>
        <time>2022-12-17T11:29:55.000Z</time>
      </trkpt>
      <trkpt lat="45.19314" lon="6.3739">
        <ele>2641.6000976562</ele>
        <time>2022-12-17T11:30:05.000Z</time>
      </trkpt>
      <trkpt lat="45.19322" lon="6.37379">
        <ele>2642.8000488281</ele>
        <time>2022-12-17T11:30:12.000Z</time>
      </trkpt>
      <trkpt lat="45.19325" lon="6.37374">
        <ele>2643.1999511719</ele>
        <time>2022-12-17T11:30:14.000Z</time>
      </trkpt>
      <trkpt lat="45.19327" lon="6.37372">
        <ele>2643.3999023438</ele>
        <time>2022-12-17T11:30:15.000Z</time>
      </trkpt>
      <trkpt lat="45.1933" lon="6.37366">
        <ele>2643.8000488281</ele>
        <time>2022-12-17T11:30:19.000Z</time>
      </trkpt>
      <trkpt lat="45.19331" lon="6.37366">
        <ele>2644</ele>
        <time>2022-12-17T11:30:20.000Z</time>
      </trkpt>
      <trkpt lat="45.19331" lon="6.37365">
        <ele>2644.1999511719</ele>
        <time>2022-12-17T11:30:22.000Z</time>
      </trkpt>
      <trkpt lat="45.19332" lon="6.37364">
        <ele>2644.3999023438</ele>
        <time>2022-12-17T11:30:24.000Z</time>
      </trkpt>
      <trkpt lat="45.19332" lon="6.37362">
        <ele>2644.6000976562</ele>
        <time>2022-12-17T11:30:26.000Z</time>
      </trkpt>
      <trkpt lat="45.19333" lon="6.37361">
        <ele>2645</ele>
        <time>2022-12-17T11:30:29.000Z</time>
      </trkpt>
      <trkpt lat="45.19334" lon="6.37356">
        <ele>2646.1999511719</ele>
        <time>2022-12-17T11:30:35.000Z</time>
      </trkpt>
      <trkpt lat="45.19335" lon="6.37353">
        <ele>2646.6000976562</ele>
        <time>2022-12-17T11:30:40.000Z</time>
      </trkpt>
      <trkpt lat="45.19335" lon="6.37352">
        <ele>2647</ele>
        <time>2022-12-17T11:30:44.000Z</time>
      </trkpt>
      <trkpt lat="45.19335" lon="6.37352">
        <ele>2647.1999511719</ele>
        <time>2022-12-17T11:30:45.000Z</time>
      </trkpt>
      <trkpt lat="45.19336" lon="6.37351">
        <ele>2647.8000488281</ele>
        <time>2022-12-17T11:30:48.000Z</time>
      </trkpt>
      <trkpt lat="45.19336" lon="6.37351">
        <ele>2648</ele>
        <time>2022-12-17T11:30:50.000Z</time>
      </trkpt>
      <trkpt lat="45.19336" lon="6.37351">
        <ele>2648.1999511719</ele>
        <time>2022-12-17T11:30:52.000Z</time>
      </trkpt>
      <trkpt lat="45.19332" lon="6.3735">
        <ele>2649.1999511719</ele>
        <time>2022-12-17T11:31:00.000Z</time>
      </trkpt>
      <trkpt lat="45.19332" lon="6.3735">
        <ele>2649.3999023438</ele>
        <time>2022-12-17T11:31:01.000Z</time>
      </trkpt>
      <trkpt lat="45.19327" lon="6.37349">
        <ele>2650.3999023438</ele>
        <time>2022-12-17T11:31:10.000Z</time>
      </trkpt>
      <trkpt lat="45.19325" lon="6.37349">
        <ele>2651.1999511719</ele>
        <time>2022-12-17T11:31:15.000Z</time>
      </trkpt>
      <trkpt lat="45.19324" lon="6.37349">
        <ele>2651.3999023438</ele>
        <time>2022-12-17T11:31:16.000Z</time>
      </trkpt>
      <trkpt lat="45.19324" lon="6.37349">
        <ele>2651.3999023438</ele>
        <time>2022-12-17T11:31:17.000Z</time>
      </trkpt>
      <trkpt lat="45.19323" lon="6.37347">
        <ele>2651.8000488281</ele>
        <time>2022-12-17T11:31:20.000Z</time>
      </trkpt>
      <trkpt lat="45.19322" lon="6.37347">
        <ele>2652.1999511719</ele>
        <time>2022-12-17T11:31:22.000Z</time>
      </trkpt>
      <trkpt lat="45.19322" lon="6.37347">
        <ele>2652.6000976562</ele>
        <time>2022-12-17T11:31:25.000Z</time>
      </trkpt>
      <trkpt lat="45.1932" lon="6.37347">
        <ele>2653.1999511719</ele>
        <time>2022-12-17T11:31:29.000Z</time>
      </trkpt>
      <trkpt lat="45.1932" lon="6.37347">
        <ele>2653.3999023438</ele>
        <time>2022-12-17T11:31:30.000Z</time>
      </trkpt>
      <trkpt lat="45.19319" lon="6.37348">
        <ele>2653.6000976562</ele>
        <time>2022-12-17T11:31:33.000Z</time>
      </trkpt>
      <trkpt lat="45.19317" lon="6.37347">
        <ele>2654.1999511719</ele>
        <time>2022-12-17T11:31:38.000Z</time>
      </trkpt>
      <trkpt lat="45.19315" lon="6.37346">
        <ele>2654.6000976562</ele>
        <time>2022-12-17T11:31:41.000Z</time>
      </trkpt>
      <trkpt lat="45.19315" lon="6.37346">
        <ele>2654.8000488281</ele>
        <time>2022-12-17T11:31:42.000Z</time>
      </trkpt>
      <trkpt lat="45.19314" lon="6.37345">
        <ele>2654.8000488281</ele>
        <time>2022-12-17T11:31:43.000Z</time>
      </trkpt>
      <trkpt lat="45.19313" lon="6.37346">
        <ele>2655</ele>
        <time>2022-12-17T11:31:46.000Z</time>
      </trkpt>
      <trkpt lat="45.19311" lon="6.37345">
        <ele>2655.8000488281</ele>
        <time>2022-12-17T11:31:50.000Z</time>
      </trkpt>
      <trkpt lat="45.19309" lon="6.37344">
        <ele>2656.3999023438</ele>
        <time>2022-12-17T11:31:56.000Z</time>
      </trkpt>
      <trkpt lat="45.19309" lon="6.37343">
        <ele>2656.8000488281</ele>
        <time>2022-12-17T11:31:57.000Z</time>
      </trkpt>
      <trkpt lat="45.19309" lon="6.37343">
        <ele>2657</ele>
        <time>2022-12-17T11:31:58.000Z</time>
      </trkpt>
      <trkpt lat="45.19308" lon="6.37343">
        <ele>2657.8000488281</ele>
        <time>2022-12-17T11:32:04.000Z</time>
      </trkpt>
      <trkpt lat="45.19307" lon="6.37342">
        <ele>2658</ele>
        <time>2022-12-17T11:32:05.000Z</time>
      </trkpt>
      <trkpt lat="45.19307" lon="6.37342">
        <ele>2658</ele>
        <time>2022-12-17T11:32:06.000Z</time>
      </trkpt>
      <trkpt lat="45.19306" lon="6.37342">
        <ele>2658.1999511719</ele>
        <time>2022-12-17T11:32:08.000Z</time>
      </trkpt>
      <trkpt lat="45.19306" lon="6.37341">
        <ele>2658.3999023438</ele>
        <time>2022-12-17T11:32:09.000Z</time>
      </trkpt>
      <trkpt lat="45.19305" lon="6.3734">
        <ele>2658.8000488281</ele>
        <time>2022-12-17T11:32:12.000Z</time>
      </trkpt>
      <trkpt lat="45.19302" lon="6.3734">
        <ele>2659.6000976562</ele>
        <time>2022-12-17T11:32:18.000Z</time>
      </trkpt>
      <trkpt lat="45.19301" lon="6.37339">
        <ele>2660</ele>
        <time>2022-12-17T11:32:21.000Z</time>
      </trkpt>
      <trkpt lat="45.19298" lon="6.37337">
        <ele>2660.8000488281</ele>
        <time>2022-12-17T11:32:27.000Z</time>
      </trkpt>
      <trkpt lat="45.19297" lon="6.37336">
        <ele>2661.1999511719</ele>
        <time>2022-12-17T11:32:30.000Z</time>
      </trkpt>
      <trkpt lat="45.19295" lon="6.37334">
        <ele>2662</ele>
        <time>2022-12-17T11:32:36.000Z</time>
      </trkpt>
      <trkpt lat="45.19295" lon="6.37334">
        <ele>2662.1999511719</ele>
        <time>2022-12-17T11:32:37.000Z</time>
      </trkpt>
      <trkpt lat="45.19295" lon="6.37332">
        <ele>2662.3999023438</ele>
        <time>2022-12-17T11:32:39.000Z</time>
      </trkpt>
      <trkpt lat="45.19294" lon="6.37332">
        <ele>2662.6000976562</ele>
        <time>2022-12-17T11:32:41.000Z</time>
      </trkpt>
      <trkpt lat="45.19291" lon="6.37331">
        <ele>2663.3999023438</ele>
        <time>2022-12-17T11:32:46.000Z</time>
      </trkpt>
      <trkpt lat="45.19288" lon="6.37328">
        <ele>2664.3999023438</ele>
        <time>2022-12-17T11:32:54.000Z</time>
      </trkpt>
      <trkpt lat="45.19287" lon="6.37327">
        <ele>2664.8000488281</ele>
        <time>2022-12-17T11:32:57.000Z</time>
      </trkpt>
      <trkpt lat="45.19288" lon="6.37323">
        <ele>2665.6000976562</ele>
        <time>2022-12-17T11:33:03.000Z</time>
      </trkpt>
      <trkpt lat="45.19288" lon="6.37321">
        <ele>2666</ele>
        <time>2022-12-17T11:33:06.000Z</time>
      </trkpt>
      <trkpt lat="45.1929" lon="6.3732">
        <ele>2666.6000976562</ele>
        <time>2022-12-17T11:33:11.000Z</time>
      </trkpt>
      <trkpt lat="45.19292" lon="6.37318">
        <ele>2667.3999023438</ele>
        <time>2022-12-17T11:33:16.000Z</time>
      </trkpt>
      <trkpt lat="45.19293" lon="6.37317">
        <ele>2667.8000488281</ele>
        <time>2022-12-17T11:33:18.000Z</time>
      </trkpt>
      <trkpt lat="45.19295" lon="6.37314">
        <ele>2668.8000488281</ele>
        <time>2022-12-17T11:33:27.000Z</time>
      </trkpt>
      <trkpt lat="45.19298" lon="6.37311">
        <ele>2670</ele>
        <time>2022-12-17T11:33:34.000Z</time>
      </trkpt>
      <trkpt lat="45.193" lon="6.37309">
        <ele>2670.3999023438</ele>
        <time>2022-12-17T11:33:39.000Z</time>
      </trkpt>
      <trkpt lat="45.19302" lon="6.37308">
        <ele>2671</ele>
        <time>2022-12-17T11:33:44.000Z</time>
      </trkpt>
      <trkpt lat="45.19303" lon="6.37306">
        <ele>2671.8000488281</ele>
        <time>2022-12-17T11:33:50.000Z</time>
      </trkpt>
      <trkpt lat="45.19304" lon="6.37305">
        <ele>2672.1999511719</ele>
        <time>2022-12-17T11:33:53.000Z</time>
      </trkpt>
      <trkpt lat="45.19306" lon="6.37301">
        <ele>2673.1999511719</ele>
        <time>2022-12-17T11:34:01.000Z</time>
      </trkpt>
      <trkpt lat="45.19307" lon="6.37301">
        <ele>2673.1999511719</ele>
        <time>2022-12-17T11:34:02.000Z</time>
      </trkpt>
      <trkpt lat="45.19306" lon="6.37301">
        <ele>2673.3999023438</ele>
        <time>2022-12-17T11:34:10.000Z</time>
      </trkpt>
      <trkpt lat="45.19306" lon="6.37301">
        <ele>2673.3999023438</ele>
        <time>2022-12-17T11:34:11.000Z</time>
      </trkpt>
      <trkpt lat="45.19304" lon="6.373">
        <ele>2674.1999511719</ele>
        <time>2022-12-17T11:34:19.000Z</time>
      </trkpt>
      <trkpt lat="45.19304" lon="6.373">
        <ele>2674.3999023438</ele>
        <time>2022-12-17T11:34:20.000Z</time>
      </trkpt>
      <trkpt lat="45.19302" lon="6.37299">
        <ele>2674.8000488281</ele>
        <time>2022-12-17T11:34:24.000Z</time>
      </trkpt>
      <trkpt lat="45.19301" lon="6.37298">
        <ele>2675</ele>
        <time>2022-12-17T11:34:26.000Z</time>
      </trkpt>
      <trkpt lat="45.193" lon="6.37297">
        <ele>2675.6000976562</ele>
        <time>2022-12-17T11:34:29.000Z</time>
      </trkpt>
      <trkpt lat="45.19298" lon="6.37295">
        <ele>2676.1999511719</ele>
        <time>2022-12-17T11:34:33.000Z</time>
      </trkpt>
      <trkpt lat="45.19297" lon="6.37292">
        <ele>2676.6000976562</ele>
        <time>2022-12-17T11:34:38.000Z</time>
      </trkpt>
      <trkpt lat="45.19297" lon="6.37292">
        <ele>2676.8000488281</ele>
        <time>2022-12-17T11:34:39.000Z</time>
      </trkpt>
      <trkpt lat="45.19296" lon="6.37292">
        <ele>2677.1999511719</ele>
        <time>2022-12-17T11:34:41.000Z</time>
      </trkpt>
      <trkpt lat="45.19295" lon="6.3729">
        <ele>2677.6000976562</ele>
        <time>2022-12-17T11:34:44.000Z</time>
      </trkpt>
      <trkpt lat="45.19295" lon="6.37289">
        <ele>2677.8000488281</ele>
        <time>2022-12-17T11:34:45.000Z</time>
      </trkpt>
      <trkpt lat="45.19293" lon="6.37287">
        <ele>2678.1999511719</ele>
        <time>2022-12-17T11:34:49.000Z</time>
      </trkpt>
      <trkpt lat="45.19292" lon="6.37287">
        <ele>2678.8000488281</ele>
        <time>2022-12-17T11:34:52.000Z</time>
      </trkpt>
      <trkpt lat="45.19291" lon="6.37285">
        <ele>2679.1999511719</ele>
        <time>2022-12-17T11:34:57.000Z</time>
      </trkpt>
      <trkpt lat="45.1929" lon="6.37285">
        <ele>2679.1999511719</ele>
        <time>2022-12-17T11:34:58.000Z</time>
      </trkpt>
      <trkpt lat="45.19289" lon="6.37284">
        <ele>2679.8000488281</ele>
        <time>2022-12-17T11:35:01.000Z</time>
      </trkpt>
      <trkpt lat="45.19287" lon="6.37281">
        <ele>2680.8000488281</ele>
        <time>2022-12-17T11:35:08.000Z</time>
      </trkpt>
      <trkpt lat="45.19286" lon="6.37279">
        <ele>2681</ele>
        <time>2022-12-17T11:35:11.000Z</time>
      </trkpt>
      <trkpt lat="45.19286" lon="6.37279">
        <ele>2681.1999511719</ele>
        <time>2022-12-17T11:35:12.000Z</time>
      </trkpt>
      <trkpt lat="45.19284" lon="6.37276">
        <ele>2681.8000488281</ele>
        <time>2022-12-17T11:35:21.000Z</time>
      </trkpt>
      <trkpt lat="45.19284" lon="6.37276">
        <ele>2682</ele>
        <time>2022-12-17T11:35:22.000Z</time>
      </trkpt>
      <trkpt lat="45.19284" lon="6.37275">
        <ele>2682.6000976562</ele>
        <time>2022-12-17T11:35:32.000Z</time>
      </trkpt>
      <trkpt lat="45.19284" lon="6.37275">
        <ele>2682.1999511719</ele>
        <time>2022-12-17T11:35:42.000Z</time>
      </trkpt>
      <trkpt lat="45.19284" lon="6.37275">
        <ele>2682.1999511719</ele>
        <time>2022-12-17T11:35:46.000Z</time>
      </trkpt>
      <trkpt lat="45.19283" lon="6.37276">
        <ele>2682.1999511719</ele>
        <time>2022-12-17T11:36:01.000Z</time>
      </trkpt>
      <trkpt lat="45.19283" lon="6.37276">
        <ele>2682.1999511719</ele>
        <time>2022-12-17T11:36:03.000Z</time>
      </trkpt>
      <trkpt lat="45.19283" lon="6.37276">
        <ele>2682</ele>
        <time>2022-12-17T11:36:05.000Z</time>
      </trkpt>
      <trkpt lat="45.19284" lon="6.37276">
        <ele>2683</ele>
        <time>2022-12-17T11:36:25.000Z</time>
      </trkpt>
      <trkpt lat="45.19284" lon="6.37275">
        <ele>2684</ele>
        <time>2022-12-17T11:36:33.000Z</time>
      </trkpt>
      <trkpt lat="45.19288" lon="6.37274">
        <ele>2685.1999511719</ele>
        <time>2022-12-17T11:36:41.000Z</time>
      </trkpt>
      <trkpt lat="45.19293" lon="6.37272">
        <ele>2686.1999511719</ele>
        <time>2022-12-17T11:36:52.000Z</time>
      </trkpt>
      <trkpt lat="45.19295" lon="6.37269">
        <ele>2687.1999511719</ele>
        <time>2022-12-17T11:37:00.000Z</time>
      </trkpt>
      <trkpt lat="45.19299" lon="6.37265">
        <ele>2688.3999023438</ele>
        <time>2022-12-17T11:37:12.000Z</time>
      </trkpt>
      <trkpt lat="45.19303" lon="6.37262">
        <ele>2689.6000976562</ele>
        <time>2022-12-17T11:37:19.000Z</time>
      </trkpt>
      <trkpt lat="45.19308" lon="6.37257">
        <ele>2690.8000488281</ele>
        <time>2022-12-17T11:37:33.000Z</time>
      </trkpt>
      <trkpt lat="45.19309" lon="6.37255">
        <ele>2691.8000488281</ele>
        <time>2022-12-17T11:37:40.000Z</time>
      </trkpt>
      <trkpt lat="45.19309" lon="6.37254">
        <ele>2692.3999023438</ele>
        <time>2022-12-17T11:37:44.000Z</time>
      </trkpt>
      <trkpt lat="45.19309" lon="6.37254">
        <ele>2692.6000976562</ele>
        <time>2022-12-17T11:37:45.000Z</time>
      </trkpt>
      <trkpt lat="45.19309" lon="6.37253">
        <ele>2692.8000488281</ele>
        <time>2022-12-17T11:37:47.000Z</time>
      </trkpt>
      <trkpt lat="45.19308" lon="6.37251">
        <ele>2694</ele>
        <time>2022-12-17T11:37:53.000Z</time>
      </trkpt>
      <trkpt lat="45.19302" lon="6.37241">
        <ele>2694.3999023438</ele>
        <time>2022-12-17T11:38:22.000Z</time>
      </trkpt>
      <trkpt lat="45.19302" lon="6.3724">
        <ele>2694.3999023438</ele>
        <time>2022-12-17T11:38:32.000Z</time>
      </trkpt>
      <trkpt lat="45.19302" lon="6.3724">
        <ele>2693.8000488281</ele>
        <time>2022-12-17T11:38:45.000Z</time>
      </trkpt>
      <trkpt lat="45.19302" lon="6.3724">
        <ele>2693.8000488281</ele>
        <time>2022-12-17T11:38:50.000Z</time>
      </trkpt>
      <trkpt lat="45.19302" lon="6.3724">
        <ele>2693.8000488281</ele>
        <time>2022-12-17T11:38:53.000Z</time>
      </trkpt>
      <trkpt lat="45.19302" lon="6.3724">
        <ele>2693.8000488281</ele>
        <time>2022-12-17T11:38:56.000Z</time>
      </trkpt>
      <trkpt lat="45.19302" lon="6.3724">
        <ele>2694.6000976562</ele>
        <time>2022-12-17T11:39:08.000Z</time>
      </trkpt>
      <trkpt lat="45.19302" lon="6.3724">
        <ele>2694.6000976562</ele>
        <time>2022-12-17T11:39:56.000Z</time>
      </trkpt>
      <trkpt lat="45.19302" lon="6.3724">
        <ele>2694.6000976562</ele>
        <time>2022-12-17T11:40:33.000Z</time>
      </trkpt>
      <trkpt lat="45.19302" lon="6.3724">
        <ele>2694.6000976562</ele>
        <time>2022-12-17T11:40:36.000Z</time>
      </trkpt>
      <trkpt lat="45.19302" lon="6.3724">
        <ele>2694.6000976562</ele>
        <time>2022-12-17T11:40:50.000Z</time>
      </trkpt>
      <trkpt lat="45.19302" lon="6.3724">
        <ele>2694.6000976562</ele>
        <time>2022-12-17T11:41:03.000Z</time>
      </trkpt>
      <trkpt lat="45.19302" lon="6.3724">
        <ele>2694.6000976562</ele>
        <time>2022-12-17T11:41:05.000Z</time>
      </trkpt>
      <trkpt lat="45.19302" lon="6.3724">
        <ele>2694.6000976562</ele>
        <time>2022-12-17T11:41:47.000Z</time>
      </trkpt>
      <trkpt lat="45.19302" lon="6.3724">
        <ele>2694.6000976562</ele>
        <time>2022-12-17T11:41:53.000Z</time>
      </trkpt>
      <trkpt lat="45.19302" lon="6.37239">
        <ele>2694.6000976562</ele>
        <time>2022-12-17T11:42:10.000Z</time>
      </trkpt>
      <trkpt lat="45.19302" lon="6.37239">
        <ele>2694.6000976562</ele>
        <time>2022-12-17T11:42:16.000Z</time>
      </trkpt>
      <trkpt lat="45.19302" lon="6.37239">
        <ele>2694.6000976562</ele>
        <time>2022-12-17T11:42:29.000Z</time>
      </trkpt>
      <trkpt lat="45.19302" lon="6.37239">
        <ele>2694.6000976562</ele>
        <time>2022-12-17T11:42:44.000Z</time>
      </trkpt>
      <trkpt lat="45.19302" lon="6.37239">
        <ele>2694.6000976562</ele>
        <time>2022-12-17T11:43:05.000Z</time>
      </trkpt>
      <trkpt lat="45.19302" lon="6.37239">
        <ele>2694.6000976562</ele>
        <time>2022-12-17T11:43:08.000Z</time>
      </trkpt>
      <trkpt lat="45.19302" lon="6.37239">
        <ele>2694.6000976562</ele>
        <time>2022-12-17T11:43:14.000Z</time>
      </trkpt>
      <trkpt lat="45.19302" lon="6.37239">
        <ele>2694.6000976562</ele>
        <time>2022-12-17T11:43:22.000Z</time>
      </trkpt>
      <trkpt lat="45.19302" lon="6.37239">
        <ele>2694.6000976562</ele>
        <time>2022-12-17T11:43:54.000Z</time>
      </trkpt>
      <trkpt lat="45.19302" lon="6.37239">
        <ele>2694.6000976562</ele>
        <time>2022-12-17T11:44:27.000Z</time>
      </trkpt>
      <trkpt lat="45.19303" lon="6.37237">
        <ele>2694.6000976562</ele>
        <time>2022-12-17T11:45:10.000Z</time>
      </trkpt>
      <trkpt lat="45.19305" lon="6.37233">
        <ele>2694.6000976562</ele>
        <time>2022-12-17T11:45:13.000Z</time>
      </trkpt>
      <trkpt lat="45.19308" lon="6.37228">
        <ele>2693.8000488281</ele>
        <time>2022-12-17T11:45:16.000Z</time>
      </trkpt>
      <trkpt lat="45.19309" lon="6.37226">
        <ele>2694</ele>
        <time>2022-12-17T11:45:18.000Z</time>
      </trkpt>
      <trkpt lat="45.19309" lon="6.37224">
        <ele>2694.1999511719</ele>
        <time>2022-12-17T11:45:20.000Z</time>
      </trkpt>
      <trkpt lat="45.19309" lon="6.37221">
        <ele>2695</ele>
        <time>2022-12-17T11:45:26.000Z</time>
      </trkpt>
      <trkpt lat="45.19309" lon="6.37219">
        <ele>2695.1999511719</ele>
        <time>2022-12-17T11:45:28.000Z</time>
      </trkpt>
      <trkpt lat="45.19309" lon="6.37216">
        <ele>2695.6000976562</ele>
        <time>2022-12-17T11:45:31.000Z</time>
      </trkpt>
      <trkpt lat="45.19308" lon="6.37214">
        <ele>2696.1999511719</ele>
        <time>2022-12-17T11:45:34.000Z</time>
      </trkpt>
      <trkpt lat="45.19309" lon="6.37209">
        <ele>2697</ele>
        <time>2022-12-17T11:45:39.000Z</time>
      </trkpt>
      <trkpt lat="45.19309" lon="6.37209">
        <ele>2697.1999511719</ele>
        <time>2022-12-17T11:45:40.000Z</time>
      </trkpt>
      <trkpt lat="45.19308" lon="6.37207">
        <ele>2697.1999511719</ele>
        <time>2022-12-17T11:45:42.000Z</time>
      </trkpt>
      <trkpt lat="45.19307" lon="6.37205">
        <ele>2697.3999023438</ele>
        <time>2022-12-17T11:45:44.000Z</time>
      </trkpt>
      <trkpt lat="45.19305" lon="6.37201">
        <ele>2697.6000976562</ele>
        <time>2022-12-17T11:45:48.000Z</time>
      </trkpt>
      <trkpt lat="45.19303" lon="6.37197">
        <ele>2697.6000976562</ele>
        <time>2022-12-17T11:45:52.000Z</time>
      </trkpt>
      <trkpt lat="45.19299" lon="6.37189">
        <ele>2697.3999023438</ele>
        <time>2022-12-17T11:45:59.000Z</time>
      </trkpt>
      <trkpt lat="45.19297" lon="6.37184">
        <ele>2698.1999511719</ele>
        <time>2022-12-17T11:46:05.000Z</time>
      </trkpt>
      <trkpt lat="45.19296" lon="6.37183">
        <ele>2698.1999511719</ele>
        <time>2022-12-17T11:46:06.000Z</time>
      </trkpt>
      <trkpt lat="45.19295" lon="6.37181">
        <ele>2698.3999023438</ele>
        <time>2022-12-17T11:46:08.000Z</time>
      </trkpt>
      <trkpt lat="45.19294" lon="6.37178">
        <ele>2699.1999511719</ele>
        <time>2022-12-17T11:46:13.000Z</time>
      </trkpt>
      <trkpt lat="45.19294" lon="6.37177">
        <ele>2699.3999023438</ele>
        <time>2022-12-17T11:46:14.000Z</time>
      </trkpt>
      <trkpt lat="45.19294" lon="6.37177">
        <ele>2699.3999023438</ele>
        <time>2022-12-17T11:46:15.000Z</time>
      </trkpt>
      <trkpt lat="45.19292" lon="6.37174">
        <ele>2700.6000976562</ele>
        <time>2022-12-17T11:46:21.000Z</time>
      </trkpt>
      <trkpt lat="45.19292" lon="6.37173">
        <ele>2700.8000488281</ele>
        <time>2022-12-17T11:46:22.000Z</time>
      </trkpt>
      <trkpt lat="45.19291" lon="6.37169">
        <ele>2701.8000488281</ele>
        <time>2022-12-17T11:46:29.000Z</time>
      </trkpt>
      <trkpt lat="45.1929" lon="6.37167">
        <ele>2702.1999511719</ele>
        <time>2022-12-17T11:46:31.000Z</time>
      </trkpt>
      <trkpt lat="45.1929" lon="6.37163">
        <ele>2703</ele>
        <time>2022-12-17T11:46:37.000Z</time>
      </trkpt>
      <trkpt lat="45.19289" lon="6.37163">
        <ele>2703.1999511719</ele>
        <time>2022-12-17T11:46:38.000Z</time>
      </trkpt>
      <trkpt lat="45.19289" lon="6.37159">
        <ele>2704</ele>
        <time>2022-12-17T11:46:43.000Z</time>
      </trkpt>
      <trkpt lat="45.19289" lon="6.37157">
        <ele>2704.6000976562</ele>
        <time>2022-12-17T11:46:46.000Z</time>
      </trkpt>
      <trkpt lat="45.19288" lon="6.37155">
        <ele>2705</ele>
        <time>2022-12-17T11:46:49.000Z</time>
      </trkpt>
      <trkpt lat="45.19287" lon="6.37151">
        <ele>2705.8000488281</ele>
        <time>2022-12-17T11:46:55.000Z</time>
      </trkpt>
      <trkpt lat="45.19286" lon="6.3715">
        <ele>2706.1999511719</ele>
        <time>2022-12-17T11:46:57.000Z</time>
      </trkpt>
      <trkpt lat="45.19286" lon="6.37145">
        <ele>2707.1999511719</ele>
        <time>2022-12-17T11:47:03.000Z</time>
      </trkpt>
      <trkpt lat="45.19285" lon="6.37144">
        <ele>2707.6000976562</ele>
        <time>2022-12-17T11:47:05.000Z</time>
      </trkpt>
      <trkpt lat="45.19286" lon="6.37141">
        <ele>2708</ele>
        <time>2022-12-17T11:47:09.000Z</time>
      </trkpt>
      <trkpt lat="45.19285" lon="6.37139">
        <ele>2708.3999023438</ele>
        <time>2022-12-17T11:47:13.000Z</time>
      </trkpt>
      <trkpt lat="45.19286" lon="6.37138">
        <ele>2708.6000976562</ele>
        <time>2022-12-17T11:47:14.000Z</time>
      </trkpt>
      <trkpt lat="45.19286" lon="6.37135">
        <ele>2709.6000976562</ele>
        <time>2022-12-17T11:47:20.000Z</time>
      </trkpt>
      <trkpt lat="45.19287" lon="6.37135">
        <ele>2709.6000976562</ele>
        <time>2022-12-17T11:47:21.000Z</time>
      </trkpt>
      <trkpt lat="45.19289" lon="6.37134">
        <ele>2710.3999023438</ele>
        <time>2022-12-17T11:47:26.000Z</time>
      </trkpt>
      <trkpt lat="45.19289" lon="6.37134">
        <ele>2710.6000976562</ele>
        <time>2022-12-17T11:47:27.000Z</time>
      </trkpt>
      <trkpt lat="45.1929" lon="6.37133">
        <ele>2711</ele>
        <time>2022-12-17T11:47:29.000Z</time>
      </trkpt>
      <trkpt lat="45.19291" lon="6.37133">
        <ele>2711.3999023438</ele>
        <time>2022-12-17T11:47:33.000Z</time>
      </trkpt>
      <trkpt lat="45.19292" lon="6.37134">
        <ele>2711.8000488281</ele>
        <time>2022-12-17T11:47:36.000Z</time>
      </trkpt>
      <trkpt lat="45.19295" lon="6.37137">
        <ele>2712.8000488281</ele>
        <time>2022-12-17T11:47:44.000Z</time>
      </trkpt>
      <trkpt lat="45.19296" lon="6.37136">
        <ele>2713</ele>
        <time>2022-12-17T11:47:45.000Z</time>
      </trkpt>
      <trkpt lat="45.19297" lon="6.37137">
        <ele>2713.6000976562</ele>
        <time>2022-12-17T11:47:49.000Z</time>
      </trkpt>
      <trkpt lat="45.19298" lon="6.37137">
        <ele>2714</ele>
        <time>2022-12-17T11:47:52.000Z</time>
      </trkpt>
      <trkpt lat="45.193" lon="6.37136">
        <ele>2714</ele>
        <time>2022-12-17T11:47:53.000Z</time>
      </trkpt>
      <trkpt lat="45.193" lon="6.37137">
        <ele>2714.1999511719</ele>
        <time>2022-12-17T11:47:56.000Z</time>
      </trkpt>
      <trkpt lat="45.19299" lon="6.37136">
        <ele>2714.6000976562</ele>
        <time>2022-12-17T11:48:02.000Z</time>
      </trkpt>
      <trkpt lat="45.19298" lon="6.37134">
        <ele>2714.8000488281</ele>
        <time>2022-12-17T11:48:05.000Z</time>
      </trkpt>
      <trkpt lat="45.19298" lon="6.37133">
        <ele>2715</ele>
        <time>2022-12-17T11:48:07.000Z</time>
      </trkpt>
      <trkpt lat="45.19297" lon="6.37131">
        <ele>2715.1999511719</ele>
        <time>2022-12-17T11:48:09.000Z</time>
      </trkpt>
      <trkpt lat="45.19297" lon="6.37128">
        <ele>2716</ele>
        <time>2022-12-17T11:48:15.000Z</time>
      </trkpt>
      <trkpt lat="45.19297" lon="6.37126">
        <ele>2716.1999511719</ele>
        <time>2022-12-17T11:48:17.000Z</time>
      </trkpt>
      <trkpt lat="45.19297" lon="6.37126">
        <ele>2716.3999023438</ele>
        <time>2022-12-17T11:48:18.000Z</time>
      </trkpt>
      <trkpt lat="45.19297" lon="6.37126">
        <ele>2716.8000488281</ele>
        <time>2022-12-17T11:48:22.000Z</time>
      </trkpt>
      <trkpt lat="45.19298" lon="6.37126">
        <ele>2717.1999511719</ele>
        <time>2022-12-17T11:48:26.000Z</time>
      </trkpt>
      <trkpt lat="45.193" lon="6.37128">
        <ele>2717.8000488281</ele>
        <time>2022-12-17T11:48:31.000Z</time>
      </trkpt>
      <trkpt lat="45.19303" lon="6.3713">
        <ele>2718.3999023438</ele>
        <time>2022-12-17T11:48:35.000Z</time>
      </trkpt>
      <trkpt lat="45.19304" lon="6.37129">
        <ele>2718.3999023438</ele>
        <time>2022-12-17T11:48:36.000Z</time>
      </trkpt>
      <trkpt lat="45.19307" lon="6.3713">
        <ele>2719.1999511719</ele>
        <time>2022-12-17T11:48:44.000Z</time>
      </trkpt>
      <trkpt lat="45.19307" lon="6.3713">
        <ele>2719.3999023438</ele>
        <time>2022-12-17T11:48:45.000Z</time>
      </trkpt>
      <trkpt lat="45.19309" lon="6.37131">
        <ele>2719.8000488281</ele>
        <time>2022-12-17T11:48:48.000Z</time>
      </trkpt>
      <trkpt lat="45.1931" lon="6.3713">
        <ele>2720.1999511719</ele>
        <time>2022-12-17T11:48:51.000Z</time>
      </trkpt>
      <trkpt lat="45.19311" lon="6.3713">
        <ele>2720.6000976562</ele>
        <time>2022-12-17T11:48:54.000Z</time>
      </trkpt>
      <trkpt lat="45.19312" lon="6.3713">
        <ele>2720.8000488281</ele>
        <time>2022-12-17T11:48:55.000Z</time>
      </trkpt>
      <trkpt lat="45.19311" lon="6.37129">
        <ele>2721.1999511719</ele>
        <time>2022-12-17T11:49:03.000Z</time>
      </trkpt>
      <trkpt lat="45.19311" lon="6.37129">
        <ele>2721.1999511719</ele>
        <time>2022-12-17T11:49:04.000Z</time>
      </trkpt>
      <trkpt lat="45.19312" lon="6.37128">
        <ele>2721.3999023438</ele>
        <time>2022-12-17T11:49:06.000Z</time>
      </trkpt>
      <trkpt lat="45.19312" lon="6.37127">
        <ele>2721.6000976562</ele>
        <time>2022-12-17T11:49:07.000Z</time>
      </trkpt>
      <trkpt lat="45.19312" lon="6.37128">
        <ele>2721.8000488281</ele>
        <time>2022-12-17T11:49:08.000Z</time>
      </trkpt>
      <trkpt lat="45.19312" lon="6.37126">
        <ele>2722.3999023438</ele>
        <time>2022-12-17T11:49:13.000Z</time>
      </trkpt>
      <trkpt lat="45.19311" lon="6.37124">
        <ele>2723</ele>
        <time>2022-12-17T11:49:17.000Z</time>
      </trkpt>
      <trkpt lat="45.19311" lon="6.37122">
        <ele>2723.3999023438</ele>
        <time>2022-12-17T11:49:20.000Z</time>
      </trkpt>
      <trkpt lat="45.1931" lon="6.3712">
        <ele>2724</ele>
        <time>2022-12-17T11:49:24.000Z</time>
      </trkpt>
      <trkpt lat="45.1931" lon="6.37117">
        <ele>2724.6000976562</ele>
        <time>2022-12-17T11:49:29.000Z</time>
      </trkpt>
      <trkpt lat="45.1931" lon="6.37116">
        <ele>2725</ele>
        <time>2022-12-17T11:49:31.000Z</time>
      </trkpt>
      <trkpt lat="45.19311" lon="6.37111">
        <ele>2725.8000488281</ele>
        <time>2022-12-17T11:49:38.000Z</time>
      </trkpt>
      <trkpt lat="45.19311" lon="6.37108">
        <ele>2726.1999511719</ele>
        <time>2022-12-17T11:49:43.000Z</time>
      </trkpt>
      <trkpt lat="45.19311" lon="6.37107">
        <ele>2726.3999023438</ele>
        <time>2022-12-17T11:49:44.000Z</time>
      </trkpt>
      <trkpt lat="45.19312" lon="6.37102">
        <ele>2727.1999511719</ele>
        <time>2022-12-17T11:49:52.000Z</time>
      </trkpt>
      <trkpt lat="45.19312" lon="6.37102">
        <ele>2727.3999023438</ele>
        <time>2022-12-17T11:49:53.000Z</time>
      </trkpt>
      <trkpt lat="45.19314" lon="6.37097">
        <ele>2728.1999511719</ele>
        <time>2022-12-17T11:49:59.000Z</time>
      </trkpt>
      <trkpt lat="45.19313" lon="6.37097">
        <ele>2728.3999023438</ele>
        <time>2022-12-17T11:50:00.000Z</time>
      </trkpt>
      <trkpt lat="45.19313" lon="6.37096">
        <ele>2728.3999023438</ele>
        <time>2022-12-17T11:50:01.000Z</time>
      </trkpt>
      <trkpt lat="45.19313" lon="6.37096">
        <ele>2728.3999023438</ele>
        <time>2022-12-17T11:50:02.000Z</time>
      </trkpt>
      <trkpt lat="45.19313" lon="6.37091">
        <ele>2729</ele>
        <time>2022-12-17T11:50:09.000Z</time>
      </trkpt>
      <trkpt lat="45.19314" lon="6.37089">
        <ele>2729.3999023438</ele>
        <time>2022-12-17T11:50:13.000Z</time>
      </trkpt>
      <trkpt lat="45.19314" lon="6.37085">
        <ele>2730</ele>
        <time>2022-12-17T11:50:18.000Z</time>
      </trkpt>
      <trkpt lat="45.19314" lon="6.37084">
        <ele>2730.1999511719</ele>
        <time>2022-12-17T11:50:19.000Z</time>
      </trkpt>
      <trkpt lat="45.19314" lon="6.37084">
        <ele>2730.3999023438</ele>
        <time>2022-12-17T11:50:21.000Z</time>
      </trkpt>
      <trkpt lat="45.19314" lon="6.37083">
        <ele>2730.6000976562</ele>
        <time>2022-12-17T11:50:22.000Z</time>
      </trkpt>
      <trkpt lat="45.19314" lon="6.37082">
        <ele>2730.8000488281</ele>
        <time>2022-12-17T11:50:24.000Z</time>
      </trkpt>
      <trkpt lat="45.19313" lon="6.37082">
        <ele>2731.1999511719</ele>
        <time>2022-12-17T11:50:29.000Z</time>
      </trkpt>
      <trkpt lat="45.19313" lon="6.37078">
        <ele>2731.6000976562</ele>
        <time>2022-12-17T11:50:35.000Z</time>
      </trkpt>
      <trkpt lat="45.19313" lon="6.37076">
        <ele>2732.1999511719</ele>
        <time>2022-12-17T11:50:39.000Z</time>
      </trkpt>
      <trkpt lat="45.19311" lon="6.37074">
        <ele>2732.6000976562</ele>
        <time>2022-12-17T11:50:45.000Z</time>
      </trkpt>
      <trkpt lat="45.19312" lon="6.37071">
        <ele>2733.6000976562</ele>
        <time>2022-12-17T11:50:50.000Z</time>
      </trkpt>
      <trkpt lat="45.19311" lon="6.37069">
        <ele>2733.8000488281</ele>
        <time>2022-12-17T11:50:52.000Z</time>
      </trkpt>
      <trkpt lat="45.19311" lon="6.37069">
        <ele>2733.8000488281</ele>
        <time>2022-12-17T11:50:53.000Z</time>
      </trkpt>
      <trkpt lat="45.19312" lon="6.37068">
        <ele>2734.1999511719</ele>
        <time>2022-12-17T11:50:56.000Z</time>
      </trkpt>
      <trkpt lat="45.19312" lon="6.37068">
        <ele>2734.3999023438</ele>
        <time>2022-12-17T11:50:58.000Z</time>
      </trkpt>
      <trkpt lat="45.19312" lon="6.37069">
        <ele>2734.8000488281</ele>
        <time>2022-12-17T11:51:04.000Z</time>
      </trkpt>
      <trkpt lat="45.19312" lon="6.37069">
        <ele>2734.8000488281</ele>
        <time>2022-12-17T11:51:05.000Z</time>
      </trkpt>
      <trkpt lat="45.19312" lon="6.37069">
        <ele>2735.1999511719</ele>
        <time>2022-12-17T11:51:16.000Z</time>
      </trkpt>
      <trkpt lat="45.19315" lon="6.3707">
        <ele>2735.8000488281</ele>
        <time>2022-12-17T11:51:27.000Z</time>
      </trkpt>
      <trkpt lat="45.19315" lon="6.3707">
        <ele>2735.8000488281</ele>
        <time>2022-12-17T11:51:28.000Z</time>
      </trkpt>
      <trkpt lat="45.19316" lon="6.3707">
        <ele>2736.3999023438</ele>
        <time>2022-12-17T11:51:32.000Z</time>
      </trkpt>
      <trkpt lat="45.19316" lon="6.3707">
        <ele>2737.1999511719</ele>
        <time>2022-12-17T11:51:37.000Z</time>
      </trkpt>
      <trkpt lat="45.19316" lon="6.37069">
        <ele>2737.8000488281</ele>
        <time>2022-12-17T11:51:43.000Z</time>
      </trkpt>
      <trkpt lat="45.19316" lon="6.37068">
        <ele>2738.1999511719</ele>
        <time>2022-12-17T11:51:45.000Z</time>
      </trkpt>
      <trkpt lat="45.19315" lon="6.37059">
        <ele>2739.1999511719</ele>
        <time>2022-12-17T11:51:57.000Z</time>
      </trkpt>
      <trkpt lat="45.19315" lon="6.37058">
        <ele>2739.3999023438</ele>
        <time>2022-12-17T11:51:59.000Z</time>
      </trkpt>
      <trkpt lat="45.19314" lon="6.37055">
        <ele>2740.1999511719</ele>
        <time>2022-12-17T11:52:06.000Z</time>
      </trkpt>
      <trkpt lat="45.19314" lon="6.37052">
        <ele>2740.8000488281</ele>
        <time>2022-12-17T11:52:10.000Z</time>
      </trkpt>
      <trkpt lat="45.19313" lon="6.37043">
        <ele>2741.1999511719</ele>
        <time>2022-12-17T11:52:30.000Z</time>
      </trkpt>
      <trkpt lat="45.19313" lon="6.37041">
        <ele>2742</ele>
        <time>2022-12-17T11:52:34.000Z</time>
      </trkpt>
      <trkpt lat="45.19312" lon="6.3704">
        <ele>2742.3999023438</ele>
        <time>2022-12-17T11:52:38.000Z</time>
      </trkpt>
      <trkpt lat="45.19311" lon="6.37036">
        <ele>2743.3999023438</ele>
        <time>2022-12-17T11:52:49.000Z</time>
      </trkpt>
      <trkpt lat="45.1931" lon="6.37031">
        <ele>2744.6000976562</ele>
        <time>2022-12-17T11:52:57.000Z</time>
      </trkpt>
      <trkpt lat="45.1931" lon="6.37025">
        <ele>2745.6000976562</ele>
        <time>2022-12-17T11:53:06.000Z</time>
      </trkpt>
      <trkpt lat="45.1931" lon="6.37022">
        <ele>2746</ele>
        <time>2022-12-17T11:53:09.000Z</time>
      </trkpt>
      <trkpt lat="45.1931" lon="6.37018">
        <ele>2746.8000488281</ele>
        <time>2022-12-17T11:53:15.000Z</time>
      </trkpt>
      <trkpt lat="45.1931" lon="6.37011">
        <ele>2747.8000488281</ele>
        <time>2022-12-17T11:53:26.000Z</time>
      </trkpt>
      <trkpt lat="45.1931" lon="6.37007">
        <ele>2749</ele>
        <time>2022-12-17T11:53:33.000Z</time>
      </trkpt>
      <trkpt lat="45.19309" lon="6.36996">
        <ele>2750</ele>
        <time>2022-12-17T11:54:02.000Z</time>
      </trkpt>
      <trkpt lat="45.19309" lon="6.36996">
        <ele>2750</ele>
        <time>2022-12-17T11:54:04.000Z</time>
      </trkpt>
      <trkpt lat="45.19309" lon="6.36992">
        <ele>2750.8000488281</ele>
        <time>2022-12-17T11:54:08.000Z</time>
      </trkpt>
      <trkpt lat="45.19308" lon="6.36991">
        <ele>2751</ele>
        <time>2022-12-17T11:54:10.000Z</time>
      </trkpt>
      <trkpt lat="45.19306" lon="6.36985">
        <ele>2752.1999511719</ele>
        <time>2022-12-17T11:54:18.000Z</time>
      </trkpt>
      <trkpt lat="45.19308" lon="6.36982">
        <ele>2752.6000976562</ele>
        <time>2022-12-17T11:54:23.000Z</time>
      </trkpt>
      <trkpt lat="45.19308" lon="6.36981">
        <ele>2753</ele>
        <time>2022-12-17T11:54:25.000Z</time>
      </trkpt>
      <trkpt lat="45.19308" lon="6.3698">
        <ele>2753.1999511719</ele>
        <time>2022-12-17T11:54:26.000Z</time>
      </trkpt>
      <trkpt lat="45.19307" lon="6.36978">
        <ele>2754.1999511719</ele>
        <time>2022-12-17T11:54:33.000Z</time>
      </trkpt>
      <trkpt lat="45.19308" lon="6.36973">
        <ele>2755.3999023438</ele>
        <time>2022-12-17T11:54:40.000Z</time>
      </trkpt>
      <trkpt lat="45.19308" lon="6.36973">
        <ele>2755.6000976562</ele>
        <time>2022-12-17T11:54:41.000Z</time>
      </trkpt>
      <trkpt lat="45.19307" lon="6.3697">
        <ele>2756.6000976562</ele>
        <time>2022-12-17T11:54:46.000Z</time>
      </trkpt>
      <trkpt lat="45.19307" lon="6.36969">
        <ele>2756.8000488281</ele>
        <time>2022-12-17T11:54:49.000Z</time>
      </trkpt>
      <trkpt lat="45.19308" lon="6.36966">
        <ele>2757.6000976562</ele>
        <time>2022-12-17T11:54:55.000Z</time>
      </trkpt>
      <trkpt lat="45.19308" lon="6.36964">
        <ele>2758.3999023438</ele>
        <time>2022-12-17T11:54:59.000Z</time>
      </trkpt>
      <trkpt lat="45.19308" lon="6.36964">
        <ele>2758.6000976562</ele>
        <time>2022-12-17T11:55:00.000Z</time>
      </trkpt>
      <trkpt lat="45.19308" lon="6.36963">
        <ele>2758.8000488281</ele>
        <time>2022-12-17T11:55:06.000Z</time>
      </trkpt>
      <trkpt lat="45.19308" lon="6.36964">
        <ele>2758.6000976562</ele>
        <time>2022-12-17T11:55:23.000Z</time>
      </trkpt>
      <trkpt lat="45.19307" lon="6.36963">
        <ele>2758.8000488281</ele>
        <time>2022-12-17T11:55:29.000Z</time>
      </trkpt>
      <trkpt lat="45.19307" lon="6.36963">
        <ele>2759.6000976562</ele>
        <time>2022-12-17T11:55:35.000Z</time>
      </trkpt>
      <trkpt lat="45.19307" lon="6.36963">
        <ele>2759.8000488281</ele>
        <time>2022-12-17T11:55:41.000Z</time>
      </trkpt>
      <trkpt lat="45.19307" lon="6.36963">
        <ele>2759.8000488281</ele>
        <time>2022-12-17T11:55:43.000Z</time>
      </trkpt>
      <trkpt lat="45.19306" lon="6.3696">
        <ele>2760.1999511719</ele>
        <time>2022-12-17T11:56:04.000Z</time>
      </trkpt>
      <trkpt lat="45.19306" lon="6.3696">
        <ele>2760.1999511719</ele>
        <time>2022-12-17T11:56:06.000Z</time>
      </trkpt>
      <trkpt lat="45.19306" lon="6.36961">
        <ele>2760.6000976562</ele>
        <time>2022-12-17T11:56:15.000Z</time>
      </trkpt>
      <trkpt lat="45.19306" lon="6.36961">
        <ele>2760.8000488281</ele>
        <time>2022-12-17T11:56:20.000Z</time>
      </trkpt>
      <trkpt lat="45.19307" lon="6.36961">
        <ele>2761.3999023438</ele>
        <time>2022-12-17T11:57:00.000Z</time>
      </trkpt>
      <trkpt lat="45.19307" lon="6.36961">
        <ele>2761.6000976562</ele>
        <time>2022-12-17T11:57:04.000Z</time>
      </trkpt>
      <trkpt lat="45.19308" lon="6.3696">
        <ele>2761.6000976562</ele>
        <time>2022-12-17T11:58:01.000Z</time>
      </trkpt>
      <trkpt lat="45.19307" lon="6.36961">
        <ele>2761.8000488281</ele>
        <time>2022-12-17T11:58:06.000Z</time>
      </trkpt>
      <trkpt lat="45.19307" lon="6.36961">
        <ele>2761.8000488281</ele>
        <time>2022-12-17T11:58:24.000Z</time>
      </trkpt>
      <trkpt lat="45.19307" lon="6.36961">
        <ele>2761.8000488281</ele>
        <time>2022-12-17T11:58:43.000Z</time>
      </trkpt>
      <trkpt lat="45.19307" lon="6.36961">
        <ele>2761.8000488281</ele>
        <time>2022-12-17T11:58:48.000Z</time>
      </trkpt>
      <trkpt lat="45.19307" lon="6.36961">
        <ele>2761.8000488281</ele>
        <time>2022-12-17T11:58:51.000Z</time>
      </trkpt>
      <trkpt lat="45.19307" lon="6.36961">
        <ele>2761.8000488281</ele>
        <time>2022-12-17T11:59:10.000Z</time>
      </trkpt>
      <trkpt lat="45.19307" lon="6.36961">
        <ele>2761.8000488281</ele>
        <time>2022-12-17T11:59:17.000Z</time>
      </trkpt>
      <trkpt lat="45.19307" lon="6.36961">
        <ele>2761.8000488281</ele>
        <time>2022-12-17T11:59:47.000Z</time>
      </trkpt>
      <trkpt lat="45.19307" lon="6.36961">
        <ele>2761.8000488281</ele>
        <time>2022-12-17T11:59:59.000Z</time>
      </trkpt>
      <trkpt lat="45.19307" lon="6.36961">
        <ele>2761.8000488281</ele>
        <time>2022-12-17T12:00:06.000Z</time>
      </trkpt>
      <trkpt lat="45.19307" lon="6.36961">
        <ele>2761.8000488281</ele>
        <time>2022-12-17T12:00:08.000Z</time>
      </trkpt>
      <trkpt lat="45.19307" lon="6.36961">
        <ele>2761.8000488281</ele>
        <time>2022-12-17T12:00:12.000Z</time>
      </trkpt>
      <trkpt lat="45.19307" lon="6.36961">
        <ele>2761.8000488281</ele>
        <time>2022-12-17T12:00:15.000Z</time>
      </trkpt>
      <trkpt lat="45.19307" lon="6.36961">
        <ele>2761.8000488281</ele>
        <time>2022-12-17T12:00:18.000Z</time>
      </trkpt>
      <trkpt lat="45.19307" lon="6.36961">
        <ele>2761.8000488281</ele>
        <time>2022-12-17T12:00:22.000Z</time>
      </trkpt>
      <trkpt lat="45.19307" lon="6.36961">
        <ele>2761.8000488281</ele>
        <time>2022-12-17T12:00:29.000Z</time>
      </trkpt>
      <trkpt lat="45.19307" lon="6.3696">
        <ele>2761.8000488281</ele>
        <time>2022-12-17T12:00:35.000Z</time>
      </trkpt>
      <trkpt lat="45.19307" lon="6.3696">
        <ele>2761.8000488281</ele>
        <time>2022-12-17T12:00:40.000Z</time>
      </trkpt>
      <trkpt lat="45.19307" lon="6.3696">
        <ele>2761.8000488281</ele>
        <time>2022-12-17T12:00:47.000Z</time>
      </trkpt>
      <trkpt lat="45.19307" lon="6.3696">
        <ele>2761.8000488281</ele>
        <time>2022-12-17T12:00:52.000Z</time>
      </trkpt>
      <trkpt lat="45.19307" lon="6.3696">
        <ele>2761.8000488281</ele>
        <time>2022-12-17T12:01:23.000Z</time>
      </trkpt>
      <trkpt lat="45.19307" lon="6.3696">
        <ele>2761.8000488281</ele>
        <time>2022-12-17T12:01:36.000Z</time>
      </trkpt>
      <trkpt lat="45.19307" lon="6.3696">
        <ele>2761.8000488281</ele>
        <time>2022-12-17T12:01:43.000Z</time>
      </trkpt>
      <trkpt lat="45.19307" lon="6.3696">
        <ele>2761.8000488281</ele>
        <time>2022-12-17T12:01:49.000Z</time>
      </trkpt>
      <trkpt lat="45.19307" lon="6.3696">
        <ele>2761.8000488281</ele>
        <time>2022-12-17T12:01:54.000Z</time>
      </trkpt>
      <trkpt lat="45.19307" lon="6.3696">
        <ele>2761.8000488281</ele>
        <time>2022-12-17T12:02:05.000Z</time>
      </trkpt>
      <trkpt lat="45.19307" lon="6.3696">
        <ele>2761.8000488281</ele>
        <time>2022-12-17T12:02:12.000Z</time>
      </trkpt>
      <trkpt lat="45.19307" lon="6.3696">
        <ele>2761.8000488281</ele>
        <time>2022-12-17T12:02:28.000Z</time>
      </trkpt>
      <trkpt lat="45.19307" lon="6.3696">
        <ele>2761.8000488281</ele>
        <time>2022-12-17T12:02:35.000Z</time>
      </trkpt>
      <trkpt lat="45.19307" lon="6.3696">
        <ele>2761.8000488281</ele>
        <time>2022-12-17T12:02:40.000Z</time>
      </trkpt>
      <trkpt lat="45.19307" lon="6.3696">
        <ele>2761.8000488281</ele>
        <time>2022-12-17T12:02:46.000Z</time>
      </trkpt>
      <trkpt lat="45.19307" lon="6.3696">
        <ele>2761.8000488281</ele>
        <time>2022-12-17T12:03:04.000Z</time>
      </trkpt>
      <trkpt lat="45.19307" lon="6.3696">
        <ele>2761.8000488281</ele>
        <time>2022-12-17T12:03:54.000Z</time>
      </trkpt>
      <trkpt lat="45.19307" lon="6.3696">
        <ele>2761.8000488281</ele>
        <time>2022-12-17T12:04:16.000Z</time>
      </trkpt>
      <trkpt lat="45.19307" lon="6.3696">
        <ele>2761.8000488281</ele>
        <time>2022-12-17T12:04:21.000Z</time>
      </trkpt>
      <trkpt lat="45.19307" lon="6.3696">
        <ele>2761.8000488281</ele>
        <time>2022-12-17T12:04:47.000Z</time>
      </trkpt>
      <trkpt lat="45.19307" lon="6.36961">
        <ele>2761.8000488281</ele>
        <time>2022-12-17T12:05:07.000Z</time>
      </trkpt>
      <trkpt lat="45.19307" lon="6.36961">
        <ele>2761.8000488281</ele>
        <time>2022-12-17T12:05:21.000Z</time>
      </trkpt>
      <trkpt lat="45.19307" lon="6.36961">
        <ele>2761.8000488281</ele>
        <time>2022-12-17T12:05:22.000Z</time>
      </trkpt>
      <trkpt lat="45.19307" lon="6.36961">
        <ele>2761.8000488281</ele>
        <time>2022-12-17T12:05:26.000Z</time>
      </trkpt>
      <trkpt lat="45.19307" lon="6.36961">
        <ele>2761.8000488281</ele>
        <time>2022-12-17T12:05:29.000Z</time>
      </trkpt>
      <trkpt lat="45.19307" lon="6.36961">
        <ele>2761.8000488281</ele>
        <time>2022-12-17T12:05:31.000Z</time>
      </trkpt>
      <trkpt lat="45.19307" lon="6.36961">
        <ele>2761.8000488281</ele>
        <time>2022-12-17T12:06:07.000Z</time>
      </trkpt>
      <trkpt lat="45.19307" lon="6.36961">
        <ele>2761.8000488281</ele>
        <time>2022-12-17T12:06:47.000Z</time>
      </trkpt>
      <trkpt lat="45.19307" lon="6.36961">
        <ele>2761.8000488281</ele>
        <time>2022-12-17T12:07:15.000Z</time>
      </trkpt>
      <trkpt lat="45.19307" lon="6.36961">
        <ele>2761.8000488281</ele>
        <time>2022-12-17T12:07:54.000Z</time>
      </trkpt>
      <trkpt lat="45.19307" lon="6.36961">
        <ele>2761.8000488281</ele>
        <time>2022-12-17T12:08:12.000Z</time>
      </trkpt>
      <trkpt lat="45.19307" lon="6.36961">
        <ele>2761.8000488281</ele>
        <time>2022-12-17T12:08:29.000Z</time>
      </trkpt>
      <trkpt lat="45.19307" lon="6.36961">
        <ele>2761.8000488281</ele>
        <time>2022-12-17T12:08:30.000Z</time>
      </trkpt>
      <trkpt lat="45.19307" lon="6.36961">
        <ele>2761.8000488281</ele>
        <time>2022-12-17T12:08:39.000Z</time>
      </trkpt>
      <trkpt lat="45.19307" lon="6.36961">
        <ele>2761.8000488281</ele>
        <time>2022-12-17T12:08:42.000Z</time>
      </trkpt>
      <trkpt lat="45.19307" lon="6.36961">
        <ele>2761.8000488281</ele>
        <time>2022-12-17T12:09:21.000Z</time>
      </trkpt>
      <trkpt lat="45.19307" lon="6.36961">
        <ele>2761.8000488281</ele>
        <time>2022-12-17T12:09:28.000Z</time>
      </trkpt>
      <trkpt lat="45.19307" lon="6.36961">
        <ele>2761.8000488281</ele>
        <time>2022-12-17T12:09:37.000Z</time>
      </trkpt>
      <trkpt lat="45.19307" lon="6.36961">
        <ele>2761.8000488281</ele>
        <time>2022-12-17T12:10:32.000Z</time>
      </trkpt>
      <trkpt lat="45.19307" lon="6.36961">
        <ele>2761.8000488281</ele>
        <time>2022-12-17T12:10:45.000Z</time>
      </trkpt>
      <trkpt lat="45.19307" lon="6.36961">
        <ele>2761.8000488281</ele>
        <time>2022-12-17T12:11:00.000Z</time>
      </trkpt>
      <trkpt lat="45.19307" lon="6.36961">
        <ele>2761.8000488281</ele>
        <time>2022-12-17T12:11:21.000Z</time>
      </trkpt>
      <trkpt lat="45.19307" lon="6.36961">
        <ele>2761.8000488281</ele>
        <time>2022-12-17T12:11:27.000Z</time>
      </trkpt>
      <trkpt lat="45.19307" lon="6.36961">
        <ele>2761.8000488281</ele>
        <time>2022-12-17T12:11:31.000Z</time>
      </trkpt>
      <trkpt lat="45.19307" lon="6.36961">
        <ele>2761.8000488281</ele>
        <time>2022-12-17T12:11:37.000Z</time>
      </trkpt>
      <trkpt lat="45.19307" lon="6.36961">
        <ele>2761.8000488281</ele>
        <time>2022-12-17T12:11:43.000Z</time>
      </trkpt>
      <trkpt lat="45.19307" lon="6.36961">
        <ele>2761.8000488281</ele>
        <time>2022-12-17T12:12:04.000Z</time>
      </trkpt>
      <trkpt lat="45.19307" lon="6.36961">
        <ele>2761.8000488281</ele>
        <time>2022-12-17T12:12:05.000Z</time>
      </trkpt>
      <trkpt lat="45.19307" lon="6.36961">
        <ele>2761.8000488281</ele>
        <time>2022-12-17T12:12:08.000Z</time>
      </trkpt>
      <trkpt lat="45.19307" lon="6.36961">
        <ele>2761.8000488281</ele>
        <time>2022-12-17T12:12:35.000Z</time>
      </trkpt>
      <trkpt lat="45.19307" lon="6.36961">
        <ele>2761.8000488281</ele>
        <time>2022-12-17T12:12:46.000Z</time>
      </trkpt>
      <trkpt lat="45.19307" lon="6.36961">
        <ele>2761.8000488281</ele>
        <time>2022-12-17T12:12:53.000Z</time>
      </trkpt>
      <trkpt lat="45.19307" lon="6.36961">
        <ele>2761.8000488281</ele>
        <time>2022-12-17T12:13:02.000Z</time>
      </trkpt>
      <trkpt lat="45.19307" lon="6.36961">
        <ele>2761.8000488281</ele>
        <time>2022-12-17T12:13:29.000Z</time>
      </trkpt>
      <trkpt lat="45.19307" lon="6.36961">
        <ele>2761.8000488281</ele>
        <time>2022-12-17T12:13:34.000Z</time>
      </trkpt>
      <trkpt lat="45.19307" lon="6.36961">
        <ele>2761.8000488281</ele>
        <time>2022-12-17T12:13:38.000Z</time>
      </trkpt>
      <trkpt lat="45.19307" lon="6.36961">
        <ele>2761.8000488281</ele>
        <time>2022-12-17T12:13:57.000Z</time>
      </trkpt>
      <trkpt lat="45.19307" lon="6.36961">
        <ele>2761.8000488281</ele>
        <time>2022-12-17T12:14:00.000Z</time>
      </trkpt>
      <trkpt lat="45.19307" lon="6.36961">
        <ele>2761.8000488281</ele>
        <time>2022-12-17T12:14:06.000Z</time>
      </trkpt>
      <trkpt lat="45.19307" lon="6.36961">
        <ele>2761.8000488281</ele>
        <time>2022-12-17T12:14:09.000Z</time>
      </trkpt>
      <trkpt lat="45.19307" lon="6.36961">
        <ele>2761.8000488281</ele>
        <time>2022-12-17T12:14:25.000Z</time>
      </trkpt>
      <trkpt lat="45.19304" lon="6.36964">
        <ele>2761.8000488281</ele>
        <time>2022-12-17T12:14:36.000Z</time>
      </trkpt>
      <trkpt lat="45.19302" lon="6.36965">
        <ele>2761.8000488281</ele>
        <time>2022-12-17T12:14:37.000Z</time>
      </trkpt>
      <trkpt lat="45.193" lon="6.36968">
        <ele>2761.6000976562</ele>
        <time>2022-12-17T12:14:40.000Z</time>
      </trkpt>
      <trkpt lat="45.19299" lon="6.36971">
        <ele>2760.6000976562</ele>
        <time>2022-12-17T12:14:44.000Z</time>
      </trkpt>
      <trkpt lat="45.19295" lon="6.36973">
        <ele>2759.8000488281</ele>
        <time>2022-12-17T12:14:45.000Z</time>
      </trkpt>
      <trkpt lat="45.19292" lon="6.36975">
        <ele>2758.1999511719</ele>
        <time>2022-12-17T12:14:46.000Z</time>
      </trkpt>
      <trkpt lat="45.1929" lon="6.36975">
        <ele>2756.6000976562</ele>
        <time>2022-12-17T12:14:47.000Z</time>
      </trkpt>
      <trkpt lat="45.19289" lon="6.36976">
        <ele>2755.3999023438</ele>
        <time>2022-12-17T12:14:48.000Z</time>
      </trkpt>
      <trkpt lat="45.19289" lon="6.36976">
        <ele>2754.1999511719</ele>
        <time>2022-12-17T12:14:49.000Z</time>
      </trkpt>
      <trkpt lat="45.19289" lon="6.36978">
        <ele>2753.1999511719</ele>
        <time>2022-12-17T12:14:51.000Z</time>
      </trkpt>
      <trkpt lat="45.19289" lon="6.36983">
        <ele>2752.6000976562</ele>
        <time>2022-12-17T12:14:52.000Z</time>
      </trkpt>
      <trkpt lat="45.19288" lon="6.36987">
        <ele>2752.1999511719</ele>
        <time>2022-12-17T12:14:53.000Z</time>
      </trkpt>
      <trkpt lat="45.19287" lon="6.3699">
        <ele>2751.1999511719</ele>
        <time>2022-12-17T12:14:54.000Z</time>
      </trkpt>
      <trkpt lat="45.19284" lon="6.36991">
        <ele>2750</ele>
        <time>2022-12-17T12:14:55.000Z</time>
      </trkpt>
      <trkpt lat="45.19281" lon="6.36991">
        <ele>2748.1999511719</ele>
        <time>2022-12-17T12:14:56.000Z</time>
      </trkpt>
      <trkpt lat="45.19279" lon="6.36991">
        <ele>2746.8000488281</ele>
        <time>2022-12-17T12:14:57.000Z</time>
      </trkpt>
      <trkpt lat="45.19277" lon="6.3699">
        <ele>2745</ele>
        <time>2022-12-17T12:14:59.000Z</time>
      </trkpt>
      <trkpt lat="45.19275" lon="6.36991">
        <ele>2744.3999023438</ele>
        <time>2022-12-17T12:15:00.000Z</time>
      </trkpt>
      <trkpt lat="45.19274" lon="6.36992">
        <ele>2743.8000488281</ele>
        <time>2022-12-17T12:15:01.000Z</time>
      </trkpt>
      <trkpt lat="45.19272" lon="6.36994">
        <ele>2743.3999023438</ele>
        <time>2022-12-17T12:15:02.000Z</time>
      </trkpt>
      <trkpt lat="45.1927" lon="6.36998">
        <ele>2742.1999511719</ele>
        <time>2022-12-17T12:15:03.000Z</time>
      </trkpt>
      <trkpt lat="45.19266" lon="6.37001">
        <ele>2740</ele>
        <time>2022-12-17T12:15:04.000Z</time>
      </trkpt>
      <trkpt lat="45.19261" lon="6.37002">
        <ele>2737</ele>
        <time>2022-12-17T12:15:05.000Z</time>
      </trkpt>
      <trkpt lat="45.19257" lon="6.37002">
        <ele>2735</ele>
        <time>2022-12-17T12:15:06.000Z</time>
      </trkpt>
      <trkpt lat="45.19252" lon="6.37004">
        <ele>2732.3999023438</ele>
        <time>2022-12-17T12:15:07.000Z</time>
      </trkpt>
      <trkpt lat="45.1925" lon="6.37005">
        <ele>2730.6000976562</ele>
        <time>2022-12-17T12:15:08.000Z</time>
      </trkpt>
      <trkpt lat="45.19246" lon="6.3701">
        <ele>2729</ele>
        <time>2022-12-17T12:15:09.000Z</time>
      </trkpt>
      <trkpt lat="45.19242" lon="6.37013">
        <ele>2727</ele>
        <time>2022-12-17T12:15:10.000Z</time>
      </trkpt>
      <trkpt lat="45.19238" lon="6.37014">
        <ele>2724.3999023438</ele>
        <time>2022-12-17T12:15:11.000Z</time>
      </trkpt>
      <trkpt lat="45.19233" lon="6.37014">
        <ele>2722.3999023438</ele>
        <time>2022-12-17T12:15:12.000Z</time>
      </trkpt>
      <trkpt lat="45.19229" lon="6.37013">
        <ele>2720</ele>
        <time>2022-12-17T12:15:13.000Z</time>
      </trkpt>
      <trkpt lat="45.19225" lon="6.37011">
        <ele>2718.1999511719</ele>
        <time>2022-12-17T12:15:14.000Z</time>
      </trkpt>
      <trkpt lat="45.19221" lon="6.3701">
        <ele>2716.8000488281</ele>
        <time>2022-12-17T12:15:15.000Z</time>
      </trkpt>
      <trkpt lat="45.19218" lon="6.37009">
        <ele>2715.3999023438</ele>
        <time>2022-12-17T12:15:16.000Z</time>
      </trkpt>
      <trkpt lat="45.19214" lon="6.37006">
        <ele>2713.8000488281</ele>
        <time>2022-12-17T12:15:18.000Z</time>
      </trkpt>
      <trkpt lat="45.19211" lon="6.37004">
        <ele>2712.6000976562</ele>
        <time>2022-12-17T12:15:19.000Z</time>
      </trkpt>
      <trkpt lat="45.19202" lon="6.37005">
        <ele>2711</ele>
        <time>2022-12-17T12:15:21.000Z</time>
      </trkpt>
      <trkpt lat="45.19196" lon="6.37005">
        <ele>2709.6000976562</ele>
        <time>2022-12-17T12:15:22.000Z</time>
      </trkpt>
      <trkpt lat="45.1919" lon="6.37009">
        <ele>2708.1999511719</ele>
        <time>2022-12-17T12:15:23.000Z</time>
      </trkpt>
      <trkpt lat="45.19185" lon="6.37017">
        <ele>2706.8000488281</ele>
        <time>2022-12-17T12:15:24.000Z</time>
      </trkpt>
      <trkpt lat="45.19179" lon="6.37024">
        <ele>2704</ele>
        <time>2022-12-17T12:15:25.000Z</time>
      </trkpt>
      <trkpt lat="45.19175" lon="6.37033">
        <ele>2700</ele>
        <time>2022-12-17T12:15:26.000Z</time>
      </trkpt>
      <trkpt lat="45.19171" lon="6.37043">
        <ele>2696.8000488281</ele>
        <time>2022-12-17T12:15:27.000Z</time>
      </trkpt>
      <trkpt lat="45.19166" lon="6.37051">
        <ele>2693</ele>
        <time>2022-12-17T12:15:28.000Z</time>
      </trkpt>
      <trkpt lat="45.1916" lon="6.37059">
        <ele>2689</ele>
        <time>2022-12-17T12:15:29.000Z</time>
      </trkpt>
      <trkpt lat="45.19155" lon="6.3707">
        <ele>2685.3999023438</ele>
        <time>2022-12-17T12:15:30.000Z</time>
      </trkpt>
      <trkpt lat="45.19149" lon="6.37078">
        <ele>2681.1999511719</ele>
        <time>2022-12-17T12:15:31.000Z</time>
      </trkpt>
      <trkpt lat="45.19144" lon="6.37087">
        <ele>2676.1999511719</ele>
        <time>2022-12-17T12:15:32.000Z</time>
      </trkpt>
      <trkpt lat="45.19138" lon="6.37095">
        <ele>2672</ele>
        <time>2022-12-17T12:15:33.000Z</time>
      </trkpt>
      <trkpt lat="45.1913" lon="6.37102">
        <ele>2667.8000488281</ele>
        <time>2022-12-17T12:15:34.000Z</time>
      </trkpt>
      <trkpt lat="45.19122" lon="6.37106">
        <ele>2662.8000488281</ele>
        <time>2022-12-17T12:15:35.000Z</time>
      </trkpt>
      <trkpt lat="45.19113" lon="6.37111">
        <ele>2659.3999023438</ele>
        <time>2022-12-17T12:15:36.000Z</time>
      </trkpt>
      <trkpt lat="45.19105" lon="6.37116">
        <ele>2656</ele>
        <time>2022-12-17T12:15:37.000Z</time>
      </trkpt>
      <trkpt lat="45.19097" lon="6.37122">
        <ele>2652.1999511719</ele>
        <time>2022-12-17T12:15:38.000Z</time>
      </trkpt>
      <trkpt lat="45.1909" lon="6.3713">
        <ele>2648.1999511719</ele>
        <time>2022-12-17T12:15:39.000Z</time>
      </trkpt>
      <trkpt lat="45.19083" lon="6.37138">
        <ele>2645.3999023438</ele>
        <time>2022-12-17T12:15:40.000Z</time>
      </trkpt>
      <trkpt lat="45.19077" lon="6.37145">
        <ele>2642.1999511719</ele>
        <time>2022-12-17T12:15:41.000Z</time>
      </trkpt>
      <trkpt lat="45.19071" lon="6.37154">
        <ele>2639.1999511719</ele>
        <time>2022-12-17T12:15:42.000Z</time>
      </trkpt>
      <trkpt lat="45.19065" lon="6.37162">
        <ele>2636.3999023438</ele>
        <time>2022-12-17T12:15:43.000Z</time>
      </trkpt>
      <trkpt lat="45.1906" lon="6.37171">
        <ele>2632.3999023438</ele>
        <time>2022-12-17T12:15:44.000Z</time>
      </trkpt>
      <trkpt lat="45.19054" lon="6.37179">
        <ele>2630</ele>
        <time>2022-12-17T12:15:45.000Z</time>
      </trkpt>
      <trkpt lat="45.19048" lon="6.37183">
        <ele>2626.8000488281</ele>
        <time>2022-12-17T12:15:46.000Z</time>
      </trkpt>
      <trkpt lat="45.19043" lon="6.37185">
        <ele>2624.1999511719</ele>
        <time>2022-12-17T12:15:47.000Z</time>
      </trkpt>
      <trkpt lat="45.19038" lon="6.37185">
        <ele>2622.1999511719</ele>
        <time>2022-12-17T12:15:48.000Z</time>
      </trkpt>
      <trkpt lat="45.19034" lon="6.37185">
        <ele>2620.3999023438</ele>
        <time>2022-12-17T12:15:49.000Z</time>
      </trkpt>
      <trkpt lat="45.19031" lon="6.37184">
        <ele>2619.3999023438</ele>
        <time>2022-12-17T12:15:50.000Z</time>
      </trkpt>
      <trkpt lat="45.19031" lon="6.37184">
        <ele>2618</ele>
        <time>2022-12-17T12:15:51.000Z</time>
      </trkpt>
      <trkpt lat="45.19032" lon="6.37183">
        <ele>2617.1999511719</ele>
        <time>2022-12-17T12:15:52.000Z</time>
      </trkpt>
      <trkpt lat="45.19031" lon="6.37183">
        <ele>2616.8000488281</ele>
        <time>2022-12-17T12:15:53.000Z</time>
      </trkpt>
      <trkpt lat="45.19034" lon="6.37181">
        <ele>2616.6000976562</ele>
        <time>2022-12-17T12:15:59.000Z</time>
      </trkpt>
      <trkpt lat="45.19039" lon="6.37183">
        <ele>2616.1999511719</ele>
        <time>2022-12-17T12:16:07.000Z</time>
      </trkpt>
      <trkpt lat="45.19036" lon="6.37184">
        <ele>2616.1999511719</ele>
        <time>2022-12-17T12:16:17.000Z</time>
      </trkpt>
      <trkpt lat="45.19035" lon="6.37185">
        <ele>2616.1999511719</ele>
        <time>2022-12-17T12:16:19.000Z</time>
      </trkpt>
      <trkpt lat="45.19033" lon="6.37186">
        <ele>2616.1999511719</ele>
        <time>2022-12-17T12:16:22.000Z</time>
      </trkpt>
      <trkpt lat="45.19029" lon="6.37186">
        <ele>2616</ele>
        <time>2022-12-17T12:16:24.000Z</time>
      </trkpt>
      <trkpt lat="45.19028" lon="6.37185">
        <ele>2615.8000488281</ele>
        <time>2022-12-17T12:16:25.000Z</time>
      </trkpt>
      <trkpt lat="45.19023" lon="6.37185">
        <ele>2614.6000976562</ele>
        <time>2022-12-17T12:16:27.000Z</time>
      </trkpt>
      <trkpt lat="45.19018" lon="6.37182">
        <ele>2614</ele>
        <time>2022-12-17T12:16:29.000Z</time>
      </trkpt>
      <trkpt lat="45.19017" lon="6.3718">
        <ele>2612.8000488281</ele>
        <time>2022-12-17T12:16:31.000Z</time>
      </trkpt>
      <trkpt lat="45.19016" lon="6.37181">
        <ele>2612</ele>
        <time>2022-12-17T12:16:33.000Z</time>
      </trkpt>
      <trkpt lat="45.19017" lon="6.3718">
        <ele>2611.8000488281</ele>
        <time>2022-12-17T12:16:36.000Z</time>
      </trkpt>
      <trkpt lat="45.19015" lon="6.37181">
        <ele>2611.6000976562</ele>
        <time>2022-12-17T12:16:44.000Z</time>
      </trkpt>
      <trkpt lat="45.19013" lon="6.37178">
        <ele>2611.1999511719</ele>
        <time>2022-12-17T12:16:48.000Z</time>
      </trkpt>
      <trkpt lat="45.19011" lon="6.37176">
        <ele>2611</ele>
        <time>2022-12-17T12:16:50.000Z</time>
      </trkpt>
      <trkpt lat="45.19009" lon="6.37176">
        <ele>2610.8000488281</ele>
        <time>2022-12-17T12:16:52.000Z</time>
      </trkpt>
      <trkpt lat="45.1901" lon="6.37175">
        <ele>2610</ele>
        <time>2022-12-17T12:16:56.000Z</time>
      </trkpt>
      <trkpt lat="45.19009" lon="6.37175">
        <ele>2609.8000488281</ele>
        <time>2022-12-17T12:16:59.000Z</time>
      </trkpt>
      <trkpt lat="45.19008" lon="6.37175">
        <ele>2609.6000976562</ele>
        <time>2022-12-17T12:17:04.000Z</time>
      </trkpt>
      <trkpt lat="45.19007" lon="6.37175">
        <ele>2609.3999023438</ele>
        <time>2022-12-17T12:17:11.000Z</time>
      </trkpt>
      <trkpt lat="45.19005" lon="6.37175">
        <ele>2609</ele>
        <time>2022-12-17T12:17:13.000Z</time>
      </trkpt>
      <trkpt lat="45.19" lon="6.37175">
        <ele>2608.6000976562</ele>
        <time>2022-12-17T12:17:15.000Z</time>
      </trkpt>
      <trkpt lat="45.18996" lon="6.37174">
        <ele>2608</ele>
        <time>2022-12-17T12:17:16.000Z</time>
      </trkpt>
      <trkpt lat="45.18991" lon="6.37177">
        <ele>2606.8000488281</ele>
        <time>2022-12-17T12:17:17.000Z</time>
      </trkpt>
      <trkpt lat="45.18985" lon="6.3718">
        <ele>2604.6000976562</ele>
        <time>2022-12-17T12:17:18.000Z</time>
      </trkpt>
      <trkpt lat="45.1898" lon="6.37184">
        <ele>2602.8000488281</ele>
        <time>2022-12-17T12:17:19.000Z</time>
      </trkpt>
      <trkpt lat="45.18975" lon="6.37189">
        <ele>2600.6000976562</ele>
        <time>2022-12-17T12:17:20.000Z</time>
      </trkpt>
      <trkpt lat="45.18969" lon="6.37195">
        <ele>2598</ele>
        <time>2022-12-17T12:17:21.000Z</time>
      </trkpt>
      <trkpt lat="45.18963" lon="6.37201">
        <ele>2594.6000976562</ele>
        <time>2022-12-17T12:17:22.000Z</time>
      </trkpt>
      <trkpt lat="45.18957" lon="6.37208">
        <ele>2591.6000976562</ele>
        <time>2022-12-17T12:17:23.000Z</time>
      </trkpt>
      <trkpt lat="45.1895" lon="6.37214">
        <ele>2588.6000976562</ele>
        <time>2022-12-17T12:17:24.000Z</time>
      </trkpt>
      <trkpt lat="45.18943" lon="6.3722">
        <ele>2586.6000976562</ele>
        <time>2022-12-17T12:17:25.000Z</time>
      </trkpt>
      <trkpt lat="45.18937" lon="6.37224">
        <ele>2584.1999511719</ele>
        <time>2022-12-17T12:17:26.000Z</time>
      </trkpt>
      <trkpt lat="45.1893" lon="6.37229">
        <ele>2582.8000488281</ele>
        <time>2022-12-17T12:17:27.000Z</time>
      </trkpt>
      <trkpt lat="45.18924" lon="6.37233">
        <ele>2580.6000976562</ele>
        <time>2022-12-17T12:17:28.000Z</time>
      </trkpt>
      <trkpt lat="45.18919" lon="6.37235">
        <ele>2578</ele>
        <time>2022-12-17T12:17:29.000Z</time>
      </trkpt>
      <trkpt lat="45.18916" lon="6.37236">
        <ele>2576.6000976562</ele>
        <time>2022-12-17T12:17:30.000Z</time>
      </trkpt>
      <trkpt lat="45.18913" lon="6.37237">
        <ele>2575.6000976562</ele>
        <time>2022-12-17T12:17:31.000Z</time>
      </trkpt>
      <trkpt lat="45.18912" lon="6.37239">
        <ele>2574.8000488281</ele>
        <time>2022-12-17T12:17:32.000Z</time>
      </trkpt>
      <trkpt lat="45.1891" lon="6.3724">
        <ele>2574</ele>
        <time>2022-12-17T12:17:34.000Z</time>
      </trkpt>
      <trkpt lat="45.18909" lon="6.3724">
        <ele>2573.6000976562</ele>
        <time>2022-12-17T12:17:35.000Z</time>
      </trkpt>
      <trkpt lat="45.18911" lon="6.37237">
        <ele>2573.1999511719</ele>
        <time>2022-12-17T12:17:39.000Z</time>
      </trkpt>
      <trkpt lat="45.18911" lon="6.37237">
        <ele>2573.1999511719</ele>
        <time>2022-12-17T12:17:46.000Z</time>
      </trkpt>
      <trkpt lat="45.18911" lon="6.37237">
        <ele>2573.1999511719</ele>
        <time>2022-12-17T12:17:49.000Z</time>
      </trkpt>
      <trkpt lat="45.18907" lon="6.3724">
        <ele>2573.8000488281</ele>
        <time>2022-12-17T12:19:22.000Z</time>
      </trkpt>
      <trkpt lat="45.18907" lon="6.3724">
        <ele>2574</ele>
        <time>2022-12-17T12:19:28.000Z</time>
      </trkpt>
      <trkpt lat="45.18908" lon="6.3724">
        <ele>2574</ele>
        <time>2022-12-17T12:19:37.000Z</time>
      </trkpt>
      <trkpt lat="45.18908" lon="6.3724">
        <ele>2574</ele>
        <time>2022-12-17T12:19:42.000Z</time>
      </trkpt>
      <trkpt lat="45.18908" lon="6.37239">
        <ele>2573.8000488281</ele>
        <time>2022-12-17T12:19:51.000Z</time>
      </trkpt>
      <trkpt lat="45.18908" lon="6.37239">
        <ele>2573.8000488281</ele>
        <time>2022-12-17T12:19:58.000Z</time>
      </trkpt>
      <trkpt lat="45.18908" lon="6.37239">
        <ele>2574</ele>
        <time>2022-12-17T12:20:03.000Z</time>
      </trkpt>
      <trkpt lat="45.18908" lon="6.37239">
        <ele>2574.1999511719</ele>
        <time>2022-12-17T12:20:06.000Z</time>
      </trkpt>
      <trkpt lat="45.18908" lon="6.37239">
        <ele>2574.3999023438</ele>
        <time>2022-12-17T12:20:09.000Z</time>
      </trkpt>
      <trkpt lat="45.18908" lon="6.37239">
        <ele>2574.6000976562</ele>
        <time>2022-12-17T12:20:21.000Z</time>
      </trkpt>
      <trkpt lat="45.18907" lon="6.37239">
        <ele>2574.3999023438</ele>
        <time>2022-12-17T12:20:31.000Z</time>
      </trkpt>
      <trkpt lat="45.18906" lon="6.37239">
        <ele>2574.3999023438</ele>
        <time>2022-12-17T12:20:35.000Z</time>
      </trkpt>
      <trkpt lat="45.18906" lon="6.37239">
        <ele>2574.3999023438</ele>
        <time>2022-12-17T12:20:37.000Z</time>
      </trkpt>
      <trkpt lat="45.18904" lon="6.37241">
        <ele>2573.1999511719</ele>
        <time>2022-12-17T12:20:55.000Z</time>
      </trkpt>
      <trkpt lat="45.18904" lon="6.37241">
        <ele>2573.1999511719</ele>
        <time>2022-12-17T12:20:57.000Z</time>
      </trkpt>
      <trkpt lat="45.18903" lon="6.37241">
        <ele>2573.3999023438</ele>
        <time>2022-12-17T12:21:01.000Z</time>
      </trkpt>
      <trkpt lat="45.18903" lon="6.37241">
        <ele>2574.1999511719</ele>
        <time>2022-12-17T12:21:53.000Z</time>
      </trkpt>
      <trkpt lat="45.189" lon="6.37245">
        <ele>2573.3999023438</ele>
        <time>2022-12-17T12:22:18.000Z</time>
      </trkpt>
      <trkpt lat="45.18897" lon="6.37247">
        <ele>2573</ele>
        <time>2022-12-17T12:22:19.000Z</time>
      </trkpt>
      <trkpt lat="45.18893" lon="6.3725">
        <ele>2572.6000976562</ele>
        <time>2022-12-17T12:22:20.000Z</time>
      </trkpt>
      <trkpt lat="45.18887" lon="6.37257">
        <ele>2571</ele>
        <time>2022-12-17T12:22:22.000Z</time>
      </trkpt>
      <trkpt lat="45.18885" lon="6.37263">
        <ele>2570</ele>
        <time>2022-12-17T12:22:23.000Z</time>
      </trkpt>
      <trkpt lat="45.18883" lon="6.3727">
        <ele>2568.3999023438</ele>
        <time>2022-12-17T12:22:24.000Z</time>
      </trkpt>
      <trkpt lat="45.18881" lon="6.37277">
        <ele>2566.3999023438</ele>
        <time>2022-12-17T12:22:25.000Z</time>
      </trkpt>
      <trkpt lat="45.18878" lon="6.37284">
        <ele>2564.1999511719</ele>
        <time>2022-12-17T12:22:26.000Z</time>
      </trkpt>
      <trkpt lat="45.18876" lon="6.37292">
        <ele>2561.6000976562</ele>
        <time>2022-12-17T12:22:27.000Z</time>
      </trkpt>
      <trkpt lat="45.18873" lon="6.37299">
        <ele>2558.3999023438</ele>
        <time>2022-12-17T12:22:28.000Z</time>
      </trkpt>
      <trkpt lat="45.1887" lon="6.37306">
        <ele>2554.6000976562</ele>
        <time>2022-12-17T12:22:29.000Z</time>
      </trkpt>
      <trkpt lat="45.18868" lon="6.37313">
        <ele>2551.6000976562</ele>
        <time>2022-12-17T12:22:30.000Z</time>
      </trkpt>
      <trkpt lat="45.18865" lon="6.37321">
        <ele>2548.3999023438</ele>
        <time>2022-12-17T12:22:31.000Z</time>
      </trkpt>
      <trkpt lat="45.18861" lon="6.37329">
        <ele>2545.1999511719</ele>
        <time>2022-12-17T12:22:32.000Z</time>
      </trkpt>
      <trkpt lat="45.18858" lon="6.37334">
        <ele>2541.3999023438</ele>
        <time>2022-12-17T12:22:33.000Z</time>
      </trkpt>
      <trkpt lat="45.18854" lon="6.37337">
        <ele>2537.6000976562</ele>
        <time>2022-12-17T12:22:34.000Z</time>
      </trkpt>
      <trkpt lat="45.18849" lon="6.3734">
        <ele>2534.8000488281</ele>
        <time>2022-12-17T12:22:35.000Z</time>
      </trkpt>
      <trkpt lat="45.18845" lon="6.37342">
        <ele>2532.8000488281</ele>
        <time>2022-12-17T12:22:36.000Z</time>
      </trkpt>
      <trkpt lat="45.18841" lon="6.37344">
        <ele>2530.8000488281</ele>
        <time>2022-12-17T12:22:37.000Z</time>
      </trkpt>
      <trkpt lat="45.18838" lon="6.37346">
        <ele>2529.3999023438</ele>
        <time>2022-12-17T12:22:38.000Z</time>
      </trkpt>
      <trkpt lat="45.18834" lon="6.37348">
        <ele>2528</ele>
        <time>2022-12-17T12:22:39.000Z</time>
      </trkpt>
      <trkpt lat="45.18831" lon="6.3735">
        <ele>2527</ele>
        <time>2022-12-17T12:22:40.000Z</time>
      </trkpt>
      <trkpt lat="45.18828" lon="6.37352">
        <ele>2525.6000976562</ele>
        <time>2022-12-17T12:22:41.000Z</time>
      </trkpt>
      <trkpt lat="45.18822" lon="6.37358">
        <ele>2523.8000488281</ele>
        <time>2022-12-17T12:22:43.000Z</time>
      </trkpt>
      <trkpt lat="45.18821" lon="6.37363">
        <ele>2522.6000976562</ele>
        <time>2022-12-17T12:22:44.000Z</time>
      </trkpt>
      <trkpt lat="45.18822" lon="6.37368">
        <ele>2521</ele>
        <time>2022-12-17T12:22:45.000Z</time>
      </trkpt>
      <trkpt lat="45.18824" lon="6.37373">
        <ele>2519.1999511719</ele>
        <time>2022-12-17T12:22:46.000Z</time>
      </trkpt>
      <trkpt lat="45.18825" lon="6.37379">
        <ele>2517.3999023438</ele>
        <time>2022-12-17T12:22:47.000Z</time>
      </trkpt>
      <trkpt lat="45.18824" lon="6.37383">
        <ele>2516</ele>
        <time>2022-12-17T12:22:48.000Z</time>
      </trkpt>
      <trkpt lat="45.18823" lon="6.37385">
        <ele>2513</ele>
        <time>2022-12-17T12:22:49.000Z</time>
      </trkpt>
      <trkpt lat="45.18823" lon="6.37385">
        <ele>2511.6000976562</ele>
        <time>2022-12-17T12:22:50.000Z</time>
      </trkpt>
      <trkpt lat="45.18822" lon="6.37385">
        <ele>2510.6000976562</ele>
        <time>2022-12-17T12:22:51.000Z</time>
      </trkpt>
      <trkpt lat="45.1882" lon="6.37386">
        <ele>2509.6000976562</ele>
        <time>2022-12-17T12:22:54.000Z</time>
      </trkpt>
      <trkpt lat="45.1882" lon="6.37386">
        <ele>2509.3999023438</ele>
        <time>2022-12-17T12:22:55.000Z</time>
      </trkpt>
      <trkpt lat="45.18822" lon="6.37386">
        <ele>2509.6000976562</ele>
        <time>2022-12-17T12:22:58.000Z</time>
      </trkpt>
      <trkpt lat="45.18823" lon="6.37385">
        <ele>2509.6000976562</ele>
        <time>2022-12-17T12:23:03.000Z</time>
      </trkpt>
      <trkpt lat="45.18823" lon="6.37385">
        <ele>2509.6000976562</ele>
        <time>2022-12-17T12:23:09.000Z</time>
      </trkpt>
      <trkpt lat="45.18822" lon="6.37385">
        <ele>2509.6000976562</ele>
        <time>2022-12-17T12:23:18.000Z</time>
      </trkpt>
      <trkpt lat="45.18822" lon="6.37384">
        <ele>2509.1999511719</ele>
        <time>2022-12-17T12:23:27.000Z</time>
      </trkpt>
      <trkpt lat="45.18822" lon="6.37389">
        <ele>2508.8000488281</ele>
        <time>2022-12-17T12:23:28.000Z</time>
      </trkpt>
      <trkpt lat="45.18824" lon="6.37394">
        <ele>2506.8000488281</ele>
        <time>2022-12-17T12:23:29.000Z</time>
      </trkpt>
      <trkpt lat="45.18827" lon="6.37398">
        <ele>2504.6000976562</ele>
        <time>2022-12-17T12:23:30.000Z</time>
      </trkpt>
      <trkpt lat="45.18828" lon="6.37402">
        <ele>2503</ele>
        <time>2022-12-17T12:23:31.000Z</time>
      </trkpt>
      <trkpt lat="45.1883" lon="6.37407">
        <ele>2502</ele>
        <time>2022-12-17T12:23:32.000Z</time>
      </trkpt>
      <trkpt lat="45.18833" lon="6.37413">
        <ele>2500.3999023438</ele>
        <time>2022-12-17T12:23:33.000Z</time>
      </trkpt>
      <trkpt lat="45.18835" lon="6.37418">
        <ele>2498.8000488281</ele>
        <time>2022-12-17T12:23:34.000Z</time>
      </trkpt>
      <trkpt lat="45.18837" lon="6.37426">
        <ele>2497.3999023438</ele>
        <time>2022-12-17T12:23:35.000Z</time>
      </trkpt>
      <trkpt lat="45.1884" lon="6.37432">
        <ele>2495.6000976562</ele>
        <time>2022-12-17T12:23:36.000Z</time>
      </trkpt>
      <trkpt lat="45.18843" lon="6.37438">
        <ele>2493</ele>
        <time>2022-12-17T12:23:37.000Z</time>
      </trkpt>
      <trkpt lat="45.18844" lon="6.37445">
        <ele>2490.8000488281</ele>
        <time>2022-12-17T12:23:38.000Z</time>
      </trkpt>
      <trkpt lat="45.18844" lon="6.37453">
        <ele>2488.8000488281</ele>
        <time>2022-12-17T12:23:39.000Z</time>
      </trkpt>
      <trkpt lat="45.18843" lon="6.37461">
        <ele>2486.1999511719</ele>
        <time>2022-12-17T12:23:40.000Z</time>
      </trkpt>
      <trkpt lat="45.18842" lon="6.37469">
        <ele>2483.8000488281</ele>
        <time>2022-12-17T12:23:41.000Z</time>
      </trkpt>
      <trkpt lat="45.18841" lon="6.37477">
        <ele>2481.6000976562</ele>
        <time>2022-12-17T12:23:42.000Z</time>
      </trkpt>
      <trkpt lat="45.1884" lon="6.37484">
        <ele>2479.6000976562</ele>
        <time>2022-12-17T12:23:43.000Z</time>
      </trkpt>
      <trkpt lat="45.18839" lon="6.3749">
        <ele>2477.8000488281</ele>
        <time>2022-12-17T12:23:44.000Z</time>
      </trkpt>
      <trkpt lat="45.18839" lon="6.37494">
        <ele>2476.6000976562</ele>
        <time>2022-12-17T12:23:45.000Z</time>
      </trkpt>
      <trkpt lat="45.1884" lon="6.37498">
        <ele>2475</ele>
        <time>2022-12-17T12:23:47.000Z</time>
      </trkpt>
      <trkpt lat="45.1884" lon="6.37497">
        <ele>2474</ele>
        <time>2022-12-17T12:23:50.000Z</time>
      </trkpt>
      <trkpt lat="45.1884" lon="6.37497">
        <ele>2473.8000488281</ele>
        <time>2022-12-17T12:23:51.000Z</time>
      </trkpt>
      <trkpt lat="45.18836" lon="6.37498">
        <ele>2473.6000976562</ele>
        <time>2022-12-17T12:23:54.000Z</time>
      </trkpt>
      <trkpt lat="45.1883" lon="6.37499">
        <ele>2473.6000976562</ele>
        <time>2022-12-17T12:24:00.000Z</time>
      </trkpt>
      <trkpt lat="45.18832" lon="6.375">
        <ele>2474.1999511719</ele>
        <time>2022-12-17T12:24:11.000Z</time>
      </trkpt>
      <trkpt lat="45.18835" lon="6.37502">
        <ele>2473.6000976562</ele>
        <time>2022-12-17T12:24:21.000Z</time>
      </trkpt>
      <trkpt lat="45.18835" lon="6.37503">
        <ele>2473.3999023438</ele>
        <time>2022-12-17T12:24:37.000Z</time>
      </trkpt>
      <trkpt lat="45.18835" lon="6.37503">
        <ele>2473.3999023438</ele>
        <time>2022-12-17T12:24:38.000Z</time>
      </trkpt>
      <trkpt lat="45.18836" lon="6.37503">
        <ele>2473.3999023438</ele>
        <time>2022-12-17T12:24:41.000Z</time>
      </trkpt>
      <trkpt lat="45.18837" lon="6.37504">
        <ele>2473</ele>
        <time>2022-12-17T12:24:49.000Z</time>
      </trkpt>
      <trkpt lat="45.1883" lon="6.37508">
        <ele>2472</ele>
        <time>2022-12-17T12:24:51.000Z</time>
      </trkpt>
      <trkpt lat="45.18829" lon="6.37509">
        <ele>2471.1999511719</ele>
        <time>2022-12-17T12:24:52.000Z</time>
      </trkpt>
      <trkpt lat="45.18826" lon="6.3751">
        <ele>2469.8000488281</ele>
        <time>2022-12-17T12:24:54.000Z</time>
      </trkpt>
      <trkpt lat="45.18825" lon="6.37513">
        <ele>2468.8000488281</ele>
        <time>2022-12-17T12:24:59.000Z</time>
      </trkpt>
      <trkpt lat="45.18828" lon="6.37514">
        <ele>2468.8000488281</ele>
        <time>2022-12-17T12:25:03.000Z</time>
      </trkpt>
      <trkpt lat="45.18827" lon="6.37514">
        <ele>2468.8000488281</ele>
        <time>2022-12-17T12:25:06.000Z</time>
      </trkpt>
      <trkpt lat="45.18827" lon="6.37514">
        <ele>2469</ele>
        <time>2022-12-17T12:25:12.000Z</time>
      </trkpt>
      <trkpt lat="45.18827" lon="6.37514">
        <ele>2469</ele>
        <time>2022-12-17T12:25:18.000Z</time>
      </trkpt>
      <trkpt lat="45.18825" lon="6.37514">
        <ele>2468.8000488281</ele>
        <time>2022-12-17T12:25:46.000Z</time>
      </trkpt>
      <trkpt lat="45.18822" lon="6.37518">
        <ele>2467.8000488281</ele>
        <time>2022-12-17T12:25:47.000Z</time>
      </trkpt>
      <trkpt lat="45.18819" lon="6.37522">
        <ele>2466.6000976562</ele>
        <time>2022-12-17T12:25:48.000Z</time>
      </trkpt>
      <trkpt lat="45.18816" lon="6.37525">
        <ele>2465.1999511719</ele>
        <time>2022-12-17T12:25:49.000Z</time>
      </trkpt>
      <trkpt lat="45.18814" lon="6.37526">
        <ele>2464</ele>
        <time>2022-12-17T12:25:50.000Z</time>
      </trkpt>
      <trkpt lat="45.18809" lon="6.3753">
        <ele>2462.1999511719</ele>
        <time>2022-12-17T12:25:52.000Z</time>
      </trkpt>
      <trkpt lat="45.18809" lon="6.37541">
        <ele>2461</ele>
        <time>2022-12-17T12:25:54.000Z</time>
      </trkpt>
      <trkpt lat="45.18809" lon="6.37549">
        <ele>2459.8000488281</ele>
        <time>2022-12-17T12:25:55.000Z</time>
      </trkpt>
      <trkpt lat="45.18809" lon="6.37559">
        <ele>2457.8000488281</ele>
        <time>2022-12-17T12:25:56.000Z</time>
      </trkpt>
      <trkpt lat="45.18812" lon="6.37573">
        <ele>2455</ele>
        <time>2022-12-17T12:25:57.000Z</time>
      </trkpt>
      <trkpt lat="45.18815" lon="6.37587">
        <ele>2451.3999023438</ele>
        <time>2022-12-17T12:25:58.000Z</time>
      </trkpt>
      <trkpt lat="45.18817" lon="6.376">
        <ele>2448.3999023438</ele>
        <time>2022-12-17T12:25:59.000Z</time>
      </trkpt>
      <trkpt lat="45.18819" lon="6.37612">
        <ele>2445.8000488281</ele>
        <time>2022-12-17T12:26:00.000Z</time>
      </trkpt>
      <trkpt lat="45.1882" lon="6.37624">
        <ele>2444</ele>
        <time>2022-12-17T12:26:01.000Z</time>
      </trkpt>
      <trkpt lat="45.18822" lon="6.37634">
        <ele>2442.1999511719</ele>
        <time>2022-12-17T12:26:02.000Z</time>
      </trkpt>
      <trkpt lat="45.18823" lon="6.37645">
        <ele>2440.6000976562</ele>
        <time>2022-12-17T12:26:03.000Z</time>
      </trkpt>
      <trkpt lat="45.18825" lon="6.37655">
        <ele>2439.1999511719</ele>
        <time>2022-12-17T12:26:04.000Z</time>
      </trkpt>
      <trkpt lat="45.18826" lon="6.37667">
        <ele>2437.8000488281</ele>
        <time>2022-12-17T12:26:05.000Z</time>
      </trkpt>
      <trkpt lat="45.18827" lon="6.37678">
        <ele>2436.3999023438</ele>
        <time>2022-12-17T12:26:06.000Z</time>
      </trkpt>
      <trkpt lat="45.18828" lon="6.37689">
        <ele>2434.8000488281</ele>
        <time>2022-12-17T12:26:07.000Z</time>
      </trkpt>
      <trkpt lat="45.18828" lon="6.377">
        <ele>2433.3999023438</ele>
        <time>2022-12-17T12:26:08.000Z</time>
      </trkpt>
      <trkpt lat="45.18829" lon="6.37711">
        <ele>2432.1999511719</ele>
        <time>2022-12-17T12:26:09.000Z</time>
      </trkpt>
      <trkpt lat="45.1883" lon="6.37733">
        <ele>2430</ele>
        <time>2022-12-17T12:26:11.000Z</time>
      </trkpt>
      <trkpt lat="45.18831" lon="6.37745">
        <ele>2428.3999023438</ele>
        <time>2022-12-17T12:26:12.000Z</time>
      </trkpt>
      <trkpt lat="45.18832" lon="6.37756">
        <ele>2427</ele>
        <time>2022-12-17T12:26:13.000Z</time>
      </trkpt>
      <trkpt lat="45.18833" lon="6.37768">
        <ele>2425.6000976562</ele>
        <time>2022-12-17T12:26:14.000Z</time>
      </trkpt>
      <trkpt lat="45.18834" lon="6.3778">
        <ele>2424.3999023438</ele>
        <time>2022-12-17T12:26:15.000Z</time>
      </trkpt>
      <trkpt lat="45.18834" lon="6.37791">
        <ele>2423</ele>
        <time>2022-12-17T12:26:16.000Z</time>
      </trkpt>
      <trkpt lat="45.18834" lon="6.37803">
        <ele>2421.3999023438</ele>
        <time>2022-12-17T12:26:17.000Z</time>
      </trkpt>
      <trkpt lat="45.18833" lon="6.37812">
        <ele>2420</ele>
        <time>2022-12-17T12:26:18.000Z</time>
      </trkpt>
      <trkpt lat="45.18831" lon="6.3782">
        <ele>2419</ele>
        <time>2022-12-17T12:26:19.000Z</time>
      </trkpt>
      <trkpt lat="45.18829" lon="6.37825">
        <ele>2417.8000488281</ele>
        <time>2022-12-17T12:26:20.000Z</time>
      </trkpt>
      <trkpt lat="45.18827" lon="6.37828">
        <ele>2416.3999023438</ele>
        <time>2022-12-17T12:26:22.000Z</time>
      </trkpt>
      <trkpt lat="45.18826" lon="6.37828">
        <ele>2415.6000976562</ele>
        <time>2022-12-17T12:26:26.000Z</time>
      </trkpt>
      <trkpt lat="45.18828" lon="6.37827">
        <ele>2415.8000488281</ele>
        <time>2022-12-17T12:26:33.000Z</time>
      </trkpt>
      <trkpt lat="45.18827" lon="6.37827">
        <ele>2415.1999511719</ele>
        <time>2022-12-17T12:26:35.000Z</time>
      </trkpt>
      <trkpt lat="45.18827" lon="6.37827">
        <ele>2414.1999511719</ele>
        <time>2022-12-17T12:26:42.000Z</time>
      </trkpt>
      <trkpt lat="45.18827" lon="6.37827">
        <ele>2415.1999511719</ele>
        <time>2022-12-17T12:26:48.000Z</time>
      </trkpt>
      <trkpt lat="45.18826" lon="6.37825">
        <ele>2414.6000976562</ele>
        <time>2022-12-17T12:27:19.000Z</time>
      </trkpt>
      <trkpt lat="45.18826" lon="6.37829">
        <ele>2414.1999511719</ele>
        <time>2022-12-17T12:27:21.000Z</time>
      </trkpt>
      <trkpt lat="45.18824" lon="6.37837">
        <ele>2413.3999023438</ele>
        <time>2022-12-17T12:27:23.000Z</time>
      </trkpt>
      <trkpt lat="45.18823" lon="6.37841">
        <ele>2413.1999511719</ele>
        <time>2022-12-17T12:27:24.000Z</time>
      </trkpt>
      <trkpt lat="45.18824" lon="6.37845">
        <ele>2412.3999023438</ele>
        <time>2022-12-17T12:27:25.000Z</time>
      </trkpt>
      <trkpt lat="45.18824" lon="6.37847">
        <ele>2411.1999511719</ele>
        <time>2022-12-17T12:27:26.000Z</time>
      </trkpt>
      <trkpt lat="45.18824" lon="6.37848">
        <ele>2410.3999023438</ele>
        <time>2022-12-17T12:27:27.000Z</time>
      </trkpt>
      <trkpt lat="45.18824" lon="6.37849">
        <ele>2409.8000488281</ele>
        <time>2022-12-17T12:27:28.000Z</time>
      </trkpt>
      <trkpt lat="45.18824" lon="6.37849">
        <ele>2409.3999023438</ele>
        <time>2022-12-17T12:27:31.000Z</time>
      </trkpt>
      <trkpt lat="45.18824" lon="6.37848">
        <ele>2409.1999511719</ele>
        <time>2022-12-17T12:27:33.000Z</time>
      </trkpt>
      <trkpt lat="45.18825" lon="6.37848">
        <ele>2409.1999511719</ele>
        <time>2022-12-17T12:27:39.000Z</time>
      </trkpt>
      <trkpt lat="45.18825" lon="6.37848">
        <ele>2409.6000976562</ele>
        <time>2022-12-17T12:27:52.000Z</time>
      </trkpt>
      <trkpt lat="45.18825" lon="6.37848">
        <ele>2409.8000488281</ele>
        <time>2022-12-17T12:27:58.000Z</time>
      </trkpt>
      <trkpt lat="45.18824" lon="6.37849">
        <ele>2409.8000488281</ele>
        <time>2022-12-17T12:28:09.000Z</time>
      </trkpt>
      <trkpt lat="45.18824" lon="6.37849">
        <ele>2409.6000976562</ele>
        <time>2022-12-17T12:28:17.000Z</time>
      </trkpt>
      <trkpt lat="45.18824" lon="6.37848">
        <ele>2409.6000976562</ele>
        <time>2022-12-17T12:28:48.000Z</time>
      </trkpt>
      <trkpt lat="45.18824" lon="6.37848">
        <ele>2409.6000976562</ele>
        <time>2022-12-17T12:28:49.000Z</time>
      </trkpt>
      <trkpt lat="45.18824" lon="6.37847">
        <ele>2409.6000976562</ele>
        <time>2022-12-17T12:28:50.000Z</time>
      </trkpt>
      <trkpt lat="45.18823" lon="6.37848">
        <ele>2409.6000976562</ele>
        <time>2022-12-17T12:29:04.000Z</time>
      </trkpt>
      <trkpt lat="45.18822" lon="6.37848">
        <ele>2409.6000976562</ele>
        <time>2022-12-17T12:29:17.000Z</time>
      </trkpt>
      <trkpt lat="45.18823" lon="6.37847">
        <ele>2409.6000976562</ele>
        <time>2022-12-17T12:29:37.000Z</time>
      </trkpt>
      <trkpt lat="45.18823" lon="6.37847">
        <ele>2409.6000976562</ele>
        <time>2022-12-17T12:29:44.000Z</time>
      </trkpt>
      <trkpt lat="45.18823" lon="6.37847">
        <ele>2409.6000976562</ele>
        <time>2022-12-17T12:29:45.000Z</time>
      </trkpt>
      <trkpt lat="45.18824" lon="6.37847">
        <ele>2409.6000976562</ele>
        <time>2022-12-17T12:30:01.000Z</time>
      </trkpt>
      <trkpt lat="45.18824" lon="6.37847">
        <ele>2409.6000976562</ele>
        <time>2022-12-17T12:30:05.000Z</time>
      </trkpt>
      <trkpt lat="45.18825" lon="6.37847">
        <ele>2409.6000976562</ele>
        <time>2022-12-17T12:30:12.000Z</time>
      </trkpt>
      <trkpt lat="45.18829" lon="6.37849">
        <ele>2409.6000976562</ele>
        <time>2022-12-17T12:30:27.000Z</time>
      </trkpt>
      <trkpt lat="45.18829" lon="6.37849">
        <ele>2409.6000976562</ele>
        <time>2022-12-17T12:30:37.000Z</time>
      </trkpt>
      <trkpt lat="45.1883" lon="6.37849">
        <ele>2409.6000976562</ele>
        <time>2022-12-17T12:30:47.000Z</time>
      </trkpt>
      <trkpt lat="45.1883" lon="6.37849">
        <ele>2409.6000976562</ele>
        <time>2022-12-17T12:30:52.000Z</time>
      </trkpt>
      <trkpt lat="45.1883" lon="6.37849">
        <ele>2409.6000976562</ele>
        <time>2022-12-17T12:31:00.000Z</time>
      </trkpt>
      <trkpt lat="45.1883" lon="6.37849">
        <ele>2409.6000976562</ele>
        <time>2022-12-17T12:31:01.000Z</time>
      </trkpt>
      <trkpt lat="45.18832" lon="6.37862">
        <ele>2409.6000976562</ele>
        <time>2022-12-17T12:31:03.000Z</time>
      </trkpt>
      <trkpt lat="45.18835" lon="6.37882">
        <ele>2409.6000976562</ele>
        <time>2022-12-17T12:31:05.000Z</time>
      </trkpt>
      <trkpt lat="45.18838" lon="6.37892">
        <ele>2409.6000976562</ele>
        <time>2022-12-17T12:31:06.000Z</time>
      </trkpt>
      <trkpt lat="45.1884" lon="6.37902">
        <ele>2401.8000488281</ele>
        <time>2022-12-17T12:31:07.000Z</time>
      </trkpt>
      <trkpt lat="45.18842" lon="6.37911">
        <ele>2395.6000976562</ele>
        <time>2022-12-17T12:31:08.000Z</time>
      </trkpt>
      <trkpt lat="45.18845" lon="6.37918">
        <ele>2391.8000488281</ele>
        <time>2022-12-17T12:31:09.000Z</time>
      </trkpt>
      <trkpt lat="45.18848" lon="6.37926">
        <ele>2388.3999023438</ele>
        <time>2022-12-17T12:31:10.000Z</time>
      </trkpt>
      <trkpt lat="45.18852" lon="6.37933">
        <ele>2386.6000976562</ele>
        <time>2022-12-17T12:31:11.000Z</time>
      </trkpt>
      <trkpt lat="45.18856" lon="6.3794">
        <ele>2384.6000976562</ele>
        <time>2022-12-17T12:31:12.000Z</time>
      </trkpt>
      <trkpt lat="45.1886" lon="6.37949">
        <ele>2382.3999023438</ele>
        <time>2022-12-17T12:31:13.000Z</time>
      </trkpt>
      <trkpt lat="45.18864" lon="6.37959">
        <ele>2380</ele>
        <time>2022-12-17T12:31:14.000Z</time>
      </trkpt>
      <trkpt lat="45.18869" lon="6.37969">
        <ele>2377.3999023438</ele>
        <time>2022-12-17T12:31:15.000Z</time>
      </trkpt>
      <trkpt lat="45.18871" lon="6.37978">
        <ele>2374.6000976562</ele>
        <time>2022-12-17T12:31:16.000Z</time>
      </trkpt>
      <trkpt lat="45.18872" lon="6.37987">
        <ele>2372</ele>
        <time>2022-12-17T12:31:17.000Z</time>
      </trkpt>
      <trkpt lat="45.18874" lon="6.37994">
        <ele>2369.1999511719</ele>
        <time>2022-12-17T12:31:18.000Z</time>
      </trkpt>
      <trkpt lat="45.18877" lon="6.37996">
        <ele>2367.1999511719</ele>
        <time>2022-12-17T12:31:19.000Z</time>
      </trkpt>
      <trkpt lat="45.1888" lon="6.37997">
        <ele>2365.3999023438</ele>
        <time>2022-12-17T12:31:20.000Z</time>
      </trkpt>
      <trkpt lat="45.18882" lon="6.37996">
        <ele>2364</ele>
        <time>2022-12-17T12:31:21.000Z</time>
      </trkpt>
      <trkpt lat="45.18884" lon="6.37996">
        <ele>2363</ele>
        <time>2022-12-17T12:31:22.000Z</time>
      </trkpt>
      <trkpt lat="45.18888" lon="6.37998">
        <ele>2361.3999023438</ele>
        <time>2022-12-17T12:31:24.000Z</time>
      </trkpt>
      <trkpt lat="45.18892" lon="6.38002">
        <ele>2360</ele>
        <time>2022-12-17T12:31:26.000Z</time>
      </trkpt>
      <trkpt lat="45.18892" lon="6.38008">
        <ele>2358.6000976562</ele>
        <time>2022-12-17T12:31:27.000Z</time>
      </trkpt>
      <trkpt lat="45.1889" lon="6.38012">
        <ele>2356.1999511719</ele>
        <time>2022-12-17T12:31:28.000Z</time>
      </trkpt>
      <trkpt lat="45.18887" lon="6.38017">
        <ele>2354.3999023438</ele>
        <time>2022-12-17T12:31:29.000Z</time>
      </trkpt>
      <trkpt lat="45.18887" lon="6.38022">
        <ele>2353</ele>
        <time>2022-12-17T12:31:30.000Z</time>
      </trkpt>
      <trkpt lat="45.18888" lon="6.38028">
        <ele>2351.6000976562</ele>
        <time>2022-12-17T12:31:31.000Z</time>
      </trkpt>
      <trkpt lat="45.1889" lon="6.38034">
        <ele>2349.1999511719</ele>
        <time>2022-12-17T12:31:32.000Z</time>
      </trkpt>
      <trkpt lat="45.18891" lon="6.3804">
        <ele>2347.1999511719</ele>
        <time>2022-12-17T12:31:33.000Z</time>
      </trkpt>
      <trkpt lat="45.18893" lon="6.38047">
        <ele>2345.3999023438</ele>
        <time>2022-12-17T12:31:34.000Z</time>
      </trkpt>
      <trkpt lat="45.18896" lon="6.38052">
        <ele>2343.6000976562</ele>
        <time>2022-12-17T12:31:35.000Z</time>
      </trkpt>
      <trkpt lat="45.18898" lon="6.38057">
        <ele>2341.6000976562</ele>
        <time>2022-12-17T12:31:36.000Z</time>
      </trkpt>
      <trkpt lat="45.189" lon="6.38061">
        <ele>2340.3999023438</ele>
        <time>2022-12-17T12:31:37.000Z</time>
      </trkpt>
      <trkpt lat="45.18902" lon="6.38067">
        <ele>2339</ele>
        <time>2022-12-17T12:31:39.000Z</time>
      </trkpt>
      <trkpt lat="45.18904" lon="6.3807">
        <ele>2338.6000976562</ele>
        <time>2022-12-17T12:31:40.000Z</time>
      </trkpt>
      <trkpt lat="45.18908" lon="6.38075">
        <ele>2338</ele>
        <time>2022-12-17T12:31:42.000Z</time>
      </trkpt>
      <trkpt lat="45.18911" lon="6.38078">
        <ele>2336.8000488281</ele>
        <time>2022-12-17T12:31:44.000Z</time>
      </trkpt>
      <trkpt lat="45.18913" lon="6.3808">
        <ele>2336.3999023438</ele>
        <time>2022-12-17T12:31:45.000Z</time>
      </trkpt>
      <trkpt lat="45.18918" lon="6.38085">
        <ele>2335.3999023438</ele>
        <time>2022-12-17T12:31:47.000Z</time>
      </trkpt>
      <trkpt lat="45.18924" lon="6.38092">
        <ele>2334</ele>
        <time>2022-12-17T12:31:49.000Z</time>
      </trkpt>
      <trkpt lat="45.18928" lon="6.38096">
        <ele>2332.8000488281</ele>
        <time>2022-12-17T12:31:50.000Z</time>
      </trkpt>
      <trkpt lat="45.18934" lon="6.38102">
        <ele>2331</ele>
        <time>2022-12-17T12:31:52.000Z</time>
      </trkpt>
      <trkpt lat="45.18937" lon="6.38106">
        <ele>2330</ele>
        <time>2022-12-17T12:31:54.000Z</time>
      </trkpt>
      <trkpt lat="45.18937" lon="6.38106">
        <ele>2329.8000488281</ele>
        <time>2022-12-17T12:31:55.000Z</time>
      </trkpt>
      <trkpt lat="45.18936" lon="6.38106">
        <ele>2329.6000976562</ele>
        <time>2022-12-17T12:31:56.000Z</time>
      </trkpt>
      <trkpt lat="45.18937" lon="6.38105">
        <ele>2329.3999023438</ele>
        <time>2022-12-17T12:31:59.000Z</time>
      </trkpt>
      <trkpt lat="45.18938" lon="6.38103">
        <ele>2329</ele>
        <time>2022-12-17T12:32:01.000Z</time>
      </trkpt>
      <trkpt lat="45.18938" lon="6.38102">
        <ele>2329</ele>
        <time>2022-12-17T12:32:08.000Z</time>
      </trkpt>
      <trkpt lat="45.18938" lon="6.38103">
        <ele>2329.6000976562</ele>
        <time>2022-12-17T12:32:15.000Z</time>
      </trkpt>
      <trkpt lat="45.18938" lon="6.38104">
        <ele>2329.8000488281</ele>
        <time>2022-12-17T12:32:16.000Z</time>
      </trkpt>
      <trkpt lat="45.18938" lon="6.38104">
        <ele>2329.8000488281</ele>
        <time>2022-12-17T12:32:17.000Z</time>
      </trkpt>
      <trkpt lat="45.18938" lon="6.38103">
        <ele>2329.3999023438</ele>
        <time>2022-12-17T12:32:21.000Z</time>
      </trkpt>
      <trkpt lat="45.18938" lon="6.38103">
        <ele>2328.8000488281</ele>
        <time>2022-12-17T12:32:29.000Z</time>
      </trkpt>
      <trkpt lat="45.18939" lon="6.38104">
        <ele>2328.8000488281</ele>
        <time>2022-12-17T12:32:30.000Z</time>
      </trkpt>
      <trkpt lat="45.1894" lon="6.38105">
        <ele>2328.6000976562</ele>
        <time>2022-12-17T12:32:31.000Z</time>
      </trkpt>
      <trkpt lat="45.18943" lon="6.3811">
        <ele>2328.6000976562</ele>
        <time>2022-12-17T12:32:35.000Z</time>
      </trkpt>
      <trkpt lat="45.18945" lon="6.38113">
        <ele>2328.1999511719</ele>
        <time>2022-12-17T12:32:37.000Z</time>
      </trkpt>
      <trkpt lat="45.18947" lon="6.38118">
        <ele>2327.6000976562</ele>
        <time>2022-12-17T12:32:42.000Z</time>
      </trkpt>
      <trkpt lat="45.18952" lon="6.38124">
        <ele>2326.6000976562</ele>
        <time>2022-12-17T12:32:47.000Z</time>
      </trkpt>
      <trkpt lat="45.18955" lon="6.38131">
        <ele>2325.6000976562</ele>
        <time>2022-12-17T12:32:52.000Z</time>
      </trkpt>
      <trkpt lat="45.18955" lon="6.38132">
        <ele>2325.3999023438</ele>
        <time>2022-12-17T12:32:53.000Z</time>
      </trkpt>
      <trkpt lat="45.18954" lon="6.38132">
        <ele>2325.3999023438</ele>
        <time>2022-12-17T12:32:54.000Z</time>
      </trkpt>
      <trkpt lat="45.18953" lon="6.38133">
        <ele>2325.3999023438</ele>
        <time>2022-12-17T12:32:57.000Z</time>
      </trkpt>
      <trkpt lat="45.18951" lon="6.38133">
        <ele>2325.1999511719</ele>
        <time>2022-12-17T12:33:00.000Z</time>
      </trkpt>
      <trkpt lat="45.18952" lon="6.38134">
        <ele>2325.1999511719</ele>
        <time>2022-12-17T12:33:01.000Z</time>
      </trkpt>
      <trkpt lat="45.18952" lon="6.38134">
        <ele>2325</ele>
        <time>2022-12-17T12:33:07.000Z</time>
      </trkpt>
      <trkpt lat="45.18952" lon="6.38136">
        <ele>2324.3999023438</ele>
        <time>2022-12-17T12:33:10.000Z</time>
      </trkpt>
      <trkpt lat="45.18952" lon="6.38136">
        <ele>2324.6000976562</ele>
        <time>2022-12-17T12:33:11.000Z</time>
      </trkpt>
      <trkpt lat="45.18953" lon="6.38138">
        <ele>2324.6000976562</ele>
        <time>2022-12-17T12:33:13.000Z</time>
      </trkpt>
      <trkpt lat="45.18953" lon="6.3814">
        <ele>2324.3999023438</ele>
        <time>2022-12-17T12:33:14.000Z</time>
      </trkpt>
      <trkpt lat="45.18953" lon="6.38148">
        <ele>2323.3999023438</ele>
        <time>2022-12-17T12:33:20.000Z</time>
      </trkpt>
      <trkpt lat="45.18953" lon="6.3815">
        <ele>2323.1999511719</ele>
        <time>2022-12-17T12:33:21.000Z</time>
      </trkpt>
      <trkpt lat="45.18957" lon="6.38159">
        <ele>2321.8000488281</ele>
        <time>2022-12-17T12:33:24.000Z</time>
      </trkpt>
      <trkpt lat="45.18959" lon="6.38165">
        <ele>2320.8000488281</ele>
        <time>2022-12-17T12:33:26.000Z</time>
      </trkpt>
      <trkpt lat="45.1896" lon="6.38167">
        <ele>2320.6000976562</ele>
        <time>2022-12-17T12:33:27.000Z</time>
      </trkpt>
      <trkpt lat="45.18964" lon="6.38176">
        <ele>2319.3999023438</ele>
        <time>2022-12-17T12:33:30.000Z</time>
      </trkpt>
      <trkpt lat="45.18968" lon="6.38184">
        <ele>2318.3999023438</ele>
        <time>2022-12-17T12:33:32.000Z</time>
      </trkpt>
      <trkpt lat="45.1897" lon="6.38189">
        <ele>2317.6000976562</ele>
        <time>2022-12-17T12:33:33.000Z</time>
      </trkpt>
      <trkpt lat="45.18972" lon="6.38193">
        <ele>2316.8000488281</ele>
        <time>2022-12-17T12:33:34.000Z</time>
      </trkpt>
      <trkpt lat="45.18975" lon="6.38198">
        <ele>2315.8000488281</ele>
        <time>2022-12-17T12:33:35.000Z</time>
      </trkpt>
      <trkpt lat="45.18979" lon="6.38203">
        <ele>2315.1999511719</ele>
        <time>2022-12-17T12:33:36.000Z</time>
      </trkpt>
      <trkpt lat="45.18981" lon="6.38207">
        <ele>2314.3999023438</ele>
        <time>2022-12-17T12:33:37.000Z</time>
      </trkpt>
      <trkpt lat="45.18983" lon="6.38211">
        <ele>2314</ele>
        <time>2022-12-17T12:33:38.000Z</time>
      </trkpt>
      <trkpt lat="45.18987" lon="6.38219">
        <ele>2312.8000488281</ele>
        <time>2022-12-17T12:33:41.000Z</time>
      </trkpt>
      <trkpt lat="45.18988" lon="6.38221">
        <ele>2312.6000976562</ele>
        <time>2022-12-17T12:33:42.000Z</time>
      </trkpt>
      <trkpt lat="45.1899" lon="6.38226">
        <ele>2311.8000488281</ele>
        <time>2022-12-17T12:33:44.000Z</time>
      </trkpt>
      <trkpt lat="45.18994" lon="6.38233">
        <ele>2310.8000488281</ele>
        <time>2022-12-17T12:33:47.000Z</time>
      </trkpt>
      <trkpt lat="45.18996" lon="6.38236">
        <ele>2310.1999511719</ele>
        <time>2022-12-17T12:33:49.000Z</time>
      </trkpt>
      <trkpt lat="45.18998" lon="6.3824">
        <ele>2309.6000976562</ele>
        <time>2022-12-17T12:33:50.000Z</time>
      </trkpt>
      <trkpt lat="45.18999" lon="6.38245">
        <ele>2309.1999511719</ele>
        <time>2022-12-17T12:33:51.000Z</time>
      </trkpt>
      <trkpt lat="45.19002" lon="6.3825">
        <ele>2308.1999511719</ele>
        <time>2022-12-17T12:33:52.000Z</time>
      </trkpt>
      <trkpt lat="45.19004" lon="6.38255">
        <ele>2306.8000488281</ele>
        <time>2022-12-17T12:33:53.000Z</time>
      </trkpt>
      <trkpt lat="45.19007" lon="6.3826">
        <ele>2305.8000488281</ele>
        <time>2022-12-17T12:33:54.000Z</time>
      </trkpt>
      <trkpt lat="45.1901" lon="6.38266">
        <ele>2304.8000488281</ele>
        <time>2022-12-17T12:33:55.000Z</time>
      </trkpt>
      <trkpt lat="45.19014" lon="6.3827">
        <ele>2303.6000976562</ele>
        <time>2022-12-17T12:33:56.000Z</time>
      </trkpt>
      <trkpt lat="45.19018" lon="6.38279">
        <ele>2302.3999023438</ele>
        <time>2022-12-17T12:33:58.000Z</time>
      </trkpt>
      <trkpt lat="45.19023" lon="6.38289">
        <ele>2301</ele>
        <time>2022-12-17T12:34:00.000Z</time>
      </trkpt>
      <trkpt lat="45.19029" lon="6.38299">
        <ele>2299.3999023438</ele>
        <time>2022-12-17T12:34:02.000Z</time>
      </trkpt>
      <trkpt lat="45.19033" lon="6.38308">
        <ele>2297.8000488281</ele>
        <time>2022-12-17T12:34:04.000Z</time>
      </trkpt>
      <trkpt lat="45.19035" lon="6.38313">
        <ele>2297</ele>
        <time>2022-12-17T12:34:05.000Z</time>
      </trkpt>
      <trkpt lat="45.19036" lon="6.38318">
        <ele>2296.6000976562</ele>
        <time>2022-12-17T12:34:06.000Z</time>
      </trkpt>
      <trkpt lat="45.19039" lon="6.38325">
        <ele>2295.3999023438</ele>
        <time>2022-12-17T12:34:09.000Z</time>
      </trkpt>
      <trkpt lat="45.19039" lon="6.38326">
        <ele>2295</ele>
        <time>2022-12-17T12:34:13.000Z</time>
      </trkpt>
      <trkpt lat="45.19041" lon="6.3833">
        <ele>2294.6000976562</ele>
        <time>2022-12-17T12:34:20.000Z</time>
      </trkpt>
      <trkpt lat="45.19042" lon="6.38334">
        <ele>2294.3999023438</ele>
        <time>2022-12-17T12:34:22.000Z</time>
      </trkpt>
      <trkpt lat="45.19042" lon="6.38336">
        <ele>2294.3999023438</ele>
        <time>2022-12-17T12:34:23.000Z</time>
      </trkpt>
      <trkpt lat="45.19043" lon="6.38345">
        <ele>2293.6000976562</ele>
        <time>2022-12-17T12:34:25.000Z</time>
      </trkpt>
      <trkpt lat="45.19044" lon="6.3835">
        <ele>2293</ele>
        <time>2022-12-17T12:34:26.000Z</time>
      </trkpt>
      <trkpt lat="45.19045" lon="6.38356">
        <ele>2292.1999511719</ele>
        <time>2022-12-17T12:34:27.000Z</time>
      </trkpt>
      <trkpt lat="45.19047" lon="6.38362">
        <ele>2291.3999023438</ele>
        <time>2022-12-17T12:34:28.000Z</time>
      </trkpt>
      <trkpt lat="45.19049" lon="6.38367">
        <ele>2290.1999511719</ele>
        <time>2022-12-17T12:34:29.000Z</time>
      </trkpt>
      <trkpt lat="45.1905" lon="6.3837">
        <ele>2289</ele>
        <time>2022-12-17T12:34:30.000Z</time>
      </trkpt>
      <trkpt lat="45.19052" lon="6.38373">
        <ele>2287.8000488281</ele>
        <time>2022-12-17T12:34:31.000Z</time>
      </trkpt>
      <trkpt lat="45.19054" lon="6.38377">
        <ele>2286.8000488281</ele>
        <time>2022-12-17T12:34:32.000Z</time>
      </trkpt>
      <trkpt lat="45.19057" lon="6.38382">
        <ele>2285.8000488281</ele>
        <time>2022-12-17T12:34:33.000Z</time>
      </trkpt>
      <trkpt lat="45.1906" lon="6.38386">
        <ele>2284.6000976562</ele>
        <time>2022-12-17T12:34:34.000Z</time>
      </trkpt>
      <trkpt lat="45.19063" lon="6.38391">
        <ele>2283.1999511719</ele>
        <time>2022-12-17T12:34:35.000Z</time>
      </trkpt>
      <trkpt lat="45.19066" lon="6.38396">
        <ele>2281.6000976562</ele>
        <time>2022-12-17T12:34:36.000Z</time>
      </trkpt>
      <trkpt lat="45.19069" lon="6.38404">
        <ele>2280</ele>
        <time>2022-12-17T12:34:37.000Z</time>
      </trkpt>
      <trkpt lat="45.19072" lon="6.3841">
        <ele>2277.6000976562</ele>
        <time>2022-12-17T12:34:38.000Z</time>
      </trkpt>
      <trkpt lat="45.19074" lon="6.38417">
        <ele>2274.8000488281</ele>
        <time>2022-12-17T12:34:39.000Z</time>
      </trkpt>
      <trkpt lat="45.19076" lon="6.38424">
        <ele>2272.8000488281</ele>
        <time>2022-12-17T12:34:40.000Z</time>
      </trkpt>
      <trkpt lat="45.19079" lon="6.38431">
        <ele>2270.8000488281</ele>
        <time>2022-12-17T12:34:41.000Z</time>
      </trkpt>
      <trkpt lat="45.19081" lon="6.38438">
        <ele>2269.1999511719</ele>
        <time>2022-12-17T12:34:42.000Z</time>
      </trkpt>
      <trkpt lat="45.19082" lon="6.38443">
        <ele>2267.1999511719</ele>
        <time>2022-12-17T12:34:43.000Z</time>
      </trkpt>
      <trkpt lat="45.19083" lon="6.38444">
        <ele>2264.6000976562</ele>
        <time>2022-12-17T12:34:44.000Z</time>
      </trkpt>
      <trkpt lat="45.19083" lon="6.38445">
        <ele>2263.1999511719</ele>
        <time>2022-12-17T12:34:45.000Z</time>
      </trkpt>
      <trkpt lat="45.19083" lon="6.38444">
        <ele>2262</ele>
        <time>2022-12-17T12:34:47.000Z</time>
      </trkpt>
      <trkpt lat="45.19082" lon="6.38444">
        <ele>2261.8000488281</ele>
        <time>2022-12-17T12:34:48.000Z</time>
      </trkpt>
      <trkpt lat="45.19081" lon="6.38443">
        <ele>2261</ele>
        <time>2022-12-17T12:34:53.000Z</time>
      </trkpt>
      <trkpt lat="45.19078" lon="6.38443">
        <ele>2260.3999023438</ele>
        <time>2022-12-17T12:34:59.000Z</time>
      </trkpt>
      <trkpt lat="45.19078" lon="6.38443">
        <ele>2260.3999023438</ele>
        <time>2022-12-17T12:35:00.000Z</time>
      </trkpt>
      <trkpt lat="45.19078" lon="6.38443">
        <ele>2260.3999023438</ele>
        <time>2022-12-17T12:35:01.000Z</time>
      </trkpt>
      <trkpt lat="45.19079" lon="6.38442">
        <ele>2260.6000976562</ele>
        <time>2022-12-17T12:35:29.000Z</time>
      </trkpt>
      <trkpt lat="45.19079" lon="6.38448">
        <ele>2260</ele>
        <time>2022-12-17T12:35:32.000Z</time>
      </trkpt>
      <trkpt lat="45.19079" lon="6.38453">
        <ele>2259.6000976562</ele>
        <time>2022-12-17T12:35:33.000Z</time>
      </trkpt>
      <trkpt lat="45.19078" lon="6.38459">
        <ele>2258.6000976562</ele>
        <time>2022-12-17T12:35:34.000Z</time>
      </trkpt>
      <trkpt lat="45.19078" lon="6.38466">
        <ele>2257.6000976562</ele>
        <time>2022-12-17T12:35:35.000Z</time>
      </trkpt>
      <trkpt lat="45.19077" lon="6.38472">
        <ele>2256</ele>
        <time>2022-12-17T12:35:36.000Z</time>
      </trkpt>
      <trkpt lat="45.19077" lon="6.38479">
        <ele>2254.3999023438</ele>
        <time>2022-12-17T12:35:37.000Z</time>
      </trkpt>
      <trkpt lat="45.19078" lon="6.38485">
        <ele>2252.8000488281</ele>
        <time>2022-12-17T12:35:38.000Z</time>
      </trkpt>
      <trkpt lat="45.19079" lon="6.38492">
        <ele>2251.1999511719</ele>
        <time>2022-12-17T12:35:39.000Z</time>
      </trkpt>
      <trkpt lat="45.19081" lon="6.38499">
        <ele>2250</ele>
        <time>2022-12-17T12:35:40.000Z</time>
      </trkpt>
      <trkpt lat="45.19083" lon="6.38507">
        <ele>2248.6000976562</ele>
        <time>2022-12-17T12:35:41.000Z</time>
      </trkpt>
      <trkpt lat="45.19085" lon="6.38515">
        <ele>2246.8000488281</ele>
        <time>2022-12-17T12:35:42.000Z</time>
      </trkpt>
      <trkpt lat="45.19087" lon="6.38523">
        <ele>2245</ele>
        <time>2022-12-17T12:35:43.000Z</time>
      </trkpt>
      <trkpt lat="45.1909" lon="6.3853">
        <ele>2243.3999023438</ele>
        <time>2022-12-17T12:35:44.000Z</time>
      </trkpt>
      <trkpt lat="45.19092" lon="6.38537">
        <ele>2241.6000976562</ele>
        <time>2022-12-17T12:35:45.000Z</time>
      </trkpt>
      <trkpt lat="45.19093" lon="6.38543">
        <ele>2240.1999511719</ele>
        <time>2022-12-17T12:35:46.000Z</time>
      </trkpt>
      <trkpt lat="45.19095" lon="6.38548">
        <ele>2238.8000488281</ele>
        <time>2022-12-17T12:35:47.000Z</time>
      </trkpt>
      <trkpt lat="45.19095" lon="6.38553">
        <ele>2238</ele>
        <time>2022-12-17T12:35:48.000Z</time>
      </trkpt>
      <trkpt lat="45.19095" lon="6.38559">
        <ele>2237</ele>
        <time>2022-12-17T12:35:49.000Z</time>
      </trkpt>
      <trkpt lat="45.19095" lon="6.3857">
        <ele>2234.8000488281</ele>
        <time>2022-12-17T12:35:51.000Z</time>
      </trkpt>
      <trkpt lat="45.19096" lon="6.38575">
        <ele>2233.3999023438</ele>
        <time>2022-12-17T12:35:52.000Z</time>
      </trkpt>
      <trkpt lat="45.19097" lon="6.38577">
        <ele>2232.1999511719</ele>
        <time>2022-12-17T12:35:53.000Z</time>
      </trkpt>
      <trkpt lat="45.19098" lon="6.38577">
        <ele>2231</ele>
        <time>2022-12-17T12:35:55.000Z</time>
      </trkpt>
      <trkpt lat="45.19098" lon="6.38577">
        <ele>2230.1999511719</ele>
        <time>2022-12-17T12:35:59.000Z</time>
      </trkpt>
      <trkpt lat="45.19097" lon="6.38577">
        <ele>2230.1999511719</ele>
        <time>2022-12-17T12:36:04.000Z</time>
      </trkpt>
      <trkpt lat="45.19096" lon="6.38575">
        <ele>2230.3999023438</ele>
        <time>2022-12-17T12:36:07.000Z</time>
      </trkpt>
      <trkpt lat="45.19096" lon="6.38575">
        <ele>2230.6000976562</ele>
        <time>2022-12-17T12:36:12.000Z</time>
      </trkpt>
      <trkpt lat="45.19096" lon="6.38576">
        <ele>2229.6000976562</ele>
        <time>2022-12-17T12:36:24.000Z</time>
      </trkpt>
      <trkpt lat="45.19097" lon="6.38577">
        <ele>2228.8000488281</ele>
        <time>2022-12-17T12:36:27.000Z</time>
      </trkpt>
      <trkpt lat="45.19099" lon="6.38581">
        <ele>2228.6000976562</ele>
        <time>2022-12-17T12:36:28.000Z</time>
      </trkpt>
      <trkpt lat="45.19102" lon="6.38585">
        <ele>2228.1999511719</ele>
        <time>2022-12-17T12:36:29.000Z</time>
      </trkpt>
      <trkpt lat="45.19105" lon="6.3859">
        <ele>2227.3999023438</ele>
        <time>2022-12-17T12:36:30.000Z</time>
      </trkpt>
      <trkpt lat="45.19108" lon="6.38596">
        <ele>2226.1999511719</ele>
        <time>2022-12-17T12:36:31.000Z</time>
      </trkpt>
      <trkpt lat="45.19111" lon="6.38602">
        <ele>2225.1999511719</ele>
        <time>2022-12-17T12:36:32.000Z</time>
      </trkpt>
      <trkpt lat="45.19115" lon="6.38609">
        <ele>2223.8000488281</ele>
        <time>2022-12-17T12:36:33.000Z</time>
      </trkpt>
      <trkpt lat="45.19119" lon="6.38616">
        <ele>2222.1999511719</ele>
        <time>2022-12-17T12:36:34.000Z</time>
      </trkpt>
      <trkpt lat="45.19123" lon="6.38622">
        <ele>2220.1999511719</ele>
        <time>2022-12-17T12:36:35.000Z</time>
      </trkpt>
      <trkpt lat="45.19126" lon="6.38626">
        <ele>2218.8000488281</ele>
        <time>2022-12-17T12:36:36.000Z</time>
      </trkpt>
      <trkpt lat="45.1913" lon="6.3863">
        <ele>2217.6000976562</ele>
        <time>2022-12-17T12:36:37.000Z</time>
      </trkpt>
      <trkpt lat="45.19133" lon="6.38635">
        <ele>2216</ele>
        <time>2022-12-17T12:36:38.000Z</time>
      </trkpt>
      <trkpt lat="45.19135" lon="6.38639">
        <ele>2214.3999023438</ele>
        <time>2022-12-17T12:36:39.000Z</time>
      </trkpt>
      <trkpt lat="45.19138" lon="6.38645">
        <ele>2213</ele>
        <time>2022-12-17T12:36:40.000Z</time>
      </trkpt>
      <trkpt lat="45.1914" lon="6.38652">
        <ele>2212</ele>
        <time>2022-12-17T12:36:41.000Z</time>
      </trkpt>
      <trkpt lat="45.19143" lon="6.38659">
        <ele>2210.3999023438</ele>
        <time>2022-12-17T12:36:42.000Z</time>
      </trkpt>
      <trkpt lat="45.19145" lon="6.38668">
        <ele>2208.1999511719</ele>
        <time>2022-12-17T12:36:43.000Z</time>
      </trkpt>
      <trkpt lat="45.19148" lon="6.38677">
        <ele>2206.1999511719</ele>
        <time>2022-12-17T12:36:44.000Z</time>
      </trkpt>
      <trkpt lat="45.1915" lon="6.38686">
        <ele>2204</ele>
        <time>2022-12-17T12:36:45.000Z</time>
      </trkpt>
      <trkpt lat="45.19153" lon="6.38695">
        <ele>2202.1999511719</ele>
        <time>2022-12-17T12:36:46.000Z</time>
      </trkpt>
      <trkpt lat="45.19155" lon="6.38703">
        <ele>2200.3999023438</ele>
        <time>2022-12-17T12:36:47.000Z</time>
      </trkpt>
      <trkpt lat="45.19157" lon="6.38709">
        <ele>2198.6000976562</ele>
        <time>2022-12-17T12:36:48.000Z</time>
      </trkpt>
      <trkpt lat="45.19158" lon="6.38714">
        <ele>2197.3999023438</ele>
        <time>2022-12-17T12:36:49.000Z</time>
      </trkpt>
      <trkpt lat="45.1916" lon="6.38719">
        <ele>2196.6000976562</ele>
        <time>2022-12-17T12:36:50.000Z</time>
      </trkpt>
      <trkpt lat="45.19161" lon="6.38724">
        <ele>2196</ele>
        <time>2022-12-17T12:36:51.000Z</time>
      </trkpt>
      <trkpt lat="45.19166" lon="6.38735">
        <ele>2194.6000976562</ele>
        <time>2022-12-17T12:36:53.000Z</time>
      </trkpt>
      <trkpt lat="45.1917" lon="6.38747">
        <ele>2193</ele>
        <time>2022-12-17T12:36:55.000Z</time>
      </trkpt>
      <trkpt lat="45.19172" lon="6.38753">
        <ele>2192.1999511719</ele>
        <time>2022-12-17T12:36:56.000Z</time>
      </trkpt>
      <trkpt lat="45.19175" lon="6.3876">
        <ele>2191.1999511719</ele>
        <time>2022-12-17T12:36:57.000Z</time>
      </trkpt>
      <trkpt lat="45.19179" lon="6.38775">
        <ele>2189.1999511719</ele>
        <time>2022-12-17T12:36:59.000Z</time>
      </trkpt>
      <trkpt lat="45.19183" lon="6.38791">
        <ele>2187.1999511719</ele>
        <time>2022-12-17T12:37:01.000Z</time>
      </trkpt>
      <trkpt lat="45.19185" lon="6.38799">
        <ele>2186</ele>
        <time>2022-12-17T12:37:02.000Z</time>
      </trkpt>
      <trkpt lat="45.19188" lon="6.38807">
        <ele>2185</ele>
        <time>2022-12-17T12:37:03.000Z</time>
      </trkpt>
      <trkpt lat="45.19191" lon="6.38815">
        <ele>2183.1999511719</ele>
        <time>2022-12-17T12:37:04.000Z</time>
      </trkpt>
      <trkpt lat="45.19194" lon="6.38822">
        <ele>2182.1999511719</ele>
        <time>2022-12-17T12:37:05.000Z</time>
      </trkpt>
      <trkpt lat="45.19197" lon="6.38829">
        <ele>2181.1999511719</ele>
        <time>2022-12-17T12:37:06.000Z</time>
      </trkpt>
      <trkpt lat="45.192" lon="6.38837">
        <ele>2180</ele>
        <time>2022-12-17T12:37:07.000Z</time>
      </trkpt>
      <trkpt lat="45.19203" lon="6.38844">
        <ele>2178.8000488281</ele>
        <time>2022-12-17T12:37:08.000Z</time>
      </trkpt>
      <trkpt lat="45.19209" lon="6.38854">
        <ele>2177</ele>
        <time>2022-12-17T12:37:10.000Z</time>
      </trkpt>
      <trkpt lat="45.1921" lon="6.38858">
        <ele>2176.3999023438</ele>
        <time>2022-12-17T12:37:11.000Z</time>
      </trkpt>
      <trkpt lat="45.19211" lon="6.38859">
        <ele>2175.3999023438</ele>
        <time>2022-12-17T12:37:12.000Z</time>
      </trkpt>
      <trkpt lat="45.19212" lon="6.3886">
        <ele>2174.3999023438</ele>
        <time>2022-12-17T12:37:14.000Z</time>
      </trkpt>
      <trkpt lat="45.19212" lon="6.38859">
        <ele>2174</ele>
        <time>2022-12-17T12:37:15.000Z</time>
      </trkpt>
      <trkpt lat="45.19212" lon="6.38859">
        <ele>2173.6000976562</ele>
        <time>2022-12-17T12:37:20.000Z</time>
      </trkpt>
      <trkpt lat="45.19211" lon="6.38858">
        <ele>2173.6000976562</ele>
        <time>2022-12-17T12:37:35.000Z</time>
      </trkpt>
      <trkpt lat="45.19211" lon="6.38858">
        <ele>2173.6000976562</ele>
        <time>2022-12-17T12:37:38.000Z</time>
      </trkpt>
      <trkpt lat="45.1921" lon="6.38857">
        <ele>2173.3999023438</ele>
        <time>2022-12-17T12:37:55.000Z</time>
      </trkpt>
      <trkpt lat="45.1921" lon="6.38856">
        <ele>2173.1999511719</ele>
        <time>2022-12-17T12:38:08.000Z</time>
      </trkpt>
      <trkpt lat="45.19209" lon="6.38856">
        <ele>2173.6000976562</ele>
        <time>2022-12-17T12:38:42.000Z</time>
      </trkpt>
      <trkpt lat="45.19209" lon="6.38857">
        <ele>2173.6000976562</ele>
        <time>2022-12-17T12:38:53.000Z</time>
      </trkpt>
      <trkpt lat="45.19208" lon="6.38857">
        <ele>2173.6000976562</ele>
        <time>2022-12-17T12:39:07.000Z</time>
      </trkpt>
      <trkpt lat="45.19208" lon="6.38858">
        <ele>2173.6000976562</ele>
        <time>2022-12-17T12:39:16.000Z</time>
      </trkpt>
      <trkpt lat="45.19208" lon="6.38859">
        <ele>2173.6000976562</ele>
        <time>2022-12-17T12:39:30.000Z</time>
      </trkpt>
      <trkpt lat="45.19208" lon="6.38859">
        <ele>2173.6000976562</ele>
        <time>2022-12-17T12:39:33.000Z</time>
      </trkpt>
      <trkpt lat="45.19209" lon="6.38859">
        <ele>2173.6000976562</ele>
        <time>2022-12-17T12:39:38.000Z</time>
      </trkpt>
      <trkpt lat="45.19212" lon="6.38867">
        <ele>2173.6000976562</ele>
        <time>2022-12-17T12:39:41.000Z</time>
      </trkpt>
      <trkpt lat="45.19216" lon="6.38874">
        <ele>2171.8000488281</ele>
        <time>2022-12-17T12:39:43.000Z</time>
      </trkpt>
      <trkpt lat="45.19219" lon="6.38877">
        <ele>2170.3999023438</ele>
        <time>2022-12-17T12:39:44.000Z</time>
      </trkpt>
      <trkpt lat="45.19222" lon="6.3888">
        <ele>2169.1999511719</ele>
        <time>2022-12-17T12:39:45.000Z</time>
      </trkpt>
      <trkpt lat="45.19225" lon="6.38883">
        <ele>2168</ele>
        <time>2022-12-17T12:39:46.000Z</time>
      </trkpt>
      <trkpt lat="45.19231" lon="6.38889">
        <ele>2166.6000976562</ele>
        <time>2022-12-17T12:39:48.000Z</time>
      </trkpt>
      <trkpt lat="45.19237" lon="6.38894">
        <ele>2165</ele>
        <time>2022-12-17T12:39:50.000Z</time>
      </trkpt>
      <trkpt lat="45.19239" lon="6.38896">
        <ele>2164.1999511719</ele>
        <time>2022-12-17T12:39:52.000Z</time>
      </trkpt>
      <trkpt lat="45.1924" lon="6.38897">
        <ele>2164.1999511719</ele>
        <time>2022-12-17T12:39:57.000Z</time>
      </trkpt>
      <trkpt lat="45.19241" lon="6.38897">
        <ele>2164.1999511719</ele>
        <time>2022-12-17T12:40:02.000Z</time>
      </trkpt>
      <trkpt lat="45.19241" lon="6.38898">
        <ele>2164.1999511719</ele>
        <time>2022-12-17T12:40:04.000Z</time>
      </trkpt>
      <trkpt lat="45.19242" lon="6.38899">
        <ele>2164.1999511719</ele>
        <time>2022-12-17T12:40:07.000Z</time>
      </trkpt>
      <trkpt lat="45.19242" lon="6.389">
        <ele>2164.1999511719</ele>
        <time>2022-12-17T12:40:10.000Z</time>
      </trkpt>
      <trkpt lat="45.19242" lon="6.389">
        <ele>2164</ele>
        <time>2022-12-17T12:40:17.000Z</time>
      </trkpt>
      <trkpt lat="45.19242" lon="6.389">
        <ele>2163.3999023438</ele>
        <time>2022-12-17T12:40:26.000Z</time>
      </trkpt>
      <trkpt lat="45.19243" lon="6.389">
        <ele>2163.3999023438</ele>
        <time>2022-12-17T12:40:52.000Z</time>
      </trkpt>
      <trkpt lat="45.19243" lon="6.389">
        <ele>2163.3999023438</ele>
        <time>2022-12-17T12:40:54.000Z</time>
      </trkpt>
      <trkpt lat="45.19243" lon="6.38901">
        <ele>2163.8000488281</ele>
        <time>2022-12-17T12:41:10.000Z</time>
      </trkpt>
      <trkpt lat="45.19244" lon="6.38902">
        <ele>2162.8000488281</ele>
        <time>2022-12-17T12:41:21.000Z</time>
      </trkpt>
      <trkpt lat="45.19245" lon="6.38906">
        <ele>2162.6000976562</ele>
        <time>2022-12-17T12:41:22.000Z</time>
      </trkpt>
      <trkpt lat="45.19248" lon="6.38913">
        <ele>2162.1999511719</ele>
        <time>2022-12-17T12:41:24.000Z</time>
      </trkpt>
      <trkpt lat="45.1925" lon="6.3892">
        <ele>2161.6000976562</ele>
        <time>2022-12-17T12:41:26.000Z</time>
      </trkpt>
      <trkpt lat="45.19254" lon="6.38931">
        <ele>2160.3999023438</ele>
        <time>2022-12-17T12:41:29.000Z</time>
      </trkpt>
      <trkpt lat="45.19257" lon="6.38939">
        <ele>2159.8000488281</ele>
        <time>2022-12-17T12:41:32.000Z</time>
      </trkpt>
      <trkpt lat="45.19258" lon="6.38946">
        <ele>2159</ele>
        <time>2022-12-17T12:41:34.000Z</time>
      </trkpt>
      <trkpt lat="45.19259" lon="6.3895">
        <ele>2158.3999023438</ele>
        <time>2022-12-17T12:41:35.000Z</time>
      </trkpt>
      <trkpt lat="45.19261" lon="6.38954">
        <ele>2157.6000976562</ele>
        <time>2022-12-17T12:41:36.000Z</time>
      </trkpt>
      <trkpt lat="45.19262" lon="6.38959">
        <ele>2156.6000976562</ele>
        <time>2022-12-17T12:41:37.000Z</time>
      </trkpt>
      <trkpt lat="45.19264" lon="6.38965">
        <ele>2155.3999023438</ele>
        <time>2022-12-17T12:41:38.000Z</time>
      </trkpt>
      <trkpt lat="45.19266" lon="6.38971">
        <ele>2154.3999023438</ele>
        <time>2022-12-17T12:41:39.000Z</time>
      </trkpt>
      <trkpt lat="45.19268" lon="6.38977">
        <ele>2153.1999511719</ele>
        <time>2022-12-17T12:41:40.000Z</time>
      </trkpt>
      <trkpt lat="45.19273" lon="6.38987">
        <ele>2151.3999023438</ele>
        <time>2022-12-17T12:41:42.000Z</time>
      </trkpt>
      <trkpt lat="45.19275" lon="6.38993">
        <ele>2150.3999023438</ele>
        <time>2022-12-17T12:41:43.000Z</time>
      </trkpt>
      <trkpt lat="45.19277" lon="6.38999">
        <ele>2149.6000976562</ele>
        <time>2022-12-17T12:41:44.000Z</time>
      </trkpt>
      <trkpt lat="45.19279" lon="6.39005">
        <ele>2148.3999023438</ele>
        <time>2022-12-17T12:41:45.000Z</time>
      </trkpt>
      <trkpt lat="45.19281" lon="6.3901">
        <ele>2147.3999023438</ele>
        <time>2022-12-17T12:41:46.000Z</time>
      </trkpt>
      <trkpt lat="45.19284" lon="6.39018">
        <ele>2145.8000488281</ele>
        <time>2022-12-17T12:41:48.000Z</time>
      </trkpt>
      <trkpt lat="45.19287" lon="6.39027">
        <ele>2144.6000976562</ele>
        <time>2022-12-17T12:41:51.000Z</time>
      </trkpt>
      <trkpt lat="45.19291" lon="6.39037">
        <ele>2143.1999511719</ele>
        <time>2022-12-17T12:41:54.000Z</time>
      </trkpt>
      <trkpt lat="45.19295" lon="6.39045">
        <ele>2142</ele>
        <time>2022-12-17T12:41:56.000Z</time>
      </trkpt>
      <trkpt lat="45.19299" lon="6.39055">
        <ele>2140.1999511719</ele>
        <time>2022-12-17T12:41:58.000Z</time>
      </trkpt>
      <trkpt lat="45.19303" lon="6.39067">
        <ele>2138.6000976562</ele>
        <time>2022-12-17T12:42:00.000Z</time>
      </trkpt>
      <trkpt lat="45.19304" lon="6.39074">
        <ele>2137.1999511719</ele>
        <time>2022-12-17T12:42:01.000Z</time>
      </trkpt>
      <trkpt lat="45.19306" lon="6.39082">
        <ele>2135.3999023438</ele>
        <time>2022-12-17T12:42:02.000Z</time>
      </trkpt>
      <trkpt lat="45.19308" lon="6.39088">
        <ele>2133.6000976562</ele>
        <time>2022-12-17T12:42:03.000Z</time>
      </trkpt>
      <trkpt lat="45.1931" lon="6.39095">
        <ele>2131.8000488281</ele>
        <time>2022-12-17T12:42:04.000Z</time>
      </trkpt>
      <trkpt lat="45.19314" lon="6.391">
        <ele>2130.3999023438</ele>
        <time>2022-12-17T12:42:05.000Z</time>
      </trkpt>
      <trkpt lat="45.19318" lon="6.39103">
        <ele>2129</ele>
        <time>2022-12-17T12:42:06.000Z</time>
      </trkpt>
      <trkpt lat="45.19321" lon="6.39106">
        <ele>2128</ele>
        <time>2022-12-17T12:42:07.000Z</time>
      </trkpt>
      <trkpt lat="45.19325" lon="6.39109">
        <ele>2126.8000488281</ele>
        <time>2022-12-17T12:42:08.000Z</time>
      </trkpt>
      <trkpt lat="45.19327" lon="6.3911">
        <ele>2125.6000976562</ele>
        <time>2022-12-17T12:42:09.000Z</time>
      </trkpt>
      <trkpt lat="45.19328" lon="6.39111">
        <ele>2124.6000976562</ele>
        <time>2022-12-17T12:42:10.000Z</time>
      </trkpt>
      <trkpt lat="45.1933" lon="6.39112">
        <ele>2123.6000976562</ele>
        <time>2022-12-17T12:42:12.000Z</time>
      </trkpt>
      <trkpt lat="45.1933" lon="6.39112">
        <ele>2123.1999511719</ele>
        <time>2022-12-17T12:42:13.000Z</time>
      </trkpt>
      <trkpt lat="45.19331" lon="6.39116">
        <ele>2122.6000976562</ele>
        <time>2022-12-17T12:42:16.000Z</time>
      </trkpt>
      <trkpt lat="45.19331" lon="6.3912">
        <ele>2122.1999511719</ele>
        <time>2022-12-17T12:42:17.000Z</time>
      </trkpt>
      <trkpt lat="45.19332" lon="6.39131">
        <ele>2120.6000976562</ele>
        <time>2022-12-17T12:42:20.000Z</time>
      </trkpt>
      <trkpt lat="45.19331" lon="6.39141">
        <ele>2119.1999511719</ele>
        <time>2022-12-17T12:42:22.000Z</time>
      </trkpt>
      <trkpt lat="45.19331" lon="6.39146">
        <ele>2117.8000488281</ele>
        <time>2022-12-17T12:42:23.000Z</time>
      </trkpt>
      <trkpt lat="45.1933" lon="6.39149">
        <ele>2116.3999023438</ele>
        <time>2022-12-17T12:42:24.000Z</time>
      </trkpt>
      <trkpt lat="45.19331" lon="6.39151">
        <ele>2114.8000488281</ele>
        <time>2022-12-17T12:42:25.000Z</time>
      </trkpt>
      <trkpt lat="45.1933" lon="6.39153">
        <ele>2113.3999023438</ele>
        <time>2022-12-17T12:42:27.000Z</time>
      </trkpt>
      <trkpt lat="45.19331" lon="6.3916">
        <ele>2112.1999511719</ele>
        <time>2022-12-17T12:42:30.000Z</time>
      </trkpt>
      <trkpt lat="45.19331" lon="6.39162">
        <ele>2111</ele>
        <time>2022-12-17T12:42:32.000Z</time>
      </trkpt>
      <trkpt lat="45.1933" lon="6.39165">
        <ele>2109.8000488281</ele>
        <time>2022-12-17T12:42:34.000Z</time>
      </trkpt>
      <trkpt lat="45.1933" lon="6.39168">
        <ele>2109</ele>
        <time>2022-12-17T12:42:36.000Z</time>
      </trkpt>
      <trkpt lat="45.19331" lon="6.39175">
        <ele>2108.3999023438</ele>
        <time>2022-12-17T12:42:38.000Z</time>
      </trkpt>
      <trkpt lat="45.19333" lon="6.39188">
        <ele>2107</ele>
        <time>2022-12-17T12:42:40.000Z</time>
      </trkpt>
      <trkpt lat="45.19335" lon="6.39202">
        <ele>2105</ele>
        <time>2022-12-17T12:42:42.000Z</time>
      </trkpt>
      <trkpt lat="45.19337" lon="6.39208">
        <ele>2103.8000488281</ele>
        <time>2022-12-17T12:42:43.000Z</time>
      </trkpt>
      <trkpt lat="45.19338" lon="6.39214">
        <ele>2102.1999511719</ele>
        <time>2022-12-17T12:42:44.000Z</time>
      </trkpt>
      <trkpt lat="45.19339" lon="6.3922">
        <ele>2101</ele>
        <time>2022-12-17T12:42:45.000Z</time>
      </trkpt>
      <trkpt lat="45.1934" lon="6.39225">
        <ele>2099.8000488281</ele>
        <time>2022-12-17T12:42:46.000Z</time>
      </trkpt>
      <trkpt lat="45.19342" lon="6.39233">
        <ele>2098.1999511719</ele>
        <time>2022-12-17T12:42:48.000Z</time>
      </trkpt>
      <trkpt lat="45.19343" lon="6.39239">
        <ele>2096.3999023438</ele>
        <time>2022-12-17T12:42:50.000Z</time>
      </trkpt>
      <trkpt lat="45.19345" lon="6.39243">
        <ele>2095</ele>
        <time>2022-12-17T12:42:52.000Z</time>
      </trkpt>
      <trkpt lat="45.19345" lon="6.39247">
        <ele>2094.1999511719</ele>
        <time>2022-12-17T12:42:54.000Z</time>
      </trkpt>
      <trkpt lat="45.19346" lon="6.39247">
        <ele>2094</ele>
        <time>2022-12-17T12:42:55.000Z</time>
      </trkpt>
      <trkpt lat="45.19346" lon="6.39247">
        <ele>2093.6000976562</ele>
        <time>2022-12-17T12:42:58.000Z</time>
      </trkpt>
      <trkpt lat="45.19346" lon="6.39247">
        <ele>2093.3999023438</ele>
        <time>2022-12-17T12:43:05.000Z</time>
      </trkpt>
      <trkpt lat="45.19345" lon="6.39249">
        <ele>2093</ele>
        <time>2022-12-17T12:43:14.000Z</time>
      </trkpt>
      <trkpt lat="45.19344" lon="6.39249">
        <ele>2093</ele>
        <time>2022-12-17T12:43:15.000Z</time>
      </trkpt>
      <trkpt lat="45.19344" lon="6.39255">
        <ele>2092.3999023438</ele>
        <time>2022-12-17T12:43:18.000Z</time>
      </trkpt>
      <trkpt lat="45.19345" lon="6.39261">
        <ele>2091.6000976562</ele>
        <time>2022-12-17T12:43:20.000Z</time>
      </trkpt>
      <trkpt lat="45.19348" lon="6.39268">
        <ele>2090.1999511719</ele>
        <time>2022-12-17T12:43:22.000Z</time>
      </trkpt>
      <trkpt lat="45.1935" lon="6.39274">
        <ele>2088.6000976562</ele>
        <time>2022-12-17T12:43:24.000Z</time>
      </trkpt>
      <trkpt lat="45.19351" lon="6.39276">
        <ele>2088</ele>
        <time>2022-12-17T12:43:25.000Z</time>
      </trkpt>
      <trkpt lat="45.19353" lon="6.39279">
        <ele>2087.3999023438</ele>
        <time>2022-12-17T12:43:27.000Z</time>
      </trkpt>
      <trkpt lat="45.19355" lon="6.39284">
        <ele>2086.3999023438</ele>
        <time>2022-12-17T12:43:30.000Z</time>
      </trkpt>
      <trkpt lat="45.19356" lon="6.39289">
        <ele>2085.1999511719</ele>
        <time>2022-12-17T12:43:32.000Z</time>
      </trkpt>
      <trkpt lat="45.19358" lon="6.39294">
        <ele>2084</ele>
        <time>2022-12-17T12:43:34.000Z</time>
      </trkpt>
      <trkpt lat="45.19359" lon="6.39297">
        <ele>2083.3999023438</ele>
        <time>2022-12-17T12:43:35.000Z</time>
      </trkpt>
      <trkpt lat="45.1936" lon="6.393">
        <ele>2082.3999023438</ele>
        <time>2022-12-17T12:43:36.000Z</time>
      </trkpt>
      <trkpt lat="45.19363" lon="6.39306">
        <ele>2081</ele>
        <time>2022-12-17T12:43:38.000Z</time>
      </trkpt>
      <trkpt lat="45.19366" lon="6.39309">
        <ele>2079.1999511719</ele>
        <time>2022-12-17T12:43:40.000Z</time>
      </trkpt>
      <trkpt lat="45.19367" lon="6.39311">
        <ele>2078</ele>
        <time>2022-12-17T12:43:42.000Z</time>
      </trkpt>
      <trkpt lat="45.19369" lon="6.39311">
        <ele>2076.8000488281</ele>
        <time>2022-12-17T12:43:45.000Z</time>
      </trkpt>
      <trkpt lat="45.19368" lon="6.39311">
        <ele>2076.3999023438</ele>
        <time>2022-12-17T12:43:47.000Z</time>
      </trkpt>
      <trkpt lat="45.19367" lon="6.39312">
        <ele>2076</ele>
        <time>2022-12-17T12:43:53.000Z</time>
      </trkpt>
      <trkpt lat="45.19366" lon="6.3931">
        <ele>2075.8000488281</ele>
        <time>2022-12-17T12:44:03.000Z</time>
      </trkpt>
      <trkpt lat="45.19367" lon="6.39311">
        <ele>2076</ele>
        <time>2022-12-17T12:44:08.000Z</time>
      </trkpt>
      <trkpt lat="45.19367" lon="6.39312">
        <ele>2076</ele>
        <time>2022-12-17T12:44:10.000Z</time>
      </trkpt>
      <trkpt lat="45.19367" lon="6.39312">
        <ele>2075.8000488281</ele>
        <time>2022-12-17T12:44:21.000Z</time>
      </trkpt>
      <trkpt lat="45.19367" lon="6.39311">
        <ele>2076</ele>
        <time>2022-12-17T12:44:38.000Z</time>
      </trkpt>
      <trkpt lat="45.19369" lon="6.3931">
        <ele>2075.8000488281</ele>
        <time>2022-12-17T12:44:57.000Z</time>
      </trkpt>
      <trkpt lat="45.19369" lon="6.3931">
        <ele>2076</ele>
        <time>2022-12-17T12:45:04.000Z</time>
      </trkpt>
      <trkpt lat="45.19369" lon="6.39311">
        <ele>2075.8000488281</ele>
        <time>2022-12-17T12:45:19.000Z</time>
      </trkpt>
      <trkpt lat="45.19369" lon="6.39312">
        <ele>2075.8000488281</ele>
        <time>2022-12-17T12:45:23.000Z</time>
      </trkpt>
      <trkpt lat="45.19367" lon="6.39314">
        <ele>2075.8000488281</ele>
        <time>2022-12-17T12:45:44.000Z</time>
      </trkpt>
      <trkpt lat="45.19364" lon="6.39323">
        <ele>2075.8000488281</ele>
        <time>2022-12-17T12:45:47.000Z</time>
      </trkpt>
      <trkpt lat="45.19364" lon="6.39331">
        <ele>2071.8000488281</ele>
        <time>2022-12-17T12:45:49.000Z</time>
      </trkpt>
      <trkpt lat="45.19364" lon="6.39336">
        <ele>2068.6000976562</ele>
        <time>2022-12-17T12:45:50.000Z</time>
      </trkpt>
      <trkpt lat="45.19365" lon="6.39343">
        <ele>2067</ele>
        <time>2022-12-17T12:45:51.000Z</time>
      </trkpt>
      <trkpt lat="45.19365" lon="6.39349">
        <ele>2065</ele>
        <time>2022-12-17T12:45:52.000Z</time>
      </trkpt>
      <trkpt lat="45.19367" lon="6.39355">
        <ele>2062.8000488281</ele>
        <time>2022-12-17T12:45:53.000Z</time>
      </trkpt>
      <trkpt lat="45.19368" lon="6.39359">
        <ele>2060.6000976562</ele>
        <time>2022-12-17T12:45:54.000Z</time>
      </trkpt>
      <trkpt lat="45.1937" lon="6.39362">
        <ele>2058</ele>
        <time>2022-12-17T12:45:55.000Z</time>
      </trkpt>
      <trkpt lat="45.19372" lon="6.39365">
        <ele>2055.8000488281</ele>
        <time>2022-12-17T12:45:56.000Z</time>
      </trkpt>
      <trkpt lat="45.19374" lon="6.39368">
        <ele>2054.1999511719</ele>
        <time>2022-12-17T12:45:57.000Z</time>
      </trkpt>
      <trkpt lat="45.19374" lon="6.39372">
        <ele>2053</ele>
        <time>2022-12-17T12:45:58.000Z</time>
      </trkpt>
      <trkpt lat="45.19374" lon="6.39376">
        <ele>2051.6000976562</ele>
        <time>2022-12-17T12:45:59.000Z</time>
      </trkpt>
      <trkpt lat="45.19375" lon="6.39379">
        <ele>2049.6000976562</ele>
        <time>2022-12-17T12:46:00.000Z</time>
      </trkpt>
      <trkpt lat="45.19374" lon="6.3938">
        <ele>2048.3999023438</ele>
        <time>2022-12-17T12:46:01.000Z</time>
      </trkpt>
      <trkpt lat="45.19374" lon="6.3938">
        <ele>2047.4000244141</ele>
        <time>2022-12-17T12:46:03.000Z</time>
      </trkpt>
      <trkpt lat="45.19373" lon="6.39379">
        <ele>2046.8000488281</ele>
        <time>2022-12-17T12:46:07.000Z</time>
      </trkpt>
      <trkpt lat="45.19374" lon="6.39384">
        <ele>2046.5999755859</ele>
        <time>2022-12-17T12:46:11.000Z</time>
      </trkpt>
      <trkpt lat="45.19373" lon="6.39388">
        <ele>2046.5999755859</ele>
        <time>2022-12-17T12:46:12.000Z</time>
      </trkpt>
      <trkpt lat="45.19373" lon="6.39395">
        <ele>2046.1999511719</ele>
        <time>2022-12-17T12:46:13.000Z</time>
      </trkpt>
      <trkpt lat="45.19371" lon="6.39402">
        <ele>2045.1999511719</ele>
        <time>2022-12-17T12:46:14.000Z</time>
      </trkpt>
      <trkpt lat="45.19369" lon="6.3941">
        <ele>2043.5999755859</ele>
        <time>2022-12-17T12:46:15.000Z</time>
      </trkpt>
      <trkpt lat="45.19369" lon="6.39415">
        <ele>2041.5999755859</ele>
        <time>2022-12-17T12:46:16.000Z</time>
      </trkpt>
      <trkpt lat="45.19368" lon="6.3942">
        <ele>2040</ele>
        <time>2022-12-17T12:46:17.000Z</time>
      </trkpt>
      <trkpt lat="45.19369" lon="6.39426">
        <ele>2038.8000488281</ele>
        <time>2022-12-17T12:46:18.000Z</time>
      </trkpt>
      <trkpt lat="45.19369" lon="6.39434">
        <ele>2037.8000488281</ele>
        <time>2022-12-17T12:46:19.000Z</time>
      </trkpt>
      <trkpt lat="45.1937" lon="6.39441">
        <ele>2036.5999755859</ele>
        <time>2022-12-17T12:46:20.000Z</time>
      </trkpt>
      <trkpt lat="45.19371" lon="6.39447">
        <ele>2035</ele>
        <time>2022-12-17T12:46:21.000Z</time>
      </trkpt>
      <trkpt lat="45.19373" lon="6.39458">
        <ele>2033.5999755859</ele>
        <time>2022-12-17T12:46:23.000Z</time>
      </trkpt>
      <trkpt lat="45.19375" lon="6.39464">
        <ele>2033</ele>
        <time>2022-12-17T12:46:24.000Z</time>
      </trkpt>
      <trkpt lat="45.19377" lon="6.39469">
        <ele>2032</ele>
        <time>2022-12-17T12:46:25.000Z</time>
      </trkpt>
      <trkpt lat="45.1938" lon="6.39474">
        <ele>2030.5999755859</ele>
        <time>2022-12-17T12:46:27.000Z</time>
      </trkpt>
      <trkpt lat="45.1938" lon="6.39475">
        <ele>2030.1999511719</ele>
        <time>2022-12-17T12:46:28.000Z</time>
      </trkpt>
      <trkpt lat="45.1938" lon="6.39477">
        <ele>2030</ele>
        <time>2022-12-17T12:46:32.000Z</time>
      </trkpt>
      <trkpt lat="45.19381" lon="6.39477">
        <ele>2030</ele>
        <time>2022-12-17T12:46:33.000Z</time>
      </trkpt>
      <trkpt lat="45.19383" lon="6.3948">
        <ele>2029.8000488281</ele>
        <time>2022-12-17T12:46:37.000Z</time>
      </trkpt>
      <trkpt lat="45.19385" lon="6.39484">
        <ele>2029.5999755859</ele>
        <time>2022-12-17T12:46:43.000Z</time>
      </trkpt>
      <trkpt lat="45.19386" lon="6.39485">
        <ele>2029.4000244141</ele>
        <time>2022-12-17T12:46:44.000Z</time>
      </trkpt>
      <trkpt lat="45.19392" lon="6.39492">
        <ele>2029</ele>
        <time>2022-12-17T12:46:53.000Z</time>
      </trkpt>
      <trkpt lat="45.19396" lon="6.39499">
        <ele>2028.5999755859</ele>
        <time>2022-12-17T12:47:00.000Z</time>
      </trkpt>
      <trkpt lat="45.19397" lon="6.395">
        <ele>2028.5999755859</ele>
        <time>2022-12-17T12:47:01.000Z</time>
      </trkpt>
      <trkpt lat="45.19398" lon="6.39502">
        <ele>2028.1999511719</ele>
        <time>2022-12-17T12:47:03.000Z</time>
      </trkpt>
      <trkpt lat="45.19401" lon="6.39504">
        <ele>2028.1999511719</ele>
        <time>2022-12-17T12:47:08.000Z</time>
      </trkpt>
      <trkpt lat="45.19401" lon="6.39505">
        <ele>2028</ele>
        <time>2022-12-17T12:47:14.000Z</time>
      </trkpt>
      <trkpt lat="45.194" lon="6.39505">
        <ele>2028</ele>
        <time>2022-12-17T12:47:21.000Z</time>
      </trkpt>
      <trkpt lat="45.19402" lon="6.39507">
        <ele>2028</ele>
        <time>2022-12-17T12:47:27.000Z</time>
      </trkpt>
      <trkpt lat="45.19406" lon="6.39511">
        <ele>2027.8000488281</ele>
        <time>2022-12-17T12:47:32.000Z</time>
      </trkpt>
      <trkpt lat="45.19407" lon="6.39512">
        <ele>2027.8000488281</ele>
        <time>2022-12-17T12:47:34.000Z</time>
      </trkpt>
      <trkpt lat="45.19409" lon="6.39515">
        <ele>2028</ele>
        <time>2022-12-17T12:47:41.000Z</time>
      </trkpt>
      <trkpt lat="45.19412" lon="6.39516">
        <ele>2027.5999755859</ele>
        <time>2022-12-17T12:47:47.000Z</time>
      </trkpt>
      <trkpt lat="45.19413" lon="6.39518">
        <ele>2027.4000244141</ele>
        <time>2022-12-17T12:47:54.000Z</time>
      </trkpt>
      <trkpt lat="45.19414" lon="6.39518">
        <ele>2027.1999511719</ele>
        <time>2022-12-17T12:47:55.000Z</time>
      </trkpt>
      <trkpt lat="45.19414" lon="6.39518">
        <ele>2027.1999511719</ele>
        <time>2022-12-17T12:47:56.000Z</time>
      </trkpt>
      <trkpt lat="45.19414" lon="6.39518">
        <ele>2027</ele>
        <time>2022-12-17T12:48:05.000Z</time>
      </trkpt>
      <trkpt lat="45.19413" lon="6.39517">
        <ele>2027</ele>
        <time>2022-12-17T12:48:22.000Z</time>
      </trkpt>
      <trkpt lat="45.19413" lon="6.39516">
        <ele>2027.1999511719</ele>
        <time>2022-12-17T12:48:33.000Z</time>
      </trkpt>
      <trkpt lat="45.19413" lon="6.39516">
        <ele>2027</ele>
        <time>2022-12-17T12:48:35.000Z</time>
      </trkpt>
      <trkpt lat="45.19415" lon="6.39513">
        <ele>2026.8000488281</ele>
        <time>2022-12-17T12:48:38.000Z</time>
      </trkpt>
      <trkpt lat="45.19418" lon="6.39509">
        <ele>2026.5999755859</ele>
        <time>2022-12-17T12:48:42.000Z</time>
      </trkpt>
      <trkpt lat="45.1942" lon="6.39509">
        <ele>2026.5999755859</ele>
        <time>2022-12-17T12:48:43.000Z</time>
      </trkpt>
      <trkpt lat="45.19423" lon="6.39509">
        <ele>2026.4000244141</ele>
        <time>2022-12-17T12:48:45.000Z</time>
      </trkpt>
      <trkpt lat="45.19423" lon="6.3951">
        <ele>2026.1999511719</ele>
        <time>2022-12-17T12:48:48.000Z</time>
      </trkpt>
      <trkpt lat="45.19423" lon="6.3951">
        <ele>2026.1999511719</ele>
        <time>2022-12-17T12:48:49.000Z</time>
      </trkpt>
      <trkpt lat="45.19423" lon="6.3951">
        <ele>2026</ele>
        <time>2022-12-17T12:48:50.000Z</time>
      </trkpt>
      <trkpt lat="45.19423" lon="6.39511">
        <ele>2026</ele>
        <time>2022-12-17T12:48:55.000Z</time>
      </trkpt>
      <trkpt lat="45.19423" lon="6.39511">
        <ele>2026</ele>
        <time>2022-12-17T12:48:56.000Z</time>
      </trkpt>
      <trkpt lat="45.19424" lon="6.39512">
        <ele>2026</ele>
        <time>2022-12-17T12:49:08.000Z</time>
      </trkpt>
      <trkpt lat="45.19425" lon="6.39515">
        <ele>2025.8000488281</ele>
        <time>2022-12-17T12:49:09.000Z</time>
      </trkpt>
      <trkpt lat="45.19429" lon="6.39524">
        <ele>2024.8000488281</ele>
        <time>2022-12-17T12:49:12.000Z</time>
      </trkpt>
      <trkpt lat="45.19435" lon="6.39533">
        <ele>2023.4000244141</ele>
        <time>2022-12-17T12:49:15.000Z</time>
      </trkpt>
      <trkpt lat="45.19436" lon="6.39535">
        <ele>2023</ele>
        <time>2022-12-17T12:49:16.000Z</time>
      </trkpt>
      <trkpt lat="45.19438" lon="6.39539">
        <ele>2022.4000244141</ele>
        <time>2022-12-17T12:49:18.000Z</time>
      </trkpt>
      <trkpt lat="45.19438" lon="6.39541">
        <ele>2022.1999511719</ele>
        <time>2022-12-17T12:49:19.000Z</time>
      </trkpt>
      <trkpt lat="45.19438" lon="6.39543">
        <ele>2022</ele>
        <time>2022-12-17T12:49:20.000Z</time>
      </trkpt>
      <trkpt lat="45.19441" lon="6.3955">
        <ele>2021.4000244141</ele>
        <time>2022-12-17T12:49:22.000Z</time>
      </trkpt>
      <trkpt lat="45.19443" lon="6.39553">
        <ele>2020.8000488281</ele>
        <time>2022-12-17T12:49:23.000Z</time>
      </trkpt>
      <trkpt lat="45.19445" lon="6.39558">
        <ele>2019.8000488281</ele>
        <time>2022-12-17T12:49:25.000Z</time>
      </trkpt>
      <trkpt lat="45.19449" lon="6.39567">
        <ele>2018.1999511719</ele>
        <time>2022-12-17T12:49:28.000Z</time>
      </trkpt>
      <trkpt lat="45.1945" lon="6.39569">
        <ele>2017.5999755859</ele>
        <time>2022-12-17T12:49:29.000Z</time>
      </trkpt>
      <trkpt lat="45.19451" lon="6.39572">
        <ele>2017</ele>
        <time>2022-12-17T12:49:30.000Z</time>
      </trkpt>
      <trkpt lat="45.19453" lon="6.39585">
        <ele>2016</ele>
        <time>2022-12-17T12:49:33.000Z</time>
      </trkpt>
      <trkpt lat="45.19454" lon="6.39589">
        <ele>2015</ele>
        <time>2022-12-17T12:49:34.000Z</time>
      </trkpt>
      <trkpt lat="45.19456" lon="6.39593">
        <ele>2014</ele>
        <time>2022-12-17T12:49:35.000Z</time>
      </trkpt>
      <trkpt lat="45.19457" lon="6.39601">
        <ele>2012</ele>
        <time>2022-12-17T12:49:37.000Z</time>
      </trkpt>
      <trkpt lat="45.19459" lon="6.39608">
        <ele>2010</ele>
        <time>2022-12-17T12:49:39.000Z</time>
      </trkpt>
      <trkpt lat="45.19461" lon="6.39613">
        <ele>2008.8000488281</ele>
        <time>2022-12-17T12:49:41.000Z</time>
      </trkpt>
      <trkpt lat="45.19462" lon="6.39614">
        <ele>2008.5999755859</ele>
        <time>2022-12-17T12:49:42.000Z</time>
      </trkpt>
      <trkpt lat="45.19462" lon="6.39615">
        <ele>2008.4000244141</ele>
        <time>2022-12-17T12:49:43.000Z</time>
      </trkpt>
      <trkpt lat="45.19462" lon="6.39615">
        <ele>2008.1999511719</ele>
        <time>2022-12-17T12:49:47.000Z</time>
      </trkpt>
      <trkpt lat="45.19462" lon="6.39619">
        <ele>2007.8000488281</ele>
        <time>2022-12-17T12:49:52.000Z</time>
      </trkpt>
      <trkpt lat="45.19463" lon="6.39621">
        <ele>2007.5999755859</ele>
        <time>2022-12-17T12:49:54.000Z</time>
      </trkpt>
      <trkpt lat="45.19465" lon="6.39623">
        <ele>2007.1999511719</ele>
        <time>2022-12-17T12:49:56.000Z</time>
      </trkpt>
      <trkpt lat="45.19466" lon="6.39627">
        <ele>2006.4000244141</ele>
        <time>2022-12-17T12:49:58.000Z</time>
      </trkpt>
      <trkpt lat="45.19466" lon="6.39628">
        <ele>2006</ele>
        <time>2022-12-17T12:49:59.000Z</time>
      </trkpt>
      <trkpt lat="45.19465" lon="6.39629">
        <ele>2005.4000244141</ele>
        <time>2022-12-17T12:50:01.000Z</time>
      </trkpt>
      <trkpt lat="45.19466" lon="6.39637">
        <ele>2004.5999755859</ele>
        <time>2022-12-17T12:50:05.000Z</time>
      </trkpt>
      <trkpt lat="45.19466" lon="6.3964">
        <ele>2004</ele>
        <time>2022-12-17T12:50:06.000Z</time>
      </trkpt>
      <trkpt lat="45.19466" lon="6.39647">
        <ele>2002.5999755859</ele>
        <time>2022-12-17T12:50:08.000Z</time>
      </trkpt>
      <trkpt lat="45.19467" lon="6.39658">
        <ele>2001.4000244141</ele>
        <time>2022-12-17T12:50:10.000Z</time>
      </trkpt>
      <trkpt lat="45.1947" lon="6.39672">
        <ele>1998.8000488281</ele>
        <time>2022-12-17T12:50:12.000Z</time>
      </trkpt>
      <trkpt lat="45.19469" lon="6.3968">
        <ele>1997</ele>
        <time>2022-12-17T12:50:13.000Z</time>
      </trkpt>
      <trkpt lat="45.19467" lon="6.39686">
        <ele>1994.8000488281</ele>
        <time>2022-12-17T12:50:14.000Z</time>
      </trkpt>
      <trkpt lat="45.19467" lon="6.39691">
        <ele>1991.5999755859</ele>
        <time>2022-12-17T12:50:15.000Z</time>
      </trkpt>
      <trkpt lat="45.19466" lon="6.39697">
        <ele>1989.8000488281</ele>
        <time>2022-12-17T12:50:16.000Z</time>
      </trkpt>
      <trkpt lat="45.19466" lon="6.39704">
        <ele>1988</ele>
        <time>2022-12-17T12:50:17.000Z</time>
      </trkpt>
      <trkpt lat="45.19467" lon="6.3971">
        <ele>1986.8000488281</ele>
        <time>2022-12-17T12:50:18.000Z</time>
      </trkpt>
      <trkpt lat="45.19468" lon="6.39714">
        <ele>1985.5999755859</ele>
        <time>2022-12-17T12:50:19.000Z</time>
      </trkpt>
      <trkpt lat="45.19469" lon="6.39716">
        <ele>1984</ele>
        <time>2022-12-17T12:50:20.000Z</time>
      </trkpt>
      <trkpt lat="45.19469" lon="6.39717">
        <ele>1982.5999755859</ele>
        <time>2022-12-17T12:50:21.000Z</time>
      </trkpt>
      <trkpt lat="45.19469" lon="6.39717">
        <ele>1981.5999755859</ele>
        <time>2022-12-17T12:50:22.000Z</time>
      </trkpt>
      <trkpt lat="45.19469" lon="6.39717">
        <ele>1980.5999755859</ele>
        <time>2022-12-17T12:50:26.000Z</time>
      </trkpt>
      <trkpt lat="45.19469" lon="6.39717">
        <ele>1980.4000244141</ele>
        <time>2022-12-17T12:50:28.000Z</time>
      </trkpt>
      <trkpt lat="45.19471" lon="6.39717">
        <ele>1980.5999755859</ele>
        <time>2022-12-17T12:50:39.000Z</time>
      </trkpt>
      <trkpt lat="45.19472" lon="6.39717">
        <ele>1979.4000244141</ele>
        <time>2022-12-17T12:50:49.000Z</time>
      </trkpt>
      <trkpt lat="45.19472" lon="6.39717">
        <ele>1978.8000488281</ele>
        <time>2022-12-17T12:50:51.000Z</time>
      </trkpt>
      <trkpt lat="45.19472" lon="6.39717">
        <ele>1978.4000244141</ele>
        <time>2022-12-17T12:50:52.000Z</time>
      </trkpt>
      <trkpt lat="45.19472" lon="6.39721">
        <ele>1978</ele>
        <time>2022-12-17T12:51:24.000Z</time>
      </trkpt>
      <trkpt lat="45.19472" lon="6.39721">
        <ele>1977.8000488281</ele>
        <time>2022-12-17T12:51:26.000Z</time>
      </trkpt>
      <trkpt lat="45.19472" lon="6.3972">
        <ele>1977.4000244141</ele>
        <time>2022-12-17T12:51:29.000Z</time>
      </trkpt>
      <trkpt lat="45.1947" lon="6.39726">
        <ele>1976.4000244141</ele>
        <time>2022-12-17T12:52:02.000Z</time>
      </trkpt>
      <trkpt lat="45.1947" lon="6.39727">
        <ele>1976.4000244141</ele>
        <time>2022-12-17T12:52:03.000Z</time>
      </trkpt>
      <trkpt lat="45.1947" lon="6.39733">
        <ele>1976</ele>
        <time>2022-12-17T12:52:07.000Z</time>
      </trkpt>
      <trkpt lat="45.19472" lon="6.39738">
        <ele>1975.4000244141</ele>
        <time>2022-12-17T12:52:09.000Z</time>
      </trkpt>
      <trkpt lat="45.19473" lon="6.39741">
        <ele>1974.5999755859</ele>
        <time>2022-12-17T12:52:14.000Z</time>
      </trkpt>
      <trkpt lat="45.19474" lon="6.39741">
        <ele>1974.4000244141</ele>
        <time>2022-12-17T12:52:20.000Z</time>
      </trkpt>
      <trkpt lat="45.19474" lon="6.3974">
        <ele>1974.5999755859</ele>
        <time>2022-12-17T12:52:25.000Z</time>
      </trkpt>
      <trkpt lat="45.19477" lon="6.3974">
        <ele>1974.5999755859</ele>
        <time>2022-12-17T12:52:29.000Z</time>
      </trkpt>
      <trkpt lat="45.19478" lon="6.39742">
        <ele>1974.4000244141</ele>
        <time>2022-12-17T12:52:33.000Z</time>
      </trkpt>
      <trkpt lat="45.19478" lon="6.39742">
        <ele>1974.1999511719</ele>
        <time>2022-12-17T12:52:34.000Z</time>
      </trkpt>
      <trkpt lat="45.1948" lon="6.39747">
        <ele>1973.8000488281</ele>
        <time>2022-12-17T12:52:39.000Z</time>
      </trkpt>
      <trkpt lat="45.19479" lon="6.39755">
        <ele>1973.4000244141</ele>
        <time>2022-12-17T12:52:42.000Z</time>
      </trkpt>
      <trkpt lat="45.1948" lon="6.39755">
        <ele>1972.5999755859</ele>
        <time>2022-12-17T12:52:43.000Z</time>
      </trkpt>
      <trkpt lat="45.1948" lon="6.39757">
        <ele>1971.4000244141</ele>
        <time>2022-12-17T12:52:46.000Z</time>
      </trkpt>
      <trkpt lat="45.1948" lon="6.39759">
        <ele>1971</ele>
        <time>2022-12-17T12:52:47.000Z</time>
      </trkpt>
      <trkpt lat="45.19483" lon="6.39765">
        <ele>1970</ele>
        <time>2022-12-17T12:52:49.000Z</time>
      </trkpt>
      <trkpt lat="45.19487" lon="6.39774">
        <ele>1968.4000244141</ele>
        <time>2022-12-17T12:52:51.000Z</time>
      </trkpt>
      <trkpt lat="45.19488" lon="6.39777">
        <ele>1967</ele>
        <time>2022-12-17T12:52:52.000Z</time>
      </trkpt>
      <trkpt lat="45.1949" lon="6.3978">
        <ele>1965.8000488281</ele>
        <time>2022-12-17T12:52:54.000Z</time>
      </trkpt>
      <trkpt lat="45.19491" lon="6.39782">
        <ele>1965.4000244141</ele>
        <time>2022-12-17T12:52:55.000Z</time>
      </trkpt>
      <trkpt lat="45.19489" lon="6.39784">
        <ele>1965.1999511719</ele>
        <time>2022-12-17T12:52:56.000Z</time>
      </trkpt>
      <trkpt lat="45.19487" lon="6.39785">
        <ele>1964</ele>
        <time>2022-12-17T12:52:58.000Z</time>
      </trkpt>
      <trkpt lat="45.19485" lon="6.39785">
        <ele>1963</ele>
        <time>2022-12-17T12:53:01.000Z</time>
      </trkpt>
      <trkpt lat="45.19486" lon="6.39784">
        <ele>1962.8000488281</ele>
        <time>2022-12-17T12:53:04.000Z</time>
      </trkpt>
      <trkpt lat="45.19486" lon="6.39786">
        <ele>1962.8000488281</ele>
        <time>2022-12-17T12:53:11.000Z</time>
      </trkpt>
      <trkpt lat="45.19486" lon="6.3979">
        <ele>1962.1999511719</ele>
        <time>2022-12-17T12:53:20.000Z</time>
      </trkpt>
      <trkpt lat="45.19487" lon="6.39794">
        <ele>1961.5999755859</ele>
        <time>2022-12-17T12:53:21.000Z</time>
      </trkpt>
      <trkpt lat="45.19486" lon="6.39804">
        <ele>1960.4000244141</ele>
        <time>2022-12-17T12:53:23.000Z</time>
      </trkpt>
      <trkpt lat="45.19486" lon="6.39809">
        <ele>1959.1999511719</ele>
        <time>2022-12-17T12:53:24.000Z</time>
      </trkpt>
      <trkpt lat="45.19486" lon="6.39812">
        <ele>1958</ele>
        <time>2022-12-17T12:53:25.000Z</time>
      </trkpt>
      <trkpt lat="45.19485" lon="6.39814">
        <ele>1956.8000488281</ele>
        <time>2022-12-17T12:53:26.000Z</time>
      </trkpt>
      <trkpt lat="45.19484" lon="6.39816">
        <ele>1955.5999755859</ele>
        <time>2022-12-17T12:53:28.000Z</time>
      </trkpt>
      <trkpt lat="45.19485" lon="6.39819">
        <ele>1955.4000244141</ele>
        <time>2022-12-17T12:53:35.000Z</time>
      </trkpt>
      <trkpt lat="45.19486" lon="6.39824">
        <ele>1955</ele>
        <time>2022-12-17T12:53:37.000Z</time>
      </trkpt>
      <trkpt lat="45.19489" lon="6.39827">
        <ele>1954.5999755859</ele>
        <time>2022-12-17T12:53:38.000Z</time>
      </trkpt>
      <trkpt lat="45.19491" lon="6.3983">
        <ele>1953.5999755859</ele>
        <time>2022-12-17T12:53:39.000Z</time>
      </trkpt>
      <trkpt lat="45.19492" lon="6.39833">
        <ele>1953</ele>
        <time>2022-12-17T12:53:40.000Z</time>
      </trkpt>
      <trkpt lat="45.19494" lon="6.39839">
        <ele>1951.5999755859</ele>
        <time>2022-12-17T12:53:43.000Z</time>
      </trkpt>
      <trkpt lat="45.19493" lon="6.39841">
        <ele>1951.1999511719</ele>
        <time>2022-12-17T12:53:46.000Z</time>
      </trkpt>
      <trkpt lat="45.19493" lon="6.39843">
        <ele>1950.8000488281</ele>
        <time>2022-12-17T12:53:48.000Z</time>
      </trkpt>
      <trkpt lat="45.19496" lon="6.39851">
        <ele>1950.5999755859</ele>
        <time>2022-12-17T12:53:53.000Z</time>
      </trkpt>
      <trkpt lat="45.19499" lon="6.39857">
        <ele>1949.8000488281</ele>
        <time>2022-12-17T12:53:55.000Z</time>
      </trkpt>
      <trkpt lat="45.19499" lon="6.3986">
        <ele>1949</ele>
        <time>2022-12-17T12:53:57.000Z</time>
      </trkpt>
      <trkpt lat="45.19498" lon="6.3986">
        <ele>1948.5999755859</ele>
        <time>2022-12-17T12:53:59.000Z</time>
      </trkpt>
      <trkpt lat="45.19499" lon="6.3986">
        <ele>1948.1999511719</ele>
        <time>2022-12-17T12:54:07.000Z</time>
      </trkpt>
      <trkpt lat="45.19499" lon="6.39864">
        <ele>1948</ele>
        <time>2022-12-17T12:54:09.000Z</time>
      </trkpt>
      <trkpt lat="45.19499" lon="6.39866">
        <ele>1947.5999755859</ele>
        <time>2022-12-17T12:54:10.000Z</time>
      </trkpt>
      <trkpt lat="45.19498" lon="6.39867">
        <ele>1947.1999511719</ele>
        <time>2022-12-17T12:54:12.000Z</time>
      </trkpt>
      <trkpt lat="45.19498" lon="6.39867">
        <ele>1946.8000488281</ele>
        <time>2022-12-17T12:54:13.000Z</time>
      </trkpt>
      <trkpt lat="45.19498" lon="6.39867">
        <ele>1946.4000244141</ele>
        <time>2022-12-17T12:54:26.000Z</time>
      </trkpt>
      <trkpt lat="45.19499" lon="6.39867">
        <ele>1946.4000244141</ele>
        <time>2022-12-17T12:54:51.000Z</time>
      </trkpt>
      <trkpt lat="45.19499" lon="6.39867">
        <ele>1946.1999511719</ele>
        <time>2022-12-17T12:54:56.000Z</time>
      </trkpt>
      <trkpt lat="45.19499" lon="6.39867">
        <ele>1946.1999511719</ele>
        <time>2022-12-17T12:55:03.000Z</time>
      </trkpt>
      <trkpt lat="45.19499" lon="6.39867">
        <ele>1945.8000488281</ele>
        <time>2022-12-17T12:55:12.000Z</time>
      </trkpt>
      <trkpt lat="45.19499" lon="6.39868">
        <ele>1945.4000244141</ele>
        <time>2022-12-17T12:55:13.000Z</time>
      </trkpt>
      <trkpt lat="45.19501" lon="6.39873">
        <ele>1944.5999755859</ele>
        <time>2022-12-17T12:55:14.000Z</time>
      </trkpt>
      <trkpt lat="45.19504" lon="6.39878">
        <ele>1944.1999511719</ele>
        <time>2022-12-17T12:55:15.000Z</time>
      </trkpt>
      <trkpt lat="45.19505" lon="6.3988">
        <ele>1942.8000488281</ele>
        <time>2022-12-17T12:55:16.000Z</time>
      </trkpt>
      <trkpt lat="45.19505" lon="6.39882">
        <ele>1941.5999755859</ele>
        <time>2022-12-17T12:55:18.000Z</time>
      </trkpt>
      <trkpt lat="45.19505" lon="6.39885">
        <ele>1940.5999755859</ele>
        <time>2022-12-17T12:55:24.000Z</time>
      </trkpt>
      <trkpt lat="45.19508" lon="6.39893">
        <ele>1940.4000244141</ele>
        <time>2022-12-17T12:55:30.000Z</time>
      </trkpt>
      <trkpt lat="45.19511" lon="6.39901">
        <ele>1939.4000244141</ele>
        <time>2022-12-17T12:55:32.000Z</time>
      </trkpt>
      <trkpt lat="45.19514" lon="6.39911">
        <ele>1938</ele>
        <time>2022-12-17T12:55:34.000Z</time>
      </trkpt>
      <trkpt lat="45.19516" lon="6.39917">
        <ele>1936.8000488281</ele>
        <time>2022-12-17T12:55:35.000Z</time>
      </trkpt>
      <trkpt lat="45.19518" lon="6.39923">
        <ele>1935.5999755859</ele>
        <time>2022-12-17T12:55:36.000Z</time>
      </trkpt>
      <trkpt lat="45.19519" lon="6.39929">
        <ele>1934.5999755859</ele>
        <time>2022-12-17T12:55:37.000Z</time>
      </trkpt>
      <trkpt lat="45.19519" lon="6.39934">
        <ele>1933.4000244141</ele>
        <time>2022-12-17T12:55:38.000Z</time>
      </trkpt>
      <trkpt lat="45.19522" lon="6.39945">
        <ele>1931.8000488281</ele>
        <time>2022-12-17T12:55:40.000Z</time>
      </trkpt>
      <trkpt lat="45.19523" lon="6.39954">
        <ele>1930.5999755859</ele>
        <time>2022-12-17T12:55:43.000Z</time>
      </trkpt>
      <trkpt lat="45.19524" lon="6.39965">
        <ele>1929.5999755859</ele>
        <time>2022-12-17T12:55:49.000Z</time>
      </trkpt>
      <trkpt lat="45.19525" lon="6.39968">
        <ele>1929.4000244141</ele>
        <time>2022-12-17T12:55:50.000Z</time>
      </trkpt>
      <trkpt lat="45.19528" lon="6.39981">
        <ele>1928.1999511719</ele>
        <time>2022-12-17T12:55:53.000Z</time>
      </trkpt>
      <trkpt lat="45.19531" lon="6.39991">
        <ele>1927</ele>
        <time>2022-12-17T12:55:55.000Z</time>
      </trkpt>
      <trkpt lat="45.19533" lon="6.40002">
        <ele>1925.5999755859</ele>
        <time>2022-12-17T12:55:57.000Z</time>
      </trkpt>
      <trkpt lat="45.19537" lon="6.40012">
        <ele>1924.1999511719</ele>
        <time>2022-12-17T12:55:59.000Z</time>
      </trkpt>
      <trkpt lat="45.19539" lon="6.40016">
        <ele>1923.5999755859</ele>
        <time>2022-12-17T12:56:00.000Z</time>
      </trkpt>
      <trkpt lat="45.19541" lon="6.40021">
        <ele>1923</ele>
        <time>2022-12-17T12:56:01.000Z</time>
      </trkpt>
      <trkpt lat="45.19548" lon="6.40031">
        <ele>1921.8000488281</ele>
        <time>2022-12-17T12:56:03.000Z</time>
      </trkpt>
      <trkpt lat="45.19555" lon="6.40041">
        <ele>1920</ele>
        <time>2022-12-17T12:56:05.000Z</time>
      </trkpt>
      <trkpt lat="45.19561" lon="6.4005">
        <ele>1918.5999755859</ele>
        <time>2022-12-17T12:56:07.000Z</time>
      </trkpt>
      <trkpt lat="45.1957" lon="6.40062">
        <ele>1917.1999511719</ele>
        <time>2022-12-17T12:56:10.000Z</time>
      </trkpt>
      <trkpt lat="45.19571" lon="6.40065">
        <ele>1917</ele>
        <time>2022-12-17T12:56:11.000Z</time>
      </trkpt>
      <trkpt lat="45.19573" lon="6.4007">
        <ele>1916.1999511719</ele>
        <time>2022-12-17T12:56:13.000Z</time>
      </trkpt>
      <trkpt lat="45.19573" lon="6.40073">
        <ele>1915.8000488281</ele>
        <time>2022-12-17T12:56:15.000Z</time>
      </trkpt>
      <trkpt lat="45.19572" lon="6.40073">
        <ele>1915.5999755859</ele>
        <time>2022-12-17T12:56:20.000Z</time>
      </trkpt>
      <trkpt lat="45.19574" lon="6.40078">
        <ele>1915.4000244141</ele>
        <time>2022-12-17T12:56:26.000Z</time>
      </trkpt>
      <trkpt lat="45.19574" lon="6.40082">
        <ele>1915.1999511719</ele>
        <time>2022-12-17T12:56:28.000Z</time>
      </trkpt>
      <trkpt lat="45.19574" lon="6.40086">
        <ele>1915.1999511719</ele>
        <time>2022-12-17T12:56:29.000Z</time>
      </trkpt>
      <trkpt lat="45.19573" lon="6.40089">
        <ele>1914.4000244141</ele>
        <time>2022-12-17T12:56:30.000Z</time>
      </trkpt>
      <trkpt lat="45.19572" lon="6.40091">
        <ele>1913.4000244141</ele>
        <time>2022-12-17T12:56:31.000Z</time>
      </trkpt>
      <trkpt lat="45.19572" lon="6.40091">
        <ele>1912.1999511719</ele>
        <time>2022-12-17T12:56:32.000Z</time>
      </trkpt>
      <trkpt lat="45.19571" lon="6.40091">
        <ele>1911</ele>
        <time>2022-12-17T12:56:33.000Z</time>
      </trkpt>
      <trkpt lat="45.19571" lon="6.40091">
        <ele>1910</ele>
        <time>2022-12-17T12:56:36.000Z</time>
      </trkpt>
      <trkpt lat="45.1957" lon="6.40091">
        <ele>1909.8000488281</ele>
        <time>2022-12-17T12:56:45.000Z</time>
      </trkpt>
      <trkpt lat="45.19569" lon="6.4009">
        <ele>1909.5999755859</ele>
        <time>2022-12-17T12:56:54.000Z</time>
      </trkpt>
      <trkpt lat="45.19571" lon="6.40091">
        <ele>1910</ele>
        <time>2022-12-17T12:57:47.000Z</time>
      </trkpt>
      <trkpt lat="45.19571" lon="6.40091">
        <ele>1910.1999511719</ele>
        <time>2022-12-17T12:57:56.000Z</time>
      </trkpt>
      <trkpt lat="45.19571" lon="6.40091">
        <ele>1910.1999511719</ele>
        <time>2022-12-17T12:58:01.000Z</time>
      </trkpt>
      <trkpt lat="45.19569" lon="6.4009">
        <ele>1910.8000488281</ele>
        <time>2022-12-17T12:58:25.000Z</time>
      </trkpt>
      <trkpt lat="45.19568" lon="6.4009">
        <ele>1910.8000488281</ele>
        <time>2022-12-17T12:58:37.000Z</time>
      </trkpt>
      <trkpt lat="45.19568" lon="6.40091">
        <ele>1910.1999511719</ele>
        <time>2022-12-17T12:58:50.000Z</time>
      </trkpt>
      <trkpt lat="45.19568" lon="6.40091">
        <ele>1910.1999511719</ele>
        <time>2022-12-17T12:58:51.000Z</time>
      </trkpt>
      <trkpt lat="45.19568" lon="6.40091">
        <ele>1910.4000244141</ele>
        <time>2022-12-17T12:58:57.000Z</time>
      </trkpt>
      <trkpt lat="45.19568" lon="6.40091">
        <ele>1910.4000244141</ele>
        <time>2022-12-17T12:59:06.000Z</time>
      </trkpt>
      <trkpt lat="45.19567" lon="6.40098">
        <ele>1909.8000488281</ele>
        <time>2022-12-17T12:59:08.000Z</time>
      </trkpt>
      <trkpt lat="45.19566" lon="6.40102">
        <ele>1908.8000488281</ele>
        <time>2022-12-17T12:59:09.000Z</time>
      </trkpt>
      <trkpt lat="45.19565" lon="6.4011">
        <ele>1907.5999755859</ele>
        <time>2022-12-17T12:59:11.000Z</time>
      </trkpt>
      <trkpt lat="45.19563" lon="6.40118">
        <ele>1905.4000244141</ele>
        <time>2022-12-17T12:59:13.000Z</time>
      </trkpt>
      <trkpt lat="45.19563" lon="6.40121">
        <ele>1904.4000244141</ele>
        <time>2022-12-17T12:59:14.000Z</time>
      </trkpt>
      <trkpt lat="45.19563" lon="6.40123">
        <ele>1902.8000488281</ele>
        <time>2022-12-17T12:59:15.000Z</time>
      </trkpt>
      <trkpt lat="45.19561" lon="6.40128">
        <ele>1901.4000244141</ele>
        <time>2022-12-17T12:59:17.000Z</time>
      </trkpt>
      <trkpt lat="45.19557" lon="6.40138">
        <ele>1899.8000488281</ele>
        <time>2022-12-17T12:59:19.000Z</time>
      </trkpt>
      <trkpt lat="45.19554" lon="6.40142">
        <ele>1898.5999755859</ele>
        <time>2022-12-17T12:59:20.000Z</time>
      </trkpt>
      <trkpt lat="45.19554" lon="6.40144">
        <ele>1896.8000488281</ele>
        <time>2022-12-17T12:59:21.000Z</time>
      </trkpt>
      <trkpt lat="45.19553" lon="6.40145">
        <ele>1895.8000488281</ele>
        <time>2022-12-17T12:59:22.000Z</time>
      </trkpt>
      <trkpt lat="45.19553" lon="6.40145">
        <ele>1895.1999511719</ele>
        <time>2022-12-17T12:59:23.000Z</time>
      </trkpt>
      <trkpt lat="45.19553" lon="6.40145">
        <ele>1894.8000488281</ele>
        <time>2022-12-17T12:59:24.000Z</time>
      </trkpt>
      <trkpt lat="45.19553" lon="6.40145">
        <ele>1893.8000488281</ele>
        <time>2022-12-17T12:59:30.000Z</time>
      </trkpt>
      <trkpt lat="45.19553" lon="6.40145">
        <ele>1893.8000488281</ele>
        <time>2022-12-17T12:59:31.000Z</time>
      </trkpt>
      <trkpt lat="45.19553" lon="6.40144">
        <ele>1894.8000488281</ele>
        <time>2022-12-17T12:59:43.000Z</time>
      </trkpt>
      <trkpt lat="45.19553" lon="6.40144">
        <ele>1895</ele>
        <time>2022-12-17T12:59:57.000Z</time>
      </trkpt>
      <trkpt lat="45.19553" lon="6.40143">
        <ele>1894.8000488281</ele>
        <time>2022-12-17T13:00:09.000Z</time>
      </trkpt>
      <trkpt lat="45.19553" lon="6.40143">
        <ele>1895</ele>
        <time>2022-12-17T13:00:16.000Z</time>
      </trkpt>
      <trkpt lat="45.19555" lon="6.40146">
        <ele>1894.5999755859</ele>
        <time>2022-12-17T13:00:24.000Z</time>
      </trkpt>
      <trkpt lat="45.19556" lon="6.40155">
        <ele>1894.4000244141</ele>
        <time>2022-12-17T13:00:27.000Z</time>
      </trkpt>
      <trkpt lat="45.19559" lon="6.40169">
        <ele>1893.4000244141</ele>
        <time>2022-12-17T13:00:31.000Z</time>
      </trkpt>
      <trkpt lat="45.19562" lon="6.40181">
        <ele>1892.5999755859</ele>
        <time>2022-12-17T13:00:34.000Z</time>
      </trkpt>
      <trkpt lat="45.19562" lon="6.40185">
        <ele>1892.4000244141</ele>
        <time>2022-12-17T13:00:35.000Z</time>
      </trkpt>
      <trkpt lat="45.19566" lon="6.402">
        <ele>1891.4000244141</ele>
        <time>2022-12-17T13:00:38.000Z</time>
      </trkpt>
      <trkpt lat="45.19567" lon="6.40205">
        <ele>1890.8000488281</ele>
        <time>2022-12-17T13:00:39.000Z</time>
      </trkpt>
      <trkpt lat="45.19569" lon="6.40217">
        <ele>1889.8000488281</ele>
        <time>2022-12-17T13:00:41.000Z</time>
      </trkpt>
      <trkpt lat="45.19571" lon="6.40229">
        <ele>1888.8000488281</ele>
        <time>2022-12-17T13:00:43.000Z</time>
      </trkpt>
      <trkpt lat="45.19571" lon="6.40235">
        <ele>1888.1999511719</ele>
        <time>2022-12-17T13:00:44.000Z</time>
      </trkpt>
      <trkpt lat="45.19573" lon="6.40241">
        <ele>1887.4000244141</ele>
        <time>2022-12-17T13:00:45.000Z</time>
      </trkpt>
      <trkpt lat="45.19575" lon="6.40248">
        <ele>1886.5999755859</ele>
        <time>2022-12-17T13:00:46.000Z</time>
      </trkpt>
      <trkpt lat="45.19575" lon="6.40254">
        <ele>1885.8000488281</ele>
        <time>2022-12-17T13:00:47.000Z</time>
      </trkpt>
      <trkpt lat="45.19577" lon="6.40261">
        <ele>1885.1999511719</ele>
        <time>2022-12-17T13:00:48.000Z</time>
      </trkpt>
      <trkpt lat="45.1958" lon="6.40268">
        <ele>1884.1999511719</ele>
        <time>2022-12-17T13:00:49.000Z</time>
      </trkpt>
      <trkpt lat="45.19582" lon="6.40273">
        <ele>1883.1999511719</ele>
        <time>2022-12-17T13:00:50.000Z</time>
      </trkpt>
      <trkpt lat="45.19586" lon="6.4028">
        <ele>1881.5999755859</ele>
        <time>2022-12-17T13:00:52.000Z</time>
      </trkpt>
      <trkpt lat="45.19587" lon="6.40284">
        <ele>1880.5999755859</ele>
        <time>2022-12-17T13:00:54.000Z</time>
      </trkpt>
      <trkpt lat="45.19587" lon="6.40287">
        <ele>1879.8000488281</ele>
        <time>2022-12-17T13:00:56.000Z</time>
      </trkpt>
      <trkpt lat="45.19587" lon="6.4029">
        <ele>1879.4000244141</ele>
        <time>2022-12-17T13:00:57.000Z</time>
      </trkpt>
      <trkpt lat="45.19587" lon="6.40305">
        <ele>1878.1999511719</ele>
        <time>2022-12-17T13:01:00.000Z</time>
      </trkpt>
      <trkpt lat="45.19584" lon="6.40315">
        <ele>1876.5999755859</ele>
        <time>2022-12-17T13:01:02.000Z</time>
      </trkpt>
      <trkpt lat="45.19585" lon="6.40325">
        <ele>1875</ele>
        <time>2022-12-17T13:01:04.000Z</time>
      </trkpt>
      <trkpt lat="45.19586" lon="6.40326">
        <ele>1873.8000488281</ele>
        <time>2022-12-17T13:01:05.000Z</time>
      </trkpt>
      <trkpt lat="45.19587" lon="6.40328">
        <ele>1872.4000244141</ele>
        <time>2022-12-17T13:01:07.000Z</time>
      </trkpt>
      <trkpt lat="45.19587" lon="6.40328">
        <ele>1872</ele>
        <time>2022-12-17T13:01:09.000Z</time>
      </trkpt>
      <trkpt lat="45.19589" lon="6.40331">
        <ele>1871.8000488281</ele>
        <time>2022-12-17T13:01:18.000Z</time>
      </trkpt>
      <trkpt lat="45.19589" lon="6.40331">
        <ele>1871.4000244141</ele>
        <time>2022-12-17T13:01:27.000Z</time>
      </trkpt>
      <trkpt lat="45.19588" lon="6.40331">
        <ele>1871.1999511719</ele>
        <time>2022-12-17T13:01:31.000Z</time>
      </trkpt>
      <trkpt lat="45.19588" lon="6.40331">
        <ele>1871</ele>
        <time>2022-12-17T13:01:34.000Z</time>
      </trkpt>
      <trkpt lat="45.19588" lon="6.40331">
        <ele>1871</ele>
        <time>2022-12-17T13:01:35.000Z</time>
      </trkpt>
      <trkpt lat="45.19588" lon="6.40331">
        <ele>1871.1999511719</ele>
        <time>2022-12-17T13:01:40.000Z</time>
      </trkpt>
      <trkpt lat="45.19588" lon="6.40332">
        <ele>1870.8000488281</ele>
        <time>2022-12-17T13:01:46.000Z</time>
      </trkpt>
      <trkpt lat="45.19591" lon="6.40343">
        <ele>1870.1999511719</ele>
        <time>2022-12-17T13:01:48.000Z</time>
      </trkpt>
      <trkpt lat="45.19594" lon="6.40358">
        <ele>1868.1999511719</ele>
        <time>2022-12-17T13:01:50.000Z</time>
      </trkpt>
      <trkpt lat="45.19596" lon="6.40367">
        <ele>1867</ele>
        <time>2022-12-17T13:01:51.000Z</time>
      </trkpt>
      <trkpt lat="45.19597" lon="6.40376">
        <ele>1865.8000488281</ele>
        <time>2022-12-17T13:01:52.000Z</time>
      </trkpt>
      <trkpt lat="45.19599" lon="6.40386">
        <ele>1864.8000488281</ele>
        <time>2022-12-17T13:01:53.000Z</time>
      </trkpt>
      <trkpt lat="45.196" lon="6.40396">
        <ele>1863.4000244141</ele>
        <time>2022-12-17T13:01:54.000Z</time>
      </trkpt>
      <trkpt lat="45.19601" lon="6.40406">
        <ele>1861.1999511719</ele>
        <time>2022-12-17T13:01:55.000Z</time>
      </trkpt>
      <trkpt lat="45.19603" lon="6.40413">
        <ele>1859.1999511719</ele>
        <time>2022-12-17T13:01:56.000Z</time>
      </trkpt>
      <trkpt lat="45.19605" lon="6.40418">
        <ele>1858</ele>
        <time>2022-12-17T13:01:57.000Z</time>
      </trkpt>
      <trkpt lat="45.19605" lon="6.40423">
        <ele>1856.5999755859</ele>
        <time>2022-12-17T13:01:59.000Z</time>
      </trkpt>
      <trkpt lat="45.19604" lon="6.40435">
        <ele>1854.8000488281</ele>
        <time>2022-12-17T13:02:02.000Z</time>
      </trkpt>
      <trkpt lat="45.19604" lon="6.4044">
        <ele>1854.1999511719</ele>
        <time>2022-12-17T13:02:03.000Z</time>
      </trkpt>
      <trkpt lat="45.19604" lon="6.40445">
        <ele>1853.1999511719</ele>
        <time>2022-12-17T13:02:04.000Z</time>
      </trkpt>
      <trkpt lat="45.19606" lon="6.40457">
        <ele>1852.1999511719</ele>
        <time>2022-12-17T13:02:06.000Z</time>
      </trkpt>
      <trkpt lat="45.19609" lon="6.4047">
        <ele>1850.8000488281</ele>
        <time>2022-12-17T13:02:08.000Z</time>
      </trkpt>
      <trkpt lat="45.1961" lon="6.40476">
        <ele>1850</ele>
        <time>2022-12-17T13:02:09.000Z</time>
      </trkpt>
      <trkpt lat="45.19611" lon="6.40483">
        <ele>1849.4000244141</ele>
        <time>2022-12-17T13:02:10.000Z</time>
      </trkpt>
      <trkpt lat="45.19612" lon="6.4049">
        <ele>1848.4000244141</ele>
        <time>2022-12-17T13:02:11.000Z</time>
      </trkpt>
      <trkpt lat="45.19613" lon="6.40497">
        <ele>1847.5999755859</ele>
        <time>2022-12-17T13:02:12.000Z</time>
      </trkpt>
      <trkpt lat="45.19614" lon="6.40504">
        <ele>1846.5999755859</ele>
        <time>2022-12-17T13:02:13.000Z</time>
      </trkpt>
      <trkpt lat="45.19615" lon="6.40511">
        <ele>1845.5999755859</ele>
        <time>2022-12-17T13:02:14.000Z</time>
      </trkpt>
      <trkpt lat="45.19617" lon="6.40517">
        <ele>1844.5999755859</ele>
        <time>2022-12-17T13:02:15.000Z</time>
      </trkpt>
      <trkpt lat="45.19618" lon="6.40523">
        <ele>1843.5999755859</ele>
        <time>2022-12-17T13:02:16.000Z</time>
      </trkpt>
      <trkpt lat="45.19621" lon="6.40537">
        <ele>1841.8000488281</ele>
        <time>2022-12-17T13:02:18.000Z</time>
      </trkpt>
      <trkpt lat="45.19622" lon="6.40544">
        <ele>1840.5999755859</ele>
        <time>2022-12-17T13:02:19.000Z</time>
      </trkpt>
      <trkpt lat="45.19624" lon="6.40552">
        <ele>1839.4000244141</ele>
        <time>2022-12-17T13:02:20.000Z</time>
      </trkpt>
      <trkpt lat="45.19626" lon="6.4056">
        <ele>1838.1999511719</ele>
        <time>2022-12-17T13:02:21.000Z</time>
      </trkpt>
      <trkpt lat="45.19628" lon="6.40567">
        <ele>1836.5999755859</ele>
        <time>2022-12-17T13:02:22.000Z</time>
      </trkpt>
      <trkpt lat="45.19633" lon="6.40574">
        <ele>1835.1999511719</ele>
        <time>2022-12-17T13:02:24.000Z</time>
      </trkpt>
      <trkpt lat="45.19633" lon="6.40576">
        <ele>1834.8000488281</ele>
        <time>2022-12-17T13:02:25.000Z</time>
      </trkpt>
      <trkpt lat="45.19633" lon="6.40576">
        <ele>1834.1999511719</ele>
        <time>2022-12-17T13:02:27.000Z</time>
      </trkpt>
      <trkpt lat="45.19632" lon="6.40576">
        <ele>1834.1999511719</ele>
        <time>2022-12-17T13:02:28.000Z</time>
      </trkpt>
      <trkpt lat="45.19632" lon="6.40575">
        <ele>1834.1999511719</ele>
        <time>2022-12-17T13:02:30.000Z</time>
      </trkpt>
      <trkpt lat="45.19632" lon="6.40574">
        <ele>1834.1999511719</ele>
        <time>2022-12-17T13:02:31.000Z</time>
      </trkpt>
      <trkpt lat="45.19633" lon="6.40575">
        <ele>1834.1999511719</ele>
        <time>2022-12-17T13:02:34.000Z</time>
      </trkpt>
      <trkpt lat="45.19635" lon="6.40579">
        <ele>1834.1999511719</ele>
        <time>2022-12-17T13:02:39.000Z</time>
      </trkpt>
      <trkpt lat="45.19636" lon="6.40581">
        <ele>1834.1999511719</ele>
        <time>2022-12-17T13:02:41.000Z</time>
      </trkpt>
      <trkpt lat="45.19635" lon="6.40581">
        <ele>1834.1999511719</ele>
        <time>2022-12-17T13:02:46.000Z</time>
      </trkpt>
      <trkpt lat="45.19637" lon="6.40584">
        <ele>1834</ele>
        <time>2022-12-17T13:02:53.000Z</time>
      </trkpt>
      <trkpt lat="45.19634" lon="6.40592">
        <ele>1834</ele>
        <time>2022-12-17T13:03:00.000Z</time>
      </trkpt>
      <trkpt lat="45.19629" lon="6.40594">
        <ele>1832.4000244141</ele>
        <time>2022-12-17T13:03:02.000Z</time>
      </trkpt>
      <trkpt lat="45.19629" lon="6.40595">
        <ele>1831.8000488281</ele>
        <time>2022-12-17T13:03:03.000Z</time>
      </trkpt>
      <trkpt lat="45.19629" lon="6.40595">
        <ele>1831.1999511719</ele>
        <time>2022-12-17T13:03:04.000Z</time>
      </trkpt>
      <trkpt lat="45.19628" lon="6.40596">
        <ele>1830.5999755859</ele>
        <time>2022-12-17T13:03:10.000Z</time>
      </trkpt>
      <trkpt lat="45.19628" lon="6.406">
        <ele>1830.4000244141</ele>
        <time>2022-12-17T13:03:16.000Z</time>
      </trkpt>
      <trkpt lat="45.19629" lon="6.40604">
        <ele>1830</ele>
        <time>2022-12-17T13:03:17.000Z</time>
      </trkpt>
      <trkpt lat="45.19629" lon="6.40607">
        <ele>1829.4000244141</ele>
        <time>2022-12-17T13:03:18.000Z</time>
      </trkpt>
      <trkpt lat="45.19629" lon="6.40609">
        <ele>1828.8000488281</ele>
        <time>2022-12-17T13:03:19.000Z</time>
      </trkpt>
      <trkpt lat="45.1963" lon="6.40612">
        <ele>1828</ele>
        <time>2022-12-17T13:03:22.000Z</time>
      </trkpt>
      <trkpt lat="45.1963" lon="6.40614">
        <ele>1827.8000488281</ele>
        <time>2022-12-17T13:03:24.000Z</time>
      </trkpt>
      <trkpt lat="45.19631" lon="6.40614">
        <ele>1827.5999755859</ele>
        <time>2022-12-17T13:03:29.000Z</time>
      </trkpt>
      <trkpt lat="45.19634" lon="6.40619">
        <ele>1827.4000244141</ele>
        <time>2022-12-17T13:03:39.000Z</time>
      </trkpt>
      <trkpt lat="45.19634" lon="6.40624">
        <ele>1827.1999511719</ele>
        <time>2022-12-17T13:03:41.000Z</time>
      </trkpt>
      <trkpt lat="45.19638" lon="6.40638">
        <ele>1826.5999755859</ele>
        <time>2022-12-17T13:03:44.000Z</time>
      </trkpt>
      <trkpt lat="45.19639" lon="6.40644">
        <ele>1826.1999511719</ele>
        <time>2022-12-17T13:03:45.000Z</time>
      </trkpt>
      <trkpt lat="45.19641" lon="6.40658">
        <ele>1825</ele>
        <time>2022-12-17T13:03:47.000Z</time>
      </trkpt>
      <trkpt lat="45.19643" lon="6.40665">
        <ele>1824.4000244141</ele>
        <time>2022-12-17T13:03:48.000Z</time>
      </trkpt>
      <trkpt lat="45.19645" lon="6.40671">
        <ele>1823.8000488281</ele>
        <time>2022-12-17T13:03:49.000Z</time>
      </trkpt>
      <trkpt lat="45.19648" lon="6.40678">
        <ele>1823.4000244141</ele>
        <time>2022-12-17T13:03:50.000Z</time>
      </trkpt>
      <trkpt lat="45.19651" lon="6.40683">
        <ele>1822.8000488281</ele>
        <time>2022-12-17T13:03:51.000Z</time>
      </trkpt>
      <trkpt lat="45.19657" lon="6.40693">
        <ele>1821.5999755859</ele>
        <time>2022-12-17T13:03:53.000Z</time>
      </trkpt>
      <trkpt lat="45.19662" lon="6.407">
        <ele>1821.1999511719</ele>
        <time>2022-12-17T13:03:55.000Z</time>
      </trkpt>
      <trkpt lat="45.19673" lon="6.40711">
        <ele>1820.5999755859</ele>
        <time>2022-12-17T13:03:59.000Z</time>
      </trkpt>
      <trkpt lat="45.19678" lon="6.40716">
        <ele>1820</ele>
        <time>2022-12-17T13:04:01.000Z</time>
      </trkpt>
      <trkpt lat="45.19686" lon="6.40726">
        <ele>1819.4000244141</ele>
        <time>2022-12-17T13:04:05.000Z</time>
      </trkpt>
      <trkpt lat="45.1969" lon="6.40732">
        <ele>1819.1999511719</ele>
        <time>2022-12-17T13:04:07.000Z</time>
      </trkpt>
      <trkpt lat="45.19697" lon="6.40742">
        <ele>1818.5999755859</ele>
        <time>2022-12-17T13:04:12.000Z</time>
      </trkpt>
      <trkpt lat="45.19703" lon="6.4075">
        <ele>1818.4000244141</ele>
        <time>2022-12-17T13:04:16.000Z</time>
      </trkpt>
      <trkpt lat="45.19705" lon="6.40754">
        <ele>1818</ele>
        <time>2022-12-17T13:04:19.000Z</time>
      </trkpt>
      <trkpt lat="45.1971" lon="6.4076">
        <ele>1817.5999755859</ele>
        <time>2022-12-17T13:04:24.000Z</time>
      </trkpt>
      <trkpt lat="45.19711" lon="6.40761">
        <ele>1817.4000244141</ele>
        <time>2022-12-17T13:04:25.000Z</time>
      </trkpt>
      <trkpt lat="45.19711" lon="6.40763">
        <ele>1817.4000244141</ele>
        <time>2022-12-17T13:04:26.000Z</time>
      </trkpt>
      <trkpt lat="45.19712" lon="6.40765">
        <ele>1817.1999511719</ele>
        <time>2022-12-17T13:04:27.000Z</time>
      </trkpt>
      <trkpt lat="45.19713" lon="6.40767">
        <ele>1817.1999511719</ele>
        <time>2022-12-17T13:04:28.000Z</time>
      </trkpt>
      <trkpt lat="45.1972" lon="6.40781">
        <ele>1816.8000488281</ele>
        <time>2022-12-17T13:04:35.000Z</time>
      </trkpt>
      <trkpt lat="45.19724" lon="6.40789">
        <ele>1816</ele>
        <time>2022-12-17T13:04:39.000Z</time>
      </trkpt>
      <trkpt lat="45.19726" lon="6.40797">
        <ele>1815.5999755859</ele>
        <time>2022-12-17T13:04:42.000Z</time>
      </trkpt>
      <trkpt lat="45.19731" lon="6.40815">
        <ele>1814.8000488281</ele>
        <time>2022-12-17T13:04:48.000Z</time>
      </trkpt>
      <trkpt lat="45.19738" lon="6.40836">
        <ele>1813.8000488281</ele>
        <time>2022-12-17T13:04:54.000Z</time>
      </trkpt>
      <trkpt lat="45.1974" lon="6.40839">
        <ele>1813.5999755859</ele>
        <time>2022-12-17T13:04:55.000Z</time>
      </trkpt>
      <trkpt lat="45.19744" lon="6.40849">
        <ele>1812.8000488281</ele>
        <time>2022-12-17T13:04:58.000Z</time>
      </trkpt>
      <trkpt lat="45.19749" lon="6.40859">
        <ele>1812</ele>
        <time>2022-12-17T13:05:01.000Z</time>
      </trkpt>
      <trkpt lat="45.19753" lon="6.40868">
        <ele>1811.4000244141</ele>
        <time>2022-12-17T13:05:04.000Z</time>
      </trkpt>
      <trkpt lat="45.19757" lon="6.40874">
        <ele>1811</ele>
        <time>2022-12-17T13:05:06.000Z</time>
      </trkpt>
      <trkpt lat="45.19762" lon="6.40886">
        <ele>1810.5999755859</ele>
        <time>2022-12-17T13:05:10.000Z</time>
      </trkpt>
      <trkpt lat="45.19763" lon="6.40889">
        <ele>1810.4000244141</ele>
        <time>2022-12-17T13:05:11.000Z</time>
      </trkpt>
      <trkpt lat="45.19764" lon="6.40891">
        <ele>1810.4000244141</ele>
        <time>2022-12-17T13:05:12.000Z</time>
      </trkpt>
      <trkpt lat="45.19766" lon="6.40901">
        <ele>1809.8000488281</ele>
        <time>2022-12-17T13:05:16.000Z</time>
      </trkpt>
      <trkpt lat="45.19767" lon="6.40905">
        <ele>1809.5999755859</ele>
        <time>2022-12-17T13:05:18.000Z</time>
      </trkpt>
      <trkpt lat="45.19769" lon="6.40911">
        <ele>1809.4000244141</ele>
        <time>2022-12-17T13:05:21.000Z</time>
      </trkpt>
      <trkpt lat="45.19771" lon="6.40915">
        <ele>1809.1999511719</ele>
        <time>2022-12-17T13:05:23.000Z</time>
      </trkpt>
      <trkpt lat="45.19772" lon="6.40917">
        <ele>1809.1999511719</ele>
        <time>2022-12-17T13:05:24.000Z</time>
      </trkpt>
      <trkpt lat="45.19776" lon="6.40927">
        <ele>1808.4000244141</ele>
        <time>2022-12-17T13:05:29.000Z</time>
      </trkpt>
      <trkpt lat="45.19779" lon="6.40935">
        <ele>1808</ele>
        <time>2022-12-17T13:05:33.000Z</time>
      </trkpt>
      <trkpt lat="45.19785" lon="6.40952">
        <ele>1807.1999511719</ele>
        <time>2022-12-17T13:05:40.000Z</time>
      </trkpt>
      <trkpt lat="45.19787" lon="6.40954">
        <ele>1807.1999511719</ele>
        <time>2022-12-17T13:05:41.000Z</time>
      </trkpt>
      <trkpt lat="45.19797" lon="6.40964">
        <ele>1806.1999511719</ele>
        <time>2022-12-17T13:05:47.000Z</time>
      </trkpt>
      <trkpt lat="45.19804" lon="6.40971">
        <ele>1806</ele>
        <time>2022-12-17T13:05:50.000Z</time>
      </trkpt>
      <trkpt lat="45.19808" lon="6.40975">
        <ele>1805.5999755859</ele>
        <time>2022-12-17T13:05:52.000Z</time>
      </trkpt>
      <trkpt lat="45.19817" lon="6.40983">
        <ele>1805</ele>
        <time>2022-12-17T13:05:56.000Z</time>
      </trkpt>
      <trkpt lat="45.19829" lon="6.40991">
        <ele>1803.8000488281</ele>
        <time>2022-12-17T13:06:02.000Z</time>
      </trkpt>
      <trkpt lat="45.19842" lon="6.41002">
        <ele>1802.8000488281</ele>
        <time>2022-12-17T13:06:09.000Z</time>
      </trkpt>
      <trkpt lat="45.19844" lon="6.41004">
        <ele>1802.8000488281</ele>
        <time>2022-12-17T13:06:10.000Z</time>
      </trkpt>
      <trkpt lat="45.19854" lon="6.41017">
        <ele>1801.8000488281</ele>
        <time>2022-12-17T13:06:16.000Z</time>
      </trkpt>
      <trkpt lat="45.19855" lon="6.41019">
        <ele>1801.8000488281</ele>
        <time>2022-12-17T13:06:17.000Z</time>
      </trkpt>
      <trkpt lat="45.19861" lon="6.41035">
        <ele>1800.8000488281</ele>
        <time>2022-12-17T13:06:22.000Z</time>
      </trkpt>
      <trkpt lat="45.19863" lon="6.41041">
        <ele>1800.5999755859</ele>
        <time>2022-12-17T13:06:24.000Z</time>
      </trkpt>
      <trkpt lat="45.19865" lon="6.41045">
        <ele>1800.1999511719</ele>
        <time>2022-12-17T13:06:26.000Z</time>
      </trkpt>
      <trkpt lat="45.1987" lon="6.41054">
        <ele>1799.8000488281</ele>
        <time>2022-12-17T13:06:30.000Z</time>
      </trkpt>
      <trkpt lat="45.19872" lon="6.41058">
        <ele>1799.5999755859</ele>
        <time>2022-12-17T13:06:31.000Z</time>
      </trkpt>
      <trkpt lat="45.19873" lon="6.4106">
        <ele>1799.4000244141</ele>
        <time>2022-12-17T13:06:32.000Z</time>
      </trkpt>
      <trkpt lat="45.19878" lon="6.41068">
        <ele>1799.1999511719</ele>
        <time>2022-12-17T13:06:35.000Z</time>
      </trkpt>
      <trkpt lat="45.1988" lon="6.4107">
        <ele>1799</ele>
        <time>2022-12-17T13:06:36.000Z</time>
      </trkpt>
      <trkpt lat="45.19887" lon="6.41077">
        <ele>1798.4000244141</ele>
        <time>2022-12-17T13:06:39.000Z</time>
      </trkpt>
      <trkpt lat="45.19893" lon="6.41084">
        <ele>1798.1999511719</ele>
        <time>2022-12-17T13:06:42.000Z</time>
      </trkpt>
      <trkpt lat="45.19896" lon="6.41087">
        <ele>1798</ele>
        <time>2022-12-17T13:06:44.000Z</time>
      </trkpt>
      <trkpt lat="45.19901" lon="6.41092">
        <ele>1797.5999755859</ele>
        <time>2022-12-17T13:06:47.000Z</time>
      </trkpt>
      <trkpt lat="45.19904" lon="6.41095">
        <ele>1797.4000244141</ele>
        <time>2022-12-17T13:06:49.000Z</time>
      </trkpt>
      <trkpt lat="45.19906" lon="6.41097">
        <ele>1797.1999511719</ele>
        <time>2022-12-17T13:06:51.000Z</time>
      </trkpt>
      <trkpt lat="45.1991" lon="6.411">
        <ele>1796.8000488281</ele>
        <time>2022-12-17T13:06:56.000Z</time>
      </trkpt>
      <trkpt lat="45.19917" lon="6.41104">
        <ele>1796.4000244141</ele>
        <time>2022-12-17T13:07:04.000Z</time>
      </trkpt>
      <trkpt lat="45.19919" lon="6.41105">
        <ele>1796.1999511719</ele>
        <time>2022-12-17T13:07:09.000Z</time>
      </trkpt>
      <trkpt lat="45.19922" lon="6.41104">
        <ele>1796</ele>
        <time>2022-12-17T13:07:20.000Z</time>
      </trkpt>
      <trkpt lat="45.19922" lon="6.41104">
        <ele>1796</ele>
        <time>2022-12-17T13:07:25.000Z</time>
      </trkpt>
      <trkpt lat="45.1992" lon="6.41105">
        <ele>1795.8000488281</ele>
        <time>2022-12-17T13:07:46.000Z</time>
      </trkpt>
      <trkpt lat="45.19917" lon="6.41105">
        <ele>1795.8000488281</ele>
        <time>2022-12-17T13:07:52.000Z</time>
      </trkpt>
      <trkpt lat="45.19916" lon="6.41105">
        <ele>1795.8000488281</ele>
        <time>2022-12-17T13:07:57.000Z</time>
      </trkpt>
      <trkpt lat="45.19916" lon="6.41107">
        <ele>1796.1999511719</ele>
        <time>2022-12-17T13:08:04.000Z</time>
      </trkpt>
      <trkpt lat="45.19919" lon="6.41109">
        <ele>1796</ele>
        <time>2022-12-17T13:08:07.000Z</time>
      </trkpt>
      <trkpt lat="45.19928" lon="6.41114">
        <ele>1795.8000488281</ele>
        <time>2022-12-17T13:08:13.000Z</time>
      </trkpt>
      <trkpt lat="45.19935" lon="6.41117">
        <ele>1795.5999755859</ele>
        <time>2022-12-17T13:08:16.000Z</time>
      </trkpt>
      <trkpt lat="45.1994" lon="6.41119">
        <ele>1795.4000244141</ele>
        <time>2022-12-17T13:08:18.000Z</time>
      </trkpt>
      <trkpt lat="45.19944" lon="6.41122">
        <ele>1795.1999511719</ele>
        <time>2022-12-17T13:08:21.000Z</time>
      </trkpt>
      <trkpt lat="45.1995" lon="6.41124">
        <ele>1795</ele>
        <time>2022-12-17T13:08:24.000Z</time>
      </trkpt>
      <trkpt lat="45.19951" lon="6.41124">
        <ele>1795</ele>
        <time>2022-12-17T13:08:25.000Z</time>
      </trkpt>
      <trkpt lat="45.19955" lon="6.41127">
        <ele>1794.8000488281</ele>
        <time>2022-12-17T13:08:27.000Z</time>
      </trkpt>
      <trkpt lat="45.19957" lon="6.41129">
        <ele>1794.8000488281</ele>
        <time>2022-12-17T13:08:28.000Z</time>
      </trkpt>
      <trkpt lat="45.19961" lon="6.4113">
        <ele>1794.5999755859</ele>
        <time>2022-12-17T13:08:30.000Z</time>
      </trkpt>
      <trkpt lat="45.19963" lon="6.41132">
        <ele>1794.4000244141</ele>
        <time>2022-12-17T13:08:31.000Z</time>
      </trkpt>
      <trkpt lat="45.19965" lon="6.41133">
        <ele>1794.1999511719</ele>
        <time>2022-12-17T13:08:32.000Z</time>
      </trkpt>
      <trkpt lat="45.19976" lon="6.41146">
        <ele>1793.8000488281</ele>
        <time>2022-12-17T13:08:38.000Z</time>
      </trkpt>
      <trkpt lat="45.1998" lon="6.41156">
        <ele>1793.4000244141</ele>
        <time>2022-12-17T13:08:41.000Z</time>
      </trkpt>
      <trkpt lat="45.19983" lon="6.4116">
        <ele>1793.1999511719</ele>
        <time>2022-12-17T13:08:44.000Z</time>
      </trkpt>
      <trkpt lat="45.19992" lon="6.41169">
        <ele>1793</ele>
        <time>2022-12-17T13:08:50.000Z</time>
      </trkpt>
      <trkpt lat="45.19996" lon="6.41171">
        <ele>1792.8000488281</ele>
        <time>2022-12-17T13:08:52.000Z</time>
      </trkpt>
      <trkpt lat="45.19999" lon="6.41171">
        <ele>1792.4000244141</ele>
        <time>2022-12-17T13:08:55.000Z</time>
      </trkpt>
      <trkpt lat="45.2" lon="6.4117">
        <ele>1792.4000244141</ele>
        <time>2022-12-17T13:08:56.000Z</time>
      </trkpt>
      <trkpt lat="45.2" lon="6.41169">
        <ele>1792.4000244141</ele>
        <time>2022-12-17T13:08:57.000Z</time>
      </trkpt>
      <trkpt lat="45.2" lon="6.41168">
        <ele>1792.4000244141</ele>
        <time>2022-12-17T13:08:58.000Z</time>
      </trkpt>
      <trkpt lat="45.20002" lon="6.41168">
        <ele>1792.1999511719</ele>
        <time>2022-12-17T13:09:00.000Z</time>
      </trkpt>
      <trkpt lat="45.20003" lon="6.41166">
        <ele>1792</ele>
        <time>2022-12-17T13:09:02.000Z</time>
      </trkpt>
      <trkpt lat="45.20002" lon="6.41161">
        <ele>1792</ele>
        <time>2022-12-17T13:09:07.000Z</time>
      </trkpt>
      <trkpt lat="45.20005" lon="6.41154">
        <ele>1791.8000488281</ele>
        <time>2022-12-17T13:09:12.000Z</time>
      </trkpt>
      <trkpt lat="45.20006" lon="6.41151">
        <ele>1791.8000488281</ele>
        <time>2022-12-17T13:09:14.000Z</time>
      </trkpt>
      <trkpt lat="45.20007" lon="6.41149">
        <ele>1791.5999755859</ele>
        <time>2022-12-17T13:09:16.000Z</time>
      </trkpt>
      <trkpt lat="45.20008" lon="6.41148">
        <ele>1791.5999755859</ele>
        <time>2022-12-17T13:09:17.000Z</time>
      </trkpt>
      <trkpt lat="45.2001" lon="6.41145">
        <ele>1791.5999755859</ele>
        <time>2022-12-17T13:09:20.000Z</time>
      </trkpt>
      <trkpt lat="45.2001" lon="6.41143">
        <ele>1791.4000244141</ele>
        <time>2022-12-17T13:09:22.000Z</time>
      </trkpt>
      <trkpt lat="45.2001" lon="6.41142">
        <ele>1791.4000244141</ele>
        <time>2022-12-17T13:09:23.000Z</time>
      </trkpt>
      <trkpt lat="45.20013" lon="6.41138">
        <ele>1791.1999511719</ele>
        <time>2022-12-17T13:09:27.000Z</time>
      </trkpt>
      <trkpt lat="45.20014" lon="6.41135">
        <ele>1791.1999511719</ele>
        <time>2022-12-17T13:09:29.000Z</time>
      </trkpt>
      <trkpt lat="45.20022" lon="6.41123">
        <ele>1790.8000488281</ele>
        <time>2022-12-17T13:09:34.000Z</time>
      </trkpt>
      <trkpt lat="45.20028" lon="6.41116">
        <ele>1790.1999511719</ele>
        <time>2022-12-17T13:09:37.000Z</time>
      </trkpt>
      <trkpt lat="45.20036" lon="6.41107">
        <ele>1789.4000244141</ele>
        <time>2022-12-17T13:09:41.000Z</time>
      </trkpt>
      <trkpt lat="45.20039" lon="6.41103">
        <ele>1789</ele>
        <time>2022-12-17T13:09:43.000Z</time>
      </trkpt>
      <trkpt lat="45.20048" lon="6.41097">
        <ele>1788.5999755859</ele>
        <time>2022-12-17T13:09:47.000Z</time>
      </trkpt>
      <trkpt lat="45.20058" lon="6.41093">
        <ele>1788</ele>
        <time>2022-12-17T13:09:51.000Z</time>
      </trkpt>
      <trkpt lat="45.20067" lon="6.41093">
        <ele>1787.4000244141</ele>
        <time>2022-12-17T13:09:55.000Z</time>
      </trkpt>
      <trkpt lat="45.20081" lon="6.41093">
        <ele>1787</ele>
        <time>2022-12-17T13:10:01.000Z</time>
      </trkpt>
      <trkpt lat="45.20089" lon="6.41095">
        <ele>1786.5999755859</ele>
        <time>2022-12-17T13:10:05.000Z</time>
      </trkpt>
      <trkpt lat="45.20101" lon="6.411">
        <ele>1785.8000488281</ele>
        <time>2022-12-17T13:10:10.000Z</time>
      </trkpt>
      <trkpt lat="45.20112" lon="6.41104">
        <ele>1785</ele>
        <time>2022-12-17T13:10:13.000Z</time>
      </trkpt>
      <trkpt lat="45.20115" lon="6.41105">
        <ele>1784.8000488281</ele>
        <time>2022-12-17T13:10:14.000Z</time>
      </trkpt>
      <trkpt lat="45.20128" lon="6.41113">
        <ele>1784</ele>
        <time>2022-12-17T13:10:18.000Z</time>
      </trkpt>
      <trkpt lat="45.20131" lon="6.41115">
        <ele>1783.8000488281</ele>
        <time>2022-12-17T13:10:19.000Z</time>
      </trkpt>
      <trkpt lat="45.20144" lon="6.41117">
        <ele>1782.5999755859</ele>
        <time>2022-12-17T13:10:22.000Z</time>
      </trkpt>
      <trkpt lat="45.20157" lon="6.41115">
        <ele>1781.1999511719</ele>
        <time>2022-12-17T13:10:25.000Z</time>
      </trkpt>
      <trkpt lat="45.20177" lon="6.41118">
        <ele>1780</ele>
        <time>2022-12-17T13:10:29.000Z</time>
      </trkpt>
      <trkpt lat="45.20185" lon="6.41119">
        <ele>1779</ele>
        <time>2022-12-17T13:10:31.000Z</time>
      </trkpt>
      <trkpt lat="45.20189" lon="6.4112">
        <ele>1778.8000488281</ele>
        <time>2022-12-17T13:10:32.000Z</time>
      </trkpt>
      <trkpt lat="45.20193" lon="6.41121">
        <ele>1778.4000244141</ele>
        <time>2022-12-17T13:10:33.000Z</time>
      </trkpt>
      <trkpt lat="45.20207" lon="6.41126">
        <ele>1777.5999755859</ele>
        <time>2022-12-17T13:10:37.000Z</time>
      </trkpt>
      <trkpt lat="45.20228" lon="6.4114">
        <ele>1776.1999511719</ele>
        <time>2022-12-17T13:10:42.000Z</time>
      </trkpt>
      <trkpt lat="45.20235" lon="6.41147">
        <ele>1775.8000488281</ele>
        <time>2022-12-17T13:10:44.000Z</time>
      </trkpt>
      <trkpt lat="45.2024" lon="6.4115">
        <ele>1775.4000244141</ele>
        <time>2022-12-17T13:10:45.000Z</time>
      </trkpt>
      <trkpt lat="45.20246" lon="6.41158">
        <ele>1775</ele>
        <time>2022-12-17T13:10:47.000Z</time>
      </trkpt>
      <trkpt lat="45.20249" lon="6.41162">
        <ele>1774.5999755859</ele>
        <time>2022-12-17T13:10:48.000Z</time>
      </trkpt>
      <trkpt lat="45.20261" lon="6.41173">
        <ele>1773.8000488281</ele>
        <time>2022-12-17T13:10:51.000Z</time>
      </trkpt>
      <trkpt lat="45.2027" lon="6.41178">
        <ele>1772.8000488281</ele>
        <time>2022-12-17T13:10:53.000Z</time>
      </trkpt>
      <trkpt lat="45.20275" lon="6.4118">
        <ele>1772.4000244141</ele>
        <time>2022-12-17T13:10:54.000Z</time>
      </trkpt>
      <trkpt lat="45.20284" lon="6.41185">
        <ele>1771.5999755859</ele>
        <time>2022-12-17T13:10:56.000Z</time>
      </trkpt>
      <trkpt lat="45.20303" lon="6.41194">
        <ele>1770.1999511719</ele>
        <time>2022-12-17T13:11:00.000Z</time>
      </trkpt>
      <trkpt lat="45.20307" lon="6.41196">
        <ele>1770</ele>
        <time>2022-12-17T13:11:01.000Z</time>
      </trkpt>
      <trkpt lat="45.20319" lon="6.41203">
        <ele>1769.1999511719</ele>
        <time>2022-12-17T13:11:04.000Z</time>
      </trkpt>
      <trkpt lat="45.20323" lon="6.41205">
        <ele>1768.8000488281</ele>
        <time>2022-12-17T13:11:05.000Z</time>
      </trkpt>
      <trkpt lat="45.20327" lon="6.41208">
        <ele>1768.4000244141</ele>
        <time>2022-12-17T13:11:06.000Z</time>
      </trkpt>
      <trkpt lat="45.20332" lon="6.41211">
        <ele>1768.1999511719</ele>
        <time>2022-12-17T13:11:07.000Z</time>
      </trkpt>
      <trkpt lat="45.20336" lon="6.41215">
        <ele>1767.8000488281</ele>
        <time>2022-12-17T13:11:08.000Z</time>
      </trkpt>
      <trkpt lat="45.20342" lon="6.41225">
        <ele>1767.4000244141</ele>
        <time>2022-12-17T13:11:10.000Z</time>
      </trkpt>
      <trkpt lat="45.20344" lon="6.4123">
        <ele>1766.8000488281</ele>
        <time>2022-12-17T13:11:11.000Z</time>
      </trkpt>
      <trkpt lat="45.20349" lon="6.41242">
        <ele>1766</ele>
        <time>2022-12-17T13:11:13.000Z</time>
      </trkpt>
      <trkpt lat="45.20353" lon="6.41247">
        <ele>1765.8000488281</ele>
        <time>2022-12-17T13:11:14.000Z</time>
      </trkpt>
      <trkpt lat="45.20368" lon="6.41269">
        <ele>1764.4000244141</ele>
        <time>2022-12-17T13:11:18.000Z</time>
      </trkpt>
      <trkpt lat="45.20373" lon="6.41274">
        <ele>1764</ele>
        <time>2022-12-17T13:11:19.000Z</time>
      </trkpt>
      <trkpt lat="45.20383" lon="6.41284">
        <ele>1762.8000488281</ele>
        <time>2022-12-17T13:11:21.000Z</time>
      </trkpt>
      <trkpt lat="45.20394" lon="6.41293">
        <ele>1761.4000244141</ele>
        <time>2022-12-17T13:11:23.000Z</time>
      </trkpt>
      <trkpt lat="45.20406" lon="6.41302">
        <ele>1760</ele>
        <time>2022-12-17T13:11:25.000Z</time>
      </trkpt>
      <trkpt lat="45.20419" lon="6.41311">
        <ele>1758.1999511719</ele>
        <time>2022-12-17T13:11:27.000Z</time>
      </trkpt>
      <trkpt lat="45.20425" lon="6.41316">
        <ele>1757.4000244141</ele>
        <time>2022-12-17T13:11:28.000Z</time>
      </trkpt>
      <trkpt lat="45.20431" lon="6.41321">
        <ele>1756.4000244141</ele>
        <time>2022-12-17T13:11:29.000Z</time>
      </trkpt>
      <trkpt lat="45.20443" lon="6.41331">
        <ele>1754.4000244141</ele>
        <time>2022-12-17T13:11:31.000Z</time>
      </trkpt>
      <trkpt lat="45.20449" lon="6.41336">
        <ele>1753.5999755859</ele>
        <time>2022-12-17T13:11:32.000Z</time>
      </trkpt>
      <trkpt lat="45.20455" lon="6.41341">
        <ele>1753.1999511719</ele>
        <time>2022-12-17T13:11:33.000Z</time>
      </trkpt>
      <trkpt lat="45.20461" lon="6.41346">
        <ele>1752.1999511719</ele>
        <time>2022-12-17T13:11:34.000Z</time>
      </trkpt>
      <trkpt lat="45.20467" lon="6.4135">
        <ele>1751.5999755859</ele>
        <time>2022-12-17T13:11:35.000Z</time>
      </trkpt>
      <trkpt lat="45.2048" lon="6.41357">
        <ele>1750.1999511719</ele>
        <time>2022-12-17T13:11:37.000Z</time>
      </trkpt>
      <trkpt lat="45.20494" lon="6.41363">
        <ele>1748.5999755859</ele>
        <time>2022-12-17T13:11:39.000Z</time>
      </trkpt>
      <trkpt lat="45.205" lon="6.41366">
        <ele>1748</ele>
        <time>2022-12-17T13:11:40.000Z</time>
      </trkpt>
      <trkpt lat="45.20507" lon="6.41367">
        <ele>1747.1999511719</ele>
        <time>2022-12-17T13:11:41.000Z</time>
      </trkpt>
      <trkpt lat="45.20521" lon="6.41372">
        <ele>1745.8000488281</ele>
        <time>2022-12-17T13:11:43.000Z</time>
      </trkpt>
      <trkpt lat="45.20537" lon="6.41376">
        <ele>1744</ele>
        <time>2022-12-17T13:11:45.000Z</time>
      </trkpt>
      <trkpt lat="45.20553" lon="6.4138">
        <ele>1742.1999511719</ele>
        <time>2022-12-17T13:11:47.000Z</time>
      </trkpt>
      <trkpt lat="45.20561" lon="6.41383">
        <ele>1741</ele>
        <time>2022-12-17T13:11:48.000Z</time>
      </trkpt>
      <trkpt lat="45.20569" lon="6.41387">
        <ele>1740</ele>
        <time>2022-12-17T13:11:49.000Z</time>
      </trkpt>
      <trkpt lat="45.20583" lon="6.41397">
        <ele>1738.1999511719</ele>
        <time>2022-12-17T13:11:51.000Z</time>
      </trkpt>
      <trkpt lat="45.20598" lon="6.41406">
        <ele>1736.5999755859</ele>
        <time>2022-12-17T13:11:53.000Z</time>
      </trkpt>
      <trkpt lat="45.20613" lon="6.41412">
        <ele>1735.4000244141</ele>
        <time>2022-12-17T13:11:55.000Z</time>
      </trkpt>
      <trkpt lat="45.20621" lon="6.41415">
        <ele>1734.5999755859</ele>
        <time>2022-12-17T13:11:56.000Z</time>
      </trkpt>
      <trkpt lat="45.2063" lon="6.41417">
        <ele>1733.8000488281</ele>
        <time>2022-12-17T13:11:57.000Z</time>
      </trkpt>
      <trkpt lat="45.20638" lon="6.41419">
        <ele>1732.8000488281</ele>
        <time>2022-12-17T13:11:58.000Z</time>
      </trkpt>
      <trkpt lat="45.20654" lon="6.41423">
        <ele>1730.1999511719</ele>
        <time>2022-12-17T13:12:00.000Z</time>
      </trkpt>
      <trkpt lat="45.20662" lon="6.41424">
        <ele>1729.1999511719</ele>
        <time>2022-12-17T13:12:01.000Z</time>
      </trkpt>
      <trkpt lat="45.20669" lon="6.41427">
        <ele>1728.8000488281</ele>
        <time>2022-12-17T13:12:02.000Z</time>
      </trkpt>
      <trkpt lat="45.20677" lon="6.4143">
        <ele>1727.5999755859</ele>
        <time>2022-12-17T13:12:03.000Z</time>
      </trkpt>
      <trkpt lat="45.2069" lon="6.41436">
        <ele>1726</ele>
        <time>2022-12-17T13:12:05.000Z</time>
      </trkpt>
      <trkpt lat="45.20697" lon="6.4144">
        <ele>1725.4000244141</ele>
        <time>2022-12-17T13:12:06.000Z</time>
      </trkpt>
      <trkpt lat="45.20703" lon="6.41446">
        <ele>1724.4000244141</ele>
        <time>2022-12-17T13:12:07.000Z</time>
      </trkpt>
      <trkpt lat="45.20712" lon="6.41459">
        <ele>1723.4000244141</ele>
        <time>2022-12-17T13:12:09.000Z</time>
      </trkpt>
      <trkpt lat="45.20724" lon="6.41476">
        <ele>1722.4000244141</ele>
        <time>2022-12-17T13:12:13.000Z</time>
      </trkpt>
      <trkpt lat="45.20726" lon="6.4148">
        <ele>1722.1999511719</ele>
        <time>2022-12-17T13:12:14.000Z</time>
      </trkpt>
      <trkpt lat="45.2074" lon="6.41499">
        <ele>1721.5999755859</ele>
        <time>2022-12-17T13:12:19.000Z</time>
      </trkpt>
      <trkpt lat="45.20742" lon="6.41503">
        <ele>1721.1999511719</ele>
        <time>2022-12-17T13:12:20.000Z</time>
      </trkpt>
      <trkpt lat="45.20744" lon="6.41506">
        <ele>1721</ele>
        <time>2022-12-17T13:12:21.000Z</time>
      </trkpt>
      <trkpt lat="45.2075" lon="6.41514">
        <ele>1720.5999755859</ele>
        <time>2022-12-17T13:12:25.000Z</time>
      </trkpt>
      <trkpt lat="45.20755" lon="6.41523">
        <ele>1720.8000488281</ele>
        <time>2022-12-17T13:12:33.000Z</time>
      </trkpt>
      <trkpt lat="45.20761" lon="6.41535">
        <ele>1720.4000244141</ele>
        <time>2022-12-17T13:12:40.000Z</time>
      </trkpt>
      <trkpt lat="45.20762" lon="6.4154">
        <ele>1720.4000244141</ele>
        <time>2022-12-17T13:12:42.000Z</time>
      </trkpt>
      <trkpt lat="45.20763" lon="6.41542">
        <ele>1720.1999511719</ele>
        <time>2022-12-17T13:12:43.000Z</time>
      </trkpt>
      <trkpt lat="45.20763" lon="6.41546">
        <ele>1720.1999511719</ele>
        <time>2022-12-17T13:12:45.000Z</time>
      </trkpt>
      <trkpt lat="45.20765" lon="6.41555">
        <ele>1719.8000488281</ele>
        <time>2022-12-17T13:12:49.000Z</time>
      </trkpt>
      <trkpt lat="45.20766" lon="6.41571">
        <ele>1718.8000488281</ele>
        <time>2022-12-17T13:12:53.000Z</time>
      </trkpt>
      <trkpt lat="45.20767" lon="6.4158">
        <ele>1718</ele>
        <time>2022-12-17T13:12:55.000Z</time>
      </trkpt>
      <trkpt lat="45.20768" lon="6.41583">
        <ele>1717.8000488281</ele>
        <time>2022-12-17T13:12:56.000Z</time>
      </trkpt>
      <trkpt lat="45.2077" lon="6.41599">
        <ele>1716.8000488281</ele>
        <time>2022-12-17T13:13:01.000Z</time>
      </trkpt>
      <trkpt lat="45.20769" lon="6.41603">
        <ele>1716.5999755859</ele>
        <time>2022-12-17T13:13:02.000Z</time>
      </trkpt>
      <trkpt lat="45.20768" lon="6.41605">
        <ele>1715.4000244141</ele>
        <time>2022-12-17T13:13:04.000Z</time>
      </trkpt>
      <trkpt lat="45.20767" lon="6.41605">
        <ele>1714.4000244141</ele>
        <time>2022-12-17T13:13:07.000Z</time>
      </trkpt>
      <trkpt lat="45.20767" lon="6.41605">
        <ele>1714.4000244141</ele>
        <time>2022-12-17T13:13:08.000Z</time>
      </trkpt>
      <trkpt lat="45.20767" lon="6.41605">
        <ele>1714.4000244141</ele>
        <time>2022-12-17T13:13:10.000Z</time>
      </trkpt>
      <trkpt lat="45.20766" lon="6.41604">
        <ele>1714.4000244141</ele>
        <time>2022-12-17T13:13:24.000Z</time>
      </trkpt>
      <trkpt lat="45.20764" lon="6.41602">
        <ele>1713.4000244141</ele>
        <time>2022-12-17T13:13:51.000Z</time>
      </trkpt>
      <trkpt lat="45.2076" lon="6.41613">
        <ele>1712.1999511719</ele>
        <time>2022-12-17T13:13:53.000Z</time>
      </trkpt>
      <trkpt lat="45.20757" lon="6.41621">
        <ele>1710.4000244141</ele>
        <time>2022-12-17T13:13:54.000Z</time>
      </trkpt>
      <trkpt lat="45.20753" lon="6.41629">
        <ele>1708.5999755859</ele>
        <time>2022-12-17T13:13:55.000Z</time>
      </trkpt>
      <trkpt lat="45.20748" lon="6.41638">
        <ele>1705.5999755859</ele>
        <time>2022-12-17T13:13:56.000Z</time>
      </trkpt>
      <trkpt lat="45.20743" lon="6.41649">
        <ele>1703.5999755859</ele>
        <time>2022-12-17T13:13:57.000Z</time>
      </trkpt>
      <trkpt lat="45.20738" lon="6.41656">
        <ele>1700.5999755859</ele>
        <time>2022-12-17T13:13:58.000Z</time>
      </trkpt>
      <trkpt lat="45.20734" lon="6.4166">
        <ele>1697.8000488281</ele>
        <time>2022-12-17T13:13:59.000Z</time>
      </trkpt>
      <trkpt lat="45.20732" lon="6.41661">
        <ele>1696.1999511719</ele>
        <time>2022-12-17T13:14:00.000Z</time>
      </trkpt>
      <trkpt lat="45.20731" lon="6.41661">
        <ele>1694.8000488281</ele>
        <time>2022-12-17T13:14:01.000Z</time>
      </trkpt>
      <trkpt lat="45.20731" lon="6.41661">
        <ele>1693.5999755859</ele>
        <time>2022-12-17T13:14:03.000Z</time>
      </trkpt>
      <trkpt lat="45.20731" lon="6.41661">
        <ele>1693.1999511719</ele>
        <time>2022-12-17T13:14:06.000Z</time>
      </trkpt>
      <trkpt lat="45.20731" lon="6.41662">
        <ele>1693.1999511719</ele>
        <time>2022-12-17T13:14:08.000Z</time>
      </trkpt>
      <trkpt lat="45.20729" lon="6.41664">
        <ele>1693.8000488281</ele>
        <time>2022-12-17T13:14:18.000Z</time>
      </trkpt>
      <trkpt lat="45.20727" lon="6.41666">
        <ele>1694</ele>
        <time>2022-12-17T13:14:20.000Z</time>
      </trkpt>
      <trkpt lat="45.20723" lon="6.41673">
        <ele>1693.4000244141</ele>
        <time>2022-12-17T13:14:22.000Z</time>
      </trkpt>
      <trkpt lat="45.20717" lon="6.41685">
        <ele>1691.5999755859</ele>
        <time>2022-12-17T13:14:24.000Z</time>
      </trkpt>
      <trkpt lat="45.20712" lon="6.41688">
        <ele>1689.8000488281</ele>
        <time>2022-12-17T13:14:25.000Z</time>
      </trkpt>
      <trkpt lat="45.20708" lon="6.41691">
        <ele>1688</ele>
        <time>2022-12-17T13:14:26.000Z</time>
      </trkpt>
      <trkpt lat="45.20705" lon="6.41695">
        <ele>1686.8000488281</ele>
        <time>2022-12-17T13:14:27.000Z</time>
      </trkpt>
      <trkpt lat="45.20703" lon="6.41701">
        <ele>1685.1999511719</ele>
        <time>2022-12-17T13:14:28.000Z</time>
      </trkpt>
      <trkpt lat="45.20701" lon="6.41708">
        <ele>1683.5999755859</ele>
        <time>2022-12-17T13:14:29.000Z</time>
      </trkpt>
      <trkpt lat="45.20698" lon="6.41715">
        <ele>1682.4000244141</ele>
        <time>2022-12-17T13:14:30.000Z</time>
      </trkpt>
      <trkpt lat="45.20695" lon="6.41722">
        <ele>1680.1999511719</ele>
        <time>2022-12-17T13:14:31.000Z</time>
      </trkpt>
      <trkpt lat="45.20691" lon="6.4173">
        <ele>1678.4000244141</ele>
        <time>2022-12-17T13:14:32.000Z</time>
      </trkpt>
      <trkpt lat="45.20688" lon="6.41737">
        <ele>1676.5999755859</ele>
        <time>2022-12-17T13:14:33.000Z</time>
      </trkpt>
      <trkpt lat="45.20684" lon="6.41744">
        <ele>1673.5999755859</ele>
        <time>2022-12-17T13:14:34.000Z</time>
      </trkpt>
      <trkpt lat="45.20681" lon="6.41752">
        <ele>1671.5999755859</ele>
        <time>2022-12-17T13:14:35.000Z</time>
      </trkpt>
      <trkpt lat="45.20678" lon="6.41758">
        <ele>1668.1999511719</ele>
        <time>2022-12-17T13:14:36.000Z</time>
      </trkpt>
      <trkpt lat="45.20673" lon="6.41763">
        <ele>1665.8000488281</ele>
        <time>2022-12-17T13:14:37.000Z</time>
      </trkpt>
      <trkpt lat="45.20668" lon="6.41765">
        <ele>1663</ele>
        <time>2022-12-17T13:14:38.000Z</time>
      </trkpt>
      <trkpt lat="45.20663" lon="6.41768">
        <ele>1660.1999511719</ele>
        <time>2022-12-17T13:14:39.000Z</time>
      </trkpt>
      <trkpt lat="45.2066" lon="6.41774">
        <ele>1658.8000488281</ele>
        <time>2022-12-17T13:14:40.000Z</time>
      </trkpt>
      <trkpt lat="45.20657" lon="6.41782">
        <ele>1656.5999755859</ele>
        <time>2022-12-17T13:14:41.000Z</time>
      </trkpt>
      <trkpt lat="45.20653" lon="6.41788">
        <ele>1654.5999755859</ele>
        <time>2022-12-17T13:14:42.000Z</time>
      </trkpt>
      <trkpt lat="45.20648" lon="6.41796">
        <ele>1651.8000488281</ele>
        <time>2022-12-17T13:14:43.000Z</time>
      </trkpt>
      <trkpt lat="45.20644" lon="6.41804">
        <ele>1649.1999511719</ele>
        <time>2022-12-17T13:14:44.000Z</time>
      </trkpt>
      <trkpt lat="45.2064" lon="6.41812">
        <ele>1646</ele>
        <time>2022-12-17T13:14:45.000Z</time>
      </trkpt>
      <trkpt lat="45.20635" lon="6.4182">
        <ele>1643.1999511719</ele>
        <time>2022-12-17T13:14:46.000Z</time>
      </trkpt>
      <trkpt lat="45.20631" lon="6.41829">
        <ele>1639.4000244141</ele>
        <time>2022-12-17T13:14:47.000Z</time>
      </trkpt>
      <trkpt lat="45.20627" lon="6.41839">
        <ele>1636.8000488281</ele>
        <time>2022-12-17T13:14:48.000Z</time>
      </trkpt>
      <trkpt lat="45.20621" lon="6.41846">
        <ele>1634</ele>
        <time>2022-12-17T13:14:49.000Z</time>
      </trkpt>
      <trkpt lat="45.20616" lon="6.41852">
        <ele>1631</ele>
        <time>2022-12-17T13:14:50.000Z</time>
      </trkpt>
      <trkpt lat="45.2061" lon="6.41855">
        <ele>1628.1999511719</ele>
        <time>2022-12-17T13:14:51.000Z</time>
      </trkpt>
      <trkpt lat="45.20606" lon="6.41858">
        <ele>1626</ele>
        <time>2022-12-17T13:14:52.000Z</time>
      </trkpt>
      <trkpt lat="45.20603" lon="6.41859">
        <ele>1624.1999511719</ele>
        <time>2022-12-17T13:14:53.000Z</time>
      </trkpt>
      <trkpt lat="45.206" lon="6.4186">
        <ele>1623.4000244141</ele>
        <time>2022-12-17T13:14:54.000Z</time>
      </trkpt>
      <trkpt lat="45.20597" lon="6.41861">
        <ele>1622.8000488281</ele>
        <time>2022-12-17T13:14:55.000Z</time>
      </trkpt>
      <trkpt lat="45.20591" lon="6.41863">
        <ele>1621.1999511719</ele>
        <time>2022-12-17T13:14:57.000Z</time>
      </trkpt>
      <trkpt lat="45.20587" lon="6.41868">
        <ele>1620.5999755859</ele>
        <time>2022-12-17T13:14:58.000Z</time>
      </trkpt>
      <trkpt lat="45.20584" lon="6.41873">
        <ele>1619</ele>
        <time>2022-12-17T13:14:59.000Z</time>
      </trkpt>
      <trkpt lat="45.2058" lon="6.41877">
        <ele>1617.4000244141</ele>
        <time>2022-12-17T13:15:00.000Z</time>
      </trkpt>
      <trkpt lat="45.20576" lon="6.41879">
        <ele>1615.5999755859</ele>
        <time>2022-12-17T13:15:01.000Z</time>
      </trkpt>
      <trkpt lat="45.20573" lon="6.4188">
        <ele>1613</ele>
        <time>2022-12-17T13:15:02.000Z</time>
      </trkpt>
      <trkpt lat="45.20572" lon="6.41881">
        <ele>1611.5999755859</ele>
        <time>2022-12-17T13:15:03.000Z</time>
      </trkpt>
      <trkpt lat="45.20571" lon="6.41882">
        <ele>1610.1999511719</ele>
        <time>2022-12-17T13:15:05.000Z</time>
      </trkpt>
      <trkpt lat="45.20569" lon="6.41888">
        <ele>1609.5999755859</ele>
        <time>2022-12-17T13:15:07.000Z</time>
      </trkpt>
      <trkpt lat="45.20568" lon="6.41893">
        <ele>1609</ele>
        <time>2022-12-17T13:15:08.000Z</time>
      </trkpt>
      <trkpt lat="45.20567" lon="6.41902">
        <ele>1607.5999755859</ele>
        <time>2022-12-17T13:15:10.000Z</time>
      </trkpt>
      <trkpt lat="45.20567" lon="6.41904">
        <ele>1606</ele>
        <time>2022-12-17T13:15:12.000Z</time>
      </trkpt>
      <trkpt lat="45.20566" lon="6.41905">
        <ele>1605.1999511719</ele>
        <time>2022-12-17T13:15:15.000Z</time>
      </trkpt>
      <trkpt lat="45.20566" lon="6.41905">
        <ele>1604.8000488281</ele>
        <time>2022-12-17T13:15:16.000Z</time>
      </trkpt>
      <trkpt lat="45.20565" lon="6.41905">
        <ele>1604.8000488281</ele>
        <time>2022-12-17T13:15:19.000Z</time>
      </trkpt>
      <trkpt lat="45.20567" lon="6.41903">
        <ele>1604.8000488281</ele>
        <time>2022-12-17T13:15:29.000Z</time>
      </trkpt>
      <trkpt lat="45.20569" lon="6.41912">
        <ele>1604.1999511719</ele>
        <time>2022-12-17T13:15:35.000Z</time>
      </trkpt>
      <trkpt lat="45.20569" lon="6.41914">
        <ele>1604</ele>
        <time>2022-12-17T13:15:36.000Z</time>
      </trkpt>
      <trkpt lat="45.2057" lon="6.41917">
        <ele>1604</ele>
        <time>2022-12-17T13:15:37.000Z</time>
      </trkpt>
      <trkpt lat="45.20572" lon="6.4192">
        <ele>1603.8000488281</ele>
        <time>2022-12-17T13:15:38.000Z</time>
      </trkpt>
      <trkpt lat="45.20579" lon="6.41929">
        <ele>1603.4000244141</ele>
        <time>2022-12-17T13:15:41.000Z</time>
      </trkpt>
      <trkpt lat="45.20582" lon="6.41934">
        <ele>1602.1999511719</ele>
        <time>2022-12-17T13:15:43.000Z</time>
      </trkpt>
      <trkpt lat="45.20583" lon="6.41936">
        <ele>1601.5999755859</ele>
        <time>2022-12-17T13:15:45.000Z</time>
      </trkpt>
      <trkpt lat="45.20584" lon="6.41936">
        <ele>1601</ele>
        <time>2022-12-17T13:15:47.000Z</time>
      </trkpt>
      <trkpt lat="45.20584" lon="6.41937">
        <ele>1600.4000244141</ele>
        <time>2022-12-17T13:15:50.000Z</time>
      </trkpt>
      <trkpt lat="45.20584" lon="6.41937">
        <ele>1600.1999511719</ele>
        <time>2022-12-17T13:15:57.000Z</time>
      </trkpt>
      <trkpt lat="45.20585" lon="6.41937">
        <ele>1600</ele>
        <time>2022-12-17T13:15:58.000Z</time>
      </trkpt>
      <trkpt lat="45.20585" lon="6.41937">
        <ele>1600</ele>
        <time>2022-12-17T13:16:00.000Z</time>
      </trkpt>
      <trkpt lat="45.20585" lon="6.41937">
        <ele>1600.1999511719</ele>
        <time>2022-12-17T13:16:03.000Z</time>
      </trkpt>
      <trkpt lat="45.20585" lon="6.41937">
        <ele>1600.8000488281</ele>
        <time>2022-12-17T13:16:08.000Z</time>
      </trkpt>
      <trkpt lat="45.20585" lon="6.41937">
        <ele>1601.1999511719</ele>
        <time>2022-12-17T13:16:16.000Z</time>
      </trkpt>
      <trkpt lat="45.20586" lon="6.41937">
        <ele>1601.1999511719</ele>
        <time>2022-12-17T13:16:24.000Z</time>
      </trkpt>
      <trkpt lat="45.20586" lon="6.41938">
        <ele>1601.1999511719</ele>
        <time>2022-12-17T13:16:34.000Z</time>
      </trkpt>
      <trkpt lat="45.20584" lon="6.41938">
        <ele>1601</ele>
        <time>2022-12-17T13:16:51.000Z</time>
      </trkpt>
      <trkpt lat="45.20584" lon="6.41938">
        <ele>1601.1999511719</ele>
        <time>2022-12-17T13:16:55.000Z</time>
      </trkpt>
      <trkpt lat="45.20584" lon="6.41938">
        <ele>1601.1999511719</ele>
        <time>2022-12-17T13:16:56.000Z</time>
      </trkpt>
      <trkpt lat="45.20587" lon="6.41941">
        <ele>1601.5999755859</ele>
        <time>2022-12-17T13:17:00.000Z</time>
      </trkpt>
      <trkpt lat="45.20589" lon="6.41943">
        <ele>1601.8000488281</ele>
        <time>2022-12-17T13:17:02.000Z</time>
      </trkpt>
      <trkpt lat="45.2059" lon="6.41944">
        <ele>1601.8000488281</ele>
        <time>2022-12-17T13:17:03.000Z</time>
      </trkpt>
      <trkpt lat="45.20593" lon="6.41947">
        <ele>1602</ele>
        <time>2022-12-17T13:17:05.000Z</time>
      </trkpt>
      <trkpt lat="45.20599" lon="6.41954">
        <ele>1603.1999511719</ele>
        <time>2022-12-17T13:17:13.000Z</time>
      </trkpt>
      <trkpt lat="45.206" lon="6.41955">
        <ele>1603.1999511719</ele>
        <time>2022-12-17T13:17:14.000Z</time>
      </trkpt>
      <trkpt lat="45.20607" lon="6.41963">
        <ele>1604</ele>
        <time>2022-12-17T13:17:22.000Z</time>
      </trkpt>
      <trkpt lat="45.20608" lon="6.41965">
        <ele>1604.1999511719</ele>
        <time>2022-12-17T13:17:24.000Z</time>
      </trkpt>
      <trkpt lat="45.20609" lon="6.41966">
        <ele>1604.1999511719</ele>
        <time>2022-12-17T13:17:25.000Z</time>
      </trkpt>
      <trkpt lat="45.20611" lon="6.41969">
        <ele>1604.5999755859</ele>
        <time>2022-12-17T13:17:29.000Z</time>
      </trkpt>
      <trkpt lat="45.20613" lon="6.41973">
        <ele>1604.8000488281</ele>
        <time>2022-12-17T13:17:32.000Z</time>
      </trkpt>
      <trkpt lat="45.20617" lon="6.41976">
        <ele>1605.1999511719</ele>
        <time>2022-12-17T13:17:36.000Z</time>
      </trkpt>
      <trkpt lat="45.20621" lon="6.41981">
        <ele>1605.4000244141</ele>
        <time>2022-12-17T13:17:41.000Z</time>
      </trkpt>
      <trkpt lat="45.20629" lon="6.4199">
        <ele>1605.8000488281</ele>
        <time>2022-12-17T13:17:50.000Z</time>
      </trkpt>
      <trkpt lat="45.20631" lon="6.41991">
        <ele>1605.8000488281</ele>
        <time>2022-12-17T13:17:52.000Z</time>
      </trkpt>
      <trkpt lat="45.20637" lon="6.41996">
        <ele>1606</ele>
        <time>2022-12-17T13:17:57.000Z</time>
      </trkpt>
      <trkpt lat="45.20639" lon="6.41998">
        <ele>1606</ele>
        <time>2022-12-17T13:17:59.000Z</time>
      </trkpt>
      <trkpt lat="45.20642" lon="6.42004">
        <ele>1606.1999511719</ele>
        <time>2022-12-17T13:18:04.000Z</time>
      </trkpt>
      <trkpt lat="45.20647" lon="6.4201">
        <ele>1606.1999511719</ele>
        <time>2022-12-17T13:18:10.000Z</time>
      </trkpt>
      <trkpt lat="45.20648" lon="6.42011">
        <ele>1606.4000244141</ele>
        <time>2022-12-17T13:18:11.000Z</time>
      </trkpt>
      <trkpt lat="45.20648" lon="6.42013">
        <ele>1606.4000244141</ele>
        <time>2022-12-17T13:18:12.000Z</time>
      </trkpt>
      <trkpt lat="45.20649" lon="6.42014">
        <ele>1606.4000244141</ele>
        <time>2022-12-17T13:18:13.000Z</time>
      </trkpt>
      <trkpt lat="45.2065" lon="6.42015">
        <ele>1606.4000244141</ele>
        <time>2022-12-17T13:18:14.000Z</time>
      </trkpt>
      <trkpt lat="45.20654" lon="6.42022">
        <ele>1606.4000244141</ele>
        <time>2022-12-17T13:18:19.000Z</time>
      </trkpt>
      <trkpt lat="45.20665" lon="6.42032">
        <ele>1606.4000244141</ele>
        <time>2022-12-17T13:18:30.000Z</time>
      </trkpt>
      <trkpt lat="45.20673" lon="6.42035">
        <ele>1606.5999755859</ele>
        <time>2022-12-17T13:18:37.000Z</time>
      </trkpt>
      <trkpt lat="45.20682" lon="6.42041">
        <ele>1606.4000244141</ele>
        <time>2022-12-17T13:18:46.000Z</time>
      </trkpt>
      <trkpt lat="45.20687" lon="6.42044">
        <ele>1606.4000244141</ele>
        <time>2022-12-17T13:18:51.000Z</time>
      </trkpt>
      <trkpt lat="45.2069" lon="6.42046">
        <ele>1606.5999755859</ele>
        <time>2022-12-17T13:18:54.000Z</time>
      </trkpt>
      <trkpt lat="45.20697" lon="6.42048">
        <ele>1606.5999755859</ele>
        <time>2022-12-17T13:18:59.000Z</time>
      </trkpt>
      <trkpt lat="45.20699" lon="6.42048">
        <ele>1606.5999755859</ele>
        <time>2022-12-17T13:19:01.000Z</time>
      </trkpt>
      <trkpt lat="45.20712" lon="6.42051">
        <ele>1606.5999755859</ele>
        <time>2022-12-17T13:19:11.000Z</time>
      </trkpt>
      <trkpt lat="45.20713" lon="6.42051">
        <ele>1606.8000488281</ele>
        <time>2022-12-17T13:19:12.000Z</time>
      </trkpt>
      <trkpt lat="45.20715" lon="6.42051">
        <ele>1606.8000488281</ele>
        <time>2022-12-17T13:19:13.000Z</time>
      </trkpt>
      <trkpt lat="45.20723" lon="6.42052">
        <ele>1607</ele>
        <time>2022-12-17T13:19:21.000Z</time>
      </trkpt>
      <trkpt lat="45.20729" lon="6.42053">
        <ele>1607.4000244141</ele>
        <time>2022-12-17T13:19:27.000Z</time>
      </trkpt>
      <trkpt lat="45.20732" lon="6.42053">
        <ele>1607.1999511719</ele>
        <time>2022-12-17T13:19:30.000Z</time>
      </trkpt>
      <trkpt lat="45.20737" lon="6.42052">
        <ele>1607.4000244141</ele>
        <time>2022-12-17T13:19:38.000Z</time>
      </trkpt>
      <trkpt lat="45.20735" lon="6.42052">
        <ele>1607.1999511719</ele>
        <time>2022-12-17T13:19:47.000Z</time>
      </trkpt>
      <trkpt lat="45.20735" lon="6.42054">
        <ele>1607.1999511719</ele>
        <time>2022-12-17T13:19:56.000Z</time>
      </trkpt>
      <trkpt lat="45.20735" lon="6.42054">
        <ele>1608</ele>
        <time>2022-12-17T13:20:03.000Z</time>
      </trkpt>
      <trkpt lat="45.20735" lon="6.42055">
        <ele>1608</ele>
        <time>2022-12-17T13:20:15.000Z</time>
      </trkpt>
      <trkpt lat="45.20735" lon="6.42056">
        <ele>1608</ele>
        <time>2022-12-17T13:20:19.000Z</time>
      </trkpt>
      <trkpt lat="45.20735" lon="6.42055">
        <ele>1607</ele>
        <time>2022-12-17T13:20:41.000Z</time>
      </trkpt>
      <trkpt lat="45.20734" lon="6.42054">
        <ele>1607</ele>
        <time>2022-12-17T13:21:00.000Z</time>
      </trkpt>
      <trkpt lat="45.20734" lon="6.42054">
        <ele>1607</ele>
        <time>2022-12-17T13:21:04.000Z</time>
      </trkpt>
      <trkpt lat="45.20734" lon="6.42054">
        <ele>1607</ele>
        <time>2022-12-17T13:21:06.000Z</time>
      </trkpt>
      <trkpt lat="45.20734" lon="6.42054">
        <ele>1607</ele>
        <time>2022-12-17T13:21:12.000Z</time>
      </trkpt>
      <trkpt lat="45.20734" lon="6.42054">
        <ele>1607</ele>
        <time>2022-12-17T13:21:14.000Z</time>
      </trkpt>
      <trkpt lat="45.20734" lon="6.42054">
        <ele>1607</ele>
        <time>2022-12-17T13:21:21.000Z</time>
      </trkpt>
    </trkseg>
  </trk>
</gpx>